Wetterdaten: Donnerstag, 07.06.2018
Datum Zeit Temp. A. Pool Temp. Feuchte A. Luftdruck Regen Wind Richtung Richtung Sonnenschein ET UV Solar Taupunkt Windchill Windben Empfang
07.06.2018 00:00 17,5 C 25,0 C 84 % 1012,0 hPa 0,0 l/m 3,5 km/h (1 Bft) O 88 0 min 0,000 mm 0,0 UV-I 0 W/m 14,8 C 17,5 C 4,8 km/h (1 Bft) 95,83 %
07.06.2018 00:01 17,6 C 25,0 C 84 % 1012,0 hPa 0,0 l/m 3,7 km/h (1 Bft) O 88 0 min 0,000 mm 0,0 UV-I 0 W/m 14,9 C 17,6 C 4,8 km/h (1 Bft) 93,33 %
07.06.2018 00:02 17,6 C 25,0 C 84 % 1012,1 hPa 0,0 l/m 3,2 km/h (1 Bft) O 88 0 min 0,000 mm 0,0 UV-I 0 W/m 14,9 C 17,6 C 4,8 km/h (1 Bft) 91,67 %
07.06.2018 00:03 17,6 C 25,0 C 84 % 1012,0 hPa 0,0 l/m 2,5 km/h (1 Bft) O 88 0 min 0,000 mm 0,0 UV-I 0 W/m 14,9 C 17,6 C 3,2 km/h (1 Bft) 100,00 %
07.06.2018 00:04 17,6 C 25,0 C 84 % 1012,0 hPa 0,0 l/m 4,3 km/h (1 Bft) O 79 0 min 0,000 mm 0,0 UV-I 0 W/m 14,9 C 17,6 C 8,0 km/h (2 Bft) 91,67 %
07.06.2018 00:05 17,6 C 25,0 C 84 % 1012,1 hPa 0,0 l/m 5,0 km/h (1 Bft) O 84 0 min 0,000 mm 0,0 UV-I 0 W/m 14,9 C 17,6 C 6,4 km/h (2 Bft) 96,15 %
07.06.2018 00:06 17,5 C 25,0 C 84 % 1012,1 hPa 0,0 l/m 4,0 km/h (1 Bft) O-NO 71 0 min 0,000 mm 0,0 UV-I 0 W/m 14,8 C 17,5 C 6,4 km/h (2 Bft) 91,67 %
07.06.2018 00:07 17,4 C 25,0 C 84 % 1012,1 hPa 0,0 l/m 3,9 km/h (1 Bft) O-NO 71 0 min 0,000 mm 0,0 UV-I 0 W/m 14,7 C 17,4 C 4,8 km/h (1 Bft) 96,15 %
07.06.2018 00:08 17,4 C 25,0 C 85 % 1012,1 hPa 0,0 l/m 2,3 km/h (1 Bft) O-NO 71 0 min 0,000 mm 0,0 UV-I 0 W/m 14,8 C 17,4 C 3,2 km/h (1 Bft) 100,00 %
07.06.2018 00:09 17,4 C 25,0 C 84 % 1012,1 hPa 0,0 l/m 2,1 km/h (1 Bft) O-NO 71 0 min 0,000 mm 0,0 UV-I 0 W/m 14,7 C 17,4 C 3,2 km/h (1 Bft) 86,96 %
07.06.2018 00:10 17,3 C 25,0 C 85 % 1012,1 hPa 0,0 l/m 3,0 km/h (1 Bft) O-NO 71 0 min 0,000 mm 0,0 UV-I 0 W/m 14,8 C 17,3 C 4,8 km/h (1 Bft) 100,00 %
07.06.2018 00:11 17,3 C 25,0 C 85 % 1012,2 hPa 0,0 l/m 3,0 km/h (1 Bft) O-NO 72 0 min 0,000 mm 0,0 UV-I 0 W/m 14,8 C 17,3 C 3,2 km/h (1 Bft) 91,67 %
07.06.2018 00:12 17,3 C 25,0 C 85 % 1012,1 hPa 0,0 l/m 1,7 km/h (1 Bft) O-NO 72 0 min 0,000 mm 0,0 UV-I 0 W/m 14,8 C 17,3 C 3,2 km/h (1 Bft) 100,00 %
07.06.2018 00:13 17,3 C 25,0 C 85 % 1012,1 hPa 0,0 l/m 2,6 km/h (1 Bft) O-NO 72 0 min 0,000 mm 0,0 UV-I 0 W/m 14,8 C 17,3 C 3,2 km/h (1 Bft) 95,83 %
07.06.2018 00:14 17,3 C 25,0 C 85 % 1012,2 hPa 0,0 l/m 2,4 km/h (1 Bft) O-NO 72 0 min 0,000 mm 0,0 UV-I 0 W/m 14,8 C 17,3 C 3,2 km/h (1 Bft) 100,00 %
07.06.2018 00:15 17,3 C 25,0 C 85 % 1012,2 hPa 0,0 l/m 2,3 km/h (1 Bft) O-NO 72 0 min 0,000 mm 0,0 UV-I 0 W/m 14,8 C 17,3 C 3,2 km/h (1 Bft) 95,83 %
07.06.2018 00:16 17,2 C 25,0 C 85 % 1012,1 hPa 0,0 l/m 3,0 km/h (1 Bft) O-NO 72 0 min 0,000 mm 0,0 UV-I 0 W/m 14,7 C 17,2 C 4,8 km/h (1 Bft) 100,00 %
07.06.2018 00:17 17,3 C 25,0 C 85 % 1012,1 hPa 0,0 l/m 2,9 km/h (1 Bft) O-NO 72 0 min 0,000 mm 0,0 UV-I 0 W/m 14,8 C 17,3 C 3,2 km/h (1 Bft) 91,67 %
07.06.2018 00:18 17,3 C 25,0 C 85 % 1012,1 hPa 0,0 l/m 3,2 km/h (1 Bft) SO 129 0 min 0,000 mm 0,0 UV-I 0 W/m 14,8 C 17,3 C 4,8 km/h (1 Bft) 95,65 %
07.06.2018 00:19 17,2 C 25,0 C 85 % 1012,1 hPa 0,0 l/m 4,1 km/h (1 Bft) S-SO 155 0 min 0,000 mm 0,0 UV-I 0 W/m 14,7 C 17,2 C 6,4 km/h (2 Bft) 91,67 %
07.06.2018 00:20 17,2 C 25,0 C 86 % 1012,1 hPa 0,0 l/m 2,2 km/h (1 Bft) S-SO 155 0 min 0,000 mm 0,0 UV-I 0 W/m 14,8 C 17,2 C 3,2 km/h (1 Bft) 95,65 %
07.06.2018 00:21 17,2 C 25,0 C 86 % 1012,1 hPa 0,0 l/m 4,1 km/h (1 Bft) SO 134 0 min 0,000 mm 0,0 UV-I 0 W/m 14,8 C 17,2 C 4,8 km/h (1 Bft) 95,83 %
07.06.2018 00:22 17,1 C 25,0 C 85 % 1012,1 hPa 0,0 l/m 3,9 km/h (1 Bft) SO 134 0 min 0,000 mm 0,0 UV-I 0 W/m 14,6 C 17,1 C 4,8 km/h (1 Bft) 95,65 %
07.06.2018 00:23 17,1 C 25,0 C 86 % 1012,1 hPa 0,0 l/m 5,9 km/h (2 Bft) O 91 0 min 0,000 mm 0,0 UV-I 0 W/m 14,7 C 17,1 C 9,7 km/h (2 Bft) 100,00 %
07.06.2018 00:24 17,1 C 25,0 C 87 % 1012,1 hPa 0,0 l/m 3,9 km/h (1 Bft) O 92 0 min 0,000 mm 0,0 UV-I 0 W/m 14,9 C 17,1 C 6,4 km/h (2 Bft) 95,83 %
07.06.2018 00:25 17,2 C 25,0 C 87 % 1012,1 hPa 0,0 l/m 4,2 km/h (1 Bft) O-NO 71 0 min 0,000 mm 0,0 UV-I 0 W/m 15,0 C 17,2 C 4,8 km/h (1 Bft) 95,65 %
07.06.2018 00:26 17,3 C 25,0 C 87 % 1012,1 hPa 0,0 l/m 6,2 km/h (2 Bft) O 94 0 min 0,000 mm 0,0 UV-I 0 W/m 15,1 C 17,3 C 9,7 km/h (2 Bft) 95,83 %
07.06.2018 00:27 17,5 C 25,0 C 87 % 1012,1 hPa 0,0 l/m 3,3 km/h (1 Bft) O 98 0 min 0,000 mm 0,0 UV-I 0 W/m 15,3 C 17,5 C 6,4 km/h (2 Bft) 96,15 %
07.06.2018 00:28 17,6 C 25,0 C 86 % 1012,1 hPa 0,0 l/m 2,9 km/h (1 Bft) O-SO 110 0 min 0,000 mm 0,0 UV-I 0 W/m 15,2 C 17,6 C 4,8 km/h (1 Bft) 91,67 %
07.06.2018 00:29 17,7 C 25,0 C 86 % 1012,1 hPa 0,0 l/m 4,5 km/h (1 Bft) O-SO 104 0 min 0,000 mm 0,0 UV-I 0 W/m 15,3 C 17,7 C 6,4 km/h (2 Bft) 100,00 %
07.06.2018 00:30 17,7 C 25,0 C 86 % 1012,1 hPa 0,0 l/m 4,8 km/h (1 Bft) SO 128 0 min 0,000 mm 0,0 UV-I 0 W/m 15,3 C 17,7 C 6,4 km/h (2 Bft) 95,83 %
07.06.2018 00:31 17,7 C 25,0 C 86 % 1012,1 hPa 0,0 l/m 4,3 km/h (1 Bft) O 101 0 min 0,000 mm 0,0 UV-I 0 W/m 15,3 C 17,7 C 9,7 km/h (2 Bft) 96,15 %
07.06.2018 00:32 17,8 C 25,0 C 86 % 1012,1 hPa 0,0 l/m 4,3 km/h (1 Bft) O-SO 107 0 min 0,000 mm 0,0 UV-I 0 W/m 15,4 C 17,8 C 6,4 km/h (2 Bft) 100,00 %
07.06.2018 00:33 17,8 C 25,0 C 86 % 1012,1 hPa 0,0 l/m 4,7 km/h (1 Bft) SO 132 0 min 0,000 mm 0,0 UV-I 0 W/m 15,4 C 17,8 C 8,0 km/h (2 Bft) 95,65 %
07.06.2018 00:34 17,8 C 25,0 C 86 % 1012,1 hPa 0,0 l/m 4,8 km/h (1 Bft) SO 132 0 min 0,000 mm 0,0 UV-I 0 W/m 15,4 C 17,8 C 6,4 km/h (2 Bft) 95,83 %
07.06.2018 00:35 17,8 C 25,0 C 86 % 1012,1 hPa 0,0 l/m 4,6 km/h (1 Bft) SO 132 0 min 0,000 mm 0,0 UV-I 0 W/m 15,4 C 17,8 C 6,4 km/h (2 Bft) 95,65 %
07.06.2018 00:36 17,9 C 25,0 C 85 % 1012,1 hPa 0,0 l/m 6,2 km/h (2 Bft) O-SO 107 0 min 0,000 mm 0,0 UV-I 0 W/m 15,3 C 17,9 C 9,7 km/h (2 Bft) 100,00 %
07.06.2018 00:37 17,9 C 25,0 C 85 % 1012,1 hPa 0,0 l/m 5,8 km/h (2 Bft) SO 128 0 min 0,000 mm 0,0 UV-I 0 W/m 15,3 C 17,9 C 9,7 km/h (2 Bft) 95,65 %
07.06.2018 00:38 17,9 C 25,0 C 85 % 1012,1 hPa 0,0 l/m 4,8 km/h (1 Bft) O 98 0 min 0,000 mm 0,0 UV-I 0 W/m 15,3 C 17,9 C 6,4 km/h (2 Bft) 100,00 %
07.06.2018 00:39 17,9 C 25,0 C 85 % 1012,1 hPa 0,0 l/m 5,2 km/h (1 Bft) O-SO 121 0 min 0,000 mm 0,0 UV-I 0 W/m 15,3 C 17,9 C 9,7 km/h (2 Bft) 95,65 %
07.06.2018 00:40 17,8 C 25,0 C 85 % 1012,1 hPa 0,0 l/m 6,9 km/h (2 Bft) O-SO 117 0 min 0,000 mm 0,0 UV-I 0 W/m 15,2 C 17,6 C 9,7 km/h (2 Bft) 95,83 %
07.06.2018 00:41 17,8 C 25,0 C 85 % 1012,1 hPa 0,0 l/m 6,8 km/h (2 Bft) O-SO 105 0 min 0,000 mm 0,0 UV-I 0 W/m 15,2 C 17,6 C 9,7 km/h (2 Bft) 100,00 %
07.06.2018 00:42 17,8 C 25,0 C 85 % 1012,1 hPa 0,0 l/m 7,4 km/h (2 Bft) O-SO 120 0 min 0,000 mm 0,0 UV-I 0 W/m 15,2 C 17,3 C 12,9 km/h (3 Bft) 95,83 %
07.06.2018 00:43 17,8 C 25,0 C 86 % 1012,1 hPa 0,0 l/m 10,3 km/h (2 Bft) O-SO 103 0 min 0,000 mm 0,0 UV-I 0 W/m 15,4 C 16,1 C 12,9 km/h (3 Bft) 100,00 %
07.06.2018 00:44 17,8 C 25,0 C 86 % 1012,1 hPa 0,0 l/m 5,6 km/h (1 Bft) O-SO 103 0 min 0,000 mm 0,0 UV-I 0 W/m 15,4 C 17,8 C 9,7 km/h (2 Bft) 91,67 %
07.06.2018 00:45 17,8 C 25,0 C 86 % 1012,1 hPa 0,0 l/m 7,5 km/h (2 Bft) SO 129 0 min 0,000 mm 0,0 UV-I 0 W/m 15,4 C 17,3 C 12,9 km/h (3 Bft) 100,00 %
07.06.2018 00:46 17,8 C 25,0 C 86 % 1012,1 hPa 0,0 l/m 8,3 km/h (2 Bft) O-SO 107 0 min 0,000 mm 0,0 UV-I 0 W/m 15,4 C 16,9 C 11,3 km/h (2 Bft) 96,55 %
07.06.2018 00:47 17,8 C 25,0 C 86 % 1012,1 hPa 0,0 l/m 10,9 km/h (2 Bft) O-SO 114 0 min 0,000 mm 0,0 UV-I 0 W/m 15,4 C 15,9 C 16,1 km/h (3 Bft) 100,00 %
07.06.2018 00:48 17,8 C 25,0 C 86 % 1012,1 hPa 0,0 l/m 10,4 km/h (2 Bft) O-SO 114 0 min 0,000 mm 0,0 UV-I 0 W/m 15,4 C 16,1 C 12,9 km/h (3 Bft) 95,65 %
07.06.2018 00:49 17,8 C 25,0 C 86 % 1012,1 hPa 0,0 l/m 9,0 km/h (2 Bft) O-SO 105 0 min 0,000 mm 0,0 UV-I 0 W/m 15,4 C 16,6 C 11,3 km/h (2 Bft) 100,00 %
07.06.2018 00:50 17,8 C 25,0 C 86 % 1012,1 hPa 0,0 l/m 12,3 km/h (3 Bft) O 80 0 min 0,000 mm 0,0 UV-I 0 W/m 15,4 C 15,4 C 16,1 km/h (3 Bft) 91,30 %
07.06.2018 00:51 17,8 C 25,0 C 86 % 1012,1 hPa 0,0 l/m 10,2 km/h (2 Bft) O-SO 117 0 min 0,000 mm 0,0 UV-I 0 W/m 15,4 C 16,1 C 16,1 km/h (3 Bft) 100,00 %
07.06.2018 00:52 17,7 C 25,0 C 86 % 1012,1 hPa 0,0 l/m 9,7 km/h (2 Bft) O-SO 115 0 min 0,000 mm 0,0 UV-I 0 W/m 15,3 C 16,2 C 16,1 km/h (3 Bft) 95,65 %
07.06.2018 00:53 17,8 C 25,0 C 86 % 1012,1 hPa 0,0 l/m 10,7 km/h (2 Bft) O 92 0 min 0,000 mm 0,0 UV-I 0 W/m 15,4 C 15,9 C 14,5 km/h (3 Bft) 95,83 %
07.06.2018 00:54 17,7 C 25,0 C 86 % 1012,0 hPa 0,0 l/m 10,0 km/h (2 Bft) O-NO 78 0 min 0,000 mm 0,0 UV-I 0 W/m 15,3 C 16,1 C 16,1 km/h (3 Bft) 100,00 %
07.06.2018 00:55 17,7 C 25,0 C 86 % 1012,0 hPa 0,0 l/m 10,5 km/h (2 Bft) O 91 0 min 0,000 mm 0,0 UV-I 0 W/m 15,3 C 15,9 C 12,9 km/h (3 Bft) 95,83 %
07.06.2018 00:56 17,7 C 25,0 C 86 % 1012,0 hPa 0,0 l/m 10,9 km/h (2 Bft) O 101 0 min 0,000 mm 0,0 UV-I 0 W/m 15,3 C 15,8 C 12,9 km/h (3 Bft) 100,00 %
07.06.2018 00:57 17,7 C 25,0 C 86 % 1012,0 hPa 0,0 l/m 10,7 km/h (2 Bft) O-SO 106 0 min 0,000 mm 0,0 UV-I 0 W/m 15,3 C 15,8 C 14,5 km/h (3 Bft) 95,83 %
07.06.2018 00:58 17,6 C 25,0 C 86 % 1012,0 hPa 0,0 l/m 11,9 km/h (2 Bft) O 86 0 min 0,000 mm 0,0 UV-I 0 W/m 15,2 C 15,3 C 16,1 km/h (3 Bft) 91,30 %
07.06.2018 00:59 17,6 C 25,0 C 86 % 1012,0 hPa 0,0 l/m 11,5 km/h (2 Bft) O-SO 107 0 min 0,000 mm 0,0 UV-I 0 W/m 15,2 C 15,4 C 16,1 km/h (3 Bft) 100,00 %
07.06.2018 01:00 17,6 C 25,0 C 86 % 1012,0 hPa 0,0 l/m 10,2 km/h (2 Bft) O 84 0 min 0,025 mm 0,0 UV-I 0 W/m 15,2 C 15,9 C 14,5 km/h (3 Bft) 96,15 %
07.06.2018 01:01 17,6 C 25,0 C 87 % 1012,0 hPa 0,0 l/m 14,0 km/h (3 Bft) O 87 0 min 0,000 mm 0,0 UV-I 0 W/m 15,4 C 14,6 C 17,7 km/h (3 Bft) 100,00 %
07.06.2018 01:02 17,5 C 25,0 C 87 % 1011,9 hPa 0,0 l/m 12,1 km/h (2 Bft) O-SO 115 0 min 0,000 mm 0,0 UV-I 0 W/m 15,3 C 15,1 C 16,1 km/h (3 Bft) 100,00 %
07.06.2018 01:03 17,5 C 25,0 C 87 % 1012,0 hPa 0,0 l/m 11,4 km/h (2 Bft) O-SO 113 0 min 0,000 mm 0,0 UV-I 0 W/m 15,3 C 15,4 C 14,5 km/h (3 Bft) 100,00 %
07.06.2018 01:04 17,4 C 25,0 C 87 % 1011,9 hPa 0,0 l/m 10,7 km/h (2 Bft) O-SO 104 0 min 0,000 mm 0,0 UV-I 0 W/m 15,2 C 15,5 C 14,5 km/h (3 Bft) 100,00 %
07.06.2018 01:05 17,4 C 25,0 C 87 % 1011,9 hPa 0,0 l/m 9,7 km/h (2 Bft) O-SO 119 0 min 0,000 mm 0,0 UV-I 0 W/m 15,2 C 15,9 C 12,9 km/h (3 Bft) 95,65 %
07.06.2018 01:06 17,3 C 25,0 C 87 % 1011,9 hPa 0,0 l/m 8,7 km/h (2 Bft) O 91 0 min 0,000 mm 0,0 UV-I 0 W/m 15,1 C 16,2 C 12,9 km/h (3 Bft) 100,00 %
07.06.2018 01:07 17,3 C 25,0 C 87 % 1011,9 hPa 0,0 l/m 10,0 km/h (2 Bft) O 94 0 min 0,000 mm 0,0 UV-I 0 W/m 15,1 C 15,7 C 11,3 km/h (2 Bft) 95,65 %
07.06.2018 01:08 17,2 C 25,0 C 88 % 1011,9 hPa 0,0 l/m 8,5 km/h (2 Bft) O-SO 123 0 min 0,000 mm 0,0 UV-I 0 W/m 15,2 C 16,2 C 12,9 km/h (3 Bft) 100,00 %
07.06.2018 01:09 17,2 C 25,0 C 88 % 1011,9 hPa 0,0 l/m 8,2 km/h (2 Bft) O-SO 103 0 min 0,000 mm 0,0 UV-I 0 W/m 15,2 C 16,3 C 12,9 km/h (3 Bft) 100,00 %
07.06.2018 01:10 17,2 C 25,0 C 88 % 1011,9 hPa 0,0 l/m 7,5 km/h (2 Bft) O 100 0 min 0,000 mm 0,0 UV-I 0 W/m 15,2 C 16,7 C 11,3 km/h (2 Bft) 100,00 %
07.06.2018 01:11 17,1 C 25,0 C 88 % 1011,9 hPa 0,0 l/m 7,6 km/h (2 Bft) O 91 0 min 0,000 mm 0,0 UV-I 0 W/m 15,1 C 16,5 C 11,3 km/h (2 Bft) 95,65 %
07.06.2018 01:12 17,1 C 25,0 C 88 % 1012,0 hPa 0,0 l/m 9,4 km/h (2 Bft) O 93 0 min 0,000 mm 0,0 UV-I 0 W/m 15,1 C 15,7 C 12,9 km/h (3 Bft) 100,00 %
07.06.2018 01:13 17,1 C 25,0 C 88 % 1012,0 hPa 0,0 l/m 7,3 km/h (2 Bft) SO 138 0 min 0,000 mm 0,0 UV-I 0 W/m 15,1 C 16,6 C 11,3 km/h (2 Bft) 100,00 %
07.06.2018 01:14 17,1 C 25,0 C 89 % 1012,0 hPa 0,0 l/m 3,2 km/h (1 Bft) SO 137 0 min 0,000 mm 0,0 UV-I 0 W/m 15,3 C 17,1 C 4,8 km/h (1 Bft) 100,00 %
07.06.2018 01:15 17,1 C 25,0 C 89 % 1012,0 hPa 0,0 l/m 2,7 km/h (1 Bft) SO 137 0 min 0,000 mm 0,0 UV-I 0 W/m 15,3 C 17,1 C 4,8 km/h (1 Bft) 100,00 %
07.06.2018 01:16 17,1 C 25,0 C 89 % 1011,9 hPa 0,0 l/m 3,6 km/h (1 Bft) S-SO 148 0 min 0,000 mm 0,0 UV-I 0 W/m 15,3 C 17,1 C 4,8 km/h (1 Bft) 100,00 %
07.06.2018 01:17 17,1 C 25,0 C 89 % 1011,9 hPa 0,0 l/m 3,7 km/h (1 Bft) O-SO 105 0 min 0,000 mm 0,0 UV-I 0 W/m 15,3 C 17,1 C 9,7 km/h (2 Bft) 100,00 %
07.06.2018 01:18 17,2 C 25,0 C 88 % 1012,0 hPa 0,0 l/m 4,2 km/h (1 Bft) SO 138 0 min 0,000 mm 0,0 UV-I 0 W/m 15,2 C 17,2 C 6,4 km/h (2 Bft) 100,00 %
07.06.2018 01:19 17,2 C 25,0 C 88 % 1011,9 hPa 0,0 l/m 5,4 km/h (1 Bft) SO 127 0 min 0,000 mm 0,0 UV-I 0 W/m 15,2 C 17,2 C 8,0 km/h (2 Bft) 100,00 %
07.06.2018 01:20 17,2 C 25,0 C 88 % 1012,0 hPa 0,0 l/m 7,6 km/h (2 Bft) O-SO 107 0 min 0,000 mm 0,0 UV-I 0 W/m 15,2 C 16,6 C 12,9 km/h (3 Bft) 100,00 %
07.06.2018 01:21 17,2 C 25,0 C 88 % 1012,0 hPa 0,0 l/m 5,3 km/h (1 Bft) O 101 0 min 0,000 mm 0,0 UV-I 0 W/m 15,2 C 17,2 C 6,4 km/h (2 Bft) 95,65 %
07.06.2018 01:22 17,2 C 25,0 C 88 % 1012,0 hPa 0,0 l/m 3,8 km/h (1 Bft) O-SO 117 0 min 0,000 mm 0,0 UV-I 0 W/m 15,2 C 17,2 C 4,8 km/h (1 Bft) 100,00 %
07.06.2018 01:23 17,2 C 25,0 C 88 % 1012,0 hPa 0,0 l/m 4,5 km/h (1 Bft) O-SO 114 0 min 0,000 mm 0,0 UV-I 0 W/m 15,2 C 17,2 C 4,8 km/h (1 Bft) 100,00 %
07.06.2018 01:24 17,1 C 25,0 C 88 % 1012,0 hPa 0,0 l/m 5,5 km/h (1 Bft) O-SO 107 0 min 0,000 mm 0,0 UV-I 0 W/m 15,1 C 17,1 C 6,4 km/h (2 Bft) 100,00 %
07.06.2018 01:25 17,1 C 25,0 C 88 % 1011,9 hPa 0,0 l/m 3,6 km/h (1 Bft) O 92 0 min 0,000 mm 0,0 UV-I 0 W/m 15,1 C 17,1 C 4,8 km/h (1 Bft) 100,00 %
07.06.2018 01:26 17,1 C 25,0 C 89 % 1011,9 hPa 0,0 l/m 3,1 km/h (1 Bft) O 91 0 min 0,000 mm 0,0 UV-I 0 W/m 15,3 C 17,1 C 4,8 km/h (1 Bft) 100,00 %
07.06.2018 01:27 17,0 C 25,0 C 89 % 1012,0 hPa 0,0 l/m 3,4 km/h (1 Bft) O 92 0 min 0,000 mm 0,0 UV-I 0 W/m 15,2 C 17,0 C 4,8 km/h (1 Bft) 100,00 %
07.06.2018 01:28 17,1 C 25,0 C 89 % 1012,0 hPa 0,0 l/m 6,6 km/h (2 Bft) O-NO 78 0 min 0,000 mm 0,0 UV-I 0 W/m 15,3 C 17,0 C 11,3 km/h (2 Bft) 100,00 %
07.06.2018 01:29 17,1 C 25,0 C 89 % 1012,0 hPa 0,0 l/m 8,5 km/h (2 Bft) O-SO 107 0 min 0,000 mm 0,0 UV-I 0 W/m 15,3 C 16,1 C 12,9 km/h (3 Bft) 100,00 %
07.06.2018 01:30 17,1 C 25,0 C 89 % 1012,0 hPa 0,0 l/m 4,8 km/h (1 Bft) O-SO 107 0 min 0,000 mm 0,0 UV-I 0 W/m 15,3 C 17,1 C 6,4 km/h (2 Bft) 100,00 %
07.06.2018 01:31 17,1 C 25,0 C 89 % 1012,0 hPa 0,0 l/m 6,2 km/h (2 Bft) O 96 0 min 0,000 mm 0,0 UV-I 0 W/m 15,3 C 17,1 C 9,7 km/h (2 Bft) 100,00 %
07.06.2018 01:32 17,0 C 25,0 C 89 % 1012,0 hPa 0,0 l/m 7,7 km/h (2 Bft) O 96 0 min 0,000 mm 0,0 UV-I 0 W/m 15,2 C 16,3 C 11,3 km/h (2 Bft) 95,65 %
07.06.2018 01:33 17,0 C 25,0 C 89 % 1012,0 hPa 0,0 l/m 6,3 km/h (2 Bft) O-SO 107 0 min 0,000 mm 0,0 UV-I 0 W/m 15,2 C 17,0 C 11,3 km/h (2 Bft) 100,00 %
07.06.2018 01:34 17,0 C 25,0 C 89 % 1012,0 hPa 0,0 l/m 5,9 km/h (2 Bft) O-SO 110 0 min 0,000 mm 0,0 UV-I 0 W/m 15,2 C 17,0 C 9,7 km/h (2 Bft) 100,00 %
07.06.2018 01:35 17,0 C 25,0 C 89 % 1012,0 hPa 0,0 l/m 4,6 km/h (1 Bft) O-SO 110 0 min 0,000 mm 0,0 UV-I 0 W/m 15,2 C 17,0 C 6,4 km/h (2 Bft) 95,83 %
07.06.2018 01:36 16,9 C 25,0 C 89 % 1012,0 hPa 0,0 l/m 2,7 km/h (1 Bft) O-SO 110 0 min 0,000 mm 0,0 UV-I 0 W/m 15,1 C 16,9 C 3,2 km/h (1 Bft) 100,00 %
07.06.2018 01:37 16,9 C 25,0 C 89 % 1011,9 hPa 0,0 l/m 2,5 km/h (1 Bft) SO 128 0 min 0,000 mm 0,0 UV-I 0 W/m 15,1 C 16,9 C 4,8 km/h (1 Bft) 100,00 %
07.06.2018 01:38 16,9 C 25,0 C 90 % 1012,0 hPa 0,0 l/m 2,7 km/h (1 Bft) S-SO 163 0 min 0,000 mm 0,0 UV-I 0 W/m 15,2 C 16,9 C 4,8 km/h (1 Bft) 95,65 %
07.06.2018 01:39 16,9 C 25,0 C 90 % 1011,9 hPa 0,0 l/m 4,2 km/h (1 Bft) S-SO 163 0 min 0,000 mm 0,0 UV-I 0 W/m 15,2 C 16,9 C 8,0 km/h (2 Bft) 95,83 %
07.06.2018 01:40 16,9 C 25,0 C 89 % 1011,9 hPa 0,0 l/m 3,2 km/h (1 Bft) S-SO 162 0 min 0,000 mm 0,0 UV-I 0 W/m 15,1 C 16,9 C 6,4 km/h (2 Bft) 95,65 %
07.06.2018 01:41 16,9 C 25,0 C 89 % 1012,0 hPa 0,0 l/m 3,2 km/h (1 Bft) S-SO 162 0 min 0,000 mm 0,0 UV-I 0 W/m 15,1 C 16,9 C 6,4 km/h (2 Bft) 95,83 %
07.06.2018 01:42 16,9 C 25,0 C 89 % 1012,0 hPa 0,0 l/m 3,9 km/h (1 Bft) S-SO 151 0 min 0,000 mm 0,0 UV-I 0 W/m 15,1 C 16,9 C 6,4 km/h (2 Bft) 100,00 %
07.06.2018 01:43 16,9 C 25,0 C 89 % 1012,0 hPa 0,0 l/m 3,1 km/h (1 Bft) S-SO 151 0 min 0,000 mm 0,0 UV-I 0 W/m 15,1 C 16,9 C 4,8 km/h (1 Bft) 95,65 %
07.06.2018 01:44 16,9 C 25,0 C 89 % 1012,0 hPa 0,0 l/m 3,5 km/h (1 Bft) S-SO 151 0 min 0,000 mm 0,0 UV-I 0 W/m 15,1 C 16,9 C 6,4 km/h (2 Bft) 95,83 %
07.06.2018 01:45 16,8 C 25,0 C 89 % 1012,0 hPa 0,0 l/m 4,1 km/h (1 Bft) S-SO 151 0 min 0,000 mm 0,0 UV-I 0 W/m 15,0 C 16,8 C 4,8 km/h (1 Bft) 96,15 %
07.06.2018 01:46 16,8 C 25,0 C 89 % 1012,0 hPa 0,0 l/m 3,7 km/h (1 Bft) S-SO 156 0 min 0,000 mm 0,0 UV-I 0 W/m 15,0 C 16,8 C 4,8 km/h (1 Bft) 95,83 %
07.06.2018 01:47 16,8 C 25,0 C 89 % 1011,9 hPa 0,0 l/m 3,0 km/h (1 Bft) S-SO 156 0 min 0,000 mm 0,0 UV-I 0 W/m 15,0 C 16,8 C 4,8 km/h (1 Bft) 100,00 %
07.06.2018 01:48 16,7 C 25,0 C 90 % 1011,9 hPa 0,0 l/m 1,3 km/h (1 Bft) S-SO 156 0 min 0,000 mm 0,0 UV-I 0 W/m 15,0 C 16,7 C 3,2 km/h (1 Bft) 95,83 %
07.06.2018 01:49 16,7 C 25,0 C 90 % 1012,0 hPa 0,0 l/m 2,4 km/h (1 Bft) S-SO 156 0 min 0,000 mm 0,0 UV-I 0 W/m 15,0 C 16,7 C 4,8 km/h (1 Bft) 95,65 %
07.06.2018 01:50 16,7 C 25,0 C 90 % 1011,9 hPa 0,0 l/m 2,2 km/h (1 Bft) S-SO 156 0 min 0,000 mm 0,0 UV-I 0 W/m 15,0 C 16,7 C 3,2 km/h (1 Bft) 95,83 %
07.06.2018 01:51 16,7 C 25,0 C 90 % 1012,0 hPa 0,0 l/m 2,5 km/h (1 Bft) S-SO 156 0 min 0,000 mm 0,0 UV-I 0 W/m 15,0 C 16,7 C 3,2 km/h (1 Bft) 100,00 %
07.06.2018 01:52 16,6 C 25,0 C 90 % 1012,0 hPa 0,0 l/m 2,7 km/h (1 Bft) S-SO 155 0 min 0,000 mm 0,0 UV-I 0 W/m 15,0 C 16,6 C 3,2 km/h (1 Bft) 91,67 %
07.06.2018 01:53 16,6 C 25,0 C 90 % 1011,9 hPa 0,0 l/m 2,7 km/h (1 Bft) O-SO 103 0 min 0,000 mm 0,0 UV-I 0 W/m 15,0 C 16,6 C 4,8 km/h (1 Bft) 91,30 %
07.06.2018 01:54 16,6 C 25,0 C 90 % 1011,9 hPa 0,0 l/m 4,2 km/h (1 Bft) O 101 0 min 0,000 mm 0,0 UV-I 0 W/m 15,0 C 16,6 C 4,8 km/h (1 Bft) 100,00 %
07.06.2018 01:55 16,6 C 25,0 C 90 % 1012,0 hPa 0,0 l/m 2,5 km/h (1 Bft) O-SO 102 0 min 0,000 mm 0,0 UV-I 0 W/m 15,0 C 16,6 C 4,8 km/h (1 Bft) 95,65 %
07.06.2018 01:56 16,6 C 25,0 C 90 % 1012,0 hPa 0,0 l/m 0,7 km/h (0 Bft) O-SO 102 0 min 0,000 mm 0,0 UV-I 0 W/m 15,0 C 16,6 C 1,6 km/h (1 Bft) 95,83 %
07.06.2018 01:57 16,6 C 25,0 C 91 % 1012,0 hPa 0,0 l/m 0,1 km/h (0 Bft) O 101 0 min 0,000 mm 0,0 UV-I 0 W/m 15,1 C 16,6 C 1,6 km/h (1 Bft) 95,65 %
07.06.2018 01:58 16,6 C 25,0 C 91 % 1012,0 hPa 0,0 l/m 2,9 km/h (1 Bft) O 100 0 min 0,000 mm 0,0 UV-I 0 W/m 15,1 C 16,6 C 4,8 km/h (1 Bft) 100,00 %
07.06.2018 01:59 16,6 C 25,0 C 91 % 1012,0 hPa 0,0 l/m 3,0 km/h (1 Bft) O 100 0 min 0,000 mm 0,0 UV-I 0 W/m 15,1 C 16,6 C 4,8 km/h (1 Bft) 96,15 %
07.06.2018 02:00 16,6 C 25,0 C 91 % 1012,0 hPa 0,0 l/m 1,5 km/h (1 Bft) O 100 0 min 0,000 mm 0,0 UV-I 0 W/m 15,1 C 16,6 C 3,2 km/h (1 Bft) 95,83 %
07.06.2018 02:01 16,6 C 25,0 C 91 % 1012,0 hPa 0,0 l/m 0,1 km/h (0 Bft) O 100 0 min 0,000 mm 0,0 UV-I 0 W/m 15,1 C 16,6 C 1,6 km/h (1 Bft) 95,65 %
07.06.2018 02:02 16,6 C 25,0 C 91 % 1012,0 hPa 0,0 l/m 0,0 km/h (0 Bft) O 100 0 min 0,000 mm 0,0 UV-I 0 W/m 15,1 C 16,6 C 0,0 km/h (0 Bft) 100,00 %
07.06.2018 02:03 16,5 C 25,0 C 90 % 1012,0 hPa 0,0 l/m 0,0 km/h (0 Bft) O 100 0 min 0,000 mm 0,0 UV-I 0 W/m 14,9 C 16,5 C 0,0 km/h (0 Bft) 95,83 %
07.06.2018 02:04 16,4 C 25,0 C 90 % 1012,0 hPa 0,0 l/m 0,1 km/h (0 Bft) O 100 0 min 0,000 mm 0,0 UV-I 0 W/m 14,8 C 16,4 C 1,6 km/h (1 Bft) 95,65 %
07.06.2018 02:05 16,4 C 25,0 C 91 % 1012,0 hPa 0,0 l/m 1,5 km/h (1 Bft) O 100 0 min 0,000 mm 0,0 UV-I 0 W/m 14,9 C 16,4 C 3,2 km/h (1 Bft) 100,00 %
07.06.2018 02:06 16,4 C 25,0 C 91 % 1012,0 hPa 0,0 l/m 1,7 km/h (1 Bft) O 100 0 min 0,000 mm 0,0 UV-I 0 W/m 14,9 C 16,4 C 3,2 km/h (1 Bft) 95,65 %
07.06.2018 02:07 16,4 C 25,0 C 91 % 1012,0 hPa 0,0 l/m 0,1 km/h (0 Bft) O 100 0 min 0,000 mm 0,0 UV-I 0 W/m 14,9 C 16,4 C 1,6 km/h (1 Bft) 100,00 %
07.06.2018 02:08 16,3 C 25,0 C 91 % 1012,0 hPa 0,0 l/m 0,4 km/h (0 Bft) O 100 0 min 0,000 mm 0,0 UV-I 0 W/m 14,8 C 16,3 C 1,6 km/h (1 Bft) 95,65 %
07.06.2018 02:09 16,2 C 25,0 C 91 % 1012,0 hPa 0,0 l/m 0,0 km/h (0 Bft) O 100 0 min 0,000 mm 0,0 UV-I 0 W/m 14,7 C 16,2 C 0,0 km/h (0 Bft) 100,00 %
07.06.2018 02:10 16,1 C 25,0 C 91 % 1012,0 hPa 0,0 l/m 0,0 km/h (0 Bft) O 100 0 min 0,000 mm 0,0 UV-I 0 W/m 14,6 C 16,1 C 0,0 km/h (0 Bft) 91,30 %
07.06.2018 02:11 16,0 C 25,0 C 91 % 1012,0 hPa 0,0 l/m 1,4 km/h (1 Bft) O 100 0 min 0,000 mm 0,0 UV-I 0 W/m 14,5 C 16,0 C 1,6 km/h (1 Bft) 91,67 %
07.06.2018 02:12 15,9 C 25,0 C 91 % 1012,0 hPa 0,0 l/m 1,5 km/h (1 Bft) O 100 0 min 0,000 mm 0,0 UV-I 0 W/m 14,4 C 15,9 C 1,6 km/h (1 Bft) 92,31 %
07.06.2018 02:13 15,9 C 25,0 C 92 % 1012,0 hPa 0,0 l/m 1,5 km/h (1 Bft) O 100 0 min 0,000 mm 0,0 UV-I 0 W/m 14,6 C 15,9 C 1,6 km/h (1 Bft) 100,00 %
07.06.2018 02:14 15,9 C 25,0 C 92 % 1012,0 hPa 0,0 l/m 0,6 km/h (0 Bft) O 100 0 min 0,000 mm 0,0 UV-I 0 W/m 14,6 C 15,9 C 1,6 km/h (1 Bft) 95,65 %
07.06.2018 02:15 16,0 C 25,0 C 92 % 1011,9 hPa 0,0 l/m 0,0 km/h (0 Bft) O 100 0 min 0,000 mm 0,0 UV-I 0 W/m 14,7 C 16,0 C 0,0 km/h (0 Bft) 96,30 %
07.06.2018 02:16 16,1 C 25,0 C 93 % 1012,0 hPa 0,0 l/m 0,0 km/h (0 Bft) O 100 0 min 0,000 mm 0,0 UV-I 0 W/m 15,0 C 16,1 C 0,0 km/h (0 Bft) 95,65 %
07.06.2018 02:17 16,1 C 25,0 C 93 % 1012,0 hPa 0,0 l/m 0,0 km/h (0 Bft) O 100 0 min 0,000 mm 0,0 UV-I 0 W/m 15,0 C 16,1 C 0,0 km/h (0 Bft) 100,00 %
07.06.2018 02:18 16,2 C 25,0 C 93 % 1012,0 hPa 0,0 l/m 0,2 km/h (0 Bft) O 100 0 min 0,000 mm 0,0 UV-I 0 W/m 15,1 C 16,2 C 1,6 km/h (1 Bft) 100,00 %
07.06.2018 02:19 16,2 C 25,0 C 93 % 1012,0 hPa 0,0 l/m 1,3 km/h (1 Bft) O 100 0 min 0,000 mm 0,0 UV-I 0 W/m 15,1 C 16,2 C 3,2 km/h (1 Bft) 95,65 %
07.06.2018 02:20 16,2 C 25,0 C 92 % 1012,0 hPa 0,0 l/m 0,0 km/h (0 Bft) O 100 0 min 0,000 mm 0,0 UV-I 0 W/m 14,9 C 16,2 C 0,0 km/h (0 Bft) 100,00 %
07.06.2018 02:21 16,3 C 25,0 C 93 % 1012,0 hPa 0,0 l/m 0,0 km/h (0 Bft) O 100 0 min 0,000 mm 0,0 UV-I 0 W/m 15,2 C 16,3 C 0,0 km/h (0 Bft) 91,30 %
07.06.2018 02:22 16,3 C 25,0 C 92 % 1012,1 hPa 0,0 l/m 0,0 km/h (0 Bft) O 100 0 min 0,000 mm 0,0 UV-I 0 W/m 15,0 C 16,3 C 0,0 km/h (0 Bft) 100,00 %
07.06.2018 02:23 16,4 C 25,0 C 92 % 1012,1 hPa 0,0 l/m 0,0 km/h (0 Bft) O 100 0 min 0,000 mm 0,0 UV-I 0 W/m 15,1 C 16,4 C 0,0 km/h (0 Bft) 96,15 %
07.06.2018 02:24 16,4 C 25,0 C 92 % 1012,1 hPa 0,0 l/m 0,0 km/h (0 Bft) O 100 0 min 0,000 mm 0,0 UV-I 0 W/m 15,1 C 16,4 C 0,0 km/h (0 Bft) 95,83 %
07.06.2018 02:25 16,4 C 25,0 C 92 % 1012,1 hPa 0,0 l/m 0,0 km/h (0 Bft) O 100 0 min 0,000 mm 0,0 UV-I 0 W/m 15,1 C 16,4 C 0,0 km/h (0 Bft) 100,00 %
07.06.2018 02:26 16,4 C 25,0 C 92 % 1012,1 hPa 0,0 l/m 0,0 km/h (0 Bft) O 100 0 min 0,000 mm 0,0 UV-I 0 W/m 15,1 C 16,4 C 0,0 km/h (0 Bft) 100,00 %
07.06.2018 02:27 16,4 C 25,0 C 92 % 1012,1 hPa 0,0 l/m 0,0 km/h (0 Bft) O 100 0 min 0,000 mm 0,0 UV-I 0 W/m 15,1 C 16,4 C 0,0 km/h (0 Bft) 95,65 %
07.06.2018 02:28 16,4 C 25,0 C 92 % 1012,0 hPa 0,0 l/m 0,0 km/h (0 Bft) O 100 0 min 0,000 mm 0,0 UV-I 0 W/m 15,1 C 16,4 C 0,0 km/h (0 Bft) 100,00 %
07.06.2018 02:29 16,4 C 25,0 C 92 % 1012,1 hPa 0,0 l/m 0,8 km/h (0 Bft) O 100 0 min 0,000 mm 0,0 UV-I 0 W/m 15,1 C 16,4 C 3,2 km/h (1 Bft) 91,30 %
07.06.2018 02:30 16,5 C 25,0 C 92 % 1012,1 hPa 0,0 l/m 1,7 km/h (1 Bft) O 100 0 min 0,000 mm 0,0 UV-I 0 W/m 15,2 C 16,5 C 3,2 km/h (1 Bft) 100,00 %
07.06.2018 02:31 16,4 C 25,0 C 92 % 1012,0 hPa 0,0 l/m 2,5 km/h (1 Bft) O 100 0 min 0,000 mm 0,0 UV-I 0 W/m 15,1 C 16,4 C 4,8 km/h (1 Bft) 100,00 %
07.06.2018 02:32 16,4 C 25,0 C 92 % 1012,0 hPa 0,0 l/m 2,6 km/h (1 Bft) O 99 0 min 0,000 mm 0,0 UV-I 0 W/m 15,1 C 16,4 C 4,8 km/h (1 Bft) 100,00 %
07.06.2018 02:33 16,4 C 25,0 C 92 % 1012,0 hPa 0,0 l/m 3,3 km/h (1 Bft) O 99 0 min 0,000 mm 0,0 UV-I 0 W/m 15,1 C 16,4 C 4,8 km/h (1 Bft) 100,00 %
07.06.2018 02:34 16,4 C 25,0 C 92 % 1012,0 hPa 0,0 l/m 2,8 km/h (1 Bft) O 99 0 min 0,000 mm 0,0 UV-I 0 W/m 15,1 C 16,4 C 3,2 km/h (1 Bft) 95,83 %
07.06.2018 02:35 16,4 C 25,0 C 92 % 1012,0 hPa 0,0 l/m 1,5 km/h (1 Bft) O 99 0 min 0,000 mm 0,0 UV-I 0 W/m 15,1 C 16,4 C 3,2 km/h (1 Bft) 100,00 %
07.06.2018 02:36 16,4 C 25,0 C 92 % 1012,0 hPa 0,0 l/m 1,7 km/h (1 Bft) O 99 0 min 0,000 mm 0,0 UV-I 0 W/m 15,1 C 16,4 C 3,2 km/h (1 Bft) 100,00 %
07.06.2018 02:37 16,4 C 25,0 C 92 % 1012,0 hPa 0,0 l/m 1,8 km/h (1 Bft) O-NO 69 0 min 0,000 mm 0,0 UV-I 0 W/m 15,1 C 16,4 C 6,4 km/h (2 Bft) 100,00 %
07.06.2018 02:38 16,4 C 25,0 C 92 % 1012,0 hPa 0,0 l/m 4,6 km/h (1 Bft) O-NO 68 0 min 0,000 mm 0,0 UV-I 0 W/m 15,1 C 16,4 C 6,4 km/h (2 Bft) 100,00 %
07.06.2018 02:39 16,3 C 25,0 C 91 % 1012,0 hPa 0,0 l/m 3,4 km/h (1 Bft) O-NO 68 0 min 0,000 mm 0,0 UV-I 0 W/m 14,8 C 16,3 C 4,8 km/h (1 Bft) 95,65 %
07.06.2018 02:40 16,3 C 25,0 C 92 % 1012,0 hPa 0,0 l/m 1,9 km/h (1 Bft) O-NO 68 0 min 0,000 mm 0,0 UV-I 0 W/m 15,0 C 16,3 C 3,2 km/h (1 Bft) 100,00 %
07.06.2018 02:41 16,3 C 25,0 C 92 % 1012,1 hPa 0,0 l/m 1,5 km/h (1 Bft) O-NO 68 0 min 0,000 mm 0,0 UV-I 0 W/m 15,0 C 16,3 C 1,6 km/h (1 Bft) 100,00 %
07.06.2018 02:42 16,3 C 25,0 C 92 % 1012,1 hPa 0,0 l/m 0,8 km/h (0 Bft) O-NO 68 0 min 0,000 mm 0,0 UV-I 0 W/m 15,0 C 16,3 C 1,6 km/h (1 Bft) 100,00 %
07.06.2018 02:43 16,3 C 25,0 C 92 % 1012,1 hPa 0,0 l/m 2,7 km/h (1 Bft) O-NO 68 0 min 0,000 mm 0,0 UV-I 0 W/m 15,0 C 16,3 C 4,8 km/h (1 Bft) 100,00 %
07.06.2018 02:44 16,3 C 25,0 C 92 % 1012,1 hPa 0,0 l/m 2,8 km/h (1 Bft) O-NO 62 0 min 0,000 mm 0,0 UV-I 0 W/m 15,0 C 16,3 C 4,8 km/h (1 Bft) 100,00 %
07.06.2018 02:45 16,3 C 25,0 C 92 % 1012,1 hPa 0,0 l/m 4,0 km/h (1 Bft) O-NO 61 0 min 0,000 mm 0,0 UV-I 0 W/m 15,0 C 16,3 C 4,8 km/h (1 Bft) 100,00 %
07.06.2018 02:46 16,3 C 25,0 C 92 % 1012,1 hPa 0,0 l/m 4,7 km/h (1 Bft) O-NO 75 0 min 0,000 mm 0,0 UV-I 0 W/m 15,0 C 16,3 C 6,4 km/h (2 Bft) 100,00 %
07.06.2018 02:47 16,3 C 25,0 C 92 % 1012,1 hPa 0,0 l/m 3,5 km/h (1 Bft) O-NO 74 0 min 0,000 mm 0,0 UV-I 0 W/m 15,0 C 16,3 C 6,4 km/h (2 Bft) 100,00 %
07.06.2018 02:48 16,4 C 25,0 C 92 % 1012,1 hPa 0,0 l/m 2,3 km/h (1 Bft) O-NO 74 0 min 0,000 mm 0,0 UV-I 0 W/m 15,1 C 16,4 C 3,2 km/h (1 Bft) 100,00 %
07.06.2018 02:49 16,4 C 25,0 C 92 % 1012,1 hPa 0,0 l/m 3,3 km/h (1 Bft) O-NO 74 0 min 0,000 mm 0,0 UV-I 0 W/m 15,1 C 16,4 C 4,8 km/h (1 Bft) 100,00 %
07.06.2018 02:50 16,4 C 25,0 C 93 % 1012,0 hPa 0,0 l/m 2,7 km/h (1 Bft) O-NO 74 0 min 0,000 mm 0,0 UV-I 0 W/m 15,3 C 16,4 C 4,8 km/h (1 Bft) 100,00 %
07.06.2018 02:51 16,5 C 25,0 C 93 % 1012,0 hPa 0,0 l/m 3,8 km/h (1 Bft) O 79 0 min 0,000 mm 0,0 UV-I 0 W/m 15,4 C 16,5 C 4,8 km/h (1 Bft) 100,00 %
07.06.2018 02:52 16,6 C 25,0 C 93 % 1012,0 hPa 0,0 l/m 4,5 km/h (1 Bft) O 79 0 min 0,000 mm 0,0 UV-I 0 W/m 15,5 C 16,6 C 6,4 km/h (2 Bft) 91,30 %
07.06.2018 02:53 16,6 C 25,0 C 93 % 1012,0 hPa 0,0 l/m 3,5 km/h (1 Bft) NO 49 0 min 0,000 mm 0,0 UV-I 0 W/m 15,5 C 16,6 C 4,8 km/h (1 Bft) 100,00 %
07.06.2018 02:54 16,6 C 25,0 C 93 % 1012,0 hPa 0,0 l/m 3,8 km/h (1 Bft) O 96 0 min 0,000 mm 0,0 UV-I 0 W/m 15,5 C 16,6 C 4,8 km/h (1 Bft) 100,00 %
07.06.2018 02:55 16,6 C 25,0 C 93 % 1012,0 hPa 0,0 l/m 4,8 km/h (1 Bft) O 80 0 min 0,000 mm 0,0 UV-I 0 W/m 15,5 C 16,6 C 6,4 km/h (2 Bft) 100,00 %
07.06.2018 02:56 16,6 C 25,0 C 93 % 1012,0 hPa 0,0 l/m 3,3 km/h (1 Bft) O 79 0 min 0,000 mm 0,0 UV-I 0 W/m 15,5 C 16,6 C 6,4 km/h (2 Bft) 88,00 %
07.06.2018 02:57 16,7 C 25,0 C 93 % 1012,0 hPa 0,0 l/m 1,9 km/h (1 Bft) O 79 0 min 0,000 mm 0,0 UV-I 0 W/m 15,6 C 16,7 C 3,2 km/h (1 Bft) 100,00 %
07.06.2018 02:58 16,7 C 25,0 C 92 % 1012,0 hPa 0,0 l/m 6,3 km/h (2 Bft) N-NO 31 0 min 0,000 mm 0,0 UV-I 0 W/m 15,4 C 16,7 C 8,0 km/h (2 Bft) 95,83 %
07.06.2018 02:59 16,7 C 25,0 C 92 % 1012,0 hPa 0,0 l/m 4,2 km/h (1 Bft) O-NO 66 0 min 0,000 mm 0,0 UV-I 0 W/m 15,4 C 16,7 C 6,4 km/h (2 Bft) 100,00 %
07.06.2018 03:00 16,7 C 25,0 C 92 % 1012,0 hPa 0,0 l/m 3,1 km/h (1 Bft) O-NO 65 0 min 0,000 mm 0,0 UV-I 0 W/m 15,4 C 16,7 C 4,8 km/h (1 Bft) 100,00 %
07.06.2018 03:01 16,7 C 25,0 C 92 % 1012,1 hPa 0,0 l/m 2,7 km/h (1 Bft) O 99 0 min 0,000 mm 0,0 UV-I 0 W/m 15,4 C 16,7 C 4,8 km/h (1 Bft) 95,65 %
07.06.2018 03:02 16,7 C 25,0 C 92 % 1012,1 hPa 0,0 l/m 2,4 km/h (1 Bft) NO 47 0 min 0,000 mm 0,0 UV-I 0 W/m 15,4 C 16,7 C 6,4 km/h (2 Bft) 100,00 %
07.06.2018 03:03 16,8 C 25,0 C 92 % 1012,1 hPa 0,0 l/m 5,2 km/h (1 Bft) O-NO 65 0 min 0,000 mm 0,0 UV-I 0 W/m 15,5 C 16,8 C 6,4 km/h (2 Bft) 100,00 %
07.06.2018 03:04 16,8 C 25,0 C 92 % 1012,1 hPa 0,0 l/m 6,7 km/h (2 Bft) O-NO 78 0 min 0,000 mm 0,0 UV-I 0 W/m 15,5 C 16,7 C 11,3 km/h (2 Bft) 100,00 %
07.06.2018 03:05 16,8 C 24,4 C 92 % 1012,1 hPa 0,0 l/m 5,4 km/h (1 Bft) O 79 0 min 0,000 mm 0,0 UV-I 0 W/m 15,5 C 16,8 C 6,4 km/h (2 Bft) 100,00 %
07.06.2018 03:06 16,8 C 24,4 C 92 % 1012,1 hPa 0,0 l/m 7,0 km/h (2 Bft) O 86 0 min 0,000 mm 0,0 UV-I 0 W/m 15,5 C 16,5 C 11,3 km/h (2 Bft) 100,00 %
07.06.2018 03:07 16,8 C 24,4 C 92 % 1012,1 hPa 0,0 l/m 7,0 km/h (2 Bft) NO 46 0 min 0,000 mm 0,0 UV-I 0 W/m 15,5 C 16,5 C 9,7 km/h (2 Bft) 100,00 %
07.06.2018 03:08 16,8 C 24,4 C 92 % 1012,1 hPa 0,0 l/m 5,8 km/h (2 Bft) O-NO 58 0 min 0,000 mm 0,0 UV-I 0 W/m 15,5 C 16,8 C 8,0 km/h (2 Bft) 100,00 %
07.06.2018 03:09 16,8 C 24,4 C 92 % 1012,1 hPa 0,0 l/m 5,4 km/h (1 Bft) NO 55 0 min 0,000 mm 0,0 UV-I 0 W/m 15,5 C 16,8 C 6,4 km/h (2 Bft) 100,00 %
07.06.2018 03:10 16,9 C 24,4 C 92 % 1012,2 hPa 0,0 l/m 5,6 km/h (1 Bft) O-NO 77 0 min 0,000 mm 0,0 UV-I 0 W/m 15,6 C 16,9 C 9,7 km/h (2 Bft) 100,00 %
07.06.2018 03:11 16,9 C 24,4 C 92 % 1012,2 hPa 0,0 l/m 4,8 km/h (1 Bft) O-NO 73 0 min 0,000 mm 0,0 UV-I 0 W/m 15,6 C 16,9 C 6,4 km/h (2 Bft) 100,00 %
07.06.2018 03:12 16,9 C 24,4 C 92 % 1012,1 hPa 0,0 l/m 3,9 km/h (1 Bft) O-NO 74 0 min 0,000 mm 0,0 UV-I 0 W/m 15,6 C 16,9 C 4,8 km/h (1 Bft) 100,00 %
07.06.2018 03:13 16,9 C 24,4 C 92 % 1012,1 hPa 0,0 l/m 4,2 km/h (1 Bft) O-NO 76 0 min 0,000 mm 0,0 UV-I 0 W/m 15,6 C 16,9 C 4,8 km/h (1 Bft) 95,83 %
07.06.2018 03:14 16,9 C 24,4 C 92 % 1012,1 hPa 0,0 l/m 6,1 km/h (2 Bft) O-NO 78 0 min 0,000 mm 0,0 UV-I 0 W/m 15,6 C 16,9 C 9,7 km/h (2 Bft) 95,65 %
07.06.2018 03:15 16,8 C 24,4 C 92 % 1012,1 hPa 0,0 l/m 7,3 km/h (2 Bft) O-NO 69 0 min 0,000 mm 0,0 UV-I 0 W/m 15,5 C 16,3 C 8,0 km/h (2 Bft) 100,00 %
07.06.2018 03:16 16,8 C 24,4 C 92 % 1012,1 hPa 0,0 l/m 6,9 km/h (2 Bft) O 80 0 min 0,000 mm 0,0 UV-I 0 W/m 15,5 C 16,5 C 8,0 km/h (2 Bft) 100,00 %
07.06.2018 03:17 16,8 C 24,4 C 92 % 1012,1 hPa 0,0 l/m 5,6 km/h (1 Bft) NO 44 0 min 0,000 mm 0,0 UV-I 0 W/m 15,5 C 16,8 C 8,0 km/h (2 Bft) 100,00 %
07.06.2018 03:18 16,8 C 24,4 C 92 % 1012,1 hPa 0,0 l/m 7,8 km/h (2 Bft) O-NO 59 0 min 0,000 mm 0,0 UV-I 0 W/m 15,5 C 16,1 C 11,3 km/h (2 Bft) 100,00 %
07.06.2018 03:19 16,8 C 24,4 C 92 % 1012,1 hPa 0,0 l/m 6,4 km/h (2 Bft) NO 54 0 min 0,000 mm 0,0 UV-I 0 W/m 15,5 C 16,8 C 11,3 km/h (2 Bft) 100,00 %
07.06.2018 03:20 16,8 C 24,4 C 92 % 1012,1 hPa 0,0 l/m 7,6 km/h (2 Bft) O 83 0 min 0,000 mm 0,0 UV-I 0 W/m 15,5 C 16,2 C 9,7 km/h (2 Bft) 95,65 %
07.06.2018 03:21 16,8 C 24,4 C 92 % 1012,1 hPa 0,0 l/m 6,8 km/h (2 Bft) O 81 0 min 0,000 mm 0,0 UV-I 0 W/m 15,5 C 16,6 C 11,3 km/h (2 Bft) 95,83 %
07.06.2018 03:22 16,8 C 24,4 C 92 % 1012,1 hPa 0,0 l/m 6,8 km/h (2 Bft) O 93 0 min 0,000 mm 0,0 UV-I 0 W/m 15,5 C 16,6 C 9,7 km/h (2 Bft) 100,00 %
07.06.2018 03:23 16,8 C 24,4 C 92 % 1012,1 hPa 0,0 l/m 7,1 km/h (2 Bft) O-NO 61 0 min 0,000 mm 0,0 UV-I 0 W/m 15,5 C 16,4 C 11,3 km/h (2 Bft) 95,83 %
07.06.2018 03:24 16,8 C 24,4 C 92 % 1012,0 hPa 0,0 l/m 6,4 km/h (2 Bft) O-NO 59 0 min 0,000 mm 0,0 UV-I 0 W/m 15,5 C 16,8 C 8,0 km/h (2 Bft) 100,00 %
07.06.2018 03:25 16,8 C 24,4 C 92 % 1012,0 hPa 0,0 l/m 9,5 km/h (2 Bft) O-NO 76 0 min 0,000 mm 0,0 UV-I 0 W/m 15,5 C 15,3 C 12,9 km/h (3 Bft) 100,00 %
07.06.2018 03:26 16,8 C 24,4 C 92 % 1012,0 hPa 0,0 l/m 11,0 km/h (2 Bft) O-NO 74 0 min 0,000 mm 0,0 UV-I 0 W/m 15,5 C 14,7 C 14,5 km/h (3 Bft) 100,00 %
07.06.2018 03:27 16,8 C 24,4 C 92 % 1012,0 hPa 0,0 l/m 10,1 km/h (2 Bft) O-SO 107 0 min 0,000 mm 0,0 UV-I 0 W/m 15,5 C 15,1 C 14,5 km/h (3 Bft) 100,00 %
07.06.2018 03:28 16,8 C 24,4 C 92 % 1012,0 hPa 0,0 l/m 9,2 km/h (2 Bft) O 81 0 min 0,000 mm 0,0 UV-I 0 W/m 15,5 C 15,4 C 14,5 km/h (3 Bft) 95,65 %
07.06.2018 03:29 16,8 C 24,4 C 92 % 1012,0 hPa 0,0 l/m 11,3 km/h (2 Bft) O-NO 71 0 min 0,000 mm 0,0 UV-I 0 W/m 15,5 C 14,6 C 16,1 km/h (3 Bft) 100,00 %
07.06.2018 03:30 16,7 C 24,4 C 92 % 1012,0 hPa 0,0 l/m 11,9 km/h (2 Bft) O-SO 111 0 min 0,000 mm 0,0 UV-I 0 W/m 15,4 C 14,3 C 14,5 km/h (3 Bft) 95,65 %
07.06.2018 03:31 16,7 C 24,4 C 92 % 1012,0 hPa 0,0 l/m 11,1 km/h (2 Bft) O 100 0 min 0,000 mm 0,0 UV-I 0 W/m 15,4 C 14,6 C 14,5 km/h (3 Bft) 95,83 %
07.06.2018 03:32 16,7 C 24,4 C 92 % 1012,0 hPa 0,0 l/m 13,0 km/h (3 Bft) O-NO 70 0 min 0,000 mm 0,0 UV-I 0 W/m 15,4 C 13,9 C 17,7 km/h (3 Bft) 100,00 %
07.06.2018 03:33 16,7 C 24,4 C 92 % 1012,0 hPa 0,0 l/m 12,2 km/h (2 Bft) O-NO 69 0 min 0,000 mm 0,0 UV-I 0 W/m 15,4 C 14,2 C 16,1 km/h (3 Bft) 100,00 %
07.06.2018 03:34 16,7 C 24,4 C 92 % 1012,1 hPa 0,0 l/m 8,9 km/h (2 Bft) O 86 0 min 0,000 mm 0,0 UV-I 0 W/m 15,4 C 15,5 C 14,5 km/h (3 Bft) 100,00 %
07.06.2018 03:35 16,7 C 24,4 C 92 % 1012,0 hPa 0,0 l/m 14,7 km/h (3 Bft) O-NO 73 0 min 0,000 mm 0,0 UV-I 0 W/m 15,4 C 13,3 C 17,7 km/h (3 Bft) 95,65 %
07.06.2018 03:36 16,6 C 24,4 C 92 % 1012,0 hPa 0,0 l/m 9,9 km/h (2 Bft) O-SO 103 0 min 0,000 mm 0,0 UV-I 0 W/m 15,3 C 14,9 C 14,5 km/h (3 Bft) 95,83 %
07.06.2018 03:37 16,6 C 24,4 C 92 % 1012,0 hPa 0,0 l/m 8,0 km/h (2 Bft) O 89 0 min 0,000 mm 0,0 UV-I 0 W/m 15,3 C 15,8 C 11,3 km/h (2 Bft) 91,30 %
07.06.2018 03:38 16,6 C 24,4 C 92 % 1012,0 hPa 0,0 l/m 9,8 km/h (2 Bft) O 82 0 min 0,000 mm 0,0 UV-I 0 W/m 15,3 C 15,0 C 12,9 km/h (3 Bft) 95,83 %
07.06.2018 03:39 16,6 C 24,4 C 92 % 1012,1 hPa 0,0 l/m 9,3 km/h (2 Bft) O 85 0 min 0,000 mm 0,0 UV-I 0 W/m 15,3 C 15,2 C 12,9 km/h (3 Bft) 95,65 %
07.06.2018 03:40 16,5 C 24,4 C 92 % 1012,1 hPa 0,0 l/m 9,2 km/h (2 Bft) O 85 0 min 0,000 mm 0,0 UV-I 0 W/m 15,2 C 15,1 C 12,9 km/h (3 Bft) 95,83 %
07.06.2018 03:41 16,5 C 24,4 C 92 % 1012,1 hPa 0,0 l/m 5,4 km/h (1 Bft) O 101 0 min 0,000 mm 0,0 UV-I 0 W/m 15,2 C 16,5 C 8,0 km/h (2 Bft) 91,30 %
07.06.2018 03:42 16,4 C 24,4 C 92 % 1012,1 hPa 0,0 l/m 9,5 km/h (2 Bft) O-SO 104 0 min 0,000 mm 0,0 UV-I 0 W/m 15,1 C 14,9 C 16,1 km/h (3 Bft) 95,83 %
07.06.2018 03:43 16,4 C 24,4 C 92 % 1012,1 hPa 0,0 l/m 12,9 km/h (3 Bft) O 84 0 min 0,000 mm 0,0 UV-I 0 W/m 15,1 C 13,6 C 17,7 km/h (3 Bft) 91,30 %
07.06.2018 03:44 16,4 C 24,4 C 92 % 1012,1 hPa 0,0 l/m 10,1 km/h (2 Bft) O-SO 103 0 min 0,000 mm 0,0 UV-I 0 W/m 15,1 C 14,6 C 14,5 km/h (3 Bft) 96,30 %
07.06.2018 03:45 16,4 C 24,4 C 92 % 1012,1 hPa 0,0 l/m 8,4 km/h (2 Bft) O-NO 78 0 min 0,000 mm 0,0 UV-I 0 W/m 15,1 C 15,4 C 11,3 km/h (2 Bft) 96,00 %
07.06.2018 03:46 16,4 C 24,4 C 92 % 1012,1 hPa 0,0 l/m 10,8 km/h (2 Bft) O 90 0 min 0,000 mm 0,0 UV-I 0 W/m 15,1 C 14,3 C 14,5 km/h (3 Bft) 95,83 %
07.06.2018 03:47 16,3 C 24,4 C 92 % 1012,1 hPa 0,0 l/m 10,3 km/h (2 Bft) O-SO 105 0 min 0,000 mm 0,0 UV-I 0 W/m 15,0 C 14,4 C 14,5 km/h (3 Bft) 92,31 %
07.06.2018 03:48 16,3 C 24,4 C 92 % 1012,1 hPa 0,0 l/m 9,9 km/h (2 Bft) O-NO 71 0 min 0,000 mm 0,0 UV-I 0 W/m 15,0 C 14,6 C 12,9 km/h (3 Bft) 95,83 %
07.06.2018 03:49 16,3 C 24,4 C 92 % 1012,0 hPa 0,0 l/m 8,0 km/h (2 Bft) O 93 0 min 0,000 mm 0,0 UV-I 0 W/m 15,0 C 15,5 C 11,3 km/h (2 Bft) 96,55 %
07.06.2018 03:50 16,3 C 24,4 C 92 % 1012,0 hPa 0,0 l/m 11,3 km/h (2 Bft) O 99 0 min 0,000 mm 0,0 UV-I 0 W/m 15,0 C 14,0 C 14,5 km/h (3 Bft) 91,67 %
07.06.2018 03:51 16,3 C 24,4 C 92 % 1012,0 hPa 0,0 l/m 10,1 km/h (2 Bft) O-NO 68 0 min 0,000 mm 0,0 UV-I 0 W/m 15,0 C 14,5 C 14,5 km/h (3 Bft) 95,65 %
07.06.2018 03:52 16,3 C 24,4 C 92 % 1012,0 hPa 0,0 l/m 9,3 km/h (2 Bft) O-NO 76 0 min 0,000 mm 0,0 UV-I 0 W/m 15,0 C 14,9 C 12,9 km/h (3 Bft) 87,50 %
07.06.2018 03:53 16,2 C 24,4 C 92 % 1012,0 hPa 0,0 l/m 9,2 km/h (2 Bft) O 84 0 min 0,000 mm 0,0 UV-I 0 W/m 14,9 C 14,8 C 16,1 km/h (3 Bft) 95,65 %
07.06.2018 03:54 16,2 C 24,4 C 92 % 1012,0 hPa 0,0 l/m 10,6 km/h (2 Bft) O-NO 75 0 min 0,000 mm 0,0 UV-I 0 W/m 14,9 C 14,2 C 14,5 km/h (3 Bft) 91,67 %
07.06.2018 03:55 16,2 C 24,4 C 92 % 1012,0 hPa 0,0 l/m 11,1 km/h (2 Bft) O-NO 63 0 min 0,000 mm 0,0 UV-I 0 W/m 14,9 C 14,0 C 14,5 km/h (3 Bft) 95,65 %
07.06.2018 03:56 16,2 C 24,4 C 92 % 1012,0 hPa 0,0 l/m 8,9 km/h (2 Bft) O 90 0 min 0,000 mm 0,0 UV-I 0 W/m 14,9 C 14,9 C 14,5 km/h (3 Bft) 92,59 %
07.06.2018 03:57 16,2 C 24,4 C 92 % 1012,0 hPa 0,0 l/m 9,4 km/h (2 Bft) O-NO 75 0 min 0,000 mm 0,0 UV-I 0 W/m 14,9 C 14,7 C 12,9 km/h (3 Bft) 91,67 %
07.06.2018 03:58 16,2 C 24,4 C 93 % 1012,0 hPa 0,0 l/m 7,2 km/h (2 Bft) O 92 0 min 0,000 mm 0,0 UV-I 0 W/m 15,1 C 15,8 C 11,3 km/h (2 Bft) 95,65 %
07.06.2018 03:59 16,2 C 24,4 C 93 % 1012,0 hPa 0,0 l/m 13,6 km/h (3 Bft) O-NO 65 0 min 0,000 mm 0,0 UV-I 0 W/m 15,1 C 13,1 C 16,1 km/h (3 Bft) 95,83 %
07.06.2018 04:00 16,2 C 24,4 C 93 % 1012,0 hPa 0,0 l/m 11,9 km/h (2 Bft) O 101 0 min 0,000 mm 0,0 UV-I 0 W/m 15,1 C 13,7 C 14,5 km/h (3 Bft) 95,65 %
07.06.2018 04:03 16,1 C 24,4 C 92 % 1012,0 hPa 0,0 l/m 11,6 km/h (2 Bft) O 90 0 min 0,000 mm 0,0 UV-I 0 W/m 14,8 C 13,7 C 19,3 km/h (3 Bft) 92,00 %
07.06.2018 04:04 16,1 C 24,4 C 92 % 1012,0 hPa 0,0 l/m 13,8 km/h (3 Bft) O 87 0 min 0,000 mm 0,0 UV-I 0 W/m 14,8 C 12,9 C 16,1 km/h (3 Bft) 90,91 %
07.06.2018 04:05 16,1 C 24,4 C 92 % 1012,1 hPa 0,0 l/m 7,5 km/h (2 Bft) O 86 0 min 0,000 mm 0,0 UV-I 0 W/m 14,8 C 15,5 C 12,9 km/h (3 Bft) 95,83 %
07.06.2018 04:06 16,1 C 24,4 C 92 % 1012,1 hPa 0,0 l/m 8,9 km/h (2 Bft) O-SO 115 0 min 0,000 mm 0,0 UV-I 0 W/m 14,8 C 14,8 C 12,9 km/h (3 Bft) 91,30 %
07.06.2018 04:07 16,1 C 24,4 C 92 % 1012,1 hPa 0,0 l/m 10,1 km/h (2 Bft) O 101 0 min 0,000 mm 0,0 UV-I 0 W/m 14,8 C 14,3 C 14,5 km/h (3 Bft) 95,83 %
07.06.2018 04:08 16,1 C 24,4 C 92 % 1012,1 hPa 0,0 l/m 5,7 km/h (1 Bft) O-SO 116 0 min 0,000 mm 0,0 UV-I 0 W/m 14,8 C 16,1 C 9,7 km/h (2 Bft) 95,65 %
07.06.2018 04:09 16,1 C 24,4 C 92 % 1012,1 hPa 0,0 l/m 7,4 km/h (2 Bft) O-SO 111 0 min 0,000 mm 0,0 UV-I 0 W/m 14,8 C 15,6 C 12,9 km/h (3 Bft) 95,83 %
07.06.2018 04:10 16,1 C 24,4 C 92 % 1012,1 hPa 0,0 l/m 6,6 km/h (2 Bft) O 98 0 min 0,000 mm 0,0 UV-I 0 W/m 14,8 C 16,0 C 11,3 km/h (2 Bft) 100,00 %
07.06.2018 04:11 16,1 C 24,4 C 92 % 1012,2 hPa 0,0 l/m 8,7 km/h (2 Bft) O 94 0 min 0,000 mm 0,0 UV-I 0 W/m 14,8 C 14,9 C 11,3 km/h (2 Bft) 95,65 %
07.06.2018 04:12 16,1 C 24,4 C 92 % 1012,2 hPa 0,0 l/m 3,8 km/h (1 Bft) O-SO 117 0 min 0,000 mm 0,0 UV-I 0 W/m 14,8 C 16,1 C 4,8 km/h (1 Bft) 95,83 %
07.06.2018 04:13 16,1 C 24,4 C 92 % 1012,2 hPa 0,0 l/m 10,0 km/h (2 Bft) O-SO 123 0 min 0,000 mm 0,0 UV-I 0 W/m 14,8 C 14,3 C 16,1 km/h (3 Bft) 91,30 %
07.06.2018 04:14 16,1 C 24,4 C 92 % 1012,2 hPa 0,0 l/m 9,6 km/h (2 Bft) O-SO 113 0 min 0,000 mm 0,0 UV-I 0 W/m 14,8 C 14,5 C 14,5 km/h (3 Bft) 100,00 %
07.06.2018 04:15 16,1 C 24,4 C 92 % 1012,2 hPa 0,0 l/m 8,4 km/h (2 Bft) O-SO 116 0 min 0,000 mm 0,0 UV-I 0 W/m 14,8 C 15,1 C 12,9 km/h (3 Bft) 95,65 %
07.06.2018 04:16 16,1 C 24,4 C 93 % 1012,2 hPa 0,0 l/m 9,4 km/h (2 Bft) SO 134 0 min 0,000 mm 0,0 UV-I 0 W/m 15,0 C 14,6 C 16,1 km/h (3 Bft) 100,00 %
07.06.2018 04:17 16,1 C 24,4 C 92 % 1012,2 hPa 0,0 l/m 10,1 km/h (2 Bft) SO 130 0 min 0,000 mm 0,0 UV-I 0 W/m 14,8 C 14,3 C 14,5 km/h (3 Bft) 92,31 %
07.06.2018 04:19 16,1 C 24,4 C 92 % 1012,2 hPa 0,0 l/m 6,1 km/h (2 Bft) SO 143 0 min 0,000 mm 0,0 UV-I 0 W/m 14,8 C 16,1 C 12,9 km/h (3 Bft) 95,74 %
07.06.2018 04:20 16,1 C 24,4 C 92 % 1012,2 hPa 0,0 l/m 7,6 km/h (2 Bft) SO 128 0 min 0,000 mm 0,0 UV-I 0 W/m 14,8 C 15,5 C 12,9 km/h (3 Bft) 91,67 %
07.06.2018 04:21 16,1 C 24,4 C 92 % 1012,2 hPa 0,0 l/m 4,5 km/h (1 Bft) SO 129 0 min 0,000 mm 0,0 UV-I 0 W/m 14,8 C 16,1 C 8,0 km/h (2 Bft) 100,00 %
07.06.2018 04:22 16,1 C 24,4 C 92 % 1012,3 hPa 0,0 l/m 4,2 km/h (1 Bft) O-SO 118 0 min 0,000 mm 0,0 UV-I 0 W/m 14,8 C 16,1 C 6,4 km/h (2 Bft) 95,83 %
07.06.2018 04:23 16,1 C 24,4 C 92 % 1012,3 hPa 0,0 l/m 6,4 km/h (2 Bft) O 92 0 min 0,000 mm 0,0 UV-I 0 W/m 14,8 C 16,1 C 11,3 km/h (2 Bft) 95,65 %
07.06.2018 04:24 16,1 C 24,4 C 92 % 1012,2 hPa 0,0 l/m 7,2 km/h (2 Bft) O-SO 123 0 min 0,000 mm 0,0 UV-I 0 W/m 14,8 C 15,7 C 9,7 km/h (2 Bft) 95,83 %
07.06.2018 04:25 16,1 C 24,4 C 92 % 1012,2 hPa 0,0 l/m 7,5 km/h (2 Bft) O-SO 123 0 min 0,000 mm 0,0 UV-I 0 W/m 14,8 C 15,5 C 11,3 km/h (2 Bft) 100,00 %
07.06.2018 04:26 16,1 C 24,4 C 92 % 1012,3 hPa 0,0 l/m 9,0 km/h (2 Bft) SO 130 0 min 0,000 mm 0,0 UV-I 0 W/m 14,8 C 14,8 C 12,9 km/h (3 Bft) 95,83 %
07.06.2018 04:27 16,0 C 24,4 C 92 % 1012,3 hPa 0,0 l/m 5,6 km/h (1 Bft) S-SO 147 0 min 0,000 mm 0,0 UV-I 0 W/m 14,7 C 16,0 C 9,7 km/h (2 Bft) 95,65 %
07.06.2018 04:28 16,0 C 24,4 C 92 % 1012,3 hPa 0,0 l/m 4,1 km/h (1 Bft) O-SO 110 0 min 0,000 mm 0,0 UV-I 0 W/m 14,7 C 16,0 C 9,7 km/h (2 Bft) 100,00 %
07.06.2018 04:29 15,9 C 24,4 C 92 % 1012,3 hPa 0,0 l/m 5,2 km/h (1 Bft) SO 130 0 min 0,000 mm 0,0 UV-I 0 W/m 14,6 C 15,9 C 8,0 km/h (2 Bft) 95,83 %
07.06.2018 04:30 15,9 C 24,4 C 92 % 1012,3 hPa 0,0 l/m 6,2 km/h (2 Bft) SO 139 0 min 0,000 mm 0,0 UV-I 0 W/m 14,6 C 15,9 C 8,0 km/h (2 Bft) 100,00 %
07.06.2018 04:31 15,9 C 24,4 C 93 % 1012,3 hPa 0,0 l/m 5,6 km/h (1 Bft) O 96 0 min 0,000 mm 0,0 UV-I 0 W/m 14,8 C 15,9 C 8,0 km/h (2 Bft) 95,83 %
07.06.2018 04:32 15,9 C 24,4 C 93 % 1012,3 hPa 0,0 l/m 3,8 km/h (1 Bft) SO 136 0 min 0,000 mm 0,0 UV-I 0 W/m 14,8 C 15,9 C 4,8 km/h (1 Bft) 95,65 %
07.06.2018 04:33 15,9 C 24,4 C 93 % 1012,3 hPa 0,0 l/m 5,5 km/h (1 Bft) SO 137 0 min 0,000 mm 0,0 UV-I 0 W/m 14,8 C 15,9 C 8,0 km/h (2 Bft) 95,83 %
07.06.2018 04:34 15,9 C 24,4 C 93 % 1012,3 hPa 0,0 l/m 4,6 km/h (1 Bft) S-SO 161 0 min 0,000 mm 0,0 UV-I 0 W/m 14,8 C 15,9 C 6,4 km/h (2 Bft) 95,65 %
07.06.2018 04:35 15,9 C 24,4 C 93 % 1012,3 hPa 0,0 l/m 5,8 km/h (2 Bft) O-SO 113 0 min 0,000 mm 0,0 UV-I 0 W/m 14,8 C 15,9 C 11,3 km/h (2 Bft) 95,83 %
07.06.2018 04:36 15,9 C 24,4 C 93 % 1012,4 hPa 0,0 l/m 5,6 km/h (1 Bft) O-SO 111 0 min 0,000 mm 0,0 UV-I 0 W/m 14,8 C 15,9 C 9,7 km/h (2 Bft) 95,65 %
07.06.2018 04:37 15,9 C 24,4 C 93 % 1012,3 hPa 0,0 l/m 5,9 km/h (2 Bft) O-SO 109 0 min 0,000 mm 0,0 UV-I 0 W/m 14,8 C 15,9 C 9,7 km/h (2 Bft) 95,83 %
07.06.2018 04:38 15,8 C 24,4 C 93 % 1012,4 hPa 0,0 l/m 4,6 km/h (1 Bft) O-SO 117 0 min 0,000 mm 0,0 UV-I 0 W/m 14,7 C 15,8 C 6,4 km/h (2 Bft) 92,31 %
07.06.2018 04:39 15,8 C 24,4 C 93 % 1012,3 hPa 0,0 l/m 8,3 km/h (2 Bft) O-SO 113 0 min 0,000 mm 0,0 UV-I 0 W/m 14,7 C 14,8 C 11,3 km/h (2 Bft) 95,83 %
07.06.2018 04:40 15,8 C 24,4 C 93 % 1012,3 hPa 0,0 l/m 7,3 km/h (2 Bft) SO 128 0 min 0,000 mm 0,0 UV-I 0 W/m 14,7 C 15,3 C 11,3 km/h (2 Bft) 100,00 %
07.06.2018 04:41 15,8 C 24,4 C 93 % 1012,3 hPa 0,0 l/m 6,8 km/h (2 Bft) O-SO 109 0 min 0,000 mm 0,0 UV-I 0 W/m 14,7 C 15,6 C 11,3 km/h (2 Bft) 100,00 %
07.06.2018 04:42 15,8 C 24,4 C 93 % 1012,3 hPa 0,0 l/m 8,2 km/h (2 Bft) S-SO 148 0 min 0,000 mm 0,0 UV-I 0 W/m 14,7 C 14,8 C 14,5 km/h (3 Bft) 96,15 %
07.06.2018 04:43 15,8 C 24,4 C 93 % 1012,3 hPa 0,0 l/m 4,9 km/h (1 Bft) O 79 0 min 0,000 mm 0,0 UV-I 0 W/m 14,7 C 15,8 C 6,4 km/h (2 Bft) 100,00 %
07.06.2018 04:44 15,8 C 24,4 C 93 % 1012,3 hPa 0,0 l/m 3,7 km/h (1 Bft) O-SO 118 0 min 0,000 mm 0,0 UV-I 0 W/m 14,7 C 15,8 C 4,8 km/h (1 Bft) 95,65 %
07.06.2018 04:45 15,8 C 24,4 C 93 % 1012,3 hPa 0,0 l/m 4,8 km/h (1 Bft) O 98 0 min 0,000 mm 0,0 UV-I 0 W/m 14,7 C 15,8 C 6,4 km/h (2 Bft) 100,00 %
07.06.2018 04:46 15,8 C 24,4 C 93 % 1012,4 hPa 0,0 l/m 5,4 km/h (1 Bft) O 95 0 min 0,000 mm 0,0 UV-I 0 W/m 14,7 C 15,8 C 9,7 km/h (2 Bft) 100,00 %
07.06.2018 04:47 15,8 C 24,4 C 93 % 1012,4 hPa 0,0 l/m 4,9 km/h (1 Bft) NO 50 0 min 0,000 mm 0,0 UV-I 0 W/m 14,7 C 15,8 C 6,4 km/h (2 Bft) 92,59 %
07.06.2018 04:48 15,8 C 24,4 C 93 % 1012,4 hPa 0,0 l/m 6,2 km/h (2 Bft) O-NO 75 0 min 0,000 mm 0,0 UV-I 0 W/m 14,7 C 15,8 C 8,0 km/h (2 Bft) 95,65 %
07.06.2018 04:49 15,8 C 24,4 C 93 % 1012,4 hPa 0,0 l/m 8,8 km/h (2 Bft) O 101 0 min 0,000 mm 0,0 UV-I 0 W/m 14,7 C 14,5 C 11,3 km/h (2 Bft) 100,00 %
07.06.2018 04:50 15,8 C 24,4 C 93 % 1012,4 hPa 0,0 l/m 8,7 km/h (2 Bft) O 92 0 min 0,000 mm 0,0 UV-I 5 W/m 14,7 C 14,6 C 11,3 km/h (2 Bft) 100,00 %
07.06.2018 04:51 15,8 C 24,4 C 93 % 1012,4 hPa 0,0 l/m 7,6 km/h (2 Bft) O 96 0 min 0,000 mm 0,0 UV-I 5 W/m 14,7 C 15,1 C 11,3 km/h (2 Bft) 100,00 %
07.06.2018 04:52 15,8 C 24,4 C 93 % 1012,4 hPa 0,0 l/m 5,6 km/h (1 Bft) O 96 0 min 0,000 mm 0,0 UV-I 5 W/m 14,7 C 15,8 C 6,4 km/h (2 Bft) 100,00 %
07.06.2018 04:53 15,8 C 24,4 C 93 % 1012,4 hPa 0,0 l/m 6,6 km/h (2 Bft) O-SO 119 0 min 0,000 mm 0,0 UV-I 5 W/m 14,7 C 15,7 C 9,7 km/h (2 Bft) 100,00 %
07.06.2018 04:54 15,8 C 24,4 C 93 % 1012,4 hPa 0,0 l/m 8,5 km/h (2 Bft) O-SO 115 0 min 0,000 mm 0,0 UV-I 5 W/m 14,7 C 14,7 C 11,3 km/h (2 Bft) 100,00 %
07.06.2018 04:55 15,8 C 24,4 C 93 % 1012,4 hPa 0,0 l/m 4,4 km/h (1 Bft) O-SO 114 0 min 0,000 mm 0,0 UV-I 5 W/m 14,7 C 15,8 C 6,4 km/h (2 Bft) 100,00 %
07.06.2018 04:56 15,8 C 24,4 C 93 % 1012,4 hPa 0,0 l/m 5,7 km/h (1 Bft) O 97 0 min 0,000 mm 0,0 UV-I 5 W/m 14,7 C 15,8 C 11,3 km/h (2 Bft) 100,00 %
07.06.2018 04:57 15,8 C 24,4 C 93 % 1012,4 hPa 0,0 l/m 5,9 km/h (2 Bft) O-SO 108 0 min 0,000 mm 0,0 UV-I 5 W/m 14,7 C 15,8 C 9,7 km/h (2 Bft) 95,65 %
07.06.2018 04:58 15,8 C 24,4 C 93 % 1012,4 hPa 0,0 l/m 5,4 km/h (1 Bft) O-SO 118 0 min 0,000 mm 0,0 UV-I 5 W/m 14,7 C 15,8 C 6,4 km/h (2 Bft) 100,00 %
07.06.2018 04:59 15,8 C 24,4 C 93 % 1012,5 hPa 0,0 l/m 5,8 km/h (2 Bft) SO 140 0 min 0,000 mm 0,0 UV-I 5 W/m 14,7 C 15,8 C 9,7 km/h (2 Bft) 100,00 %
07.06.2018 05:00 15,9 C 24,4 C 93 % 1012,5 hPa 0,0 l/m 5,4 km/h (1 Bft) O-SO 120 0 min 0,000 mm 0,0 UV-I 5 W/m 14,8 C 15,9 C 9,7 km/h (2 Bft) 100,00 %
07.06.2018 05:01 15,9 C 24,4 C 93 % 1012,5 hPa 0,0 l/m 5,7 km/h (1 Bft) O-SO 102 0 min 0,000 mm 0,0 UV-I 5 W/m 14,8 C 15,9 C 9,7 km/h (2 Bft) 100,00 %
07.06.2018 05:02 15,9 C 24,4 C 93 % 1012,5 hPa 0,0 l/m 3,1 km/h (1 Bft) O 91 0 min 0,000 mm 0,0 UV-I 5 W/m 14,8 C 15,9 C 6,4 km/h (2 Bft) 100,00 %
07.06.2018 05:03 15,9 C 24,4 C 93 % 1012,6 hPa 0,0 l/m 6,0 km/h (2 Bft) O 97 0 min 0,000 mm 0,0 UV-I 7 W/m 14,8 C 15,9 C 9,7 km/h (2 Bft) 100,00 %
07.06.2018 05:04 15,9 C 24,4 C 93 % 1012,5 hPa 0,0 l/m 4,7 km/h (1 Bft) O-SO 109 0 min 0,000 mm 0,0 UV-I 7 W/m 14,8 C 15,9 C 6,4 km/h (2 Bft) 100,00 %
07.06.2018 05:05 15,9 C 24,4 C 93 % 1012,6 hPa 0,0 l/m 6,1 km/h (2 Bft) O 90 0 min 0,000 mm 0,0 UV-I 7 W/m 14,8 C 15,9 C 9,7 km/h (2 Bft) 100,00 %
07.06.2018 05:06 15,9 C 24,4 C 93 % 1012,6 hPa 0,0 l/m 7,7 km/h (2 Bft) O 90 0 min 0,000 mm 0,0 UV-I 7 W/m 14,8 C 15,2 C 11,3 km/h (2 Bft) 100,00 %
07.06.2018 05:07 15,9 C 24,4 C 93 % 1012,6 hPa 0,0 l/m 5,4 km/h (1 Bft) O-NO 77 0 min 0,000 mm 0,0 UV-I 7 W/m 14,8 C 15,9 C 8,0 km/h (2 Bft) 100,00 %
07.06.2018 05:08 15,9 C 24,4 C 93 % 1012,6 hPa 0,0 l/m 6,4 km/h (2 Bft) O 79 0 min 0,000 mm 0,0 UV-I 7 W/m 14,8 C 15,9 C 8,0 km/h (2 Bft) 95,65 %
07.06.2018 05:09 15,9 C 24,4 C 93 % 1012,6 hPa 0,0 l/m 5,5 km/h (1 Bft) O 88 0 min 0,000 mm 0,0 UV-I 8 W/m 14,8 C 15,9 C 8,0 km/h (2 Bft) 100,00 %
07.06.2018 05:10 15,9 C 24,4 C 93 % 1012,6 hPa 0,0 l/m 5,2 km/h (1 Bft) O 85 0 min 0,000 mm 0,0 UV-I 9 W/m 14,8 C 15,9 C 6,4 km/h (2 Bft) 100,00 %
07.06.2018 05:11 15,8 C 24,4 C 93 % 1012,5 hPa 0,0 l/m 4,4 km/h (1 Bft) O-NO 61 0 min 0,000 mm 0,0 UV-I 9 W/m 14,7 C 15,8 C 6,4 km/h (2 Bft) 95,83 %
07.06.2018 05:12 15,8 C 24,4 C 93 % 1012,5 hPa 0,0 l/m 5,8 km/h (2 Bft) O 87 0 min 0,000 mm 0,0 UV-I 9 W/m 14,7 C 15,8 C 8,0 km/h (2 Bft) 100,00 %
07.06.2018 05:13 15,8 C 24,4 C 93 % 1012,5 hPa 0,0 l/m 4,1 km/h (1 Bft) O-NO 74 0 min 0,000 mm 0,0 UV-I 9 W/m 14,7 C 15,8 C 6,4 km/h (2 Bft) 100,00 %
07.06.2018 05:14 15,8 C 24,4 C 93 % 1012,5 hPa 0,0 l/m 5,4 km/h (1 Bft) O-NO 72 0 min 0,000 mm 0,0 UV-I 9 W/m 14,7 C 15,8 C 6,4 km/h (2 Bft) 100,00 %
07.06.2018 05:15 15,8 C 24,4 C 93 % 1012,5 hPa 0,0 l/m 6,2 km/h (2 Bft) O 85 0 min 0,000 mm 0,0 UV-I 10 W/m 14,7 C 15,8 C 8,0 km/h (2 Bft) 95,83 %
07.06.2018 05:16 15,8 C 24,4 C 93 % 1012,5 hPa 0,0 l/m 4,5 km/h (1 Bft) O 81 0 min 0,000 mm 0,0 UV-I 11 W/m 14,7 C 15,8 C 6,4 km/h (2 Bft) 100,00 %
07.06.2018 05:17 15,8 C 24,4 C 93 % 1012,6 hPa 0,0 l/m 4,2 km/h (1 Bft) NO 55 0 min 0,000 mm 0,0 UV-I 11 W/m 14,7 C 15,8 C 6,4 km/h (2 Bft) 95,83 %
07.06.2018 05:18 15,7 C 24,4 C 93 % 1012,6 hPa 0,0 l/m 4,6 km/h (1 Bft) O-NO 65 1 min 0,000 mm 0,0 UV-I 11 W/m 14,6 C 15,7 C 6,4 km/h (2 Bft) 100,00 %
07.06.2018 05:19 15,7 C 24,4 C 93 % 1012,5 hPa 0,0 l/m 4,1 km/h (1 Bft) NO 55 1 min 0,000 mm 0,0 UV-I 12 W/m 14,6 C 15,7 C 6,4 km/h (2 Bft) 100,00 %
07.06.2018 05:20 15,7 C 24,4 C 93 % 1012,6 hPa 0,0 l/m 4,1 km/h (1 Bft) NO 55 1 min 0,000 mm 0,0 UV-I 12 W/m 14,6 C 15,7 C 4,8 km/h (1 Bft) 100,00 %
07.06.2018 05:21 15,6 C 24,4 C 93 % 1012,5 hPa 0,0 l/m 3,4 km/h (1 Bft) NO 55 0 min 0,000 mm 0,0 UV-I 12 W/m 14,5 C 15,6 C 4,8 km/h (1 Bft) 100,00 %
07.06.2018 05:22 15,6 C 24,4 C 93 % 1012,5 hPa 0,0 l/m 3,4 km/h (1 Bft) NO 55 0 min 0,000 mm 0,0 UV-I 13 W/m 14,5 C 15,6 C 4,8 km/h (1 Bft) 100,00 %
07.06.2018 05:23 15,6 C 24,4 C 94 % 1012,5 hPa 0,0 l/m 3,8 km/h (1 Bft) O 88 0 min 0,000 mm 0,0 UV-I 14 W/m 14,6 C 15,6 C 4,8 km/h (1 Bft) 100,00 %
07.06.2018 05:24 15,6 C 24,4 C 94 % 1012,5 hPa 0,0 l/m 4,3 km/h (1 Bft) O 80 0 min 0,000 mm 0,0 UV-I 14 W/m 14,6 C 15,6 C 6,4 km/h (2 Bft) 100,00 %
07.06.2018 05:25 15,6 C 24,4 C 94 % 1012,6 hPa 0,0 l/m 2,5 km/h (1 Bft) O 80 0 min 0,000 mm 0,0 UV-I 14 W/m 14,6 C 15,6 C 4,8 km/h (1 Bft) 100,00 %
07.06.2018 05:26 15,6 C 24,4 C 94 % 1012,6 hPa 0,0 l/m 3,9 km/h (1 Bft) O 85 0 min 0,000 mm 0,0 UV-I 16 W/m 14,6 C 15,6 C 4,8 km/h (1 Bft) 100,00 %
07.06.2018 05:27 15,5 C 24,4 C 94 % 1012,6 hPa 0,0 l/m 2,7 km/h (1 Bft) O-NO 63 0 min 0,000 mm 0,0 UV-I 17 W/m 14,5 C 15,5 C 4,8 km/h (1 Bft) 100,00 %
07.06.2018 05:28 15,5 C 24,4 C 94 % 1012,7 hPa 0,0 l/m 2,6 km/h (1 Bft) O 79 0 min 0,000 mm 0,0 UV-I 18 W/m 14,5 C 15,5 C 4,8 km/h (1 Bft) 100,00 %
07.06.2018 05:29 15,4 C 24,4 C 94 % 1012,7 hPa 0,0 l/m 4,3 km/h (1 Bft) O-NO 67 0 min 0,000 mm 0,0 UV-I 18 W/m 14,4 C 15,4 C 6,4 km/h (2 Bft) 100,00 %
07.06.2018 05:30 15,4 C 24,4 C 94 % 1012,6 hPa 0,0 l/m 5,2 km/h (1 Bft) NO 51 0 min 0,000 mm 0,0 UV-I 18 W/m 14,4 C 15,4 C 8,0 km/h (2 Bft) 95,65 %
07.06.2018 05:31 15,3 C 24,4 C 93 % 1012,6 hPa 0,0 l/m 4,6 km/h (1 Bft) NO 53 0 min 0,000 mm 0,0 UV-I 18 W/m 14,2 C 15,3 C 6,4 km/h (2 Bft) 95,83 %
07.06.2018 05:32 15,3 C 24,4 C 94 % 1012,7 hPa 0,0 l/m 6,0 km/h (2 Bft) NO 55 0 min 0,000 mm 0,0 UV-I 18 W/m 14,3 C 15,3 C 6,4 km/h (2 Bft) 100,00 %
07.06.2018 05:33 15,3 C 24,4 C 94 % 1012,7 hPa 0,0 l/m 4,3 km/h (1 Bft) O-NO 61 0 min 0,000 mm 0,0 UV-I 18 W/m 14,3 C 15,3 C 6,4 km/h (2 Bft) 100,00 %
07.06.2018 05:34 15,3 C 24,4 C 94 % 1012,7 hPa 0,0 l/m 4,2 km/h (1 Bft) NO 56 0 min 0,000 mm 0,0 UV-I 19 W/m 14,3 C 15,3 C 6,4 km/h (2 Bft) 95,83 %
07.06.2018 05:35 15,3 C 24,4 C 94 % 1012,7 hPa 0,0 l/m 5,6 km/h (1 Bft) NO 40 0 min 0,000 mm 0,0 UV-I 20 W/m 14,3 C 15,3 C 6,4 km/h (2 Bft) 100,00 %
07.06.2018 05:36 15,3 C 24,4 C 94 % 1012,7 hPa 0,0 l/m 6,6 km/h (2 Bft) O-NO 70 0 min 0,000 mm 0,0 UV-I 23 W/m 14,3 C 15,2 C 9,7 km/h (2 Bft) 91,67 %
07.06.2018 05:37 15,4 C 24,4 C 94 % 1012,7 hPa 0,0 l/m 6,5 km/h (2 Bft) O-NO 70 0 min 0,000 mm 0,0 UV-I 26 W/m 14,4 C 15,4 C 9,7 km/h (2 Bft) 100,00 %
07.06.2018 05:38 15,4 C 24,4 C 94 % 1012,7 hPa 0,0 l/m 8,3 km/h (2 Bft) O 79 0 min 0,000 mm 0,0 UV-I 27 W/m 14,4 C 14,4 C 12,9 km/h (3 Bft) 95,83 %
07.06.2018 05:39 15,4 C 24,4 C 94 % 1012,8 hPa 0,0 l/m 8,4 km/h (2 Bft) O-NO 60 0 min 0,000 mm 0,0 UV-I 28 W/m 14,4 C 14,3 C 14,5 km/h (3 Bft) 96,15 %
07.06.2018 05:40 15,5 C 24,4 C 94 % 1012,7 hPa 0,0 l/m 7,7 km/h (2 Bft) NO 49 0 min 0,000 mm 0,0 UV-I 30 W/m 14,5 C 14,8 C 12,9 km/h (3 Bft) 100,00 %
07.06.2018 05:41 15,6 C 24,4 C 94 % 1012,8 hPa 0,0 l/m 5,4 km/h (1 Bft) O-NO 63 0 min 0,000 mm 0,0 UV-I 30 W/m 14,6 C 15,6 C 6,4 km/h (2 Bft) 91,30 %
07.06.2018 05:42 15,6 C 24,4 C 94 % 1012,8 hPa 0,0 l/m 5,9 km/h (2 Bft) O-NO 69 0 min 0,000 mm 0,0 UV-I 30 W/m 14,6 C 15,6 C 8,0 km/h (2 Bft) 100,00 %
07.06.2018 05:43 15,7 C 24,4 C 95 % 1012,7 hPa 0,0 l/m 9,5 km/h (2 Bft) O 81 0 min 0,000 mm 0,0 UV-I 30 W/m 14,9 C 14,1 C 12,9 km/h (3 Bft) 91,30 %
07.06.2018 05:44 15,7 C 24,4 C 94 % 1012,7 hPa 0,0 l/m 10,2 km/h (2 Bft) O-NO 74 0 min 0,000 mm 0,0 UV-I 35 W/m 14,7 C 13,8 C 12,9 km/h (3 Bft) 95,83 %
07.06.2018 05:45 15,7 C 24,4 C 94 % 1012,8 hPa 0,0 l/m 8,2 km/h (2 Bft) O 84 0 min 0,000 mm 0,0 UV-I 43 W/m 14,7 C 14,7 C 11,3 km/h (2 Bft) 91,67 %
07.06.2018 05:46 15,7 C 24,4 C 94 % 1012,7 hPa 0,0 l/m 6,9 km/h (2 Bft) O 83 1 min 0,000 mm 0,0 UV-I 49 W/m 14,7 C 15,4 C 9,7 km/h (2 Bft) 95,65 %
07.06.2018 05:47 15,7 C 24,4 C 94 % 1012,8 hPa 0,0 l/m 5,2 km/h (1 Bft) O-NO 74 1 min 0,000 mm 0,0 UV-I 52 W/m 14,7 C 15,7 C 8,0 km/h (2 Bft) 95,83 %
07.06.2018 05:48 15,7 C 24,4 C 94 % 1012,8 hPa 0,0 l/m 6,0 km/h (2 Bft) O-NO 71 0 min 0,000 mm 0,0 UV-I 45 W/m 14,7 C 15,7 C 8,0 km/h (2 Bft) 95,65 %
07.06.2018 05:49 15,7 C 24,4 C 94 % 1012,8 hPa 0,0 l/m 5,8 km/h (2 Bft) O-NO 76 0 min 0,000 mm 0,0 UV-I 42 W/m 14,7 C 15,7 C 8,0 km/h (2 Bft) 100,00 %
07.06.2018 05:50 15,7 C 24,4 C 94 % 1012,8 hPa 0,0 l/m 7,0 km/h (2 Bft) O 91 0 min 0,000 mm 0,0 UV-I 43 W/m 14,7 C 15,4 C 8,0 km/h (2 Bft) 95,65 %
07.06.2018 05:51 15,7 C 24,4 C 94 % 1012,8 hPa 0,0 l/m 7,6 km/h (2 Bft) O-NO 67 0 min 0,000 mm 0,0 UV-I 40 W/m 14,7 C 15,0 C 11,3 km/h (2 Bft) 100,00 %
07.06.2018 05:52 15,7 C 24,4 C 94 % 1012,8 hPa 0,0 l/m 7,5 km/h (2 Bft) O 82 0 min 0,000 mm 0,0 UV-I 40 W/m 14,7 C 15,1 C 11,3 km/h (2 Bft) 95,65 %
07.06.2018 05:53 15,7 C 24,4 C 94 % 1012,8 hPa 0,0 l/m 7,1 km/h (2 Bft) O-NO 78 0 min 0,000 mm 0,0 UV-I 40 W/m 14,7 C 15,3 C 11,3 km/h (2 Bft) 100,00 %
07.06.2018 05:54 15,7 C 24,4 C 94 % 1012,8 hPa 0,0 l/m 7,9 km/h (2 Bft) O-NO 65 0 min 0,000 mm 0,0 UV-I 46 W/m 14,7 C 14,9 C 11,3 km/h (2 Bft) 91,30 %
07.06.2018 05:55 15,7 C 24,4 C 94 % 1012,8 hPa 0,0 l/m 7,3 km/h (2 Bft) O 92 0 min 0,000 mm 0,0 UV-I 49 W/m 14,7 C 15,2 C 12,9 km/h (3 Bft) 91,67 %
07.06.2018 05:56 15,7 C 24,4 C 94 % 1012,8 hPa 0,0 l/m 7,0 km/h (2 Bft) O 90 0 min 0,000 mm 0,0 UV-I 52 W/m 14,7 C 15,4 C 12,9 km/h (3 Bft) 100,00 %
07.06.2018 05:57 15,7 C 24,4 C 94 % 1012,8 hPa 0,0 l/m 10,1 km/h (2 Bft) O 84 0 min 0,000 mm 0,0 UV-I 54 W/m 14,7 C 13,8 C 12,9 km/h (3 Bft) 95,83 %
07.06.2018 05:58 15,7 C 24,4 C 94 % 1012,8 hPa 0,0 l/m 8,4 km/h (2 Bft) O-NO 71 0 min 0,000 mm 0,0 UV-I 62 W/m 14,7 C 14,6 C 11,3 km/h (2 Bft) 96,15 %
07.06.2018 05:59 15,7 C 24,4 C 94 % 1012,8 hPa 0,0 l/m 9,5 km/h (2 Bft) O-NO 74 1 min 0,000 mm 0,0 UV-I 71 W/m 14,7 C 14,1 C 16,1 km/h (3 Bft) 95,83 %
07.06.2018 06:00 15,7 C 24,4 C 94 % 1012,8 hPa 0,0 l/m 8,9 km/h (2 Bft) O 86 1 min 0,026 mm 0,0 UV-I 72 W/m 14,7 C 14,4 C 12,9 km/h (3 Bft) 95,65 %
07.06.2018 06:01 15,8 C 24,4 C 94 % 1012,8 hPa 0,0 l/m 8,0 km/h (2 Bft) O 86 1 min 0,000 mm 0,0 UV-I 76 W/m 14,8 C 14,9 C 11,3 km/h (2 Bft) 95,83 %
07.06.2018 06:02 15,8 C 23,9 C 94 % 1012,8 hPa 0,0 l/m 9,9 km/h (2 Bft) O-SO 105 1 min 0,000 mm 0,0 UV-I 78 W/m 14,8 C 14,0 C 14,5 km/h (3 Bft) 100,00 %
07.06.2018 06:03 15,8 C 23,9 C 94 % 1012,8 hPa 0,0 l/m 7,3 km/h (2 Bft) O 87 1 min 0,000 mm 0,0 UV-I 79 W/m 14,8 C 15,3 C 11,3 km/h (2 Bft) 96,55 %
07.06.2018 06:04 15,8 C 24,4 C 93 % 1012,8 hPa 0,0 l/m 6,4 km/h (2 Bft) O 86 1 min 0,000 mm 0,0 UV-I 79 W/m 14,7 C 15,8 C 9,7 km/h (2 Bft) 95,83 %
07.06.2018 06:05 15,8 C 24,4 C 93 % 1012,8 hPa 0,0 l/m 8,1 km/h (2 Bft) O 90 0 min 0,000 mm 0,0 UV-I 68 W/m 14,7 C 14,9 C 11,3 km/h (2 Bft) 100,00 %
07.06.2018 06:06 15,8 C 24,4 C 93 % 1012,8 hPa 0,0 l/m 7,6 km/h (2 Bft) O-NO 75 0 min 0,000 mm 0,0 UV-I 67 W/m 14,7 C 15,1 C 11,3 km/h (2 Bft) 87,50 %
07.06.2018 06:07 15,8 C 24,4 C 93 % 1012,8 hPa 0,0 l/m 8,6 km/h (2 Bft) O 99 1 min 0,000 mm 0,0 UV-I 85 W/m 14,7 C 14,6 C 11,3 km/h (2 Bft) 100,00 %
07.06.2018 06:08 15,9 C 24,4 C 93 % 1012,8 hPa 0,0 l/m 5,8 km/h (2 Bft) O 82 1 min 0,000 mm 0,0 UV-I 88 W/m 14,8 C 15,9 C 11,3 km/h (2 Bft) 95,83 %
07.06.2018 06:09 15,9 C 24,4 C 93 % 1012,8 hPa 0,0 l/m 5,8 km/h (2 Bft) O-SO 117 1 min 0,000 mm 0,0 UV-I 85 W/m 14,8 C 15,9 C 8,0 km/h (2 Bft) 95,65 %
07.06.2018 06:10 15,9 C 24,4 C 93 % 1012,8 hPa 0,0 l/m 4,6 km/h (1 Bft) O 92 1 min 0,000 mm 0,0 UV-I 102 W/m 14,8 C 15,9 C 9,7 km/h (2 Bft) 100,00 %
07.06.2018 06:11 15,9 C 24,4 C 93 % 1012,8 hPa 0,0 l/m 7,3 km/h (2 Bft) O 90 1 min 0,000 mm 0,0 UV-I 108 W/m 14,8 C 15,4 C 9,7 km/h (2 Bft) 100,00 %
07.06.2018 06:12 15,9 C 24,4 C 93 % 1012,8 hPa 0,0 l/m 6,0 km/h (2 Bft) O 82 1 min 0,000 mm 0,0 UV-I 118 W/m 14,8 C 15,9 C 9,7 km/h (2 Bft) 100,00 %
07.06.2018 06:13 15,9 C 24,4 C 93 % 1012,8 hPa 0,0 l/m 6,6 km/h (2 Bft) O 83 1 min 0,000 mm 0,0 UV-I 104 W/m 14,8 C 15,8 C 8,0 km/h (2 Bft) 100,00 %
07.06.2018 06:14 16,0 C 24,4 C 93 % 1012,8 hPa 0,0 l/m 7,1 km/h (2 Bft) O-NO 65 0 min 0,000 mm 0,0 UV-I 84 W/m 14,9 C 15,6 C 9,7 km/h (2 Bft) 100,00 %
07.06.2018 06:15 16,0 C 24,4 C 93 % 1012,8 hPa 0,0 l/m 7,2 km/h (2 Bft) O-NO 67 0 min 0,000 mm 0,0 UV-I 69 W/m 14,9 C 15,6 C 9,7 km/h (2 Bft) 100,00 %
07.06.2018 06:16 16,1 C 24,4 C 93 % 1012,8 hPa 0,0 l/m 5,9 km/h (2 Bft) O 83 0 min 0,000 mm 0,0 UV-I 80 W/m 15,0 C 16,1 C 8,0 km/h (2 Bft) 100,00 %
07.06.2018 06:17 16,1 C 24,4 C 93 % 1012,8 hPa 0,0 l/m 6,2 km/h (2 Bft) O 101 0 min 0,000 mm 0,0 UV-I 68 W/m 15,0 C 16,1 C 9,7 km/h (2 Bft) 95,65 %
07.06.2018 06:18 16,1 C 24,4 C 93 % 1012,9 hPa 0,0 l/m 7,0 km/h (2 Bft) O-NO 66 0 min 0,000 mm 0,0 UV-I 69 W/m 15,0 C 15,8 C 11,3 km/h (2 Bft) 100,00 %
07.06.2018 06:19 16,1 C 24,4 C 93 % 1012,8 hPa 0,0 l/m 8,0 km/h (2 Bft) O 95 0 min 0,000 mm 0,0 UV-I 73 W/m 15,0 C 15,3 C 12,9 km/h (3 Bft) 96,15 %
07.06.2018 06:20 16,1 C 24,4 C 93 % 1012,8 hPa 0,0 l/m 10,9 km/h (2 Bft) O-SO 117 0 min 0,000 mm 0,0 UV-I 70 W/m 15,0 C 14,0 C 14,5 km/h (3 Bft) 100,00 %
07.06.2018 06:21 16,2 C 24,4 C 93 % 1012,9 hPa 0,0 l/m 8,2 km/h (2 Bft) O 100 0 min 0,000 mm 0,0 UV-I 69 W/m 15,1 C 15,3 C 12,9 km/h (3 Bft) 100,00 %
07.06.2018 06:22 16,2 C 24,4 C 93 % 1012,9 hPa 0,0 l/m 5,2 km/h (1 Bft) O 92 0 min 0,000 mm 0,0 UV-I 70 W/m 15,1 C 16,2 C 11,3 km/h (2 Bft) 100,00 %
07.06.2018 06:23 16,2 C 24,4 C 93 % 1013,0 hPa 0,0 l/m 5,1 km/h (1 Bft) O 81 0 min 0,000 mm 0,0 UV-I 76 W/m 15,1 C 16,2 C 8,0 km/h (2 Bft) 100,00 %
07.06.2018 06:24 16,2 C 23,9 C 93 % 1013,0 hPa 0,0 l/m 2,9 km/h (1 Bft) O 81 0 min 0,000 mm 0,0 UV-I 78 W/m 15,1 C 16,2 C 4,8 km/h (1 Bft) 95,65 %
07.06.2018 06:25 16,2 C 24,4 C 92 % 1013,1 hPa 0,0 l/m 2,2 km/h (1 Bft) O 81 0 min 0,000 mm 0,0 UV-I 79 W/m 14,9 C 16,2 C 4,8 km/h (1 Bft) 100,00 %
07.06.2018 06:26 16,2 C 23,9 C 93 % 1013,1 hPa 0,0 l/m 4,0 km/h (1 Bft) O 81 0 min 0,000 mm 0,0 UV-I 71 W/m 15,1 C 16,2 C 6,4 km/h (2 Bft) 95,65 %
07.06.2018 06:27 16,3 C 23,9 C 93 % 1013,1 hPa 0,0 l/m 5,2 km/h (1 Bft) O 88 0 min 0,000 mm 0,0 UV-I 64 W/m 15,2 C 16,3 C 8,0 km/h (2 Bft) 100,00 %
07.06.2018 06:28 16,3 C 23,9 C 92 % 1013,1 hPa 0,0 l/m 4,1 km/h (1 Bft) NO 52 0 min 0,000 mm 0,0 UV-I 58 W/m 15,0 C 16,3 C 4,8 km/h (1 Bft) 100,00 %
07.06.2018 06:29 16,3 C 23,9 C 92 % 1013,1 hPa 0,0 l/m 6,1 km/h (2 Bft) O 81 0 min 0,000 mm 0,0 UV-I 58 W/m 15,0 C 16,3 C 8,0 km/h (2 Bft) 95,83 %
07.06.2018 06:30 16,3 C 23,9 C 92 % 1013,1 hPa 0,0 l/m 4,6 km/h (1 Bft) O-NO 68 0 min 0,000 mm 0,0 UV-I 57 W/m 15,0 C 16,3 C 6,4 km/h (2 Bft) 95,65 %
07.06.2018 06:31 16,3 C 23,9 C 92 % 1013,1 hPa 0,0 l/m 5,2 km/h (1 Bft) O 90 0 min 0,000 mm 0,0 UV-I 61 W/m 15,0 C 16,3 C 9,7 km/h (2 Bft) 100,00 %
07.06.2018 06:32 16,3 C 23,9 C 92 % 1013,1 hPa 0,0 l/m 6,0 km/h (2 Bft) O-NO 75 0 min 0,000 mm 0,0 UV-I 60 W/m 15,0 C 16,3 C 9,7 km/h (2 Bft) 95,65 %
07.06.2018 06:33 16,4 C 23,9 C 92 % 1013,1 hPa 0,0 l/m 4,6 km/h (1 Bft) O 85 0 min 0,000 mm 0,0 UV-I 62 W/m 15,1 C 16,4 C 8,0 km/h (2 Bft) 100,00 %
07.06.2018 06:34 16,4 C 23,9 C 92 % 1013,1 hPa 0,0 l/m 6,8 km/h (2 Bft) O-SO 103 0 min 0,000 mm 0,0 UV-I 62 W/m 15,1 C 16,2 C 14,5 km/h (3 Bft) 100,00 %
07.06.2018 06:35 16,4 C 23,9 C 92 % 1013,1 hPa 0,0 l/m 11,6 km/h (2 Bft) O 92 0 min 0,000 mm 0,0 UV-I 63 W/m 15,1 C 14,0 C 14,5 km/h (3 Bft) 100,00 %
07.06.2018 06:36 16,4 C 23,9 C 92 % 1013,1 hPa 0,0 l/m 12,3 km/h (3 Bft) O 84 0 min 0,000 mm 0,0 UV-I 67 W/m 15,1 C 13,8 C 16,1 km/h (3 Bft) 100,00 %
07.06.2018 06:37 16,5 C 23,9 C 92 % 1013,1 hPa 0,0 l/m 14,6 km/h (3 Bft) SO 128 0 min 0,000 mm 0,0 UV-I 65 W/m 15,2 C 13,1 C 17,7 km/h (3 Bft) 95,83 %
07.06.2018 06:38 16,5 C 23,9 C 92 % 1013,1 hPa 0,0 l/m 15,0 km/h (3 Bft) O-SO 110 0 min 0,000 mm 0,0 UV-I 67 W/m 15,2 C 13,0 C 17,7 km/h (3 Bft) 100,00 %
07.06.2018 06:39 16,6 C 23,9 C 92 % 1013,1 hPa 0,0 l/m 12,0 km/h (2 Bft) O-SO 102 0 min 0,000 mm 0,0 UV-I 68 W/m 15,3 C 14,1 C 19,3 km/h (3 Bft) 100,00 %
07.06.2018 06:40 16,6 C 23,9 C 92 % 1013,1 hPa 0,0 l/m 12,6 km/h (3 Bft) O-SO 104 0 min 0,000 mm 0,0 UV-I 67 W/m 15,3 C 13,9 C 17,7 km/h (3 Bft) 100,00 %
07.06.2018 06:41 16,6 C 23,9 C 91 % 1013,2 hPa 0,0 l/m 12,7 km/h (3 Bft) O 90 0 min 0,000 mm 0,0 UV-I 65 W/m 15,1 C 13,9 C 16,1 km/h (3 Bft) 100,00 %
07.06.2018 06:42 16,6 C 23,9 C 91 % 1013,2 hPa 0,0 l/m 9,5 km/h (2 Bft) O-SO 108 0 min 0,000 mm 0,0 UV-I 64 W/m 15,1 C 15,1 C 12,9 km/h (3 Bft) 100,00 %
07.06.2018 06:43 16,7 C 23,9 C 91 % 1013,2 hPa 0,0 l/m 11,4 km/h (2 Bft) O-NO 75 0 min 0,000 mm 0,0 UV-I 66 W/m 15,2 C 14,4 C 14,5 km/h (3 Bft) 100,00 %
07.06.2018 06:44 16,7 C 23,9 C 91 % 1013,2 hPa 0,0 l/m 10,1 km/h (2 Bft) O-SO 107 0 min 0,000 mm 0,0 UV-I 71 W/m 15,2 C 15,0 C 17,7 km/h (3 Bft) 95,83 %
07.06.2018 06:45 16,7 C 23,9 C 91 % 1013,2 hPa 0,0 l/m 13,5 km/h (3 Bft) O-SO 109 0 min 0,000 mm 0,0 UV-I 70 W/m 15,2 C 13,7 C 17,7 km/h (3 Bft) 100,00 %
07.06.2018 06:46 16,7 C 23,9 C 91 % 1013,2 hPa 0,0 l/m 9,0 km/h (2 Bft) O 97 0 min 0,000 mm 0,0 UV-I 70 W/m 15,2 C 15,4 C 12,9 km/h (3 Bft) 100,00 %
07.06.2018 06:47 16,7 C 23,9 C 91 % 1013,2 hPa 0,0 l/m 11,2 km/h (2 Bft) O-NO 64 0 min 0,000 mm 0,0 UV-I 76 W/m 15,2 C 14,5 C 17,7 km/h (3 Bft) 100,00 %
07.06.2018 06:48 16,7 C 23,9 C 91 % 1013,2 hPa 0,0 l/m 9,7 km/h (2 Bft) O-NO 69 0 min 0,000 mm 0,0 UV-I 76 W/m 15,2 C 15,1 C 14,5 km/h (3 Bft) 100,00 %
07.06.2018 06:49 16,7 C 23,9 C 91 % 1013,3 hPa 0,0 l/m 8,5 km/h (2 Bft) O 82 0 min 0,000 mm 0,0 UV-I 74 W/m 15,2 C 15,6 C 12,9 km/h (3 Bft) 95,65 %
07.06.2018 06:50 16,8 C 23,9 C 91 % 1013,3 hPa 0,0 l/m 5,0 km/h (1 Bft) O-NO 76 0 min 0,000 mm 0,0 UV-I 68 W/m 15,3 C 16,8 C 8,0 km/h (2 Bft) 100,00 %
07.06.2018 06:51 16,8 C 23,9 C 91 % 1013,3 hPa 0,0 l/m 5,5 km/h (1 Bft) O-NO 76 0 min 0,000 mm 0,0 UV-I 69 W/m 15,3 C 16,8 C 9,7 km/h (2 Bft) 100,00 %
07.06.2018 06:52 16,8 C 23,9 C 91 % 1013,3 hPa 0,0 l/m 8,7 km/h (2 Bft) O-SO 110 0 min 0,000 mm 0,0 UV-I 72 W/m 15,3 C 15,7 C 11,3 km/h (2 Bft) 100,00 %
07.06.2018 06:53 16,8 C 23,9 C 91 % 1013,3 hPa 0,0 l/m 11,8 km/h (2 Bft) O-SO 105 0 min 0,000 mm 0,0 UV-I 73 W/m 15,3 C 14,4 C 14,5 km/h (3 Bft) 100,00 %
07.06.2018 06:54 16,8 C 23,9 C 91 % 1013,4 hPa 0,0 l/m 13,9 km/h (3 Bft) O 97 0 min 0,000 mm 0,0 UV-I 78 W/m 15,3 C 13,7 C 17,7 km/h (3 Bft) 100,00 %
07.06.2018 06:55 16,8 C 23,9 C 91 % 1013,4 hPa 0,0 l/m 11,5 km/h (2 Bft) O 81 0 min 0,000 mm 0,0 UV-I 81 W/m 15,3 C 14,5 C 16,1 km/h (3 Bft) 95,65 %
07.06.2018 06:56 16,8 C 23,9 C 91 % 1013,4 hPa 0,0 l/m 10,6 km/h (2 Bft) O-SO 107 0 min 0,000 mm 0,0 UV-I 84 W/m 15,3 C 14,9 C 14,5 km/h (3 Bft) 100,00 %
07.06.2018 06:57 16,8 C 23,9 C 91 % 1013,4 hPa 0,0 l/m 12,0 km/h (2 Bft) O-NO 69 0 min 0,000 mm 0,0 UV-I 92 W/m 15,3 C 14,3 C 14,5 km/h (3 Bft) 100,00 %
07.06.2018 06:58 16,8 C 23,9 C 91 % 1013,3 hPa 0,0 l/m 10,2 km/h (2 Bft) O 85 0 min 0,000 mm 0,0 UV-I 92 W/m 15,3 C 15,0 C 12,9 km/h (3 Bft) 100,00 %
07.06.2018 06:59 16,9 C 23,9 C 91 % 1013,4 hPa 0,0 l/m 10,1 km/h (2 Bft) O-SO 110 0 min 0,000 mm 0,0 UV-I 97 W/m 15,4 C 15,2 C 16,1 km/h (3 Bft) 95,83 %
07.06.2018 07:00 16,9 C 23,9 C 91 % 1013,4 hPa 0,0 l/m 15,0 km/h (3 Bft) O 98 0 min 0,051 mm 0,0 UV-I 116 W/m 15,4 C 13,5 C 19,3 km/h (3 Bft) 100,00 %
07.06.2018 07:01 16,9 C 23,9 C 90 % 1013,4 hPa 0,0 l/m 10,4 km/h (2 Bft) O 90 0 min 0,000 mm 0,0 UV-I 118 W/m 15,2 C 15,1 C 12,9 km/h (3 Bft) 100,00 %
07.06.2018 07:02 16,9 C 23,9 C 91 % 1013,4 hPa 0,0 l/m 7,0 km/h (2 Bft) O-SO 103 0 min 0,000 mm 0,0 UV-I 117 W/m 15,4 C 16,6 C 11,3 km/h (2 Bft) 100,00 %
07.06.2018 07:03 16,9 C 23,9 C 90 % 1013,4 hPa 0,0 l/m 10,6 km/h (2 Bft) O 89 0 min 0,000 mm 0,0 UV-I 117 W/m 15,2 C 15,0 C 14,5 km/h (3 Bft) 100,00 %
07.06.2018 07:04 16,9 C 23,9 C 90 % 1013,4 hPa 0,0 l/m 7,8 km/h (2 Bft) O-NO 71 0 min 0,000 mm 0,0 UV-I 120 W/m 15,2 C 16,2 C 11,3 km/h (2 Bft) 100,00 %
07.06.2018 07:05 17,0 C 23,9 C 90 % 1013,4 hPa 0,0 l/m 10,9 km/h (2 Bft) O-SO 113 0 min 0,000 mm 0,0 UV-I 126 W/m 15,3 C 15,0 C 16,1 km/h (3 Bft) 95,83 %
07.06.2018 07:06 17,0 C 23,9 C 90 % 1013,4 hPa 0,0 l/m 8,0 km/h (2 Bft) O 93 0 min 0,000 mm 0,0 UV-I 121 W/m 15,3 C 16,2 C 14,5 km/h (3 Bft) 100,00 %
07.06.2018 07:07 17,1 C 23,9 C 90 % 1013,4 hPa 0,0 l/m 13,7 km/h (3 Bft) O 90 0 min 0,000 mm 0,0 UV-I 127 W/m 15,4 C 14,1 C 16,1 km/h (3 Bft) 100,00 %
07.06.2018 07:08 17,1 C 23,9 C 90 % 1013,4 hPa 0,0 l/m 11,7 km/h (2 Bft) O-SO 109 0 min 0,000 mm 0,0 UV-I 134 W/m 15,4 C 14,8 C 16,1 km/h (3 Bft) 96,55 %
07.06.2018 07:09 17,1 C 23,9 C 90 % 1013,4 hPa 0,0 l/m 10,8 km/h (2 Bft) O 89 0 min 0,000 mm 0,0 UV-I 131 W/m 15,4 C 15,1 C 16,1 km/h (3 Bft) 95,83 %
07.06.2018 07:10 17,1 C 23,9 C 90 % 1013,4 hPa 0,0 l/m 9,0 km/h (2 Bft) O 83 0 min 0,000 mm 0,0 UV-I 135 W/m 15,4 C 15,9 C 14,5 km/h (3 Bft) 95,65 %
07.06.2018 07:11 17,2 C 23,9 C 90 % 1013,5 hPa 0,0 l/m 15,8 km/h (3 Bft) O 90 0 min 0,000 mm 0,0 UV-I 150 W/m 15,5 C 13,6 C 19,3 km/h (3 Bft) 100,00 %
07.06.2018 07:12 17,2 C 23,9 C 90 % 1013,4 hPa 0,0 l/m 14,1 km/h (3 Bft) O 84 0 min 0,000 mm 0,0 UV-I 158 W/m 15,5 C 14,1 C 17,7 km/h (3 Bft) 100,00 %
07.06.2018 07:13 17,2 C 23,9 C 90 % 1013,4 hPa 0,0 l/m 13,9 km/h (3 Bft) O-SO 111 0 min 0,000 mm 0,0 UV-I 167 W/m 15,5 C 14,2 C 19,3 km/h (3 Bft) 95,83 %
07.06.2018 07:14 17,2 C 23,9 C 90 % 1013,4 hPa 0,0 l/m 13,3 km/h (3 Bft) O 82 0 min 0,000 mm 0,0 UV-I 161 W/m 15,5 C 14,4 C 17,7 km/h (3 Bft) 100,00 %
07.06.2018 07:15 17,2 C 23,9 C 89 % 1013,4 hPa 0,0 l/m 9,8 km/h (2 Bft) O 90 0 min 0,000 mm 0,0 UV-I 153 W/m 15,4 C 15,6 C 17,7 km/h (3 Bft) 95,83 %
07.06.2018 07:16 17,2 C 23,9 C 89 % 1013,4 hPa 0,0 l/m 13,4 km/h (3 Bft) O-NO 64 0 min 0,000 mm 0,0 UV-I 148 W/m 15,4 C 14,3 C 17,7 km/h (3 Bft) 100,00 %
07.06.2018 07:17 17,3 C 23,9 C 89 % 1013,4 hPa 0,0 l/m 13,3 km/h (3 Bft) O-SO 105 0 min 0,000 mm 0,0 UV-I 125 W/m 15,5 C 14,5 C 19,3 km/h (3 Bft) 95,83 %
07.06.2018 07:18 17,3 C 23,9 C 89 % 1013,5 hPa 0,0 l/m 16,0 km/h (3 Bft) O 101 0 min 0,000 mm 0,0 UV-I 113 W/m 15,5 C 13,7 C 19,3 km/h (3 Bft) 100,00 %
07.06.2018 07:19 17,3 C 23,9 C 89 % 1013,5 hPa 0,0 l/m 10,7 km/h (2 Bft) O 97 0 min 0,000 mm 0,0 UV-I 87 W/m 15,5 C 15,4 C 14,5 km/h (3 Bft) 100,00 %
07.06.2018 07:20 17,3 C 23,9 C 89 % 1013,5 hPa 0,0 l/m 8,7 km/h (2 Bft) O 93 0 min 0,000 mm 0,0 UV-I 74 W/m 15,5 C 16,2 C 14,5 km/h (3 Bft) 100,00 %
07.06.2018 07:21 17,3 C 23,9 C 89 % 1013,5 hPa 0,0 l/m 13,1 km/h (3 Bft) O-NO 65 0 min 0,000 mm 0,0 UV-I 75 W/m 15,5 C 14,6 C 16,1 km/h (3 Bft) 100,00 %
07.06.2018 07:22 17,3 C 23,9 C 89 % 1013,5 hPa 0,0 l/m 12,3 km/h (3 Bft) O 90 0 min 0,000 mm 0,0 UV-I 88 W/m 15,5 C 14,8 C 16,1 km/h (3 Bft) 95,83 %
07.06.2018 07:23 17,3 C 23,9 C 89 % 1013,5 hPa 0,0 l/m 10,8 km/h (2 Bft) O 87 0 min 0,000 mm 0,0 UV-I 98 W/m 15,5 C 15,4 C 17,7 km/h (3 Bft) 95,65 %
07.06.2018 07:24 17,3 C 23,9 C 89 % 1013,5 hPa 0,0 l/m 12,5 km/h (3 Bft) O 95 0 min 0,000 mm 0,0 UV-I 104 W/m 15,5 C 14,8 C 17,7 km/h (3 Bft) 95,83 %
07.06.2018 07:25 17,3 C 23,9 C 89 % 1013,5 hPa 0,0 l/m 11,3 km/h (2 Bft) O 98 0 min 0,000 mm 0,0 UV-I 100 W/m 15,5 C 15,2 C 17,7 km/h (3 Bft) 100,00 %
07.06.2018 07:26 17,3 C 23,9 C 89 % 1013,5 hPa 0,0 l/m 14,6 km/h (3 Bft) O 100 0 min 0,000 mm 0,0 UV-I 101 W/m 15,5 C 14,1 C 22,5 km/h (4 Bft) 95,83 %
07.06.2018 07:27 17,3 C 23,9 C 89 % 1013,5 hPa 0,0 l/m 14,6 km/h (3 Bft) O 80 0 min 0,000 mm 0,0 UV-I 105 W/m 15,5 C 14,1 C 20,9 km/h (4 Bft) 100,00 %
07.06.2018 07:28 17,3 C 23,9 C 89 % 1013,5 hPa 0,0 l/m 15,8 km/h (3 Bft) O 101 0 min 0,000 mm 0,0 UV-I 102 W/m 15,5 C 13,8 C 19,3 km/h (3 Bft) 95,83 %
07.06.2018 07:29 17,3 C 23,9 C 89 % 1013,5 hPa 0,0 l/m 13,1 km/h (3 Bft) O-SO 115 0 min 0,000 mm 0,0 UV-I 101 W/m 15,5 C 14,6 C 16,1 km/h (3 Bft) 90,91 %
07.06.2018 07:30 17,3 C 23,9 C 89 % 1013,5 hPa 0,0 l/m 13,1 km/h (3 Bft) O-SO 120 0 min 0,000 mm 0,0 UV-I 107 W/m 15,5 C 14,6 C 16,1 km/h (3 Bft) 97,22 %
07.06.2018 07:31 17,4 C 23,9 C 89 % 1013,5 hPa 0,0 l/m 9,3 km/h (2 Bft) O-SO 117 0 min 0,000 mm 0,0 UV-I 108 W/m 15,6 C 16,1 C 14,5 km/h (3 Bft) 100,00 %
07.06.2018 07:32 17,4 C 23,9 C 89 % 1013,5 hPa 0,0 l/m 10,0 km/h (2 Bft) O 79 0 min 0,000 mm 0,0 UV-I 107 W/m 15,6 C 15,8 C 12,9 km/h (3 Bft) 92,59 %
07.06.2018 07:33 17,4 C 23,9 C 89 % 1013,6 hPa 0,0 l/m 10,8 km/h (2 Bft) O 92 0 min 0,000 mm 0,3 UV-I 141 W/m 15,6 C 15,5 C 17,7 km/h (3 Bft) 100,00 %
07.06.2018 07:34 17,4 C 23,9 C 89 % 1013,6 hPa 0,0 l/m 13,1 km/h (3 Bft) O 80 0 min 0,000 mm 0,5 UV-I 149 W/m 15,6 C 14,7 C 17,7 km/h (3 Bft) 91,67 %
07.06.2018 07:35 17,5 C 23,9 C 89 % 1013,6 hPa 0,0 l/m 10,7 km/h (2 Bft) O-NO 63 0 min 0,000 mm 0,5 UV-I 149 W/m 15,7 C 15,6 C 16,1 km/h (3 Bft) 95,65 %
07.06.2018 07:36 17,5 C 23,9 C 88 % 1013,6 hPa 0,0 l/m 13,1 km/h (3 Bft) O 82 0 min 0,000 mm 0,5 UV-I 152 W/m 15,5 C 14,8 C 16,1 km/h (3 Bft) 91,67 %
07.06.2018 07:37 17,5 C 23,9 C 88 % 1013,6 hPa 0,0 l/m 12,7 km/h (3 Bft) O 100 0 min 0,000 mm 0,5 UV-I 161 W/m 15,5 C 14,9 C 16,1 km/h (3 Bft) 95,65 %
07.06.2018 07:38 17,5 C 23,9 C 88 % 1013,6 hPa 0,0 l/m 14,2 km/h (3 Bft) O 80 0 min 0,000 mm 0,5 UV-I 173 W/m 15,5 C 14,5 C 17,7 km/h (3 Bft) 91,67 %
07.06.2018 07:39 17,4 C 23,9 C 88 % 1013,6 hPa 0,0 l/m 10,1 km/h (2 Bft) O-NO 76 0 min 0,000 mm 0,5 UV-I 173 W/m 15,4 C 15,7 C 14,5 km/h (3 Bft) 91,67 %
07.06.2018 07:40 17,6 C 23,9 C 88 % 1013,6 hPa 0,0 l/m 10,1 km/h (2 Bft) O-NO 76 0 min 0,000 mm 0,5 UV-I 157 W/m 15,6 C 16,0 C 14,5 km/h (3 Bft) 100,00 %
07.06.2018 07:41 17,6 C 23,9 C 88 % 1013,6 hPa 0,0 l/m 11,8 km/h (2 Bft) O-NO 65 0 min 0,000 mm 0,5 UV-I 129 W/m 15,6 C 15,3 C 14,5 km/h (3 Bft) 95,83 %
07.06.2018 07:42 17,6 C 23,9 C 88 % 1013,7 hPa 0,0 l/m 13,5 km/h (3 Bft) O 94 0 min 0,000 mm 0,4 UV-I 116 W/m 15,6 C 14,8 C 17,7 km/h (3 Bft) 100,00 %
07.06.2018 07:43 17,6 C 23,9 C 88 % 1013,7 hPa 0,0 l/m 8,3 km/h (2 Bft) O-NO 76 0 min 0,000 mm 0,2 UV-I 113 W/m 15,6 C 16,7 C 12,9 km/h (3 Bft) 91,67 %
07.06.2018 07:44 17,6 C 23,9 C 88 % 1013,7 hPa 0,0 l/m 15,2 km/h (3 Bft) O-NO 72 0 min 0,000 mm 0,5 UV-I 124 W/m 15,6 C 14,3 C 19,3 km/h (3 Bft) 100,00 %
07.06.2018 07:45 17,6 C 23,9 C 88 % 1013,7 hPa 0,0 l/m 16,0 km/h (3 Bft) O-NO 63 0 min 0,000 mm 0,5 UV-I 141 W/m 15,6 C 14,1 C 19,3 km/h (3 Bft) 91,67 %
07.06.2018 07:46 17,6 C 23,9 C 88 % 1013,7 hPa 0,0 l/m 13,3 km/h (3 Bft) O 97 0 min 0,000 mm 0,6 UV-I 176 W/m 15,6 C 14,8 C 17,7 km/h (3 Bft) 95,65 %
07.06.2018 07:47 17,6 C 23,9 C 88 % 1013,7 hPa 0,0 l/m 13,2 km/h (3 Bft) O 90 0 min 0,000 mm 0,6 UV-I 182 W/m 15,6 C 14,9 C 17,7 km/h (3 Bft) 91,67 %
07.06.2018 07:48 17,6 C 23,9 C 88 % 1013,7 hPa 0,0 l/m 14,9 km/h (3 Bft) O-NO 74 0 min 0,000 mm 0,6 UV-I 181 W/m 15,6 C 14,4 C 19,3 km/h (3 Bft) 95,65 %
07.06.2018 07:49 17,6 C 23,9 C 88 % 1013,7 hPa 0,0 l/m 13,1 km/h (3 Bft) O-NO 69 0 min 0,000 mm 0,6 UV-I 174 W/m 15,6 C 14,9 C 19,3 km/h (3 Bft) 95,83 %
07.06.2018 07:50 17,6 C 23,9 C 88 % 1013,7 hPa 0,0 l/m 16,4 km/h (3 Bft) O 88 0 min 0,000 mm 0,6 UV-I 178 W/m 15,6 C 14,0 C 20,9 km/h (4 Bft) 92,31 %
07.06.2018 07:51 17,6 C 23,9 C 88 % 1013,7 hPa 0,0 l/m 14,9 km/h (3 Bft) O 88 0 min 0,000 mm 0,6 UV-I 173 W/m 15,6 C 14,4 C 17,7 km/h (3 Bft) 100,00 %
07.06.2018 07:52 17,7 C 23,9 C 88 % 1013,7 hPa 0,0 l/m 13,9 km/h (3 Bft) O-SO 110 0 min 0,000 mm 0,6 UV-I 177 W/m 15,7 C 14,8 C 19,3 km/h (3 Bft) 91,30 %
07.06.2018 07:53 17,7 C 23,9 C 88 % 1013,7 hPa 0,0 l/m 12,1 km/h (2 Bft) SO 130 0 min 0,000 mm 0,6 UV-I 187 W/m 15,7 C 15,3 C 16,1 km/h (3 Bft) 100,00 %
07.06.2018 07:54 17,8 C 23,9 C 88 % 1013,8 hPa 0,0 l/m 11,4 km/h (2 Bft) O-NO 71 0 min 0,000 mm 0,6 UV-I 172 W/m 15,8 C 15,7 C 16,1 km/h (3 Bft) 91,30 %
07.06.2018 07:55 17,8 C 23,9 C 87 % 1013,8 hPa 0,0 l/m 12,2 km/h (2 Bft) O 92 0 min 0,000 mm 0,6 UV-I 164 W/m 15,6 C 15,4 C 17,7 km/h (3 Bft) 100,00 %
07.06.2018 07:56 17,8 C 23,9 C 87 % 1013,8 hPa 0,0 l/m 16,4 km/h (3 Bft) O 88 0 min 0,000 mm 0,6 UV-I 164 W/m 15,6 C 14,2 C 19,3 km/h (3 Bft) 91,67 %
07.06.2018 07:57 17,8 C 23,9 C 87 % 1013,9 hPa 0,0 l/m 11,9 km/h (2 Bft) O 94 0 min 0,000 mm 0,5 UV-I 166 W/m 15,6 C 15,5 C 16,1 km/h (3 Bft) 100,00 %
07.06.2018 07:58 17,8 C 23,9 C 87 % 1013,9 hPa 0,0 l/m 12,0 km/h (2 Bft) O 84 0 min 0,000 mm 0,5 UV-I 158 W/m 15,6 C 15,5 C 16,1 km/h (3 Bft) 91,67 %
07.06.2018 07:59 17,8 C 23,9 C 87 % 1013,9 hPa 0,0 l/m 13,9 km/h (3 Bft) O 92 0 min 0,000 mm 0,6 UV-I 171 W/m 15,6 C 14,9 C 17,7 km/h (3 Bft) 95,65 %
07.06.2018 08:00 17,8 C 23,9 C 87 % 1013,9 hPa 0,0 l/m 16,0 km/h (3 Bft) O-NO 67 0 min 0,101 mm 0,6 UV-I 186 W/m 15,6 C 14,3 C 19,3 km/h (3 Bft) 91,67 %
07.06.2018 08:01 17,8 C 23,9 C 87 % 1013,9 hPa 0,0 l/m 15,1 km/h (3 Bft) O 93 0 min 0,000 mm 0,6 UV-I 196 W/m 15,6 C 14,6 C 20,9 km/h (4 Bft) 95,65 %
07.06.2018 08:02 17,8 C 23,9 C 87 % 1013,9 hPa 0,0 l/m 14,1 km/h (3 Bft) O-NO 71 0 min 0,000 mm 0,7 UV-I 200 W/m 15,6 C 14,8 C 17,7 km/h (3 Bft) 95,83 %
07.06.2018 08:03 17,8 C 23,9 C 87 % 1013,9 hPa 0,0 l/m 13,8 km/h (3 Bft) O 94 0 min 0,000 mm 0,7 UV-I 185 W/m 15,6 C 14,9 C 17,7 km/h (3 Bft) 92,31 %
07.06.2018 08:04 17,8 C 23,9 C 87 % 1013,9 hPa 0,0 l/m 14,5 km/h (3 Bft) O-SO 102 0 min 0,000 mm 0,7 UV-I 179 W/m 15,6 C 14,7 C 17,7 km/h (3 Bft) 100,00 %
07.06.2018 08:05 17,9 C 23,9 C 87 % 1013,9 hPa 0,0 l/m 13,1 km/h (3 Bft) O-NO 74 0 min 0,000 mm 0,7 UV-I 190 W/m 15,7 C 15,3 C 17,7 km/h (3 Bft) 91,30 %
07.06.2018 08:06 17,9 C 23,9 C 87 % 1013,9 hPa 0,0 l/m 12,0 km/h (2 Bft) O 84 0 min 0,000 mm 0,7 UV-I 206 W/m 15,7 C 15,6 C 16,1 km/h (3 Bft) 100,00 %
07.06.2018 08:07 17,9 C 23,9 C 87 % 1013,9 hPa 0,0 l/m 13,2 km/h (3 Bft) O 90 0 min 0,000 mm 0,7 UV-I 203 W/m 15,7 C 15,2 C 16,1 km/h (3 Bft) 95,65 %
07.06.2018 08:08 17,9 C 23,9 C 87 % 1013,9 hPa 0,0 l/m 11,5 km/h (2 Bft) O-NO 76 0 min 0,000 mm 0,7 UV-I 178 W/m 15,7 C 15,8 C 16,1 km/h (3 Bft) 100,00 %
07.06.2018 08:09 17,9 C 23,9 C 87 % 1013,9 hPa 0,0 l/m 10,9 km/h (2 Bft) O 101 0 min 0,000 mm 0,7 UV-I 177 W/m 15,7 C 16,0 C 14,5 km/h (3 Bft) 95,65 %
07.06.2018 08:10 18,0 C 23,9 C 87 % 1013,9 hPa 0,0 l/m 11,7 km/h (2 Bft) O 101 0 min 0,000 mm 0,8 UV-I 234 W/m 15,8 C 15,8 C 16,1 km/h (3 Bft) 100,00 %
07.06.2018 08:11 18,0 C 23,9 C 87 % 1013,9 hPa 0,0 l/m 11,2 km/h (2 Bft) O 101 0 min 0,000 mm 0,8 UV-I 224 W/m 15,8 C 16,0 C 16,1 km/h (3 Bft) 91,30 %
07.06.2018 08:12 18,1 C 23,9 C 86 % 1014,0 hPa 0,0 l/m 13,0 km/h (3 Bft) O 80 0 min 0,000 mm 0,9 UV-I 200 W/m 15,7 C 15,5 C 17,7 km/h (3 Bft) 95,83 %
07.06.2018 08:13 18,1 C 23,9 C 86 % 1014,0 hPa 0,0 l/m 12,4 km/h (3 Bft) O 84 0 min 0,000 mm 0,8 UV-I 198 W/m 15,7 C 15,7 C 17,7 km/h (3 Bft) 95,65 %
07.06.2018 08:14 18,2 C 23,9 C 86 % 1014,0 hPa 0,0 l/m 12,1 km/h (2 Bft) O-SO 105 1 min 0,000 mm 0,9 UV-I 262 W/m 15,8 C 15,9 C 19,3 km/h (3 Bft) 95,83 %
07.06.2018 08:15 18,2 C 23,9 C 86 % 1014,0 hPa 0,0 l/m 12,3 km/h (3 Bft) O-SO 109 0 min 0,000 mm 0,9 UV-I 238 W/m 15,8 C 15,9 C 17,7 km/h (3 Bft) 100,00 %
07.06.2018 08:16 18,2 C 23,9 C 86 % 1014,0 hPa 0,0 l/m 12,0 km/h (2 Bft) O 88 0 min 0,000 mm 0,8 UV-I 206 W/m 15,8 C 16,0 C 14,5 km/h (3 Bft) 91,30 %
07.06.2018 08:17 18,3 C 23,9 C 86 % 1014,0 hPa 0,0 l/m 12,1 km/h (2 Bft) O-SO 109 0 min 0,000 mm 0,8 UV-I 189 W/m 15,9 C 16,0 C 14,5 km/h (3 Bft) 100,00 %
07.06.2018 08:18 18,3 C 23,9 C 86 % 1014,0 hPa 0,0 l/m 8,6 km/h (2 Bft) O 84 0 min 0,000 mm 0,8 UV-I 185 W/m 15,9 C 17,3 C 11,3 km/h (2 Bft) 95,65 %
07.06.2018 08:19 18,3 C 23,9 C 86 % 1014,0 hPa 0,0 l/m 13,1 km/h (3 Bft) O 84 0 min 0,000 mm 0,7 UV-I 189 W/m 15,9 C 15,7 C 19,3 km/h (3 Bft) 100,00 %
07.06.2018 08:20 18,3 C 23,9 C 86 % 1014,0 hPa 0,0 l/m 11,1 km/h (2 Bft) O 92 0 min 0,000 mm 0,7 UV-I 186 W/m 15,9 C 16,4 C 14,5 km/h (3 Bft) 95,65 %
07.06.2018 08:21 18,3 C 23,9 C 86 % 1014,0 hPa 0,0 l/m 8,2 km/h (2 Bft) O 88 0 min 0,000 mm 0,7 UV-I 181 W/m 15,9 C 17,5 C 12,9 km/h (3 Bft) 95,83 %
07.06.2018 08:22 18,3 C 23,9 C 86 % 1014,0 hPa 0,0 l/m 12,1 km/h (2 Bft) O-NO 69 0 min 0,000 mm 0,7 UV-I 199 W/m 15,9 C 16,0 C 14,5 km/h (3 Bft) 95,65 %
07.06.2018 08:23 18,3 C 23,9 C 86 % 1014,0 hPa 0,0 l/m 14,1 km/h (3 Bft) O-SO 109 0 min 0,000 mm 0,8 UV-I 217 W/m 15,9 C 15,4 C 20,9 km/h (4 Bft) 100,00 %
07.06.2018 08:24 18,3 C 23,9 C 86 % 1014,0 hPa 0,0 l/m 13,3 km/h (3 Bft) O 90 0 min 0,000 mm 0,8 UV-I 222 W/m 15,9 C 15,7 C 19,3 km/h (3 Bft) 96,15 %
07.06.2018 08:25 18,3 C 23,9 C 86 % 1014,0 hPa 0,0 l/m 14,4 km/h (3 Bft) O-SO 105 0 min 0,000 mm 0,9 UV-I 206 W/m 15,9 C 15,4 C 20,9 km/h (4 Bft) 95,83 %
07.06.2018 08:26 18,3 C 23,9 C 85 % 1014,0 hPa 0,0 l/m 14,6 km/h (3 Bft) O-SO 119 0 min 0,000 mm 0,8 UV-I 196 W/m 15,7 C 15,3 C 17,7 km/h (3 Bft) 100,00 %
07.06.2018 08:27 18,3 C 23,9 C 86 % 1014,0 hPa 0,0 l/m 13,1 km/h (3 Bft) O 80 0 min 0,000 mm 0,7 UV-I 181 W/m 15,9 C 15,7 C 16,1 km/h (3 Bft) 95,83 %
07.06.2018 08:28 18,3 C 23,9 C 85 % 1014,1 hPa 0,0 l/m 14,6 km/h (3 Bft) O 82 0 min 0,000 mm 0,7 UV-I 179 W/m 15,7 C 15,3 C 16,1 km/h (3 Bft) 100,00 %
07.06.2018 08:29 18,3 C 23,9 C 85 % 1014,1 hPa 0,0 l/m 12,6 km/h (3 Bft) O-NO 72 0 min 0,000 mm 0,7 UV-I 185 W/m 15,7 C 15,9 C 16,1 km/h (3 Bft) 95,83 %
07.06.2018 08:30 18,3 C 23,9 C 86 % 1014,0 hPa 0,0 l/m 12,0 km/h (2 Bft) O 88 0 min 0,000 mm 0,7 UV-I 210 W/m 15,9 C 16,1 C 16,1 km/h (3 Bft) 100,00 %
07.06.2018 08:31 18,3 C 23,9 C 85 % 1014,1 hPa 0,0 l/m 15,2 km/h (3 Bft) O-NO 76 0 min 0,000 mm 0,9 UV-I 227 W/m 15,7 C 15,1 C 19,3 km/h (3 Bft) 96,15 %
07.06.2018 08:32 18,3 C 23,9 C 85 % 1014,1 hPa 0,0 l/m 13,0 km/h (3 Bft) O-NO 67 0 min 0,000 mm 0,9 UV-I 212 W/m 15,7 C 15,8 C 16,1 km/h (3 Bft) 100,00 %
07.06.2018 08:33 18,3 C 23,9 C 85 % 1014,1 hPa 0,0 l/m 13,9 km/h (3 Bft) NO 51 0 min 0,000 mm 0,9 UV-I 212 W/m 15,7 C 15,5 C 17,7 km/h (3 Bft) 100,00 %
07.06.2018 08:34 18,3 C 23,9 C 85 % 1014,1 hPa 0,0 l/m 13,6 km/h (3 Bft) O 89 0 min 0,000 mm 0,9 UV-I 217 W/m 15,7 C 15,6 C 19,3 km/h (3 Bft) 100,00 %
07.06.2018 08:35 18,3 C 23,9 C 85 % 1014,1 hPa 0,0 l/m 11,9 km/h (2 Bft) O 82 0 min 0,000 mm 0,9 UV-I 222 W/m 15,7 C 16,1 C 14,5 km/h (3 Bft) 100,00 %
07.06.2018 08:36 18,3 C 23,9 C 85 % 1014,1 hPa 0,0 l/m 15,8 km/h (3 Bft) O-SO 115 0 min 0,000 mm 0,9 UV-I 227 W/m 15,7 C 15,0 C 20,9 km/h (4 Bft) 100,00 %
07.06.2018 08:37 18,4 C 23,9 C 85 % 1014,1 hPa 0,0 l/m 15,7 km/h (3 Bft) O-NO 78 0 min 0,000 mm 0,9 UV-I 226 W/m 15,8 C 15,1 C 22,5 km/h (4 Bft) 100,00 %
07.06.2018 08:38 18,4 C 23,9 C 85 % 1014,1 hPa 0,0 l/m 14,6 km/h (3 Bft) O-SO 102 0 min 0,000 mm 0,9 UV-I 227 W/m 15,8 C 15,4 C 17,7 km/h (3 Bft) 100,00 %
07.06.2018 08:39 18,4 C 23,9 C 85 % 1014,1 hPa 0,0 l/m 12,1 km/h (2 Bft) O 100 0 min 0,000 mm 0,9 UV-I 223 W/m 15,8 C 16,2 C 16,1 km/h (3 Bft) 100,00 %
07.06.2018 08:40 18,4 C 23,9 C 85 % 1014,2 hPa 0,0 l/m 14,5 km/h (3 Bft) O-SO 108 0 min 0,000 mm 0,9 UV-I 219 W/m 15,8 C 15,4 C 19,3 km/h (3 Bft) 95,83 %
07.06.2018 08:41 18,4 C 23,9 C 85 % 1014,2 hPa 0,0 l/m 12,1 km/h (2 Bft) O 98 0 min 0,000 mm 0,9 UV-I 224 W/m 15,8 C 16,2 C 16,1 km/h (3 Bft) 100,00 %
07.06.2018 08:42 18,5 C 23,9 C 85 % 1014,1 hPa 0,0 l/m 12,2 km/h (2 Bft) O-SO 111 0 min 0,000 mm 0,9 UV-I 204 W/m 15,9 C 16,2 C 16,1 km/h (3 Bft) 100,00 %
07.06.2018 08:43 18,6 C 23,9 C 85 % 1014,1 hPa 0,0 l/m 14,0 km/h (3 Bft) O-SO 112 0 min 0,000 mm 0,9 UV-I 201 W/m 16,0 C 15,8 C 17,7 km/h (3 Bft) 91,30 %
07.06.2018 08:44 18,6 C 23,9 C 85 % 1014,1 hPa 0,0 l/m 10,9 km/h (2 Bft) O 85 0 min 0,000 mm 0,8 UV-I 210 W/m 16,0 C 16,8 C 16,1 km/h (3 Bft) 95,83 %
07.06.2018 08:45 18,6 C 23,9 C 84 % 1014,1 hPa 0,0 l/m 14,3 km/h (3 Bft) O-NO 78 0 min 0,000 mm 0,9 UV-I 232 W/m 15,8 C 15,7 C 16,1 km/h (3 Bft) 95,65 %
07.06.2018 08:46 18,6 C 23,9 C 85 % 1014,1 hPa 0,0 l/m 14,8 km/h (3 Bft) O 100 0 min 0,000 mm 1,0 UV-I 262 W/m 16,0 C 15,6 C 17,7 km/h (3 Bft) 100,00 %
07.06.2018 08:47 18,6 C 23,9 C 85 % 1014,2 hPa 0,0 l/m 12,9 km/h (3 Bft) O-SO 102 0 min 0,000 mm 1,1 UV-I 266 W/m 16,0 C 16,1 C 16,1 km/h (3 Bft) 95,65 %
07.06.2018 08:48 18,6 C 23,9 C 84 % 1014,2 hPa 0,0 l/m 14,6 km/h (3 Bft) O 79 0 min 0,000 mm 1,0 UV-I 243 W/m 15,8 C 15,7 C 19,3 km/h (3 Bft) 100,00 %
07.06.2018 08:49 18,6 C 23,9 C 84 % 1014,2 hPa 0,0 l/m 11,3 km/h (2 Bft) NO 50 0 min 0,000 mm 0,9 UV-I 231 W/m 15,8 C 16,6 C 16,1 km/h (3 Bft) 100,00 %
07.06.2018 08:50 18,6 C 23,9 C 85 % 1014,2 hPa 0,0 l/m 9,5 km/h (2 Bft) O 82 0 min 0,000 mm 1,0 UV-I 240 W/m 16,0 C 17,3 C 14,5 km/h (3 Bft) 100,00 %
07.06.2018 08:51 18,6 C 23,9 C 85 % 1014,2 hPa 0,0 l/m 12,5 km/h (3 Bft) O-NO 71 0 min 0,000 mm 1,0 UV-I 236 W/m 16,0 C 16,3 C 16,1 km/h (3 Bft) 100,00 %
07.06.2018 08:52 18,7 C 23,9 C 85 % 1014,3 hPa 0,0 l/m 12,5 km/h (3 Bft) O-NO 58 0 min 0,000 mm 1,0 UV-I 234 W/m 16,1 C 16,4 C 16,1 km/h (3 Bft) 95,65 %
07.06.2018 08:53 18,7 C 23,9 C 84 % 1014,3 hPa 0,0 l/m 13,9 km/h (3 Bft) O-NO 76 0 min 0,000 mm 1,0 UV-I 234 W/m 15,9 C 16,0 C 17,7 km/h (3 Bft) 100,00 %
07.06.2018 08:54 18,7 C 23,9 C 84 % 1014,3 hPa 0,0 l/m 11,7 km/h (2 Bft) O-NO 76 0 min 0,000 mm 1,0 UV-I 241 W/m 15,9 C 16,6 C 16,1 km/h (3 Bft) 100,00 %
07.06.2018 08:55 18,8 C 23,9 C 84 % 1014,3 hPa 0,0 l/m 10,8 km/h (2 Bft) O-SO 109 0 min 0,000 mm 1,1 UV-I 255 W/m 16,0 C 17,0 C 12,9 km/h (3 Bft) 95,83 %
07.06.2018 08:56 18,8 C 23,9 C 84 % 1014,3 hPa 0,0 l/m 12,7 km/h (3 Bft) O-SO 107 0 min 0,000 mm 1,1 UV-I 262 W/m 16,0 C 16,4 C 16,1 km/h (3 Bft) 100,00 %
07.06.2018 08:57 18,8 C 23,9 C 83 % 1014,3 hPa 0,0 l/m 13,1 km/h (3 Bft) O 86 0 min 0,000 mm 1,1 UV-I 249 W/m 15,8 C 16,3 C 17,7 km/h (3 Bft) 100,00 %
07.06.2018 08:58 18,8 C 23,9 C 83 % 1014,3 hPa 0,0 l/m 10,0 km/h (2 Bft) O-NO 65 0 min 0,000 mm 1,1 UV-I 248 W/m 15,8 C 17,3 C 14,5 km/h (3 Bft) 95,65 %
07.06.2018 08:59 18,9 C 23,9 C 84 % 1014,3 hPa 0,0 l/m 13,8 km/h (3 Bft) O-NO 65 0 min 0,000 mm 1,1 UV-I 263 W/m 16,1 C 16,2 C 19,3 km/h (3 Bft) 100,00 %
07.06.2018 09:00 18,9 C 23,9 C 83 % 1014,3 hPa 0,0 l/m 13,3 km/h (3 Bft) NO 55 0 min 0,153 mm 1,2 UV-I 271 W/m 15,9 C 16,4 C 17,7 km/h (3 Bft) 100,00 %
07.06.2018 09:01 18,9 C 23,9 C 83 % 1014,3 hPa 0,0 l/m 13,3 km/h (3 Bft) O-NO 67 0 min 0,000 mm 1,2 UV-I 269 W/m 15,9 C 16,4 C 16,1 km/h (3 Bft) 100,00 %
07.06.2018 09:02 18,8 C 23,9 C 83 % 1014,3 hPa 0,0 l/m 13,0 km/h (3 Bft) O 86 0 min 0,000 mm 1,2 UV-I 280 W/m 15,8 C 16,3 C 16,1 km/h (3 Bft) 100,00 %
07.06.2018 09:03 18,8 C 23,9 C 83 % 1014,3 hPa 0,0 l/m 10,6 km/h (2 Bft) O 88 0 min 0,000 mm 1,4 UV-I 309 W/m 15,8 C 17,1 C 16,1 km/h (3 Bft) 100,00 %
07.06.2018 09:04 18,8 C 23,9 C 84 % 1014,3 hPa 0,0 l/m 9,8 km/h (2 Bft) O 84 0 min 0,000 mm 1,3 UV-I 319 W/m 16,0 C 17,4 C 14,5 km/h (3 Bft) 100,00 %
07.06.2018 09:05 18,9 C 23,9 C 84 % 1014,3 hPa 0,0 l/m 10,2 km/h (2 Bft) O 83 1 min 0,000 mm 1,4 UV-I 330 W/m 16,1 C 17,4 C 17,7 km/h (3 Bft) 100,00 %
07.06.2018 09:06 18,9 C 23,9 C 83 % 1014,3 hPa 0,0 l/m 12,5 km/h (3 Bft) O 84 1 min 0,000 mm 1,3 UV-I 330 W/m 15,9 C 16,6 C 17,7 km/h (3 Bft) 100,00 %
07.06.2018 09:07 19,0 C 23,9 C 83 % 1014,3 hPa 0,0 l/m 12,1 km/h (2 Bft) O 92 0 min 0,000 mm 1,3 UV-I 305 W/m 16,0 C 16,8 C 16,1 km/h (3 Bft) 100,00 %
07.06.2018 09:08 19,0 C 23,9 C 83 % 1014,3 hPa 0,0 l/m 13,3 km/h (3 Bft) O 80 0 min 0,000 mm 1,3 UV-I 323 W/m 16,0 C 16,5 C 16,1 km/h (3 Bft) 91,30 %
07.06.2018 09:09 19,1 C 23,9 C 83 % 1014,2 hPa 0,0 l/m 9,7 km/h (2 Bft) O 86 0 min 0,000 mm 1,3 UV-I 273 W/m 16,1 C 17,8 C 16,1 km/h (3 Bft) 96,30 %
07.06.2018 09:10 19,1 C 23,9 C 82 % 1014,2 hPa 0,0 l/m 12,3 km/h (3 Bft) O 96 0 min 0,000 mm 1,2 UV-I 268 W/m 16,0 C 16,9 C 17,7 km/h (3 Bft) 95,65 %
07.06.2018 09:11 19,1 C 23,9 C 82 % 1014,2 hPa 0,0 l/m 15,3 km/h (3 Bft) O-SO 112 0 min 0,000 mm 1,4 UV-I 313 W/m 16,0 C 16,1 C 17,7 km/h (3 Bft) 100,00 %
07.06.2018 09:12 19,1 C 23,9 C 83 % 1014,2 hPa 0,0 l/m 12,1 km/h (2 Bft) O 99 1 min 0,000 mm 1,6 UV-I 336 W/m 16,1 C 17,0 C 16,1 km/h (3 Bft) 95,83 %
07.06.2018 09:13 19,1 C 23,9 C 82 % 1014,3 hPa 0,0 l/m 13,1 km/h (3 Bft) O-SO 109 0 min 0,000 mm 1,5 UV-I 335 W/m 16,0 C 16,7 C 19,3 km/h (3 Bft) 100,00 %
07.06.2018 09:14 19,1 C 23,9 C 82 % 1014,3 hPa 0,0 l/m 15,9 km/h (3 Bft) O-SO 103 0 min 0,000 mm 1,5 UV-I 309 W/m 16,0 C 15,9 C 20,9 km/h (4 Bft) 100,00 %
07.06.2018 09:15 19,0 C 23,9 C 82 % 1014,3 hPa 0,0 l/m 14,3 km/h (3 Bft) O-NO 69 0 min 0,000 mm 1,4 UV-I 280 W/m 15,9 C 16,2 C 19,3 km/h (3 Bft) 95,65 %
07.06.2018 09:16 19,0 C 23,9 C 82 % 1014,3 hPa 0,0 l/m 10,0 km/h (2 Bft) O 92 0 min 0,000 mm 1,3 UV-I 282 W/m 15,9 C 17,5 C 14,5 km/h (3 Bft) 100,00 %
07.06.2018 09:17 19,0 C 23,9 C 83 % 1014,3 hPa 0,0 l/m 13,6 km/h (3 Bft) O 100 0 min 0,000 mm 1,4 UV-I 335 W/m 16,0 C 16,4 C 17,7 km/h (3 Bft) 95,65 %
07.06.2018 09:18 19,0 C 23,9 C 83 % 1014,3 hPa 0,0 l/m 11,5 km/h (2 Bft) NO 40 1 min 0,000 mm 1,6 UV-I 376 W/m 16,0 C 17,0 C 14,5 km/h (3 Bft) 100,00 %
07.06.2018 09:19 19,1 C 23,9 C 83 % 1014,3 hPa 0,0 l/m 10,5 km/h (2 Bft) O-SO 118 1 min 0,000 mm 1,7 UV-I 364 W/m 16,1 C 17,5 C 14,5 km/h (3 Bft) 100,00 %
07.06.2018 09:20 19,2 C 23,9 C 83 % 1014,3 hPa 0,0 l/m 13,6 km/h (3 Bft) O 90 1 min 0,000 mm 1,9 UV-I 374 W/m 16,2 C 16,6 C 17,7 km/h (3 Bft) 96,30 %
07.06.2018 09:21 19,3 C 23,9 C 83 % 1014,3 hPa 0,0 l/m 8,3 km/h (2 Bft) O-NO 78 1 min 0,000 mm 1,8 UV-I 374 W/m 16,3 C 18,5 C 11,3 km/h (2 Bft) 100,00 %
07.06.2018 09:22 19,3 C 23,9 C 82 % 1014,3 hPa 0,0 l/m 10,1 km/h (2 Bft) O-NO 61 1 min 0,000 mm 1,7 UV-I 352 W/m 16,1 C 17,8 C 14,5 km/h (3 Bft) 100,00 %
07.06.2018 09:23 19,3 C 23,9 C 81 % 1014,3 hPa 0,0 l/m 11,7 km/h (2 Bft) O-SO 122 0 min 0,000 mm 1,7 UV-I 336 W/m 16,0 C 17,3 C 17,7 km/h (3 Bft) 100,00 %
07.06.2018 09:24 19,4 C 23,9 C 81 % 1014,3 hPa 0,0 l/m 13,3 km/h (3 Bft) O 98 1 min 0,000 mm 1,8 UV-I 406 W/m 16,1 C 17,0 C 19,3 km/h (3 Bft) 100,00 %
07.06.2018 09:25 19,4 C 23,9 C 81 % 1014,3 hPa 0,0 l/m 12,6 km/h (3 Bft) O 86 1 min 0,000 mm 1,8 UV-I 420 W/m 16,1 C 17,2 C 19,3 km/h (3 Bft) 100,00 %
07.06.2018 09:26 19,4 C 23,9 C 81 % 1014,3 hPa 0,0 l/m 14,8 km/h (3 Bft) O 92 1 min 0,000 mm 1,6 UV-I 386 W/m 16,1 C 16,6 C 19,3 km/h (3 Bft) 95,65 %
07.06.2018 09:27 19,4 C 23,9 C 81 % 1014,3 hPa 0,0 l/m 14,3 km/h (3 Bft) O 88 0 min 0,000 mm 1,5 UV-I 287 W/m 16,1 C 16,7 C 16,1 km/h (3 Bft) 100,00 %
07.06.2018 09:28 19,4 C 23,9 C 81 % 1014,3 hPa 0,0 l/m 13,4 km/h (3 Bft) O 84 0 min 0,000 mm 1,5 UV-I 299 W/m 16,1 C 16,9 C 19,3 km/h (3 Bft) 100,00 %
07.06.2018 09:29 19,4 C 23,9 C 81 % 1014,3 hPa 0,0 l/m 14,3 km/h (3 Bft) O-NO 71 0 min 0,000 mm 1,4 UV-I 295 W/m 16,1 C 16,7 C 19,3 km/h (3 Bft) 95,83 %
07.06.2018 09:30 19,3 C 23,9 C 81 % 1014,3 hPa 0,0 l/m 11,3 km/h (2 Bft) O-SO 110 0 min 0,000 mm 1,3 UV-I 276 W/m 16,0 C 17,4 C 14,5 km/h (3 Bft) 100,00 %
07.06.2018 09:31 19,3 C 23,9 C 81 % 1014,3 hPa 0,0 l/m 11,4 km/h (2 Bft) O-NO 67 0 min 0,000 mm 1,3 UV-I 275 W/m 16,0 C 17,4 C 16,1 km/h (3 Bft) 95,83 %
07.06.2018 09:32 19,3 C 23,9 C 82 % 1014,3 hPa 0,0 l/m 15,6 km/h (3 Bft) O 81 0 min 0,000 mm 1,4 UV-I 294 W/m 16,1 C 16,3 C 19,3 km/h (3 Bft) 96,15 %
07.06.2018 09:33 19,3 C 23,9 C 81 % 1014,3 hPa 0,0 l/m 12,5 km/h (3 Bft) O 88 0 min 0,000 mm 1,5 UV-I 324 W/m 16,0 C 17,1 C 17,7 km/h (3 Bft) 100,00 %
07.06.2018 09:34 19,3 C 23,9 C 81 % 1014,3 hPa 0,0 l/m 11,5 km/h (2 Bft) O 95 0 min 0,000 mm 1,6 UV-I 339 W/m 16,0 C 17,4 C 19,3 km/h (3 Bft) 96,15 %
07.06.2018 09:35 19,3 C 23,9 C 81 % 1014,3 hPa 0,0 l/m 9,3 km/h (2 Bft) O-NO 72 0 min 0,000 mm 1,7 UV-I 342 W/m 16,0 C 18,1 C 14,5 km/h (3 Bft) 100,00 %
07.06.2018 09:36 19,3 C 23,9 C 81 % 1014,3 hPa 0,0 l/m 11,2 km/h (2 Bft) O 89 0 min 0,000 mm 1,7 UV-I 341 W/m 16,0 C 17,5 C 14,5 km/h (3 Bft) 95,65 %
07.06.2018 09:37 19,3 C 23,9 C 81 % 1014,3 hPa 0,0 l/m 13,4 km/h (3 Bft) O 79 1 min 0,000 mm 1,7 UV-I 368 W/m 16,0 C 16,8 C 17,7 km/h (3 Bft) 100,00 %
07.06.2018 09:38 19,3 C 23,9 C 81 % 1014,3 hPa 0,0 l/m 9,5 km/h (2 Bft) O 86 1 min 0,000 mm 1,7 UV-I 427 W/m 16,0 C 18,0 C 12,9 km/h (3 Bft) 95,65 %
07.06.2018 09:39 19,5 C 23,9 C 82 % 1014,3 hPa 0,0 l/m 7,6 km/h (2 Bft) O 86 1 min 0,000 mm 2,1 UV-I 450 W/m 16,3 C 19,0 C 12,9 km/h (3 Bft) 95,83 %
07.06.2018 09:40 19,6 C 23,9 C 82 % 1014,3 hPa 0,0 l/m 7,4 km/h (2 Bft) O 81 1 min 0,000 mm 2,2 UV-I 434 W/m 16,4 C 19,2 C 11,3 km/h (2 Bft) 95,65 %
07.06.2018 09:41 19,7 C 23,9 C 81 % 1014,3 hPa 0,0 l/m 12,6 km/h (3 Bft) O-NO 72 1 min 0,000 mm 2,1 UV-I 434 W/m 16,3 C 17,5 C 16,1 km/h (3 Bft) 95,83 %
07.06.2018 09:42 19,8 C 23,9 C 81 % 1014,3 hPa 0,0 l/m 12,6 km/h (3 Bft) O 100 0 min 0,000 mm 1,9 UV-I 353 W/m 16,4 C 17,6 C 16,1 km/h (3 Bft) 100,00 %
07.06.2018 09:43 19,8 C 23,9 C 80 % 1014,3 hPa 0,0 l/m 9,3 km/h (2 Bft) O 82 0 min 0,000 mm 1,7 UV-I 323 W/m 16,2 C 18,7 C 14,5 km/h (3 Bft) 91,67 %
07.06.2018 09:44 19,8 C 23,9 C 80 % 1014,3 hPa 0,0 l/m 7,5 km/h (2 Bft) O 90 0 min 0,000 mm 1,6 UV-I 308 W/m 16,2 C 19,3 C 11,3 km/h (2 Bft) 100,00 %
07.06.2018 09:45 19,8 C 23,9 C 80 % 1014,3 hPa 0,0 l/m 10,9 km/h (2 Bft) O-SO 103 0 min 0,000 mm 1,5 UV-I 291 W/m 16,2 C 18,1 C 17,7 km/h (3 Bft) 96,30 %
07.06.2018 09:46 19,8 C 23,9 C 80 % 1014,4 hPa 0,0 l/m 15,3 km/h (3 Bft) O 98 0 min 0,000 mm 1,4 UV-I 295 W/m 16,2 C 16,9 C 20,9 km/h (4 Bft) 100,00 %
07.06.2018 09:47 19,8 C 23,9 C 80 % 1014,4 hPa 0,0 l/m 9,7 km/h (2 Bft) O 100 0 min 0,000 mm 1,6 UV-I 371 W/m 16,2 C 18,5 C 14,5 km/h (3 Bft) 92,31 %
07.06.2018 09:48 19,8 C 23,9 C 80 % 1014,4 hPa 0,0 l/m 15,7 km/h (3 Bft) O 97 1 min 0,000 mm 1,9 UV-I 396 W/m 16,2 C 16,8 C 22,5 km/h (4 Bft) 100,00 %
07.06.2018 09:49 19,8 C 23,9 C 80 % 1014,3 hPa 0,0 l/m 9,1 km/h (2 Bft) O 79 1 min 0,000 mm 1,8 UV-I 389 W/m 16,2 C 18,7 C 12,9 km/h (3 Bft) 95,83 %
07.06.2018 09:50 19,8 C 23,9 C 80 % 1014,4 hPa 0,0 l/m 14,0 km/h (3 Bft) O 92 0 min 0,000 mm 1,8 UV-I 357 W/m 16,2 C 17,3 C 19,3 km/h (3 Bft) 95,83 %
07.06.2018 09:51 19,8 C 23,9 C 80 % 1014,4 hPa 0,0 l/m 12,4 km/h (3 Bft) O-NO 69 1 min 0,000 mm 2,0 UV-I 386 W/m 16,2 C 17,7 C 16,1 km/h (3 Bft) 100,00 %
07.06.2018 09:52 19,8 C 23,9 C 80 % 1014,4 hPa 0,0 l/m 14,2 km/h (3 Bft) O-NO 65 1 min 0,000 mm 2,1 UV-I 415 W/m 16,2 C 17,2 C 19,3 km/h (3 Bft) 95,83 %
07.06.2018 09:53 19,8 C 23,9 C 79 % 1014,4 hPa 0,0 l/m 9,6 km/h (2 Bft) O-NO 63 1 min 0,000 mm 2,1 UV-I 395 W/m 16,0 C 18,6 C 16,1 km/h (3 Bft) 100,00 %
07.06.2018 09:54 19,8 C 23,9 C 79 % 1014,4 hPa 0,0 l/m 10,0 km/h (2 Bft) O-SO 103 0 min 0,000 mm 2,0 UV-I 351 W/m 16,0 C 18,4 C 16,1 km/h (3 Bft) 95,83 %
07.06.2018 09:55 19,8 C 23,9 C 80 % 1014,4 hPa 0,0 l/m 10,4 km/h (2 Bft) O-SO 109 0 min 0,000 mm 2,1 UV-I 362 W/m 16,2 C 18,3 C 12,9 km/h (3 Bft) 95,65 %
07.06.2018 09:56 19,9 C 23,9 C 80 % 1014,4 hPa 0,0 l/m 13,1 km/h (3 Bft) O-NO 57 0 min 0,000 mm 2,1 UV-I 362 W/m 16,3 C 17,6 C 19,3 km/h (3 Bft) 95,83 %
07.06.2018 09:57 19,9 C 23,9 C 79 % 1014,4 hPa 0,0 l/m 13,9 km/h (3 Bft) O 84 0 min 0,000 mm 2,0 UV-I 354 W/m 16,1 C 17,4 C 16,1 km/h (3 Bft) 95,65 %
07.06.2018 09:58 19,9 C 23,9 C 79 % 1014,4 hPa 0,0 l/m 11,1 km/h (2 Bft) O 79 0 min 0,000 mm 2,3 UV-I 345 W/m 16,1 C 18,2 C 16,1 km/h (3 Bft) 100,00 %
07.06.2018 09:59 19,9 C 23,9 C 79 % 1014,4 hPa 0,0 l/m 11,5 km/h (2 Bft) O 84 1 min 0,000 mm 2,3 UV-I 402 W/m 16,1 C 18,1 C 16,1 km/h (3 Bft) 91,30 %
07.06.2018 10:00 20,0 C 23,9 C 79 % 1014,4 hPa 0,0 l/m 11,2 km/h (2 Bft) O 96 1 min 0,000 mm 2,1 UV-I 399 W/m 16,2 C 18,3 C 14,5 km/h (3 Bft) 100,00 %
07.06.2018 10:01 20,1 C 23,9 C 79 % 1014,4 hPa 0,0 l/m 10,2 km/h (2 Bft) O-SO 111 0 min 0,228 mm 2,0 UV-I 370 W/m 16,3 C 18,7 C 16,1 km/h (3 Bft) 96,15 %
07.06.2018 10:02 20,2 C 23,9 C 78 % 1014,4 hPa 0,0 l/m 16,7 km/h (3 Bft) O 95 0 min 0,000 mm 2,2 UV-I 354 W/m 16,2 C 17,1 C 19,3 km/h (3 Bft) 95,83 %
07.06.2018 10:03 20,1 C 23,9 C 78 % 1014,4 hPa 0,0 l/m 13,1 km/h (3 Bft) O-NO 65 0 min 0,000 mm 1,9 UV-I 320 W/m 16,1 C 17,8 C 19,3 km/h (3 Bft) 96,15 %
07.06.2018 10:04 20,1 C 23,9 C 78 % 1014,4 hPa 0,0 l/m 10,0 km/h (2 Bft) O-NO 67 0 min 0,000 mm 1,8 UV-I 300 W/m 16,1 C 18,8 C 14,5 km/h (3 Bft) 100,00 %
07.06.2018 10:05 20,1 C 23,9 C 78 % 1014,4 hPa 0,0 l/m 12,1 km/h (2 Bft) O 97 0 min 0,000 mm 1,7 UV-I 291 W/m 16,1 C 18,1 C 16,1 km/h (3 Bft) 100,00 %
07.06.2018 10:06 20,1 C 23,9 C 78 % 1014,4 hPa 0,0 l/m 9,6 km/h (2 Bft) O 84 0 min 0,000 mm 1,8 UV-I 297 W/m 16,1 C 18,9 C 14,5 km/h (3 Bft) 100,00 %
07.06.2018 10:07 20,0 C 23,9 C 78 % 1014,4 hPa 0,0 l/m 14,4 km/h (3 Bft) O 81 0 min 0,000 mm 1,8 UV-I 301 W/m 16,0 C 17,4 C 19,3 km/h (3 Bft) 96,15 %
07.06.2018 10:08 20,1 C 23,9 C 78 % 1014,4 hPa 0,0 l/m 13,9 km/h (3 Bft) O 83 0 min 0,000 mm 1,8 UV-I 297 W/m 16,1 C 17,6 C 19,3 km/h (3 Bft) 100,00 %
07.06.2018 10:09 20,1 C 23,9 C 78 % 1014,4 hPa 0,0 l/m 12,5 km/h (3 Bft) O 92 0 min 0,000 mm 1,8 UV-I 286 W/m 16,1 C 18,0 C 16,1 km/h (3 Bft) 100,00 %
07.06.2018 10:10 20,1 C 23,9 C 78 % 1014,4 hPa 0,0 l/m 16,5 km/h (3 Bft) NO 56 0 min 0,000 mm 1,8 UV-I 281 W/m 16,1 C 17,0 C 20,9 km/h (4 Bft) 95,65 %
07.06.2018 10:11 20,1 C 23,9 C 78 % 1014,4 hPa 0,0 l/m 9,5 km/h (2 Bft) O-SO 121 0 min 0,000 mm 1,7 UV-I 274 W/m 16,1 C 18,9 C 14,5 km/h (3 Bft) 100,00 %
07.06.2018 10:12 20,0 C 23,9 C 78 % 1014,4 hPa 0,0 l/m 8,9 km/h (2 Bft) O-NO 72 0 min 0,000 mm 1,7 UV-I 289 W/m 16,0 C 19,0 C 14,5 km/h (3 Bft) 100,00 %
07.06.2018 10:13 20,0 C 23,9 C 78 % 1014,5 hPa 0,0 l/m 13,0 km/h (3 Bft) NO 41 0 min 0,000 mm 1,8 UV-I 314 W/m 16,0 C 17,8 C 17,7 km/h (3 Bft) 100,00 %
07.06.2018 10:14 20,1 C 23,9 C 79 % 1014,4 hPa 0,0 l/m 12,0 km/h (2 Bft) O-NO 76 0 min 0,000 mm 1,7 UV-I 315 W/m 16,3 C 18,1 C 16,1 km/h (3 Bft) 100,00 %
07.06.2018 10:15 20,1 C 23,9 C 78 % 1014,5 hPa 0,0 l/m 11,2 km/h (2 Bft) O 79 0 min 0,000 mm 1,0 UV-I 307 W/m 16,1 C 18,4 C 16,1 km/h (3 Bft) 100,00 %
07.06.2018 10:16 20,1 C 23,9 C 78 % 1014,5 hPa 0,0 l/m 11,8 km/h (2 Bft) O-NO 69 0 min 0,000 mm 0,8 UV-I 301 W/m 16,1 C 18,2 C 19,3 km/h (3 Bft) 100,00 %
07.06.2018 10:17 20,1 C 23,9 C 78 % 1014,5 hPa 0,0 l/m 13,5 km/h (3 Bft) O-NO 68 0 min 0,000 mm 1,5 UV-I 307 W/m 16,1 C 17,7 C 17,7 km/h (3 Bft) 100,00 %
07.06.2018 10:18 20,1 C 23,9 C 78 % 1014,5 hPa 0,0 l/m 12,0 km/h (2 Bft) NO 52 0 min 0,000 mm 1,9 UV-I 320 W/m 16,1 C 18,1 C 14,5 km/h (3 Bft) 95,65 %
07.06.2018 10:19 20,1 C 23,9 C 79 % 1014,5 hPa 0,0 l/m 11,5 km/h (2 Bft) O-SO 107 0 min 0,000 mm 2,2 UV-I 346 W/m 16,3 C 18,3 C 17,7 km/h (3 Bft) 100,00 %
07.06.2018 10:20 20,1 C 23,9 C 78 % 1014,5 hPa 0,0 l/m 11,5 km/h (2 Bft) O 84 0 min 0,000 mm 2,8 UV-I 386 W/m 16,1 C 18,3 C 14,5 km/h (3 Bft) 95,65 %
07.06.2018 10:21 20,2 C 23,9 C 78 % 1014,5 hPa 0,0 l/m 10,9 km/h (2 Bft) O 94 0 min 0,000 mm 2,5 UV-I 411 W/m 16,2 C 18,6 C 14,5 km/h (3 Bft) 100,00 %
07.06.2018 10:22 20,3 C 23,9 C 77 % 1014,4 hPa 0,0 l/m 16,2 km/h (3 Bft) O-NO 63 0 min 0,000 mm 2,3 UV-I 344 W/m 16,1 C 17,3 C 25,7 km/h (4 Bft) 100,00 %
07.06.2018 10:23 20,3 C 23,9 C 77 % 1014,5 hPa 0,0 l/m 16,8 km/h (3 Bft) O 86 0 min 0,000 mm 2,2 UV-I 320 W/m 16,1 C 17,2 C 22,5 km/h (4 Bft) 100,00 %
07.06.2018 10:24 20,3 C 23,9 C 77 % 1014,5 hPa 0,0 l/m 14,8 km/h (3 Bft) O 86 0 min 0,000 mm 2,2 UV-I 356 W/m 16,1 C 17,7 C 19,3 km/h (3 Bft) 100,00 %
07.06.2018 10:25 20,2 C 23,9 C 77 % 1014,5 hPa 0,0 l/m 17,6 km/h (3 Bft) O 85 1 min 0,000 mm 2,9 UV-I 425 W/m 16,0 C 16,9 C 22,5 km/h (4 Bft) 95,83 %
07.06.2018 10:26 20,3 C 23,9 C 77 % 1014,5 hPa 0,0 l/m 13,1 km/h (3 Bft) O-NO 74 1 min 0,000 mm 2,7 UV-I 425 W/m 16,1 C 18,1 C 17,7 km/h (3 Bft) 95,65 %
07.06.2018 10:27 20,3 C 23,9 C 77 % 1014,5 hPa 0,0 l/m 18,0 km/h (3 Bft) O-SO 105 1 min 0,000 mm 2,8 UV-I 466 W/m 16,1 C 17,0 C 24,1 km/h (4 Bft) 100,00 %
07.06.2018 10:28 20,4 C 23,9 C 77 % 1014,4 hPa 0,0 l/m 18,8 km/h (3 Bft) O 91 1 min 0,000 mm 3,7 UV-I 496 W/m 16,2 C 16,9 C 25,7 km/h (4 Bft) 100,00 %
07.06.2018 10:29 20,6 C 23,9 C 76 % 1014,4 hPa 0,0 l/m 14,8 km/h (3 Bft) O-SO 103 1 min 0,000 mm 4,3 UV-I 1048 W/m 16,2 C 18,0 C 19,3 km/h (3 Bft) 100,00 %
07.06.2018 10:30 20,7 C 23,9 C 76 % 1014,4 hPa 0,0 l/m 13,5 km/h (3 Bft) O-SO 109 1 min 0,000 mm 3,1 UV-I 927 W/m 16,3 C 18,5 C 16,1 km/h (3 Bft) 100,00 %
07.06.2018 10:31 20,8 C 23,9 C 76 % 1014,4 hPa 0,0 l/m 17,1 km/h (3 Bft) O 101 0 min 0,000 mm 2,6 UV-I 345 W/m 16,4 C 17,8 C 24,1 km/h (4 Bft) 96,15 %
07.06.2018 10:32 20,7 C 23,9 C 75 % 1014,4 hPa 0,0 l/m 17,0 km/h (3 Bft) O-NO 72 0 min 0,000 mm 2,6 UV-I 349 W/m 16,1 C 17,7 C 24,1 km/h (4 Bft) 95,83 %
07.06.2018 10:33 20,7 C 23,9 C 76 % 1014,5 hPa 0,0 l/m 16,9 km/h (3 Bft) O 81 0 min 0,000 mm 3,4 UV-I 373 W/m 16,3 C 17,7 C 19,3 km/h (3 Bft) 100,00 %
07.06.2018 10:34 20,8 C 23,9 C 76 % 1014,4 hPa 0,0 l/m 16,8 km/h (3 Bft) O 89 1 min 0,000 mm 3,6 UV-I 474 W/m 16,4 C 17,8 C 19,3 km/h (3 Bft) 100,00 %
07.06.2018 10:35 20,8 C 23,9 C 75 % 1014,4 hPa 0,0 l/m 15,2 km/h (3 Bft) O 84 1 min 0,000 mm 3,4 UV-I 510 W/m 16,2 C 18,2 C 17,7 km/h (3 Bft) 91,30 %
07.06.2018 10:36 20,8 C 23,9 C 75 % 1014,5 hPa 0,0 l/m 15,5 km/h (3 Bft) O-NO 73 1 min 0,000 mm 3,1 UV-I 538 W/m 16,2 C 18,1 C 19,3 km/h (3 Bft) 100,00 %
07.06.2018 10:37 20,9 C 23,9 C 75 % 1014,4 hPa 0,0 l/m 16,9 km/h (3 Bft) O-NO 64 1 min 0,000 mm 3,1 UV-I 464 W/m 16,3 C 17,9 C 22,5 km/h (4 Bft) 100,00 %
07.06.2018 10:38 20,9 C 23,9 C 76 % 1014,4 hPa 0,0 l/m 15,0 km/h (3 Bft) O 88 1 min 0,000 mm 3,2 UV-I 464 W/m 16,5 C 18,3 C 22,5 km/h (4 Bft) 100,00 %
07.06.2018 10:39 20,9 C 23,9 C 75 % 1014,4 hPa 0,0 l/m 15,5 km/h (3 Bft) O-NO 78 0 min 0,000 mm 2,8 UV-I 420 W/m 16,3 C 18,2 C 20,9 km/h (4 Bft) 95,65 %
07.06.2018 10:40 20,8 C 23,9 C 75 % 1014,4 hPa 0,0 l/m 15,8 km/h (3 Bft) O 92 0 min 0,000 mm 2,6 UV-I 380 W/m 16,2 C 18,0 C 19,3 km/h (3 Bft) 100,00 %
07.06.2018 10:41 20,8 C 23,9 C 75 % 1014,4 hPa 0,0 l/m 15,0 km/h (3 Bft) O 100 0 min 0,000 mm 2,6 UV-I 381 W/m 16,2 C 18,2 C 19,3 km/h (3 Bft) 100,00 %
07.06.2018 10:42 20,7 C 23,9 C 75 % 1014,4 hPa 0,0 l/m 12,5 km/h (3 Bft) O-SO 105 0 min 0,000 mm 2,5 UV-I 392 W/m 16,1 C 18,7 C 17,7 km/h (3 Bft) 100,00 %
07.06.2018 10:43 20,7 C 23,9 C 76 % 1014,5 hPa 0,0 l/m 16,7 km/h (3 Bft) O 82 0 min 0,000 mm 2,6 UV-I 426 W/m 16,3 C 17,7 C 19,3 km/h (3 Bft) 100,00 %
07.06.2018 10:44 20,7 C 23,9 C 75 % 1014,4 hPa 0,0 l/m 15,8 km/h (3 Bft) O-NO 71 1 min 0,000 mm 3,1 UV-I 483 W/m 16,1 C 17,9 C 22,5 km/h (4 Bft) 100,00 %
07.06.2018 10:45 20,7 C 23,9 C 76 % 1014,4 hPa 0,0 l/m 15,4 km/h (3 Bft) O-NO 65 1 min 0,000 mm 3,1 UV-I 487 W/m 16,3 C 18,0 C 20,9 km/h (4 Bft) 100,00 %
07.06.2018 10:46 20,7 C 23,9 C 75 % 1014,4 hPa 0,0 l/m 18,4 km/h (3 Bft) O-NO 73 1 min 0,000 mm 3,1 UV-I 487 W/m 16,1 C 17,4 C 22,5 km/h (4 Bft) 100,00 %
07.06.2018 10:47 20,8 C 23,9 C 74 % 1014,3 hPa 0,0 l/m 17,0 km/h (3 Bft) O-SO 104 1 min 0,000 mm 3,0 UV-I 438 W/m 16,0 C 17,8 C 19,3 km/h (3 Bft) 100,00 %
07.06.2018 10:48 20,7 C 23,9 C 74 % 1014,3 hPa 0,0 l/m 17,9 km/h (3 Bft) O 79 0 min 0,000 mm 2,7 UV-I 393 W/m 15,9 C 17,5 C 22,5 km/h (4 Bft) 100,00 %
07.06.2018 10:49 20,7 C 23,9 C 75 % 1014,3 hPa 0,0 l/m 14,1 km/h (3 Bft) NO 46 0 min 0,000 mm 2,7 UV-I 387 W/m 16,1 C 18,3 C 20,9 km/h (4 Bft) 100,00 %
07.06.2018 10:50 20,8 C 23,9 C 75 % 1014,3 hPa 0,0 l/m 14,8 km/h (3 Bft) O-NO 63 0 min 0,000 mm 2,9 UV-I 394 W/m 16,2 C 18,3 C 22,5 km/h (4 Bft) 100,00 %
07.06.2018 10:51 20,8 C 23,9 C 75 % 1014,3 hPa 0,0 l/m 13,9 km/h (3 Bft) NO 52 0 min 0,000 mm 2,9 UV-I 393 W/m 16,2 C 18,5 C 24,1 km/h (4 Bft) 100,00 %
07.06.2018 10:52 20,9 C 23,9 C 75 % 1014,3 hPa 0,0 l/m 12,8 km/h (3 Bft) O-NO 69 0 min 0,000 mm 3,6 UV-I 394 W/m 16,3 C 18,9 C 14,5 km/h (3 Bft) 100,00 %
07.06.2018 10:53 21,1 C 23,9 C 77 % 1014,3 hPa 0,0 l/m 8,0 km/h (2 Bft) O-NO 63 0 min 0,000 mm 4,7 UV-I 394 W/m 16,9 C 20,5 C 14,5 km/h (3 Bft) 100,00 %
07.06.2018 10:54 21,2 C 23,9 C 75 % 1014,3 hPa 0,0 l/m 14,8 km/h (3 Bft) NO 51 0 min 0,000 mm 3,3 UV-I 406 W/m 16,6 C 18,7 C 20,9 km/h (4 Bft) 100,00 %
07.06.2018 10:55 21,2 C 23,9 C 74 % 1014,3 hPa 0,0 l/m 13,5 km/h (3 Bft) O-NO 70 1 min 0,000 mm 3,6 UV-I 460 W/m 16,4 C 19,0 C 22,5 km/h (4 Bft) 100,00 %
07.06.2018 10:56 21,3 C 23,9 C 75 % 1014,3 hPa 0,0 l/m 14,0 km/h (3 Bft) NO 56 1 min 0,000 mm 4,2 UV-I 490 W/m 16,7 C 19,0 C 20,9 km/h (4 Bft) 100,00 %
07.06.2018 10:57 21,5 C 23,9 C 75 % 1014,2 hPa 0,0 l/m 15,2 km/h (3 Bft) O 92 1 min 0,000 mm 4,1 UV-I 490 W/m 16,9 C 19,0 C 20,9 km/h (4 Bft) 100,00 %
07.06.2018 10:58 21,6 C 23,9 C 72 % 1014,3 hPa 0,0 l/m 14,1 km/h (3 Bft) O-NO 73 1 min 0,000 mm 4,4 UV-I 490 W/m 16,3 C 19,4 C 20,9 km/h (4 Bft) 100,00 %
07.06.2018 10:59 21,5 C 23,9 C 72 % 1014,3 hPa 0,0 l/m 15,9 km/h (3 Bft) O 85 1 min 0,000 mm 4,1 UV-I 486 W/m 16,2 C 18,9 C 19,3 km/h (3 Bft) 100,00 %
07.06.2018 11:00 21,4 C 23,9 C 73 % 1014,3 hPa 0,0 l/m 14,2 km/h (3 Bft) O-NO 59 1 min 0,305 mm 3,3 UV-I 449 W/m 16,4 C 19,1 C 17,7 km/h (3 Bft) 100,00 %
07.06.2018 11:01 21,4 C 23,9 C 72 % 1014,3 hPa 0,0 l/m 14,1 km/h (3 Bft) O 101 0 min 0,000 mm 3,0 UV-I 400 W/m 16,1 C 19,1 C 17,7 km/h (3 Bft) 95,83 %
07.06.2018 11:02 21,3 C 23,9 C 73 % 1014,3 hPa 0,0 l/m 14,1 km/h (3 Bft) O-SO 103 0 min 0,000 mm 2,9 UV-I 402 W/m 16,3 C 19,0 C 19,3 km/h (3 Bft) 96,15 %
07.06.2018 11:03 21,3 C 23,9 C 73 % 1014,4 hPa 0,0 l/m 12,7 km/h (3 Bft) O-NO 64 0 min 0,000 mm 2,9 UV-I 409 W/m 16,3 C 19,4 C 17,7 km/h (3 Bft) 100,00 %
07.06.2018 11:04 21,2 C 23,9 C 73 % 1014,4 hPa 0,0 l/m 12,7 km/h (3 Bft) NO 44 0 min 0,000 mm 3,0 UV-I 437 W/m 16,2 C 19,2 C 17,7 km/h (3 Bft) 100,00 %
07.06.2018 11:05 21,2 C 23,9 C 73 % 1014,4 hPa 0,0 l/m 13,3 km/h (3 Bft) O-NO 62 1 min 0,000 mm 3,2 UV-I 497 W/m 16,2 C 19,1 C 20,9 km/h (4 Bft) 100,00 %
07.06.2018 11:06 21,3 C 23,9 C 74 % 1014,4 hPa 0,0 l/m 17,6 km/h (3 Bft) O-NO 62 1 min 0,000 mm 4,6 UV-I 497 W/m 16,5 C 18,3 C 20,9 km/h (4 Bft) 100,00 %
07.06.2018 11:07 21,3 C 23,9 C 74 % 1014,4 hPa 0,0 l/m 17,2 km/h (3 Bft) O-NO 71 1 min 0,000 mm 3,2 UV-I 470 W/m 16,5 C 18,4 C 19,3 km/h (3 Bft) 100,00 %
07.06.2018 11:08 21,3 C 23,9 C 73 % 1014,3 hPa 0,0 l/m 13,1 km/h (3 Bft) O-NO 61 0 min 0,000 mm 3,3 UV-I 431 W/m 16,3 C 19,3 C 19,3 km/h (3 Bft) 100,00 %
07.06.2018 11:09 21,4 C 23,9 C 74 % 1014,4 hPa 0,0 l/m 13,7 km/h (3 Bft) O-NO 63 0 min 0,000 mm 3,3 UV-I 431 W/m 16,6 C 19,2 C 19,3 km/h (3 Bft) 100,00 %
07.06.2018 11:10 21,5 C 23,9 C 74 % 1014,4 hPa 0,0 l/m 14,8 km/h (3 Bft) NO 50 1 min 0,000 mm 2,9 UV-I 453 W/m 16,7 C 19,1 C 20,9 km/h (4 Bft) 100,00 %
07.06.2018 11:11 21,6 C 23,9 C 74 % 1014,3 hPa 0,0 l/m 11,2 km/h (2 Bft) O-NO 65 1 min 0,000 mm 2,8 UV-I 550 W/m 16,8 C 20,1 C 16,1 km/h (3 Bft) 100,00 %
07.06.2018 11:12 21,6 C 23,9 C 73 % 1014,3 hPa 0,0 l/m 14,5 km/h (3 Bft) O-NO 65 1 min 0,000 mm 2,7 UV-I 500 W/m 16,5 C 19,3 C 19,3 km/h (3 Bft) 100,00 %
07.06.2018 11:14 21,4 C 23,9 C 73 % 1014,4 hPa 0,0 l/m 12,0 km/h (2 Bft) O-SO 117 0 min 0,000 mm 2,5 UV-I 384 W/m 16,4 C 19,6 C 16,1 km/h (3 Bft) 100,00 %
07.06.2018 11:15 21,4 C 23,9 C 73 % 1014,4 hPa 0,0 l/m 10,5 km/h (2 Bft) O-SO 104 0 min 0,000 mm 2,5 UV-I 376 W/m 16,4 C 20,0 C 14,5 km/h (3 Bft) 100,00 %
07.06.2018 11:16 21,3 C 23,9 C 73 % 1014,4 hPa 0,0 l/m 8,4 km/h (2 Bft) O 96 0 min 0,000 mm 2,6 UV-I 407 W/m 16,3 C 20,6 C 14,5 km/h (3 Bft) 100,00 %
07.06.2018 11:17 21,4 C 23,9 C 73 % 1014,4 hPa 0,0 l/m 12,2 km/h (2 Bft) O-NO 57 0 min 0,000 mm 2,5 UV-I 382 W/m 16,4 C 19,6 C 17,7 km/h (3 Bft) 100,00 %
07.06.2018 11:18 21,4 C 23,9 C 73 % 1014,4 hPa 0,0 l/m 11,6 km/h (2 Bft) NO 51 0 min 0,000 mm 2,5 UV-I 376 W/m 16,4 C 19,7 C 17,7 km/h (3 Bft) 100,00 %
07.06.2018 11:19 21,5 C 23,9 C 73 % 1014,4 hPa 0,0 l/m 12,5 km/h (3 Bft) O-NO 72 0 min 0,000 mm 2,5 UV-I 372 W/m 16,4 C 19,6 C 19,3 km/h (3 Bft) 100,00 %
07.06.2018 11:20 21,6 C 23,9 C 73 % 1014,4 hPa 0,0 l/m 13,5 km/h (3 Bft) NO 51 0 min 0,000 mm 2,5 UV-I 368 W/m 16,5 C 19,5 C 17,7 km/h (3 Bft) 100,00 %
07.06.2018 11:21 21,6 C 23,9 C 73 % 1014,4 hPa 0,0 l/m 14,2 km/h (3 Bft) NO 35 0 min 0,000 mm 2,6 UV-I 376 W/m 16,5 C 19,4 C 17,7 km/h (3 Bft) 95,83 %
07.06.2018 11:22 21,6 C 23,9 C 74 % 1014,4 hPa 0,0 l/m 15,1 km/h (3 Bft) NO 55 0 min 0,000 mm 2,8 UV-I 411 W/m 16,8 C 19,2 C 17,7 km/h (3 Bft) 100,00 %
07.06.2018 11:23 21,5 C 23,9 C 74 % 1014,4 hPa 0,0 l/m 10,3 km/h (2 Bft) NO 50 0 min 0,000 mm 2,8 UV-I 428 W/m 16,7 C 20,2 C 14,5 km/h (3 Bft) 100,00 %
07.06.2018 11:24 21,6 C 23,9 C 74 % 1014,4 hPa 0,0 l/m 9,8 km/h (2 Bft) NO 38 0 min 0,000 mm 2,8 UV-I 395 W/m 16,8 C 20,5 C 12,9 km/h (3 Bft) 95,65 %
07.06.2018 11:25 21,6 C 23,9 C 74 % 1014,4 hPa 0,0 l/m 6,5 km/h (2 Bft) O-NO 61 0 min 0,000 mm 2,5 UV-I 357 W/m 16,8 C 21,6 C 8,0 km/h (2 Bft) 96,30 %
07.06.2018 11:26 21,6 C 23,9 C 73 % 1014,4 hPa 0,0 l/m 7,2 km/h (2 Bft) O-NO 74 0 min 0,000 mm 2,4 UV-I 330 W/m 16,5 C 21,3 C 12,9 km/h (3 Bft) 91,30 %
07.06.2018 11:28 21,5 C 23,9 C 74 % 1014,3 hPa 0,0 l/m 15,4 km/h (3 Bft) NO 34 0 min 0,000 mm 2,4 UV-I 354 W/m 16,7 C 19,0 C 20,9 km/h (4 Bft) 97,87 %
07.06.2018 11:29 21,5 C 23,9 C 75 % 1014,3 hPa 0,0 l/m 12,4 km/h (3 Bft) NO 50 0 min 0,000 mm 3,1 UV-I 426 W/m 16,9 C 19,7 C 19,3 km/h (3 Bft) 95,83 %
07.06.2018 11:30 21,5 C 23,9 C 74 % 1014,3 hPa 0,0 l/m 11,1 km/h (2 Bft) O-NO 62 0 min 0,000 mm 2,9 UV-I 428 W/m 16,7 C 20,0 C 17,7 km/h (3 Bft) 95,65 %
07.06.2018 11:31 21,5 C 23,9 C 74 % 1014,4 hPa 0,0 l/m 16,0 km/h (3 Bft) O-NO 58 0 min 0,000 mm 2,9 UV-I 414 W/m 16,7 C 18,9 C 19,3 km/h (3 Bft) 95,83 %
07.06.2018 11:33 21,4 C 23,9 C 74 % 1014,4 hPa 0,0 l/m 11,8 km/h (2 Bft) O-NO 67 0 min 0,000 mm 3,2 UV-I 466 W/m 16,6 C 19,7 C 16,1 km/h (3 Bft) 93,62 %
07.06.2018 11:34 21,4 C 23,9 C 74 % 1014,4 hPa 0,0 l/m 4,5 km/h (1 Bft) N 9 1 min 0,000 mm 4,5 UV-I 562 W/m 16,6 C 21,4 C 8,0 km/h (2 Bft) 95,65 %
07.06.2018 11:35 21,5 C 23,9 C 75 % 1014,4 hPa 0,0 l/m 7,9 km/h (2 Bft) O-NO 73 1 min 0,000 mm 3,5 UV-I 478 W/m 16,9 C 21,0 C 16,1 km/h (3 Bft) 95,83 %
07.06.2018 11:36 21,7 C 23,9 C 77 % 1014,4 hPa 0,0 l/m 11,3 km/h (2 Bft) O-NO 69 0 min 0,000 mm 3,5 UV-I 455 W/m 17,5 C 20,2 C 16,1 km/h (3 Bft) 95,65 %
07.06.2018 11:37 21,8 C 23,9 C 73 % 1014,4 hPa 0,0 l/m 9,6 km/h (2 Bft) N-NO 22 0 min 0,000 mm 3,9 UV-I 455 W/m 16,7 C 20,7 C 12,9 km/h (3 Bft) 95,83 %
07.06.2018 11:38 21,8 C 23,9 C 75 % 1014,4 hPa 0,0 l/m 10,5 km/h (2 Bft) N-NO 30 1 min 0,000 mm 4,3 UV-I 526 W/m 17,2 C 20,5 C 14,5 km/h (3 Bft) 95,65 %
07.06.2018 11:39 22,0 C 23,9 C 75 % 1014,3 hPa 0,0 l/m 8,0 km/h (2 Bft) N-NO 29 1 min 0,000 mm 4,8 UV-I 555 W/m 17,4 C 21,5 C 14,5 km/h (3 Bft) 95,83 %
07.06.2018 11:40 22,2 C 23,9 C 74 % 1014,3 hPa 0,0 l/m 9,9 km/h (2 Bft) N-NO 22 1 min 0,000 mm 5,2 UV-I 1041 W/m 17,3 C 21,1 C 14,5 km/h (3 Bft) 93,33 %
07.06.2018 11:41 22,4 C 23,9 C 75 % 1014,3 hPa 0,0 l/m 13,9 km/h (3 Bft) NO 35 1 min 0,000 mm 3,6 UV-I 906 W/m 17,7 C 20,4 C 17,7 km/h (3 Bft) 95,65 %
07.06.2018 11:42 22,4 C 23,9 C 73 % 1014,3 hPa 0,0 l/m 8,9 km/h (2 Bft) NO 51 0 min 0,000 mm 3,6 UV-I 425 W/m 17,3 C 21,6 C 11,3 km/h (2 Bft) 96,30 %
07.06.2018 11:43 22,4 C 23,9 C 74 % 1014,3 hPa 0,0 l/m 10,3 km/h (2 Bft) N-NO 29 0 min 0,000 mm 4,3 UV-I 425 W/m 17,5 C 21,2 C 14,5 km/h (3 Bft) 82,61 %
07.06.2018 11:44 22,5 C 24,4 C 74 % 1014,3 hPa 0,0 l/m 9,3 km/h (2 Bft) NO 40 0 min 0,000 mm 5,2 UV-I 425 W/m 17,6 C 21,6 C 12,9 km/h (3 Bft) 100,00 %
07.06.2018 11:45 22,7 C 23,9 C 74 % 1014,3 hPa 0,0 l/m 7,3 km/h (2 Bft) NO 41 0 min 0,000 mm 4,2 UV-I 425 W/m 17,8 C 22,4 C 11,3 km/h (2 Bft) 86,96 %
07.06.2018 11:46 22,6 C 23,9 C 70 % 1014,4 hPa 0,0 l/m 7,1 km/h (2 Bft) O-SO 102 0 min 0,000 mm 3,0 UV-I 376 W/m 16,8 C 22,4 C 11,3 km/h (2 Bft) 96,30 %
07.06.2018 11:48 22,3 C 23,9 C 70 % 1014,4 hPa 0,0 l/m 4,7 km/h (1 Bft) SO 127 0 min 0,000 mm 2,6 UV-I 327 W/m 16,6 C 22,3 C 9,7 km/h (2 Bft) 93,62 %
07.06.2018 11:49 22,1 C 23,9 C 71 % 1014,4 hPa 0,0 l/m 7,6 km/h (2 Bft) O-NO 76 0 min 0,000 mm 2,6 UV-I 345 W/m 16,6 C 21,7 C 11,3 km/h (2 Bft) 91,30 %
07.06.2018 11:50 22,0 C 23,9 C 71 % 1014,4 hPa 0,0 l/m 7,6 km/h (2 Bft) O 84 0 min 0,000 mm 2,8 UV-I 378 W/m 16,5 C 21,6 C 14,5 km/h (3 Bft) 95,83 %
07.06.2018 11:51 21,9 C 23,9 C 72 % 1014,3 hPa 0,0 l/m 7,4 km/h (2 Bft) O-SO 113 0 min 0,000 mm 2,8 UV-I 375 W/m 16,6 C 21,5 C 11,3 km/h (2 Bft) 95,65 %
07.06.2018 11:52 21,9 C 23,9 C 73 % 1014,4 hPa 0,0 l/m 7,4 km/h (2 Bft) O-NO 57 0 min 0,000 mm 2,7 UV-I 361 W/m 16,8 C 21,5 C 11,3 km/h (2 Bft) 91,67 %
07.06.2018 11:53 21,9 C 23,9 C 73 % 1014,3 hPa 0,0 l/m 12,9 km/h (3 Bft) O-NO 57 0 min 0,000 mm 2,6 UV-I 354 W/m 16,8 C 20,0 C 17,7 km/h (3 Bft) 100,00 %
07.06.2018 11:54 22,0 C 23,9 C 73 % 1014,4 hPa 0,0 l/m 14,0 km/h (3 Bft) O-NO 59 0 min 0,000 mm 2,5 UV-I 352 W/m 16,9 C 19,9 C 19,3 km/h (3 Bft) 95,83 %
07.06.2018 11:55 21,9 C 23,9 C 71 % 1014,4 hPa 0,0 l/m 11,7 km/h (2 Bft) O-SO 123 0 min 0,000 mm 2,5 UV-I 357 W/m 16,4 C 20,3 C 16,1 km/h (3 Bft) 96,15 %
07.06.2018 11:56 21,8 C 23,9 C 72 % 1014,4 hPa 0,0 l/m 9,7 km/h (2 Bft) O-NO 66 0 min 0,000 mm 2,6 UV-I 369 W/m 16,5 C 20,7 C 12,9 km/h (3 Bft) 100,00 %
07.06.2018 11:57 21,8 C 23,9 C 72 % 1014,4 hPa 0,0 l/m 8,3 km/h (2 Bft) O-NO 67 0 min 0,000 mm 2,7 UV-I 391 W/m 16,5 C 21,1 C 12,9 km/h (3 Bft) 100,00 %
07.06.2018 11:58 21,8 C 23,9 C 73 % 1014,4 hPa 0,0 l/m 9,9 km/h (2 Bft) O 88 0 min 0,000 mm 2,9 UV-I 430 W/m 16,7 C 20,7 C 12,9 km/h (3 Bft) 91,30 %
07.06.2018 11:59 21,8 C 23,9 C 72 % 1014,4 hPa 0,0 l/m 6,8 km/h (2 Bft) O 94 0 min 0,000 mm 3,1 UV-I 442 W/m 16,5 C 21,7 C 11,3 km/h (2 Bft) 96,30 %
07.06.2018 12:00 21,8 C 23,9 C 72 % 1014,4 hPa 0,0 l/m 13,3 km/h (3 Bft) NO 53 0 min 0,000 mm 3,1 UV-I 428 W/m 16,5 C 19,8 C 16,1 km/h (3 Bft) 100,00 %
07.06.2018 12:01 21,7 C 23,9 C 72 % 1014,4 hPa 0,0 l/m 11,0 km/h (2 Bft) O-NO 67 0 min 0,330 mm 3,1 UV-I 420 W/m 16,4 C 20,2 C 14,5 km/h (3 Bft) 95,83 %
07.06.2018 12:02 21,7 C 23,9 C 73 % 1014,4 hPa 0,0 l/m 9,6 km/h (2 Bft) O-NO 59 0 min 0,000 mm 3,2 UV-I 429 W/m 16,6 C 20,6 C 14,5 km/h (3 Bft) 100,00 %
07.06.2018 12:03 21,7 C 23,9 C 72 % 1014,4 hPa 0,0 l/m 12,1 km/h (2 Bft) O-NO 69 0 min 0,000 mm 3,4 UV-I 447 W/m 16,4 C 20,0 C 19,3 km/h (3 Bft) 95,83 %
07.06.2018 12:04 21,8 C 23,9 C 73 % 1014,4 hPa 0,0 l/m 10,9 km/h (2 Bft) O-NO 61 1 min 0,000 mm 3,4 UV-I 482 W/m 16,7 C 20,4 C 17,7 km/h (3 Bft) 95,65 %
07.06.2018 12:05 21,8 C 23,9 C 73 % 1014,3 hPa 0,0 l/m 6,4 km/h (2 Bft) O-NO 60 1 min 0,000 mm 4,5 UV-I 534 W/m 16,7 C 21,8 C 8,0 km/h (2 Bft) 91,67 %
07.06.2018 12:06 21,9 C 23,9 C 74 % 1014,4 hPa 0,0 l/m 4,4 km/h (1 Bft) O 84 1 min 0,000 mm 6,1 UV-I 850 W/m 17,0 C 21,9 C 9,7 km/h (2 Bft) 100,00 %
07.06.2018 12:08 22,5 C 24,4 C 73 % 1014,3 hPa 0,0 l/m 5,0 km/h (1 Bft) NO 48 2 min 0,000 mm 6,0 UV-I 1161 W/m 17,4 C 22,5 C 9,7 km/h (2 Bft) 96,00 %
07.06.2018 12:09 22,8 C 23,9 C 71 % 1014,3 hPa 0,0 l/m 8,4 km/h (2 Bft) O 92 1 min 0,000 mm 6,0 UV-I 1160 W/m 17,3 C 22,2 C 12,9 km/h (3 Bft) 100,00 %
07.06.2018 12:10 23,1 C 23,9 C 72 % 1014,3 hPa 0,0 l/m 10,7 km/h (2 Bft) O 81 1 min 0,000 mm 5,3 UV-I 1160 W/m 17,8 C 21,9 C 14,5 km/h (3 Bft) 95,65 %
07.06.2018 12:11 23,3 C 23,9 C 72 % 1014,3 hPa 0,0 l/m 16,2 km/h (3 Bft) O-NO 71 1 min 0,000 mm 6,0 UV-I 1160 W/m 18,0 C 21,0 C 19,3 km/h (3 Bft) 96,30 %
07.06.2018 12:12 23,4 C 24,4 C 70 % 1014,3 hPa 0,0 l/m 12,8 km/h (3 Bft) NO 45 1 min 0,000 mm 5,8 UV-I 1160 W/m 17,6 C 21,8 C 16,1 km/h (3 Bft) 91,67 %
07.06.2018 12:13 23,4 C 24,4 C 69 % 1014,3 hPa 0,0 l/m 7,4 km/h (2 Bft) O-NO 71 1 min 0,000 mm 5,9 UV-I 1160 W/m 17,4 C 23,1 C 12,9 km/h (3 Bft) 100,00 %
07.06.2018 12:14 23,4 C 24,4 C 68 % 1014,2 hPa 0,0 l/m 10,1 km/h (2 Bft) O-NO 70 1 min 0,000 mm 6,0 UV-I 1160 W/m 17,1 C 22,4 C 17,7 km/h (3 Bft) 95,83 %
07.06.2018 12:15 23,4 C 24,4 C 67 % 1014,3 hPa 0,0 l/m 13,6 km/h (3 Bft) O-NO 64 1 min 0,000 mm 6,2 UV-I 1089 W/m 16,9 C 21,6 C 17,7 km/h (3 Bft) 95,65 %
07.06.2018 12:16 23,3 C 24,4 C 67 % 1014,2 hPa 0,0 l/m 14,1 km/h (3 Bft) O-NO 67 1 min 0,000 mm 6,1 UV-I 920 W/m 16,8 C 21,4 C 17,7 km/h (3 Bft) 95,83 %
07.06.2018 12:18 22,9 C 24,4 C 68 % 1014,2 hPa 0,0 l/m 10,6 km/h (2 Bft) NO 56 2 min 0,000 mm 4,5 UV-I 498 W/m 16,7 C 21,7 C 16,1 km/h (3 Bft) 98,28 %
07.06.2018 12:19 22,9 C 24,4 C 68 % 1014,2 hPa 0,0 l/m 14,0 km/h (3 Bft) O-NO 76 0 min 0,000 mm 4,8 UV-I 446 W/m 16,7 C 21,0 C 17,7 km/h (3 Bft) 100,00 %
07.06.2018 12:20 22,9 C 24,4 C 68 % 1014,2 hPa 0,0 l/m 18,0 km/h (3 Bft) NO 51 0 min 0,000 mm 5,8 UV-I 446 W/m 16,7 C 20,3 C 20,9 km/h (4 Bft) 95,83 %
07.06.2018 12:21 22,9 C 24,4 C 68 % 1014,1 hPa 0,0 l/m 11,7 km/h (2 Bft) NO 44 1 min 0,000 mm 6,2 UV-I 516 W/m 16,7 C 21,4 C 16,1 km/h (3 Bft) 91,30 %
07.06.2018 12:22 23,0 C 24,4 C 70 % 1014,2 hPa 0,0 l/m 15,3 km/h (3 Bft) O 90 1 min 0,000 mm 6,2 UV-I 1006 W/m 17,2 C 20,8 C 17,7 km/h (3 Bft) 100,00 %
07.06.2018 12:23 23,1 C 24,4 C 69 % 1014,2 hPa 0,0 l/m 13,8 km/h (3 Bft) O-SO 107 1 min 0,000 mm 6,0 UV-I 995 W/m 17,1 C 21,2 C 17,7 km/h (3 Bft) 91,30 %
07.06.2018 12:24 23,1 C 24,4 C 68 % 1014,1 hPa 0,0 l/m 13,5 km/h (3 Bft) O 86 1 min 0,000 mm 5,1 UV-I 983 W/m 16,9 C 21,3 C 19,3 km/h (3 Bft) 100,00 %
07.06.2018 12:25 23,1 C 24,4 C 68 % 1014,1 hPa 0,0 l/m 10,1 km/h (2 Bft) N-NO 25 1 min 0,000 mm 5,1 UV-I 896 W/m 16,9 C 22,0 C 14,5 km/h (3 Bft) 96,15 %
07.06.2018 12:26 23,2 C 24,4 C 70 % 1014,1 hPa 0,0 l/m 12,4 km/h (3 Bft) O-NO 63 1 min 0,000 mm 5,6 UV-I 881 W/m 17,4 C 21,6 C 16,1 km/h (3 Bft) 100,00 %
07.06.2018 12:27 23,3 C 24,4 C 68 % 1014,1 hPa 0,0 l/m 7,1 km/h (2 Bft) O 86 1 min 0,000 mm 4,4 UV-I 881 W/m 17,1 C 23,1 C 11,3 km/h (2 Bft) 90,91 %
07.06.2018 12:28 23,3 C 24,4 C 68 % 1014,2 hPa 0,0 l/m 11,7 km/h (2 Bft) O 80 1 min 0,000 mm 5,7 UV-I 881 W/m 17,1 C 21,9 C 16,1 km/h (3 Bft) 100,00 %
07.06.2018 12:29 23,3 C 24,4 C 66 % 1014,2 hPa 0,0 l/m 11,3 km/h (2 Bft) O-NO 66 1 min 0,000 mm 3,7 UV-I 627 W/m 16,6 C 22,0 C 14,5 km/h (3 Bft) 95,65 %
07.06.2018 12:30 23,2 C 24,4 C 67 % 1014,2 hPa 0,0 l/m 10,8 km/h (2 Bft) NO 55 0 min 0,000 mm 3,6 UV-I 273 W/m 16,7 C 22,0 C 16,1 km/h (3 Bft) 100,00 %
07.06.2018 12:31 23,0 C 24,4 C 68 % 1014,2 hPa 0,0 l/m 9,7 km/h (2 Bft) O-NO 74 0 min 0,000 mm 3,5 UV-I 282 W/m 16,8 C 22,0 C 14,5 km/h (3 Bft) 92,31 %
07.06.2018 12:32 22,8 C 24,4 C 68 % 1014,1 hPa 0,0 l/m 11,1 km/h (2 Bft) O-SO 105 0 min 0,000 mm 3,7 UV-I 293 W/m 16,6 C 21,5 C 14,5 km/h (3 Bft) 95,83 %
07.06.2018 12:33 22,7 C 24,4 C 67 % 1014,1 hPa 0,0 l/m 10,1 km/h (2 Bft) O-SO 110 0 min 0,000 mm 4,8 UV-I 294 W/m 16,2 C 21,6 C 12,9 km/h (3 Bft) 91,30 %
07.06.2018 12:34 22,6 C 24,4 C 67 % 1014,1 hPa 0,0 l/m 6,6 km/h (2 Bft) O-SO 105 0 min 0,000 mm 4,5 UV-I 328 W/m 16,2 C 22,5 C 9,7 km/h (2 Bft) 91,67 %
07.06.2018 12:35 22,6 C 24,4 C 67 % 1014,2 hPa 0,0 l/m 6,3 km/h (2 Bft) O-SO 103 0 min 0,000 mm 4,2 UV-I 410 W/m 16,2 C 22,6 C 11,3 km/h (2 Bft) 100,00 %
07.06.2018 12:36 22,7 C 24,4 C 70 % 1014,2 hPa 0,0 l/m 9,1 km/h (2 Bft) NO 44 1 min 0,000 mm 6,3 UV-I 796 W/m 16,9 C 21,9 C 11,3 km/h (2 Bft) 95,83 %
07.06.2018 12:38 23,1 C 24,4 C 69 % 1014,2 hPa 0,0 l/m 10,5 km/h (2 Bft) O 101 2 min 0,000 mm 6,3 UV-I 1038 W/m 17,1 C 21,9 C 17,7 km/h (3 Bft) 98,00 %
07.06.2018 12:39 23,3 C 24,4 C 67 % 1014,2 hPa 0,0 l/m 9,7 km/h (2 Bft) O-NO 57 1 min 0,000 mm 6,3 UV-I 1088 W/m 16,8 C 22,4 C 12,9 km/h (3 Bft) 100,00 %
07.06.2018 12:40 23,4 C 24,4 C 67 % 1014,2 hPa 0,0 l/m 8,4 km/h (2 Bft) O-NO 68 1 min 0,000 mm 6,4 UV-I 1104 W/m 16,9 C 22,8 C 12,9 km/h (3 Bft) 86,96 %
07.06.2018 12:41 23,6 C 24,4 C 67 % 1014,1 hPa 0,0 l/m 11,3 km/h (2 Bft) O 82 1 min 0,000 mm 6,4 UV-I 1131 W/m 17,1 C 22,3 C 16,1 km/h (3 Bft) 96,30 %
07.06.2018 12:42 23,8 C 24,4 C 67 % 1014,2 hPa 0,0 l/m 15,0 km/h (3 Bft) O-NO 60 1 min 0,000 mm 6,4 UV-I 1155 W/m 17,3 C 21,9 C 19,3 km/h (3 Bft) 95,65 %
07.06.2018 12:43 23,9 C 24,4 C 64 % 1014,2 hPa 0,0 l/m 9,9 km/h (2 Bft) O-NO 57 1 min 0,000 mm 6,2 UV-I 1152 W/m 16,7 C 23,0 C 16,1 km/h (3 Bft) 95,83 %
07.06.2018 12:44 23,9 C 24,4 C 64 % 1014,2 hPa 0,0 l/m 8,8 km/h (2 Bft) O 88 1 min 0,000 mm 5,3 UV-I 1154 W/m 16,7 C 23,2 C 14,5 km/h (3 Bft) 100,00 %
07.06.2018 12:45 23,9 C 24,4 C 64 % 1014,2 hPa 0,0 l/m 7,3 km/h (2 Bft) O 86 1 min 0,000 mm 4,0 UV-I 1012 W/m 16,7 C 23,6 C 14,5 km/h (3 Bft) 100,00 %
07.06.2018 12:46 23,8 C 24,4 C 64 % 1014,2 hPa 0,0 l/m 10,1 km/h (2 Bft) NO 48 0 min 0,000 mm 3,6 UV-I 469 W/m 16,6 C 22,8 C 16,1 km/h (3 Bft) 95,65 %
07.06.2018 12:47 23,8 C 24,4 C 66 % 1014,2 hPa 0,0 l/m 12,3 km/h (3 Bft) O 80 0 min 0,000 mm 3,9 UV-I 471 W/m 17,1 C 22,3 C 17,7 km/h (3 Bft) 100,00 %
07.06.2018 12:48 23,7 C 24,4 C 65 % 1014,2 hPa 0,0 l/m 8,6 km/h (2 Bft) O-SO 108 1 min 0,000 mm 3,7 UV-I 616 W/m 16,7 C 23,1 C 14,5 km/h (3 Bft) 100,00 %
07.06.2018 12:49 23,6 C 24,4 C 65 % 1014,2 hPa 0,0 l/m 9,6 km/h (2 Bft) O-SO 122 1 min 0,000 mm 3,4 UV-I 689 W/m 16,6 C 22,7 C 12,9 km/h (3 Bft) 100,00 %
07.06.2018 12:50 23,4 C 24,4 C 65 % 1014,1 hPa 0,0 l/m 7,9 km/h (2 Bft) O-SO 119 0 min 0,000 mm 3,5 UV-I 466 W/m 16,4 C 22,9 C 12,9 km/h (3 Bft) 100,00 %
07.06.2018 12:51 23,3 C 24,4 C 66 % 1014,1 hPa 0,0 l/m 10,1 km/h (2 Bft) O 92 0 min 0,000 mm 4,7 UV-I 454 W/m 16,6 C 22,3 C 14,5 km/h (3 Bft) 100,00 %
07.06.2018 12:52 23,3 C 24,4 C 67 % 1014,1 hPa 0,0 l/m 8,2 km/h (2 Bft) NO 44 0 min 0,000 mm 5,4 UV-I 454 W/m 16,8 C 22,8 C 12,9 km/h (3 Bft) 100,00 %
07.06.2018 12:53 23,4 C 24,4 C 66 % 1014,1 hPa 0,0 l/m 11,1 km/h (2 Bft) O-NO 57 0 min 0,000 mm 3,8 UV-I 464 W/m 16,7 C 22,1 C 19,3 km/h (3 Bft) 100,00 %
07.06.2018 12:54 23,5 C 24,4 C 66 % 1014,2 hPa 0,0 l/m 9,3 km/h (2 Bft) O 87 0 min 0,000 mm 3,9 UV-I 475 W/m 16,8 C 22,7 C 16,1 km/h (3 Bft) 95,65 %
07.06.2018 12:55 23,4 C 24,4 C 65 % 1014,2 hPa 0,0 l/m 3,2 km/h (1 Bft) NO 43 0 min 0,000 mm 4,0 UV-I 486 W/m 16,4 C 23,4 C 4,8 km/h (1 Bft) 100,00 %
07.06.2018 12:56 23,5 C 24,4 C 66 % 1014,1 hPa 0,0 l/m 8,6 km/h (2 Bft) O-NO 62 1 min 0,000 mm 4,7 UV-I 502 W/m 16,8 C 22,9 C 14,5 km/h (3 Bft) 95,65 %
07.06.2018 12:57 23,6 C 24,4 C 66 % 1014,1 hPa 0,0 l/m 8,8 km/h (2 Bft) O 86 1 min 0,000 mm 5,4 UV-I 666 W/m 16,9 C 22,9 C 14,5 km/h (3 Bft) 100,00 %
07.06.2018 12:58 23,7 C 24,4 C 66 % 1014,1 hPa 0,0 l/m 7,4 km/h (2 Bft) SO 131 1 min 0,000 mm 5,0 UV-I 666 W/m 17,0 C 23,4 C 14,5 km/h (3 Bft) 100,00 %
07.06.2018 12:59 23,7 C 24,4 C 64 % 1014,1 hPa 0,0 l/m 10,4 km/h (2 Bft) S-SO 151 1 min 0,000 mm 4,2 UV-I 627 W/m 16,5 C 22,6 C 14,5 km/h (3 Bft) 96,15 %
07.06.2018 13:00 23,7 C 24,4 C 63 % 1014,1 hPa 0,0 l/m 13,5 km/h (3 Bft) SO 126 1 min 0,483 mm 5,4 UV-I 606 W/m 16,2 C 22,0 C 19,3 km/h (3 Bft) 100,00 %
07.06.2018 13:01 23,6 C 24,4 C 64 % 1014,1 hPa 0,0 l/m 11,3 km/h (2 Bft) SO 130 1 min 0,000 mm 6,2 UV-I 606 W/m 16,4 C 22,3 C 12,9 km/h (3 Bft) 95,65 %
07.06.2018 13:02 23,6 C 24,4 C 64 % 1014,1 hPa 0,0 l/m 10,8 km/h (2 Bft) O-SO 108 1 min 0,000 mm 6,3 UV-I 1165 W/m 16,4 C 22,4 C 16,1 km/h (3 Bft) 100,00 %
07.06.2018 13:03 23,7 C 24,4 C 65 % 1014,1 hPa 0,0 l/m 10,6 km/h (2 Bft) O 98 1 min 0,000 mm 5,8 UV-I 1181 W/m 16,7 C 22,6 C 17,7 km/h (3 Bft) 100,00 %
07.06.2018 13:04 23,8 C 24,4 C 64 % 1014,1 hPa 0,0 l/m 11,6 km/h (2 Bft) O 84 1 min 0,000 mm 4,7 UV-I 1181 W/m 16,6 C 22,5 C 16,1 km/h (3 Bft) 100,00 %
07.06.2018 13:05 23,9 C 24,4 C 64 % 1014,1 hPa 0,0 l/m 11,5 km/h (2 Bft) O 84 1 min 0,000 mm 6,0 UV-I 1181 W/m 16,7 C 22,6 C 16,1 km/h (3 Bft) 100,00 %
07.06.2018 13:06 24,1 C 24,4 C 66 % 1014,1 hPa 0,0 l/m 12,0 km/h (2 Bft) NO 49 1 min 0,000 mm 6,0 UV-I 1155 W/m 17,3 C 22,8 C 16,1 km/h (3 Bft) 100,00 %
07.06.2018 13:07 24,2 C 24,4 C 65 % 1014,1 hPa 0,0 l/m 10,8 km/h (2 Bft) O 97 1 min 0,000 mm 4,3 UV-I 1144 W/m 17,2 C 23,1 C 17,7 km/h (3 Bft) 100,00 %
07.06.2018 13:08 24,2 C 24,4 C 63 % 1014,1 hPa 0,0 l/m 13,4 km/h (3 Bft) O 100 0 min 0,000 mm 3,6 UV-I 459 W/m 16,7 C 22,6 C 16,1 km/h (3 Bft) 100,00 %
07.06.2018 13:09 24,1 C 24,4 C 62 % 1014,0 hPa 0,0 l/m 11,2 km/h (2 Bft) O 82 0 min 0,000 mm 4,2 UV-I 475 W/m 16,4 C 22,9 C 17,7 km/h (3 Bft) 100,00 %
07.06.2018 13:10 23,9 C 24,4 C 63 % 1014,0 hPa 0,0 l/m 9,6 km/h (2 Bft) O 101 1 min 0,000 mm 5,4 UV-I 670 W/m 16,4 C 23,0 C 16,1 km/h (3 Bft) 100,00 %
07.06.2018 13:11 23,9 C 24,4 C 63 % 1014,0 hPa 0,0 l/m 7,9 km/h (2 Bft) O-SO 103 1 min 0,000 mm 4,8 UV-I 923 W/m 16,4 C 23,5 C 11,3 km/h (2 Bft) 100,00 %
07.06.2018 13:12 23,8 C 24,4 C 64 % 1014,0 hPa 0,0 l/m 4,3 km/h (1 Bft) O-SO 121 1 min 0,000 mm 4,8 UV-I 923 W/m 16,6 C 23,8 C 9,7 km/h (2 Bft) 100,00 %
07.06.2018 13:13 23,9 C 24,4 C 64 % 1014,0 hPa 0,0 l/m 8,2 km/h (2 Bft) NO 40 1 min 0,000 mm 4,9 UV-I 798 W/m 16,7 C 23,4 C 16,1 km/h (3 Bft) 100,00 %
07.06.2018 13:14 24,2 C 24,4 C 66 % 1014,0 hPa 0,0 l/m 13,9 km/h (3 Bft) NO 55 1 min 0,000 mm 6,0 UV-I 868 W/m 17,4 C 22,5 C 19,3 km/h (3 Bft) 100,00 %
07.06.2018 13:15 24,4 C 24,4 C 63 % 1014,0 hPa 0,0 l/m 11,7 km/h (2 Bft) O-NO 74 1 min 0,000 mm 6,5 UV-I 961 W/m 16,9 C 23,2 C 17,7 km/h (3 Bft) 100,00 %
07.06.2018 13:16 24,4 C 24,4 C 62 % 1014,0 hPa 0,0 l/m 13,7 km/h (3 Bft) O 81 1 min 0,000 mm 5,6 UV-I 1148 W/m 16,6 C 22,8 C 16,1 km/h (3 Bft) 95,65 %
07.06.2018 13:17 24,3 C 24,4 C 62 % 1013,9 hPa 0,0 l/m 12,7 km/h (3 Bft) O-NO 78 1 min 0,000 mm 4,2 UV-I 672 W/m 16,5 C 22,9 C 16,1 km/h (3 Bft) 95,83 %
07.06.2018 13:18 24,2 C 24,4 C 62 % 1014,0 hPa 0,0 l/m 9,6 km/h (2 Bft) NO 49 0 min 0,000 mm 4,1 UV-I 384 W/m 16,4 C 23,4 C 12,9 km/h (3 Bft) 100,00 %
07.06.2018 13:19 24,1 C 24,4 C 66 % 1013,9 hPa 0,0 l/m 8,8 km/h (2 Bft) O 96 0 min 0,000 mm 5,8 UV-I 439 W/m 17,3 C 23,5 C 14,5 km/h (3 Bft) 95,83 %
07.06.2018 13:20 24,2 C 24,4 C 62 % 1013,9 hPa 0,0 l/m 10,4 km/h (2 Bft) O-SO 104 1 min 0,000 mm 6,2 UV-I 1071 W/m 16,4 C 23,2 C 12,9 km/h (3 Bft) 95,65 %
07.06.2018 13:21 24,4 C 24,4 C 63 % 1013,9 hPa 0,0 l/m 10,7 km/h (2 Bft) O-SO 103 1 min 0,000 mm 6,4 UV-I 1029 W/m 16,9 C 23,4 C 14,5 km/h (3 Bft) 100,00 %
07.06.2018 13:23 24,5 C 24,4 C 65 % 1013,8 hPa 0,0 l/m 7,8 km/h (2 Bft) NO 42 2 min 0,000 mm 6,3 UV-I 999 W/m 17,5 C 24,1 C 12,9 km/h (3 Bft) 98,00 %
07.06.2018 13:24 24,7 C 24,4 C 65 % 1013,8 hPa 0,0 l/m 9,0 km/h (2 Bft) O-NO 71 1 min 0,000 mm 6,2 UV-I 1010 W/m 17,7 C 24,0 C 14,5 km/h (3 Bft) 95,65 %
07.06.2018 13:25 24,9 C 24,4 C 64 % 1013,8 hPa 0,0 l/m 10,4 km/h (2 Bft) O-NO 69 1 min 0,000 mm 6,1 UV-I 1025 W/m 17,6 C 24,0 C 19,3 km/h (3 Bft) 100,00 %
07.06.2018 13:26 25,1 C 24,4 C 63 % 1013,8 hPa 0,0 l/m 17,0 km/h (3 Bft) O-NO 74 1 min 0,000 mm 6,0 UV-I 947 W/m 17,5 C 23,2 C 20,9 km/h (4 Bft) 95,65 %
07.06.2018 13:27 25,1 C 24,4 C 62 % 1013,7 hPa 0,0 l/m 16,0 km/h (3 Bft) NO 39 1 min 0,000 mm 5,1 UV-I 727 W/m 17,3 C 23,3 C 19,3 km/h (3 Bft) 95,83 %
07.06.2018 13:28 24,9 C 24,4 C 62 % 1013,7 hPa 0,0 l/m 15,4 km/h (3 Bft) NO 51 0 min 0,000 mm 3,4 UV-I 307 W/m 17,1 C 23,1 C 20,9 km/h (4 Bft) 100,00 %
07.06.2018 13:29 24,7 C 24,4 C 61 % 1013,7 hPa 0,0 l/m 15,0 km/h (3 Bft) NO 49 0 min 0,000 mm 3,4 UV-I 299 W/m 16,7 C 22,9 C 20,9 km/h (4 Bft) 96,30 %
07.06.2018 13:30 24,3 C 24,4 C 63 % 1013,7 hPa 0,0 l/m 13,2 km/h (3 Bft) NO 42 0 min 0,000 mm 3,5 UV-I 301 W/m 16,8 C 22,8 C 19,3 km/h (3 Bft) 100,00 %
07.06.2018 13:31 24,1 C 24,4 C 63 % 1013,7 hPa 0,0 l/m 11,3 km/h (2 Bft) O-NO 74 0 min 0,000 mm 3,7 UV-I 328 W/m 16,6 C 22,9 C 14,5 km/h (3 Bft) 95,83 %
07.06.2018 13:32 24,0 C 24,4 C 64 % 1013,7 hPa 0,0 l/m 11,6 km/h (2 Bft) O-SO 105 0 min 0,000 mm 5,7 UV-I 330 W/m 16,8 C 22,7 C 17,7 km/h (3 Bft) 100,00 %
07.06.2018 13:33 24,0 C 24,4 C 63 % 1013,7 hPa 0,0 l/m 12,1 km/h (2 Bft) O 100 1 min 0,000 mm 5,9 UV-I 568 W/m 16,5 C 22,6 C 16,1 km/h (3 Bft) 95,83 %
07.06.2018 13:34 24,0 C 24,4 C 62 % 1013,6 hPa 0,0 l/m 11,0 km/h (2 Bft) O-SO 111 1 min 0,000 mm 6,1 UV-I 960 W/m 16,3 C 22,8 C 16,1 km/h (3 Bft) 100,00 %
07.06.2018 13:35 24,2 C 24,4 C 63 % 1013,6 hPa 0,0 l/m 16,2 km/h (3 Bft) O 89 1 min 0,000 mm 6,2 UV-I 952 W/m 16,7 C 22,2 C 24,1 km/h (4 Bft) 96,15 %
07.06.2018 13:36 24,3 C 24,4 C 61 % 1013,6 hPa 0,0 l/m 16,7 km/h (3 Bft) O-NO 75 1 min 0,000 mm 6,2 UV-I 939 W/m 16,3 C 22,2 C 22,5 km/h (4 Bft) 95,83 %
07.06.2018 13:37 24,3 C 24,4 C 63 % 1013,5 hPa 0,0 l/m 12,7 km/h (3 Bft) O-NO 65 1 min 0,000 mm 6,2 UV-I 930 W/m 16,8 C 22,9 C 17,7 km/h (3 Bft) 100,00 %
07.06.2018 13:38 24,5 C 24,4 C 62 % 1013,5 hPa 0,0 l/m 11,3 km/h (2 Bft) O-NO 70 1 min 0,000 mm 6,2 UV-I 933 W/m 16,7 C 23,3 C 16,1 km/h (3 Bft) 91,67 %
07.06.2018 13:39 24,7 C 24,4 C 62 % 1013,6 hPa 0,0 l/m 8,2 km/h (2 Bft) O-NO 67 1 min 0,000 mm 5,9 UV-I 932 W/m 16,9 C 24,2 C 11,3 km/h (2 Bft) 96,15 %
07.06.2018 13:40 24,7 C 24,4 C 61 % 1013,5 hPa 0,0 l/m 7,2 km/h (2 Bft) O 88 1 min 0,000 mm 5,5 UV-I 945 W/m 16,7 C 24,5 C 12,9 km/h (3 Bft) 95,83 %
07.06.2018 13:41 24,8 C 24,4 C 59 % 1013,5 hPa 0,0 l/m 12,2 km/h (2 Bft) SO 139 1 min 0,000 mm 6,2 UV-I 953 W/m 16,2 C 23,5 C 16,1 km/h (3 Bft) 95,65 %
07.06.2018 13:42 24,8 C 24,4 C 62 % 1013,5 hPa 0,0 l/m 12,6 km/h (3 Bft) O-NO 66 1 min 0,000 mm 6,1 UV-I 959 W/m 17,0 C 23,5 C 19,3 km/h (3 Bft) 95,83 %
07.06.2018 13:43 25,0 C 24,4 C 63 % 1013,5 hPa 0,0 l/m 14,8 km/h (3 Bft) O 92 1 min 0,000 mm 6,1 UV-I 968 W/m 17,5 C 23,3 C 19,3 km/h (3 Bft) 91,30 %
07.06.2018 13:44 25,1 C 24,4 C 61 % 1013,5 hPa 0,0 l/m 16,9 km/h (3 Bft) O-NO 73 1 min 0,000 mm 6,1 UV-I 986 W/m 17,0 C 23,2 C 22,5 km/h (4 Bft) 100,00 %
07.06.2018 13:45 25,0 C 24,4 C 61 % 1013,5 hPa 0,0 l/m 14,3 km/h (3 Bft) O-NO 77 1 min 0,000 mm 6,1 UV-I 1023 W/m 16,9 C 23,4 C 19,3 km/h (3 Bft) 95,65 %
07.06.2018 13:46 25,1 C 24,4 C 61 % 1013,5 hPa 0,0 l/m 15,3 km/h (3 Bft) O 90 1 min 0,000 mm 6,2 UV-I 1051 W/m 17,0 C 23,4 C 20,9 km/h (4 Bft) 100,00 %
07.06.2018 13:47 25,0 C 24,4 C 61 % 1013,5 hPa 0,0 l/m 14,8 km/h (3 Bft) O 86 1 min 0,000 mm 6,1 UV-I 1055 W/m 16,9 C 23,3 C 17,7 km/h (3 Bft) 92,31 %
07.06.2018 13:48 25,0 C 24,4 C 61 % 1013,5 hPa 0,0 l/m 11,4 km/h (2 Bft) N-NO 31 1 min 0,000 mm 5,2 UV-I 1069 W/m 16,9 C 23,9 C 17,7 km/h (3 Bft) 100,00 %
07.06.2018 13:49 25,1 C 24,4 C 61 % 1013,4 hPa 0,0 l/m 13,8 km/h (3 Bft) NO 46 1 min 0,000 mm 6,0 UV-I 1074 W/m 17,0 C 23,6 C 19,3 km/h (3 Bft) 91,30 %
07.06.2018 13:50 25,2 C 24,4 C 62 % 1013,5 hPa 0,0 l/m 17,3 km/h (3 Bft) NO 34 1 min 0,000 mm 6,2 UV-I 1030 W/m 17,4 C 23,2 C 22,5 km/h (4 Bft) 100,00 %
07.06.2018 13:51 25,3 C 25,0 C 61 % 1013,4 hPa 0,0 l/m 13,8 km/h (3 Bft) NO 55 1 min 0,000 mm 6,1 UV-I 980 W/m 17,2 C 23,8 C 17,7 km/h (3 Bft) 95,65 %
07.06.2018 13:52 25,3 C 25,0 C 59 % 1013,5 hPa 0,0 l/m 13,2 km/h (3 Bft) O 99 1 min 0,000 mm 6,0 UV-I 953 W/m 16,7 C 23,9 C 19,3 km/h (3 Bft) 100,00 %
07.06.2018 13:53 25,2 C 25,0 C 58 % 1013,4 hPa 0,0 l/m 7,7 km/h (2 Bft) O 101 1 min 0,000 mm 5,6 UV-I 938 W/m 16,3 C 24,9 C 11,3 km/h (2 Bft) 100,00 %
07.06.2018 13:54 25,2 C 25,0 C 59 % 1013,4 hPa 0,0 l/m 8,3 km/h (2 Bft) O-NO 57 1 min 0,000 mm 5,7 UV-I 931 W/m 16,6 C 24,7 C 14,5 km/h (3 Bft) 91,67 %
07.06.2018 13:55 25,3 C 25,0 C 60 % 1013,5 hPa 0,0 l/m 11,1 km/h (2 Bft) O 82 1 min 0,000 mm 5,9 UV-I 932 W/m 17,0 C 24,3 C 14,5 km/h (3 Bft) 100,00 %
07.06.2018 13:56 25,3 C 25,0 C 59 % 1013,5 hPa 0,0 l/m 11,2 km/h (2 Bft) O-SO 103 1 min 0,000 mm 6,0 UV-I 950 W/m 16,7 C 24,3 C 17,7 km/h (3 Bft) 100,00 %
07.06.2018 13:58 25,4 C 25,0 C 58 % 1013,4 hPa 0,0 l/m 12,4 km/h (3 Bft) O-SO 104 2 min 0,000 mm 6,0 UV-I 975 W/m 16,5 C 24,2 C 19,3 km/h (3 Bft) 100,00 %
07.06.2018 13:59 25,4 C 25,0 C 60 % 1013,4 hPa 0,0 l/m 11,3 km/h (2 Bft) O-NO 73 1 min 0,000 mm 5,9 UV-I 988 W/m 17,1 C 24,4 C 14,5 km/h (3 Bft) 100,00 %
07.06.2018 14:00 25,6 C 25,0 C 58 % 1013,5 hPa 0,0 l/m 12,8 km/h (3 Bft) O 88 1 min 0,609 mm 5,9 UV-I 984 W/m 16,7 C 24,4 C 20,9 km/h (4 Bft) 100,00 %
07.06.2018 14:01 25,5 C 25,0 C 57 % 1013,4 hPa 0,0 l/m 12,9 km/h (3 Bft) O 83 1 min 0,000 mm 5,9 UV-I 987 W/m 16,3 C 24,2 C 16,1 km/h (3 Bft) 100,00 %
07.06.2018 14:02 25,4 C 25,0 C 57 % 1013,4 hPa 0,0 l/m 5,5 km/h (1 Bft) SO 132 1 min 0,000 mm 5,9 UV-I 995 W/m 16,2 C 25,4 C 11,3 km/h (2 Bft) 95,65 %
07.06.2018 14:03 25,3 C 25,0 C 57 % 1013,4 hPa 0,0 l/m 9,4 km/h (2 Bft) O 84 1 min 0,000 mm 5,9 UV-I 1002 W/m 16,2 C 24,6 C 14,5 km/h (3 Bft) 100,00 %
07.06.2018 14:04 25,3 C 25,0 C 58 % 1013,5 hPa 0,0 l/m 14,9 km/h (3 Bft) O-SO 118 1 min 0,000 mm 5,9 UV-I 985 W/m 16,4 C 23,7 C 19,3 km/h (3 Bft) 100,00 %
07.06.2018 14:05 25,2 C 25,0 C 58 % 1013,5 hPa 0,0 l/m 15,6 km/h (3 Bft) O-NO 78 1 min 0,000 mm 5,8 UV-I 991 W/m 16,3 C 23,5 C 19,3 km/h (3 Bft) 95,83 %
07.06.2018 14:06 25,3 C 25,0 C 59 % 1013,4 hPa 0,0 l/m 8,8 km/h (2 Bft) O 80 1 min 0,000 mm 5,8 UV-I 991 W/m 16,7 C 24,7 C 12,9 km/h (3 Bft) 100,00 %
07.06.2018 14:08 25,2 C 25,0 C 60 % 1013,4 hPa 0,0 l/m 13,8 km/h (3 Bft) O 86 2 min 0,000 mm 5,1 UV-I 957 W/m 16,9 C 23,7 C 24,1 km/h (4 Bft) 100,00 %
07.06.2018 14:09 25,1 C 25,0 C 59 % 1013,4 hPa 0,0 l/m 10,3 km/h (2 Bft) O-NO 74 1 min 0,000 mm 5,3 UV-I 838 W/m 16,5 C 24,2 C 14,5 km/h (3 Bft) 100,00 %
07.06.2018 14:10 25,2 C 25,0 C 60 % 1013,4 hPa 0,0 l/m 9,2 km/h (2 Bft) SO 132 1 min 0,000 mm 5,8 UV-I 947 W/m 16,9 C 24,5 C 14,5 km/h (3 Bft) 100,00 %
07.06.2018 14:11 25,2 C 25,0 C 57 % 1013,4 hPa 0,0 l/m 13,0 km/h (3 Bft) O 96 1 min 0,000 mm 5,9 UV-I 1016 W/m 16,1 C 23,9 C 14,5 km/h (3 Bft) 100,00 %
07.06.2018 14:12 25,4 C 25,0 C 58 % 1013,4 hPa 0,0 l/m 13,1 km/h (3 Bft) O-NO 63 1 min 0,000 mm 5,9 UV-I 1021 W/m 16,5 C 24,1 C 17,7 km/h (3 Bft) 100,00 %
07.06.2018 14:13 25,5 C 25,0 C 58 % 1013,4 hPa 0,0 l/m 10,0 km/h (2 Bft) O-NO 68 1 min 0,000 mm 5,8 UV-I 1028 W/m 16,6 C 24,7 C 14,5 km/h (3 Bft) 100,00 %
07.06.2018 14:14 25,6 C 25,0 C 57 % 1013,4 hPa 0,0 l/m 11,6 km/h (2 Bft) O 94 1 min 0,000 mm 5,8 UV-I 1026 W/m 16,4 C 24,5 C 17,7 km/h (3 Bft) 100,00 %
07.06.2018 14:15 25,7 C 25,0 C 58 % 1013,4 hPa 0,0 l/m 8,0 km/h (2 Bft) O 97 1 min 0,000 mm 5,8 UV-I 1042 W/m 16,8 C 25,3 C 17,7 km/h (3 Bft) 91,30 %
07.06.2018 14:16 25,9 C 25,0 C 58 % 1013,4 hPa 0,0 l/m 16,2 km/h (3 Bft) NO 56 1 min 0,000 mm 5,9 UV-I 1060 W/m 17,0 C 24,2 C 20,9 km/h (4 Bft) 100,00 %
07.06.2018 14:17 25,9 C 25,0 C 59 % 1013,4 hPa 0,0 l/m 12,5 km/h (3 Bft) N-NO 31 1 min 0,000 mm 5,7 UV-I 1057 W/m 17,3 C 24,7 C 17,7 km/h (3 Bft) 91,30 %
07.06.2018 14:18 25,8 C 25,0 C 58 % 1013,3 hPa 0,0 l/m 14,1 km/h (3 Bft) N-NO 22 1 min 0,000 mm 5,6 UV-I 1060 W/m 16,9 C 24,4 C 22,5 km/h (4 Bft) 95,83 %
07.06.2018 14:19 26,1 C 25,0 C 59 % 1013,3 hPa 0,0 l/m 11,1 km/h (2 Bft) O 101 1 min 0,000 mm 5,3 UV-I 1045 W/m 17,4 C 25,2 C 16,1 km/h (3 Bft) 91,30 %
07.06.2018 14:20 26,1 C 25,0 C 57 % 1013,3 hPa 0,0 l/m 17,4 km/h (3 Bft) O 100 1 min 0,000 mm 5,3 UV-I 1042 W/m 16,9 C 24,4 C 25,7 km/h (4 Bft) 100,00 %
07.06.2018 14:21 26,0 C 25,0 C 57 % 1013,3 hPa 0,0 l/m 20,0 km/h (4 Bft) O 85 1 min 0,000 mm 4,6 UV-I 1044 W/m 16,8 C 24,0 C 25,7 km/h (4 Bft) 95,65 %
07.06.2018 14:22 25,8 C 25,0 C 57 % 1013,4 hPa 0,0 l/m 14,2 km/h (3 Bft) O 81 1 min 0,000 mm 3,3 UV-I 1044 W/m 16,6 C 24,4 C 17,7 km/h (3 Bft) 95,83 %
07.06.2018 14:23 25,5 C 25,0 C 59 % 1013,4 hPa 0,0 l/m 8,9 km/h (2 Bft) O-SO 102 1 min 0,000 mm 2,6 UV-I 479 W/m 16,9 C 24,9 C 12,9 km/h (3 Bft) 100,00 %
07.06.2018 14:24 25,3 C 25,0 C 58 % 1013,3 hPa 0,0 l/m 13,3 km/h (3 Bft) O 93 0 min 0,000 mm 2,9 UV-I 384 W/m 16,4 C 23,9 C 17,7 km/h (3 Bft) 95,83 %
07.06.2018 14:25 25,2 C 25,0 C 59 % 1013,3 hPa 0,0 l/m 11,4 km/h (2 Bft) O-SO 113 0 min 0,000 mm 3,3 UV-I 425 W/m 16,6 C 24,1 C 17,7 km/h (3 Bft) 100,00 %
07.06.2018 14:26 25,2 C 25,0 C 59 % 1013,3 hPa 0,0 l/m 9,2 km/h (2 Bft) O 88 0 min 0,000 mm 4,4 UV-I 425 W/m 16,6 C 24,5 C 12,9 km/h (3 Bft) 100,00 %
07.06.2018 14:27 25,3 C 25,0 C 59 % 1013,3 hPa 0,0 l/m 9,3 km/h (2 Bft) O-NO 74 1 min 0,000 mm 5,2 UV-I 802 W/m 16,7 C 24,6 C 14,5 km/h (3 Bft) 100,00 %
07.06.2018 14:28 25,6 C 25,0 C 58 % 1013,3 hPa 0,0 l/m 16,7 km/h (3 Bft) O 87 1 min 0,000 mm 5,0 UV-I 1013 W/m 16,7 C 23,8 C 20,9 km/h (4 Bft) 100,00 %
07.06.2018 14:29 25,5 C 25,0 C 56 % 1013,3 hPa 0,0 l/m 15,8 km/h (3 Bft) O-SO 117 1 min 0,000 mm 4,0 UV-I 988 W/m 16,1 C 23,8 C 20,9 km/h (4 Bft) 100,00 %
07.06.2018 14:30 25,3 C 25,0 C 57 % 1013,3 hPa 0,0 l/m 9,1 km/h (2 Bft) O-SO 111 1 min 0,000 mm 3,4 UV-I 988 W/m 16,2 C 24,7 C 12,9 km/h (3 Bft) 100,00 %
07.06.2018 14:31 25,3 C 25,0 C 58 % 1013,3 hPa 0,0 l/m 9,8 km/h (2 Bft) O-NO 57 1 min 0,000 mm 4,9 UV-I 988 W/m 16,4 C 24,5 C 12,9 km/h (3 Bft) 100,00 %
07.06.2018 14:33 25,2 C 25,0 C 59 % 1013,2 hPa 0,0 l/m 9,0 km/h (2 Bft) O 99 2 min 0,000 mm 4,7 UV-I 933 W/m 16,6 C 24,6 C 16,1 km/h (3 Bft) 96,61 %
07.06.2018 14:34 25,2 C 25,0 C 61 % 1013,2 hPa 0,0 l/m 12,4 km/h (3 Bft) NO 53 1 min 0,000 mm 3,8 UV-I 912 W/m 17,1 C 24,0 C 20,9 km/h (4 Bft) 90,91 %
07.06.2018 14:35 25,2 C 25,0 C 59 % 1013,2 hPa 0,0 l/m 9,5 km/h (2 Bft) O 88 1 min 0,000 mm 3,5 UV-I 891 W/m 16,6 C 24,5 C 12,9 km/h (3 Bft) 100,00 %
07.06.2018 14:36 25,1 C 25,0 C 58 % 1013,2 hPa 0,0 l/m 12,5 km/h (3 Bft) O 86 0 min 0,000 mm 3,3 UV-I 398 W/m 16,2 C 23,8 C 14,5 km/h (3 Bft) 100,00 %
07.06.2018 14:38 24,8 C 25,0 C 59 % 1013,2 hPa 0,0 l/m 11,5 km/h (2 Bft) O-SO 120 0 min 0,000 mm 3,3 UV-I 377 W/m 16,2 C 23,6 C 14,5 km/h (3 Bft) 100,00 %
07.06.2018 14:39 24,8 C 25,0 C 60 % 1013,2 hPa 0,0 l/m 11,4 km/h (2 Bft) O 98 0 min 0,000 mm 4,1 UV-I 383 W/m 16,5 C 23,7 C 16,1 km/h (3 Bft) 100,00 %
07.06.2018 14:40 24,8 C 25,0 C 58 % 1013,1 hPa 0,0 l/m 13,6 km/h (3 Bft) O 99 0 min 0,000 mm 4,9 UV-I 383 W/m 16,0 C 23,3 C 17,7 km/h (3 Bft) 100,00 %
07.06.2018 14:41 24,7 C 25,0 C 58 % 1013,1 hPa 0,0 l/m 13,3 km/h (3 Bft) O-NO 77 0 min 0,000 mm 5,2 UV-I 407 W/m 15,9 C 23,2 C 17,7 km/h (3 Bft) 100,00 %
07.06.2018 14:42 25,0 C 25,0 C 61 % 1013,1 hPa 0,0 l/m 12,2 km/h (2 Bft) O-NO 65 1 min 0,000 mm 5,3 UV-I 943 W/m 16,9 C 23,8 C 20,9 km/h (4 Bft) 100,00 %
07.06.2018 14:43 25,2 C 25,0 C 58 % 1013,1 hPa 0,0 l/m 14,9 km/h (3 Bft) O 79 1 min 0,000 mm 5,1 UV-I 890 W/m 16,3 C 23,6 C 17,7 km/h (3 Bft) 100,00 %
07.06.2018 14:44 25,2 C 25,0 C 57 % 1013,1 hPa 0,0 l/m 11,6 km/h (2 Bft) O 98 1 min 0,000 mm 5,0 UV-I 871 W/m 16,1 C 24,1 C 16,1 km/h (3 Bft) 100,00 %
07.06.2018 14:45 25,2 C 25,0 C 57 % 1013,1 hPa 0,0 l/m 11,5 km/h (2 Bft) O-NO 69 1 min 0,000 mm 5,0 UV-I 862 W/m 16,1 C 24,1 C 14,5 km/h (3 Bft) 100,00 %
07.06.2018 14:46 25,2 C 25,0 C 59 % 1013,1 hPa 0,0 l/m 9,4 km/h (2 Bft) O 82 1 min 0,000 mm 4,9 UV-I 870 W/m 16,6 C 24,5 C 14,5 km/h (3 Bft) 95,83 %
07.06.2018 14:47 25,3 C 25,0 C 58 % 1013,1 hPa 0,0 l/m 7,9 km/h (2 Bft) O-SO 118 1 min 0,000 mm 5,0 UV-I 914 W/m 16,4 C 24,9 C 12,9 km/h (3 Bft) 100,00 %
07.06.2018 14:48 25,4 C 25,0 C 60 % 1013,0 hPa 0,0 l/m 6,6 km/h (2 Bft) O-NO 68 1 min 0,000 mm 4,9 UV-I 942 W/m 17,1 C 25,4 C 11,3 km/h (2 Bft) 100,00 %
07.06.2018 14:49 25,5 C 25,0 C 58 % 1013,0 hPa 0,0 l/m 5,9 km/h (2 Bft) N 355 1 min 0,000 mm 4,4 UV-I 944 W/m 16,6 C 25,5 C 8,0 km/h (2 Bft) 100,00 %
07.06.2018 14:50 25,6 C 25,0 C 59 % 1013,0 hPa 0,0 l/m 5,9 km/h (2 Bft) SO 140 1 min 0,000 mm 3,0 UV-I 944 W/m 17,0 C 25,6 C 8,0 km/h (2 Bft) 100,00 %
07.06.2018 14:51 25,5 C 25,0 C 59 % 1013,0 hPa 0,0 l/m 10,3 km/h (2 Bft) O-NO 71 1 min 0,000 mm 2,7 UV-I 572 W/m 16,9 C 24,7 C 16,1 km/h (3 Bft) 100,00 %
07.06.2018 14:52 25,4 C 25,0 C 59 % 1013,0 hPa 0,0 l/m 17,8 km/h (3 Bft) O 82 0 min 0,000 mm 2,5 UV-I 346 W/m 16,8 C 23,4 C 22,5 km/h (4 Bft) 100,00 %
07.06.2018 14:53 25,3 C 25,0 C 58 % 1013,0 hPa 0,0 l/m 14,1 km/h (3 Bft) O-NO 62 0 min 0,000 mm 2,5 UV-I 343 W/m 16,4 C 23,8 C 17,7 km/h (3 Bft) 100,00 %
07.06.2018 14:54 25,2 C 25,0 C 59 % 1013,0 hPa 0,0 l/m 14,6 km/h (3 Bft) O-NO 63 0 min 0,000 mm 2,5 UV-I 337 W/m 16,6 C 23,6 C 17,7 km/h (3 Bft) 100,00 %
07.06.2018 14:55 25,1 C 25,0 C 60 % 1013,1 hPa 0,0 l/m 20,9 km/h (4 Bft) O-NO 59 0 min 0,000 mm 2,5 UV-I 335 W/m 16,8 C 22,7 C 25,7 km/h (4 Bft) 100,00 %
07.06.2018 14:56 24,9 C 25,0 C 61 % 1013,1 hPa 0,0 l/m 15,6 km/h (3 Bft) O-NO 66 0 min 0,000 mm 2,5 UV-I 345 W/m 16,8 C 23,1 C 20,9 km/h (4 Bft) 100,00 %
07.06.2018 14:57 24,9 C 25,0 C 61 % 1013,1 hPa 0,0 l/m 15,7 km/h (3 Bft) O 87 0 min 0,000 mm 2,7 UV-I 352 W/m 16,8 C 23,1 C 17,7 km/h (3 Bft) 91,30 %
07.06.2018 14:58 24,9 C 25,0 C 60 % 1013,1 hPa 0,0 l/m 13,4 km/h (3 Bft) O 80 0 min 0,000 mm 2,9 UV-I 389 W/m 16,6 C 23,4 C 17,7 km/h (3 Bft) 100,00 %
07.06.2018 14:59 24,9 C 25,0 C 61 % 1013,1 hPa 0,0 l/m 16,0 km/h (3 Bft) O-NO 78 0 min 0,000 mm 3,1 UV-I 421 W/m 16,8 C 23,0 C 20,9 km/h (4 Bft) 100,00 %
07.06.2018 15:00 24,9 C 25,0 C 60 % 1013,1 hPa 0,0 l/m 11,4 km/h (2 Bft) O-NO 61 1 min 0,000 mm 4,2 UV-I 532 W/m 16,6 C 23,8 C 16,1 km/h (3 Bft) 100,00 %
07.06.2018 15:01 25,0 C 25,0 C 60 % 1013,1 hPa 0,0 l/m 9,9 km/h (2 Bft) O-NO 63 1 min 0,559 mm 4,2 UV-I 863 W/m 16,7 C 24,2 C 14,5 km/h (3 Bft) 100,00 %
07.06.2018 15:02 25,3 C 25,0 C 60 % 1013,0 hPa 0,0 l/m 13,5 km/h (3 Bft) O 101 1 min 0,000 mm 4,1 UV-I 859 W/m 17,0 C 23,9 C 16,1 km/h (3 Bft) 100,00 %
07.06.2018 15:03 25,4 C 25,0 C 58 % 1013,1 hPa 0,0 l/m 12,2 km/h (2 Bft) O 98 1 min 0,000 mm 3,5 UV-I 853 W/m 16,5 C 24,2 C 17,7 km/h (3 Bft) 95,65 %
07.06.2018 15:04 25,4 C 25,0 C 57 % 1013,2 hPa 0,0 l/m 14,3 km/h (3 Bft) O 88 1 min 0,000 mm 3,5 UV-I 545 W/m 16,2 C 23,9 C 17,7 km/h (3 Bft) 100,00 %
07.06.2018 15:05 25,4 C 25,0 C 56 % 1013,1 hPa 0,0 l/m 10,3 km/h (2 Bft) O 87 0 min 0,000 mm 3,1 UV-I 408 W/m 16,0 C 24,5 C 17,7 km/h (3 Bft) 100,00 %
07.06.2018 15:06 25,3 C 25,0 C 57 % 1013,1 hPa 0,0 l/m 7,3 km/h (2 Bft) NO 40 0 min 0,000 mm 3,0 UV-I 412 W/m 16,2 C 25,1 C 9,7 km/h (2 Bft) 95,65 %
07.06.2018 15:08 25,2 C 25,0 C 60 % 1013,0 hPa 0,0 l/m 9,3 km/h (2 Bft) NO 37 0 min 0,000 mm 3,6 UV-I 418 W/m 16,9 C 24,5 C 17,7 km/h (3 Bft) 95,74 %
07.06.2018 15:09 25,1 C 25,0 C 61 % 1013,0 hPa 0,0 l/m 13,5 km/h (3 Bft) NO 40 0 min 0,000 mm 3,2 UV-I 418 W/m 17,0 C 23,7 C 16,1 km/h (3 Bft) 100,00 %
07.06.2018 15:10 25,2 C 25,0 C 61 % 1013,0 hPa 0,0 l/m 9,5 km/h (2 Bft) O 84 0 min 0,000 mm 3,0 UV-I 406 W/m 17,1 C 24,5 C 12,9 km/h (3 Bft) 91,30 %
07.06.2018 15:11 25,2 C 25,0 C 59 % 1013,1 hPa 0,0 l/m 14,3 km/h (3 Bft) O 84 0 min 0,000 mm 3,0 UV-I 402 W/m 16,6 C 23,7 C 19,3 km/h (3 Bft) 100,00 %
07.06.2018 15:12 25,2 C 25,0 C 58 % 1013,1 hPa 0,0 l/m 14,1 km/h (3 Bft) O-SO 116 0 min 0,000 mm 3,0 UV-I 387 W/m 16,3 C 23,7 C 19,3 km/h (3 Bft) 100,00 %
07.06.2018 15:13 25,1 C 25,0 C 58 % 1013,0 hPa 0,0 l/m 12,2 km/h (2 Bft) O-NO 69 0 min 0,000 mm 2,8 UV-I 362 W/m 16,2 C 23,9 C 14,5 km/h (3 Bft) 100,00 %
07.06.2018 15:14 25,1 C 25,0 C 58 % 1013,0 hPa 0,0 l/m 10,9 km/h (2 Bft) O-SO 103 0 min 0,000 mm 2,8 UV-I 356 W/m 16,2 C 24,1 C 16,1 km/h (3 Bft) 100,00 %
07.06.2018 15:15 24,9 C 25,0 C 59 % 1013,0 hPa 0,0 l/m 10,1 km/h (2 Bft) O 91 0 min 0,000 mm 2,9 UV-I 356 W/m 16,3 C 24,0 C 14,5 km/h (3 Bft) 95,83 %
07.06.2018 15:16 24,9 C 25,0 C 59 % 1013,0 hPa 0,0 l/m 10,0 km/h (2 Bft) O 98 0 min 0,000 mm 3,0 UV-I 373 W/m 16,3 C 24,1 C 16,1 km/h (3 Bft) 100,00 %
07.06.2018 15:17 24,9 C 25,0 C 59 % 1013,0 hPa 0,0 l/m 18,4 km/h (3 Bft) O 86 1 min 0,000 mm 3,9 UV-I 452 W/m 16,3 C 22,7 C 24,1 km/h (4 Bft) 95,83 %
07.06.2018 15:18 25,1 C 25,0 C 59 % 1012,9 hPa 0,0 l/m 14,7 km/h (3 Bft) SO 128 1 min 0,000 mm 4,2 UV-I 840 W/m 16,5 C 23,5 C 20,9 km/h (4 Bft) 95,65 %
07.06.2018 15:19 25,2 C 25,0 C 60 % 1012,9 hPa 0,0 l/m 13,6 km/h (3 Bft) O-SO 115 1 min 0,000 mm 4,2 UV-I 823 W/m 16,9 C 23,8 C 19,3 km/h (3 Bft) 100,00 %
07.06.2018 15:20 25,3 C 25,0 C 60 % 1012,8 hPa 0,0 l/m 11,3 km/h (2 Bft) O-SO 121 1 min 0,000 mm 4,2 UV-I 806 W/m 17,0 C 24,3 C 16,1 km/h (3 Bft) 95,65 %
07.06.2018 15:21 25,4 C 25,0 C 59 % 1012,9 hPa 0,0 l/m 11,2 km/h (2 Bft) O-NO 69 1 min 0,000 mm 4,1 UV-I 804 W/m 16,8 C 24,4 C 16,1 km/h (3 Bft) 100,00 %
07.06.2018 15:22 25,5 C 25,0 C 59 % 1012,8 hPa 0,0 l/m 14,2 km/h (3 Bft) O 96 1 min 0,000 mm 4,0 UV-I 802 W/m 16,9 C 24,0 C 25,7 km/h (4 Bft) 91,30 %
07.06.2018 15:23 25,6 C 25,0 C 59 % 1012,9 hPa 0,0 l/m 15,5 km/h (3 Bft) O-NO 63 1 min 0,000 mm 3,5 UV-I 802 W/m 17,0 C 24,0 C 20,9 km/h (4 Bft) 100,00 %
07.06.2018 15:24 25,6 C 25,0 C 59 % 1012,8 hPa 0,0 l/m 15,6 km/h (3 Bft) O-NO 65 1 min 0,000 mm 2,9 UV-I 642 W/m 17,0 C 24,0 C 20,9 km/h (4 Bft) 86,96 %
07.06.2018 15:25 25,5 C 25,0 C 58 % 1012,8 hPa 0,0 l/m 16,0 km/h (3 Bft) O 82 0 min 0,000 mm 2,9 UV-I 339 W/m 16,6 C 23,8 C 19,3 km/h (3 Bft) 95,83 %
07.06.2018 15:26 25,4 C 25,0 C 59 % 1012,8 hPa 0,0 l/m 12,7 km/h (3 Bft) O-NO 68 0 min 0,000 mm 2,8 UV-I 323 W/m 16,8 C 24,1 C 17,7 km/h (3 Bft) 100,00 %
07.06.2018 15:27 25,4 C 25,0 C 60 % 1012,8 hPa 0,0 l/m 15,2 km/h (3 Bft) NO 51 0 min 0,000 mm 3,2 UV-I 366 W/m 17,1 C 23,8 C 20,9 km/h (4 Bft) 95,83 %
07.06.2018 15:28 25,4 C 25,0 C 60 % 1012,8 hPa 0,0 l/m 15,7 km/h (3 Bft) NO 51 0 min 0,000 mm 3,5 UV-I 404 W/m 17,1 C 23,7 C 19,3 km/h (3 Bft) 100,00 %
07.06.2018 15:29 25,6 C 25,0 C 62 % 1012,8 hPa 0,0 l/m 10,9 km/h (2 Bft) O 87 1 min 0,000 mm 3,3 UV-I 623 W/m 17,8 C 24,7 C 14,5 km/h (3 Bft) 95,65 %
07.06.2018 15:30 25,7 C 25,0 C 60 % 1012,8 hPa 0,0 l/m 15,3 km/h (3 Bft) O-NO 76 1 min 0,000 mm 3,2 UV-I 594 W/m 17,3 C 24,1 C 22,5 km/h (4 Bft) 100,00 %
07.06.2018 15:31 25,7 C 25,0 C 59 % 1012,8 hPa 0,0 l/m 12,2 km/h (2 Bft) O-NO 61 1 min 0,000 mm 3,0 UV-I 572 W/m 17,1 C 24,6 C 20,9 km/h (4 Bft) 92,86 %
07.06.2018 15:32 25,7 C 25,0 C 57 % 1012,8 hPa 0,0 l/m 20,7 km/h (4 Bft) O-NO 69 1 min 0,000 mm 2,9 UV-I 560 W/m 16,5 C 23,5 C 27,4 km/h (4 Bft) 100,00 %
07.06.2018 15:33 25,6 C 25,0 C 57 % 1012,8 hPa 0,0 l/m 17,6 km/h (3 Bft) O-NO 71 1 min 0,000 mm 2,6 UV-I 559 W/m 16,4 C 23,7 C 22,5 km/h (4 Bft) 91,30 %
07.06.2018 15:34 25,4 C 25,0 C 58 % 1012,8 hPa 0,0 l/m 18,0 km/h (3 Bft) NO 51 0 min 0,000 mm 2,3 UV-I 328 W/m 16,5 C 23,4 C 22,5 km/h (4 Bft) 100,00 %
07.06.2018 15:35 25,2 C 25,0 C 58 % 1012,7 hPa 0,0 l/m 13,1 km/h (3 Bft) O-NO 73 0 min 0,000 mm 2,5 UV-I 345 W/m 16,3 C 23,8 C 16,1 km/h (3 Bft) 86,96 %
07.06.2018 15:36 25,1 C 25,0 C 59 % 1012,7 hPa 0,0 l/m 14,6 km/h (3 Bft) NO 47 0 min 0,000 mm 2,7 UV-I 362 W/m 16,5 C 23,5 C 20,9 km/h (4 Bft) 100,00 %
07.06.2018 15:38 25,0 C 25,0 C 58 % 1012,7 hPa 0,0 l/m 18,4 km/h (3 Bft) O-SO 105 0 min 0,000 mm 2,5 UV-I 353 W/m 16,1 C 22,9 C 25,7 km/h (4 Bft) 93,22 %
07.06.2018 15:39 24,9 C 25,0 C 58 % 1012,7 hPa 0,0 l/m 14,7 km/h (3 Bft) O-NO 73 0 min 0,000 mm 2,4 UV-I 304 W/m 16,1 C 23,2 C 17,7 km/h (3 Bft) 90,91 %
07.06.2018 15:40 24,9 C 25,0 C 59 % 1012,7 hPa 0,0 l/m 15,5 km/h (3 Bft) O-SO 104 0 min 0,000 mm 2,6 UV-I 315 W/m 16,3 C 23,1 C 19,3 km/h (3 Bft) 95,83 %
07.06.2018 15:41 24,8 C 25,0 C 59 % 1012,7 hPa 0,0 l/m 17,3 km/h (3 Bft) O-NO 77 1 min 0,000 mm 2,6 UV-I 424 W/m 16,2 C 22,7 C 24,1 km/h (4 Bft) 95,65 %
07.06.2018 15:43 24,8 C 25,0 C 59 % 1012,6 hPa 0,0 l/m 15,8 km/h (3 Bft) O-SO 113 0 min 0,000 mm 2,5 UV-I 399 W/m 16,2 C 22,9 C 25,7 km/h (4 Bft) 96,08 %
07.06.2018 15:44 24,8 C 25,0 C 59 % 1012,6 hPa 0,0 l/m 17,9 km/h (3 Bft) O-NO 75 0 min 0,000 mm 2,4 UV-I 378 W/m 16,2 C 22,7 C 22,5 km/h (4 Bft) 91,30 %
07.06.2018 15:45 24,8 C 25,0 C 59 % 1012,6 hPa 0,0 l/m 15,7 km/h (3 Bft) O 91 0 min 0,000 mm 2,3 UV-I 374 W/m 16,2 C 23,0 C 20,9 km/h (4 Bft) 95,83 %
07.06.2018 15:46 24,8 C 25,0 C 60 % 1012,6 hPa 0,0 l/m 19,3 km/h (3 Bft) O-SO 102 0 min 0,000 mm 2,3 UV-I 378 W/m 16,5 C 22,5 C 24,1 km/h (4 Bft) 95,65 %
07.06.2018 15:48 24,8 C 25,0 C 59 % 1012,5 hPa 0,0 l/m 15,1 km/h (3 Bft) O-SO 104 0 min 0,000 mm 2,2 UV-I 373 W/m 16,2 C 23,1 C 20,9 km/h (4 Bft) 95,74 %
07.06.2018 15:49 24,8 C 25,0 C 59 % 1012,5 hPa 0,0 l/m 13,8 km/h (3 Bft) O 91 0 min 0,000 mm 2,2 UV-I 346 W/m 16,2 C 23,3 C 17,7 km/h (3 Bft) 100,00 %
07.06.2018 15:50 24,8 C 25,0 C 59 % 1012,5 hPa 0,0 l/m 13,8 km/h (3 Bft) O-NO 75 0 min 0,000 mm 2,2 UV-I 335 W/m 16,2 C 23,3 C 17,7 km/h (3 Bft) 96,15 %
07.06.2018 15:51 24,8 C 25,0 C 60 % 1012,5 hPa 0,0 l/m 14,6 km/h (3 Bft) O 89 0 min 0,000 mm 2,2 UV-I 331 W/m 16,5 C 23,1 C 22,5 km/h (4 Bft) 91,67 %
07.06.2018 15:53 24,7 C 25,0 C 60 % 1012,4 hPa 0,0 l/m 15,8 km/h (3 Bft) O 81 0 min 0,000 mm 2,2 UV-I 334 W/m 16,4 C 22,8 C 22,5 km/h (4 Bft) 97,87 %
07.06.2018 15:54 24,7 C 25,0 C 59 % 1012,4 hPa 0,0 l/m 18,8 km/h (3 Bft) O-NO 74 0 min 0,000 mm 2,2 UV-I 337 W/m 16,1 C 22,4 C 24,1 km/h (4 Bft) 100,00 %
07.06.2018 15:55 24,7 C 25,0 C 58 % 1012,4 hPa 0,0 l/m 18,2 km/h (3 Bft) O-NO 67 0 min 0,000 mm 2,2 UV-I 340 W/m 15,9 C 22,5 C 24,1 km/h (4 Bft) 95,83 %
07.06.2018 15:56 24,7 C 25,0 C 58 % 1012,5 hPa 0,0 l/m 18,5 km/h (3 Bft) O-NO 67 0 min 0,000 mm 2,2 UV-I 344 W/m 15,9 C 22,5 C 24,1 km/h (4 Bft) 100,00 %
07.06.2018 15:58 24,7 C 25,0 C 58 % 1012,4 hPa 0,0 l/m 15,8 km/h (3 Bft) O-NO 68 0 min 0,000 mm 2,2 UV-I 339 W/m 15,9 C 22,8 C 22,5 km/h (4 Bft) 96,00 %
07.06.2018 15:59 24,7 C 25,0 C 59 % 1012,4 hPa 0,0 l/m 17,5 km/h (3 Bft) O 83 0 min 0,000 mm 2,2 UV-I 331 W/m 16,1 C 22,6 C 22,5 km/h (4 Bft) 91,67 %
07.06.2018 16:00 24,7 C 25,0 C 59 % 1012,4 hPa 0,0 l/m 19,8 km/h (3 Bft) O 98 0 min 0,000 mm 2,2 UV-I 328 W/m 16,1 C 22,3 C 29,0 km/h (5 Bft) 100,00 %
07.06.2018 16:01 24,7 C 25,0 C 59 % 1012,4 hPa 0,0 l/m 18,8 km/h (3 Bft) O 95 0 min 0,381 mm 2,2 UV-I 325 W/m 16,1 C 22,4 C 29,0 km/h (5 Bft) 95,65 %
07.06.2018 16:02 24,7 C 25,0 C 59 % 1012,4 hPa 0,0 l/m 16,2 km/h (3 Bft) O 86 0 min 0,000 mm 2,1 UV-I 322 W/m 16,1 C 22,8 C 24,1 km/h (4 Bft) 100,00 %
07.06.2018 16:03 24,7 C 25,0 C 59 % 1012,4 hPa 0,0 l/m 16,1 km/h (3 Bft) NO 49 0 min 0,000 mm 2,1 UV-I 322 W/m 16,1 C 22,8 C 22,5 km/h (4 Bft) 95,65 %
07.06.2018 16:04 24,6 C 25,0 C 59 % 1012,4 hPa 0,0 l/m 18,2 km/h (3 Bft) O-SO 105 0 min 0,000 mm 2,1 UV-I 320 W/m 16,0 C 22,4 C 25,7 km/h (4 Bft) 100,00 %
07.06.2018 16:05 24,6 C 25,0 C 59 % 1012,4 hPa 0,0 l/m 17,2 km/h (3 Bft) O-SO 105 0 min 0,000 mm 2,1 UV-I 321 W/m 16,0 C 22,5 C 20,9 km/h (4 Bft) 95,65 %
07.06.2018 16:06 24,5 C 25,0 C 60 % 1012,3 hPa 0,0 l/m 17,6 km/h (3 Bft) O 88 0 min 0,000 mm 2,1 UV-I 320 W/m 16,2 C 22,3 C 22,5 km/h (4 Bft) 95,83 %
07.06.2018 16:07 24,5 C 25,0 C 60 % 1012,4 hPa 0,0 l/m 22,4 km/h (4 Bft) O-SO 103 0 min 0,000 mm 2,0 UV-I 316 W/m 16,2 C 21,7 C 29,0 km/h (5 Bft) 95,65 %
07.06.2018 16:08 24,6 C 25,0 C 61 % 1012,3 hPa 0,0 l/m 17,9 km/h (3 Bft) O 88 0 min 0,000 mm 2,0 UV-I 307 W/m 16,6 C 22,4 C 24,1 km/h (4 Bft) 96,30 %
07.06.2018 16:09 24,6 C 25,0 C 60 % 1012,3 hPa 0,0 l/m 18,7 km/h (3 Bft) O 91 0 min 0,000 mm 2,0 UV-I 302 W/m 16,3 C 22,3 C 29,0 km/h (5 Bft) 100,00 %
07.06.2018 16:10 24,6 C 25,0 C 61 % 1012,3 hPa 0,0 l/m 22,2 km/h (4 Bft) O 92 0 min 0,000 mm 1,9 UV-I 296 W/m 16,6 C 21,9 C 25,7 km/h (4 Bft) 91,67 %
07.06.2018 16:11 24,6 C 25,0 C 60 % 1012,3 hPa 0,0 l/m 17,6 km/h (3 Bft) O-NO 73 0 min 0,000 mm 1,9 UV-I 290 W/m 16,3 C 22,5 C 24,1 km/h (4 Bft) 100,00 %
07.06.2018 16:12 24,5 C 25,0 C 61 % 1012,3 hPa 0,0 l/m 17,8 km/h (3 Bft) O 101 0 min 0,000 mm 1,9 UV-I 286 W/m 16,5 C 22,3 C 24,1 km/h (4 Bft) 95,83 %
07.06.2018 16:13 24,5 C 25,0 C 60 % 1012,3 hPa 0,0 l/m 21,2 km/h (4 Bft) O-NO 63 0 min 0,000 mm 1,8 UV-I 285 W/m 16,2 C 21,9 C 27,4 km/h (4 Bft) 91,30 %
07.06.2018 16:14 24,4 C 25,0 C 60 % 1012,3 hPa 0,0 l/m 18,2 km/h (3 Bft) O-SO 113 0 min 0,000 mm 1,8 UV-I 283 W/m 16,1 C 22,1 C 25,7 km/h (4 Bft) 95,83 %
07.06.2018 16:15 24,4 C 25,0 C 60 % 1012,4 hPa 0,0 l/m 16,8 km/h (3 Bft) O 98 0 min 0,000 mm 1,8 UV-I 281 W/m 16,1 C 22,3 C 20,9 km/h (4 Bft) 95,65 %
07.06.2018 16:16 24,4 C 25,0 C 60 % 1012,4 hPa 0,0 l/m 15,2 km/h (3 Bft) O 94 0 min 0,000 mm 1,8 UV-I 279 W/m 16,1 C 22,5 C 19,3 km/h (3 Bft) 100,00 %
07.06.2018 16:17 24,4 C 25,0 C 60 % 1012,3 hPa 0,0 l/m 14,9 km/h (3 Bft) O-SO 109 0 min 0,000 mm 1,8 UV-I 280 W/m 16,1 C 22,6 C 19,3 km/h (3 Bft) 91,30 %
07.06.2018 16:18 24,4 C 25,0 C 61 % 1012,4 hPa 0,0 l/m 17,9 km/h (3 Bft) O 97 0 min 0,000 mm 1,8 UV-I 282 W/m 16,4 C 22,2 C 22,5 km/h (4 Bft) 100,00 %
07.06.2018 16:19 24,4 C 25,0 C 60 % 1012,4 hPa 0,0 l/m 17,0 km/h (3 Bft) O-NO 69 0 min 0,000 mm 1,8 UV-I 283 W/m 16,1 C 22,3 C 24,1 km/h (4 Bft) 95,65 %
07.06.2018 16:20 24,4 C 25,0 C 61 % 1012,4 hPa 0,0 l/m 16,5 km/h (3 Bft) O 82 0 min 0,000 mm 1,8 UV-I 285 W/m 16,4 C 22,4 C 22,5 km/h (4 Bft) 100,00 %
07.06.2018 16:21 24,4 C 25,0 C 61 % 1012,4 hPa 0,0 l/m 13,8 km/h (3 Bft) O 89 0 min 0,000 mm 1,8 UV-I 288 W/m 16,4 C 22,8 C 16,1 km/h (3 Bft) 91,67 %
07.06.2018 16:22 24,4 C 25,0 C 61 % 1012,4 hPa 0,0 l/m 14,1 km/h (3 Bft) O 101 0 min 0,000 mm 1,7 UV-I 288 W/m 16,4 C 22,7 C 19,3 km/h (3 Bft) 96,15 %
07.06.2018 16:23 24,4 C 25,0 C 61 % 1012,4 hPa 0,0 l/m 13,1 km/h (3 Bft) O 90 0 min 0,000 mm 1,7 UV-I 292 W/m 16,4 C 22,9 C 20,9 km/h (4 Bft) 95,83 %
07.06.2018 16:24 24,4 C 25,0 C 62 % 1012,5 hPa 0,0 l/m 13,9 km/h (3 Bft) O 101 0 min 0,000 mm 1,7 UV-I 295 W/m 16,6 C 22,8 C 19,3 km/h (3 Bft) 100,00 %
07.06.2018 16:25 24,5 C 25,0 C 61 % 1012,5 hPa 0,0 l/m 8,5 km/h (2 Bft) NO 53 0 min 0,000 mm 1,7 UV-I 298 W/m 16,5 C 24,0 C 12,9 km/h (3 Bft) 96,30 %
07.06.2018 16:26 24,5 C 25,0 C 61 % 1012,5 hPa 0,0 l/m 18,4 km/h (3 Bft) SO 130 0 min 0,000 mm 1,8 UV-I 302 W/m 16,5 C 22,2 C 27,4 km/h (4 Bft) 91,30 %
07.06.2018 16:27 24,5 C 25,0 C 60 % 1012,5 hPa 0,0 l/m 16,0 km/h (3 Bft) O 88 0 min 0,000 mm 1,8 UV-I 309 W/m 16,2 C 22,6 C 19,3 km/h (3 Bft) 91,67 %
07.06.2018 16:28 24,5 C 25,0 C 60 % 1012,5 hPa 0,0 l/m 12,7 km/h (3 Bft) O-SO 105 0 min 0,000 mm 1,8 UV-I 314 W/m 16,2 C 23,1 C 19,3 km/h (3 Bft) 96,15 %
07.06.2018 16:29 24,5 C 25,0 C 61 % 1012,5 hPa 0,0 l/m 14,9 km/h (3 Bft) O-SO 114 0 min 0,000 mm 1,8 UV-I 315 W/m 16,5 C 22,7 C 17,7 km/h (3 Bft) 100,00 %
07.06.2018 16:30 24,5 C 25,0 C 61 % 1012,5 hPa 0,0 l/m 17,7 km/h (3 Bft) O-NO 67 0 min 0,000 mm 1,8 UV-I 316 W/m 16,5 C 22,3 C 24,1 km/h (4 Bft) 95,65 %
07.06.2018 16:31 24,5 C 25,0 C 61 % 1012,5 hPa 0,0 l/m 17,6 km/h (3 Bft) O 89 0 min 0,000 mm 1,8 UV-I 335 W/m 16,5 C 22,3 C 24,1 km/h (4 Bft) 100,00 %
07.06.2018 16:32 24,5 C 25,0 C 61 % 1012,5 hPa 0,0 l/m 19,3 km/h (3 Bft) O-NO 69 0 min 0,000 mm 1,9 UV-I 358 W/m 16,5 C 22,1 C 25,7 km/h (4 Bft) 96,15 %
07.06.2018 16:33 24,5 C 25,0 C 61 % 1012,5 hPa 0,0 l/m 17,2 km/h (3 Bft) O 92 1 min 0,000 mm 1,9 UV-I 365 W/m 16,5 C 22,4 C 22,5 km/h (4 Bft) 100,00 %
07.06.2018 16:34 24,5 C 25,0 C 61 % 1012,5 hPa 0,0 l/m 17,2 km/h (3 Bft) O 90 0 min 0,000 mm 1,9 UV-I 354 W/m 16,5 C 22,4 C 24,1 km/h (4 Bft) 97,14 %
07.06.2018 16:35 24,5 C 25,0 C 60 % 1012,5 hPa 0,0 l/m 13,0 km/h (3 Bft) O-SO 105 1 min 0,000 mm 1,9 UV-I 365 W/m 16,2 C 23,0 C 19,3 km/h (3 Bft) 100,00 %
07.06.2018 16:36 24,5 C 25,0 C 60 % 1012,5 hPa 0,0 l/m 16,6 km/h (3 Bft) O 98 1 min 0,000 mm 1,9 UV-I 387 W/m 16,2 C 22,5 C 22,5 km/h (4 Bft) 95,83 %
07.06.2018 16:37 24,4 C 25,0 C 60 % 1012,6 hPa 0,0 l/m 15,4 km/h (3 Bft) O-SO 122 1 min 0,000 mm 2,0 UV-I 404 W/m 16,1 C 22,5 C 17,7 km/h (3 Bft) 91,30 %
07.06.2018 16:38 24,4 C 25,0 C 60 % 1012,5 hPa 0,0 l/m 16,6 km/h (3 Bft) O 92 1 min 0,000 mm 2,1 UV-I 443 W/m 16,1 C 22,3 C 22,5 km/h (4 Bft) 95,83 %
07.06.2018 16:39 24,5 C 25,0 C 60 % 1012,6 hPa 0,0 l/m 17,8 km/h (3 Bft) O-SO 103 1 min 0,000 mm 2,1 UV-I 472 W/m 16,2 C 22,3 C 24,1 km/h (4 Bft) 92,31 %
07.06.2018 16:40 24,6 C 25,0 C 60 % 1012,6 hPa 0,0 l/m 18,7 km/h (3 Bft) SO 124 1 min 0,000 mm 2,1 UV-I 482 W/m 16,3 C 22,3 C 24,1 km/h (4 Bft) 100,00 %
07.06.2018 16:41 24,6 C 25,0 C 61 % 1012,6 hPa 0,0 l/m 16,4 km/h (3 Bft) O-SO 116 1 min 0,000 mm 2,2 UV-I 492 W/m 16,6 C 22,6 C 20,9 km/h (4 Bft) 95,65 %
07.06.2018 16:42 24,7 C 25,0 C 61 % 1012,6 hPa 0,0 l/m 12,0 km/h (2 Bft) O 79 1 min 0,000 mm 2,1 UV-I 485 W/m 16,7 C 23,4 C 16,1 km/h (3 Bft) 100,00 %
07.06.2018 16:43 24,8 C 25,0 C 61 % 1012,6 hPa 0,0 l/m 14,3 km/h (3 Bft) NO 55 1 min 0,000 mm 2,1 UV-I 472 W/m 16,8 C 23,2 C 19,3 km/h (3 Bft) 100,00 %
07.06.2018 16:44 24,8 C 25,0 C 61 % 1012,5 hPa 0,0 l/m 15,3 km/h (3 Bft) O 101 1 min 0,000 mm 2,2 UV-I 482 W/m 16,8 C 23,0 C 19,3 km/h (3 Bft) 100,00 %
07.06.2018 16:45 24,9 C 25,0 C 60 % 1012,6 hPa 0,0 l/m 16,7 km/h (3 Bft) O 89 1 min 0,000 mm 2,1 UV-I 505 W/m 16,6 C 22,9 C 20,9 km/h (4 Bft) 96,15 %
07.06.2018 16:46 24,9 C 25,0 C 61 % 1012,5 hPa 0,0 l/m 12,6 km/h (3 Bft) O-SO 117 1 min 0,000 mm 2,1 UV-I 483 W/m 16,8 C 23,6 C 17,7 km/h (3 Bft) 100,00 %
07.06.2018 16:47 24,9 C 25,0 C 60 % 1012,5 hPa 0,0 l/m 15,1 km/h (3 Bft) O-SO 105 1 min 0,000 mm 2,1 UV-I 493 W/m 16,6 C 23,2 C 17,7 km/h (3 Bft) 100,00 %
07.06.2018 16:48 25,0 C 25,0 C 60 % 1012,5 hPa 0,0 l/m 13,7 km/h (3 Bft) O-SO 111 1 min 0,000 mm 2,2 UV-I 482 W/m 16,7 C 23,5 C 19,3 km/h (3 Bft) 95,83 %
07.06.2018 16:49 25,0 C 25,0 C 60 % 1012,5 hPa 0,0 l/m 18,7 km/h (3 Bft) O-SO 113 1 min 0,000 mm 2,2 UV-I 522 W/m 16,7 C 22,8 C 25,7 km/h (4 Bft) 100,00 %
07.06.2018 16:50 25,1 C 25,0 C 59 % 1012,5 hPa 0,0 l/m 17,8 km/h (3 Bft) O 86 1 min 0,000 mm 2,4 UV-I 548 W/m 16,5 C 23,1 C 24,1 km/h (4 Bft) 100,00 %
07.06.2018 16:51 25,1 C 25,0 C 58 % 1012,5 hPa 0,0 l/m 17,8 km/h (3 Bft) O-NO 67 1 min 0,000 mm 2,4 UV-I 670 W/m 16,2 C 23,1 C 22,5 km/h (4 Bft) 100,00 %
07.06.2018 16:52 25,1 C 25,0 C 59 % 1012,5 hPa 0,0 l/m 16,3 km/h (3 Bft) O-NO 66 1 min 0,000 mm 2,4 UV-I 656 W/m 16,5 C 23,2 C 22,5 km/h (4 Bft) 100,00 %
07.06.2018 16:53 25,2 C 25,0 C 59 % 1012,5 hPa 0,0 l/m 17,8 km/h (3 Bft) O-NO 67 1 min 0,000 mm 2,4 UV-I 667 W/m 16,6 C 23,2 C 22,5 km/h (4 Bft) 100,00 %
07.06.2018 16:54 25,2 C 25,0 C 57 % 1012,5 hPa 0,0 l/m 21,5 km/h (4 Bft) O-NO 65 1 min 0,000 mm 2,5 UV-I 680 W/m 16,1 C 22,8 C 27,4 km/h (4 Bft) 96,30 %
07.06.2018 16:55 25,2 C 25,0 C 58 % 1012,5 hPa 0,0 l/m 16,8 km/h (3 Bft) O-NO 71 1 min 0,000 mm 2,5 UV-I 684 W/m 16,3 C 23,3 C 20,9 km/h (4 Bft) 100,00 %
07.06.2018 16:56 25,3 C 25,0 C 58 % 1012,5 hPa 0,0 l/m 18,4 km/h (3 Bft) O 92 1 min 0,000 mm 2,4 UV-I 674 W/m 16,4 C 23,2 C 24,1 km/h (4 Bft) 100,00 %
07.06.2018 16:57 25,3 C 25,0 C 57 % 1012,5 hPa 0,0 l/m 18,3 km/h (3 Bft) O 96 1 min 0,000 mm 2,4 UV-I 671 W/m 16,2 C 23,2 C 27,4 km/h (4 Bft) 100,00 %
07.06.2018 16:58 25,3 C 25,0 C 56 % 1012,5 hPa 0,0 l/m 19,8 km/h (3 Bft) O-NO 78 1 min 0,000 mm 2,4 UV-I 661 W/m 15,9 C 23,1 C 24,1 km/h (4 Bft) 95,65 %
07.06.2018 16:59 25,4 C 25,0 C 57 % 1012,5 hPa 0,0 l/m 18,0 km/h (3 Bft) O-SO 114 1 min 0,000 mm 2,4 UV-I 662 W/m 16,2 C 23,4 C 22,5 km/h (4 Bft) 100,00 %
07.06.2018 17:00 25,4 C 25,0 C 57 % 1012,4 hPa 0,0 l/m 20,2 km/h (4 Bft) O 85 1 min 0,000 mm 2,4 UV-I 661 W/m 16,2 C 23,2 C 24,1 km/h (4 Bft) 100,00 %
07.06.2018 17:01 25,4 C 25,0 C 56 % 1012,5 hPa 0,0 l/m 24,0 km/h (4 Bft) O 89 1 min 0,356 mm 2,3 UV-I 651 W/m 16,0 C 22,8 C 30,6 km/h (5 Bft) 100,00 %
07.06.2018 17:02 25,4 C 25,0 C 55 % 1012,4 hPa 0,0 l/m 21,1 km/h (4 Bft) O 100 1 min 0,000 mm 2,3 UV-I 649 W/m 15,7 C 23,1 C 25,7 km/h (4 Bft) 100,00 %
07.06.2018 17:03 25,3 C 25,0 C 56 % 1012,4 hPa 0,0 l/m 17,5 km/h (3 Bft) O-NO 60 1 min 0,000 mm 2,3 UV-I 614 W/m 15,9 C 23,3 C 22,5 km/h (4 Bft) 100,00 %
07.06.2018 17:04 25,3 C 25,0 C 56 % 1012,4 hPa 0,0 l/m 22,7 km/h (4 Bft) O-SO 109 1 min 0,000 mm 2,2 UV-I 593 W/m 15,9 C 22,8 C 30,6 km/h (5 Bft) 100,00 %
07.06.2018 17:05 25,3 C 25,0 C 56 % 1012,4 hPa 0,0 l/m 21,4 km/h (4 Bft) O-NO 71 1 min 0,000 mm 2,2 UV-I 578 W/m 15,9 C 22,9 C 27,4 km/h (4 Bft) 100,00 %
07.06.2018 17:06 25,3 C 25,0 C 56 % 1012,4 hPa 0,0 l/m 18,6 km/h (3 Bft) O 95 1 min 0,000 mm 2,1 UV-I 571 W/m 15,9 C 23,2 C 24,1 km/h (4 Bft) 100,00 %
07.06.2018 17:07 25,3 C 25,0 C 55 % 1012,4 hPa 0,0 l/m 21,9 km/h (4 Bft) O 96 1 min 0,000 mm 2,1 UV-I 577 W/m 15,6 C 22,9 C 27,4 km/h (4 Bft) 100,00 %
07.06.2018 17:08 25,3 C 25,0 C 55 % 1012,4 hPa 0,0 l/m 22,2 km/h (4 Bft) O 94 1 min 0,000 mm 2,1 UV-I 571 W/m 15,6 C 22,8 C 27,4 km/h (4 Bft) 100,00 %
07.06.2018 17:09 25,2 C 25,0 C 56 % 1012,4 hPa 0,0 l/m 22,3 km/h (4 Bft) O-NO 75 1 min 0,000 mm 2,1 UV-I 567 W/m 15,8 C 22,7 C 29,0 km/h (5 Bft) 95,83 %
07.06.2018 17:10 25,2 C 25,0 C 57 % 1012,4 hPa 0,0 l/m 21,7 km/h (4 Bft) O-SO 111 1 min 0,000 mm 2,1 UV-I 537 W/m 16,1 C 22,7 C 29,0 km/h (5 Bft) 91,30 %
07.06.2018 17:11 25,2 C 25,0 C 56 % 1012,3 hPa 0,0 l/m 21,1 km/h (4 Bft) O 90 1 min 0,000 mm 2,0 UV-I 513 W/m 15,8 C 22,8 C 27,4 km/h (4 Bft) 100,00 %
07.06.2018 17:12 25,1 C 25,0 C 58 % 1012,3 hPa 0,0 l/m 14,3 km/h (3 Bft) SO 124 1 min 0,000 mm 1,9 UV-I 527 W/m 16,2 C 23,5 C 20,9 km/h (4 Bft) 95,83 %
07.06.2018 17:13 25,1 C 25,0 C 58 % 1012,3 hPa 0,0 l/m 20,3 km/h (4 Bft) SO 133 1 min 0,000 mm 1,9 UV-I 526 W/m 16,2 C 22,8 C 27,4 km/h (4 Bft) 95,65 %
07.06.2018 17:14 25,1 C 25,0 C 58 % 1012,3 hPa 0,0 l/m 16,3 km/h (3 Bft) O 93 1 min 0,000 mm 1,9 UV-I 504 W/m 16,2 C 23,2 C 22,5 km/h (4 Bft) 100,00 %
07.06.2018 17:15 25,1 C 25,0 C 58 % 1012,4 hPa 0,0 l/m 20,6 km/h (4 Bft) O 84 1 min 0,000 mm 1,8 UV-I 504 W/m 16,2 C 22,7 C 25,7 km/h (4 Bft) 95,65 %
07.06.2018 17:16 25,1 C 25,0 C 59 % 1012,3 hPa 0,0 l/m 15,7 km/h (3 Bft) O-SO 112 1 min 0,000 mm 1,8 UV-I 498 W/m 16,5 C 23,3 C 17,7 km/h (3 Bft) 100,00 %
07.06.2018 17:18 25,1 C 25,0 C 58 % 1012,3 hPa 0,0 l/m 14,2 km/h (3 Bft) O-NO 76 2 min 0,000 mm 1,8 UV-I 490 W/m 16,2 C 23,5 C 22,5 km/h (4 Bft) 94,83 %
07.06.2018 17:19 25,1 C 25,0 C 59 % 1012,3 hPa 0,0 l/m 9,8 km/h (2 Bft) O 82 1 min 0,000 mm 1,7 UV-I 475 W/m 16,5 C 24,3 C 14,5 km/h (3 Bft) 100,00 %
07.06.2018 17:20 25,1 C 25,0 C 59 % 1012,3 hPa 0,0 l/m 15,9 km/h (3 Bft) O 90 1 min 0,000 mm 1,7 UV-I 457 W/m 16,5 C 23,3 C 24,1 km/h (4 Bft) 96,30 %
07.06.2018 17:21 25,2 C 25,0 C 59 % 1012,3 hPa 0,0 l/m 14,4 km/h (3 Bft) O 92 1 min 0,000 mm 1,6 UV-I 439 W/m 16,6 C 23,6 C 17,7 km/h (3 Bft) 95,65 %
07.06.2018 17:22 25,2 C 25,0 C 58 % 1012,3 hPa 0,0 l/m 14,6 km/h (3 Bft) O 97 1 min 0,000 mm 1,6 UV-I 444 W/m 16,3 C 23,6 C 20,9 km/h (4 Bft) 95,83 %
07.06.2018 17:23 25,1 C 25,0 C 58 % 1012,3 hPa 0,0 l/m 16,0 km/h (3 Bft) O-NO 58 1 min 0,000 mm 1,6 UV-I 456 W/m 16,2 C 23,3 C 20,9 km/h (4 Bft) 100,00 %
07.06.2018 17:24 25,1 C 25,0 C 58 % 1012,3 hPa 0,0 l/m 15,2 km/h (3 Bft) O 88 1 min 0,000 mm 1,6 UV-I 462 W/m 16,2 C 23,4 C 20,9 km/h (4 Bft) 95,83 %
07.06.2018 17:25 25,1 C 25,0 C 58 % 1012,2 hPa 0,0 l/m 11,8 km/h (2 Bft) NO 51 1 min 0,000 mm 1,6 UV-I 447 W/m 16,2 C 23,9 C 20,9 km/h (4 Bft) 100,00 %
07.06.2018 17:26 25,1 C 25,0 C 59 % 1012,3 hPa 0,0 l/m 17,7 km/h (3 Bft) O-NO 73 1 min 0,000 mm 1,6 UV-I 462 W/m 16,5 C 23,1 C 22,5 km/h (4 Bft) 95,83 %
07.06.2018 17:27 25,1 C 25,0 C 58 % 1012,3 hPa 0,0 l/m 16,4 km/h (3 Bft) O-SO 109 1 min 0,000 mm 1,6 UV-I 471 W/m 16,2 C 23,2 C 20,9 km/h (4 Bft) 100,00 %
07.06.2018 17:28 25,0 C 25,0 C 59 % 1012,2 hPa 0,0 l/m 18,5 km/h (3 Bft) O 88 1 min 0,000 mm 1,6 UV-I 479 W/m 16,4 C 22,8 C 22,5 km/h (4 Bft) 95,83 %
07.06.2018 17:29 25,0 C 25,0 C 60 % 1012,3 hPa 0,0 l/m 12,4 km/h (3 Bft) O 94 1 min 0,000 mm 1,6 UV-I 475 W/m 16,7 C 23,7 C 17,7 km/h (3 Bft) 95,65 %
07.06.2018 17:30 25,1 C 25,0 C 60 % 1012,2 hPa 0,0 l/m 13,5 km/h (3 Bft) O 83 1 min 0,000 mm 1,6 UV-I 475 W/m 16,8 C 23,7 C 19,3 km/h (3 Bft) 100,00 %
07.06.2018 17:31 25,2 C 25,0 C 60 % 1012,2 hPa 0,0 l/m 12,3 km/h (3 Bft) O 86 1 min 0,000 mm 1,6 UV-I 478 W/m 16,9 C 24,0 C 14,5 km/h (3 Bft) 96,15 %
07.06.2018 17:32 25,2 C 25,0 C 60 % 1012,2 hPa 0,0 l/m 18,0 km/h (3 Bft) O-SO 116 1 min 0,000 mm 1,5 UV-I 480 W/m 16,9 C 23,2 C 24,1 km/h (4 Bft) 95,83 %
07.06.2018 17:33 25,2 C 25,0 C 59 % 1012,2 hPa 0,0 l/m 18,6 km/h (3 Bft) O 84 1 min 0,000 mm 1,5 UV-I 481 W/m 16,6 C 23,1 C 25,7 km/h (4 Bft) 91,30 %
07.06.2018 17:34 25,2 C 25,0 C 59 % 1012,2 hPa 0,0 l/m 14,3 km/h (3 Bft) O-SO 113 1 min 0,000 mm 1,5 UV-I 478 W/m 16,6 C 23,7 C 19,3 km/h (3 Bft) 100,00 %
07.06.2018 17:35 25,2 C 25,0 C 60 % 1012,2 hPa 0,0 l/m 12,9 km/h (3 Bft) O-NO 74 1 min 0,000 mm 1,5 UV-I 468 W/m 16,9 C 23,9 C 16,1 km/h (3 Bft) 95,65 %
07.06.2018 17:36 25,2 C 25,0 C 60 % 1012,2 hPa 0,0 l/m 19,1 km/h (3 Bft) O 80 1 min 0,000 mm 1,4 UV-I 451 W/m 16,9 C 23,0 C 24,1 km/h (4 Bft) 91,67 %
07.06.2018 17:37 25,1 C 25,0 C 60 % 1012,2 hPa 0,0 l/m 16,4 km/h (3 Bft) O-NO 72 1 min 0,000 mm 1,4 UV-I 420 W/m 16,8 C 23,2 C 22,5 km/h (4 Bft) 100,00 %
07.06.2018 17:38 25,1 C 25,0 C 61 % 1012,2 hPa 0,0 l/m 20,1 km/h (4 Bft) O 93 1 min 0,000 mm 1,4 UV-I 413 W/m 17,0 C 22,8 C 24,1 km/h (4 Bft) 94,12 %
07.06.2018 17:39 25,1 C 25,0 C 59 % 1012,2 hPa 0,0 l/m 22,3 km/h (4 Bft) O 84 1 min 0,000 mm 1,4 UV-I 405 W/m 16,5 C 22,6 C 25,7 km/h (4 Bft) 100,00 %
07.06.2018 17:40 24,9 C 25,0 C 60 % 1012,2 hPa 0,0 l/m 13,5 km/h (3 Bft) O-NO 76 1 min 0,000 mm 1,3 UV-I 390 W/m 16,6 C 23,4 C 19,3 km/h (3 Bft) 91,30 %
07.06.2018 17:41 24,9 C 25,0 C 60 % 1012,2 hPa 0,0 l/m 19,5 km/h (3 Bft) O-SO 107 1 min 0,000 mm 1,3 UV-I 375 W/m 16,6 C 22,6 C 25,7 km/h (4 Bft) 100,00 %
07.06.2018 17:43 24,8 C 25,0 C 60 % 1012,2 hPa 0,0 l/m 20,5 km/h (4 Bft) SO 128 2 min 0,000 mm 1,3 UV-I 388 W/m 16,5 C 22,3 C 27,4 km/h (4 Bft) 100,00 %
07.06.2018 17:44 24,8 C 25,0 C 61 % 1012,2 hPa 0,0 l/m 19,2 km/h (3 Bft) O 94 1 min 0,000 mm 1,3 UV-I 411 W/m 16,8 C 22,5 C 25,7 km/h (4 Bft) 100,00 %
07.06.2018 17:45 24,7 C 25,0 C 60 % 1012,2 hPa 0,0 l/m 14,7 km/h (3 Bft) O 90 1 min 0,000 mm 1,3 UV-I 422 W/m 16,4 C 23,0 C 19,3 km/h (3 Bft) 100,00 %
07.06.2018 17:46 24,7 C 25,0 C 61 % 1012,2 hPa 0,0 l/m 19,1 km/h (3 Bft) O-SO 105 1 min 0,000 mm 1,3 UV-I 422 W/m 16,7 C 22,4 C 24,1 km/h (4 Bft) 100,00 %
07.06.2018 17:47 24,7 C 25,0 C 62 % 1012,1 hPa 0,0 l/m 16,9 km/h (3 Bft) O 97 1 min 0,000 mm 1,3 UV-I 428 W/m 16,9 C 22,7 C 20,9 km/h (4 Bft) 93,33 %
07.06.2018 17:48 24,7 C 25,0 C 62 % 1012,1 hPa 0,0 l/m 19,6 km/h (3 Bft) O-NO 65 1 min 0,000 mm 1,3 UV-I 436 W/m 16,9 C 22,3 C 25,7 km/h (4 Bft) 100,00 %
07.06.2018 17:49 24,7 C 25,0 C 61 % 1012,1 hPa 0,0 l/m 14,8 km/h (3 Bft) O-NO 60 1 min 0,000 mm 1,3 UV-I 434 W/m 16,7 C 23,0 C 24,1 km/h (4 Bft) 100,00 %
07.06.2018 17:50 24,7 C 25,0 C 62 % 1012,1 hPa 0,0 l/m 21,7 km/h (4 Bft) O 95 1 min 0,000 mm 1,3 UV-I 428 W/m 16,9 C 22,1 C 29,0 km/h (5 Bft) 100,00 %
07.06.2018 17:51 24,7 C 25,0 C 62 % 1012,1 hPa 0,0 l/m 23,3 km/h (4 Bft) O 86 1 min 0,000 mm 1,3 UV-I 415 W/m 16,9 C 21,9 C 27,4 km/h (4 Bft) 95,65 %
07.06.2018 17:53 24,7 C 25,0 C 62 % 1012,1 hPa 0,0 l/m 22,6 km/h (4 Bft) O 91 2 min 0,000 mm 1,2 UV-I 416 W/m 16,9 C 22,0 C 29,0 km/h (5 Bft) 100,00 %
07.06.2018 17:54 24,6 C 25,0 C 62 % 1012,1 hPa 0,0 l/m 20,9 km/h (4 Bft) O 80 1 min 0,000 mm 1,2 UV-I 408 W/m 16,8 C 22,0 C 25,7 km/h (4 Bft) 100,00 %
07.06.2018 17:55 24,6 C 25,0 C 62 % 1012,1 hPa 0,0 l/m 18,5 km/h (3 Bft) O 91 1 min 0,000 mm 1,2 UV-I 417 W/m 16,8 C 22,3 C 22,5 km/h (4 Bft) 100,00 %
07.06.2018 17:56 24,5 C 25,0 C 63 % 1012,0 hPa 0,0 l/m 20,7 km/h (4 Bft) O-NO 68 1 min 0,000 mm 1,2 UV-I 422 W/m 17,0 C 21,9 C 24,1 km/h (4 Bft) 100,00 %
07.06.2018 17:57 24,4 C 25,0 C 63 % 1012,1 hPa 0,0 l/m 20,4 km/h (4 Bft) O-NO 68 1 min 0,000 mm 1,2 UV-I 420 W/m 16,9 C 21,8 C 24,1 km/h (4 Bft) 100,00 %
07.06.2018 17:58 24,4 C 25,0 C 64 % 1012,0 hPa 0,0 l/m 18,4 km/h (3 Bft) O 81 1 min 0,000 mm 1,2 UV-I 400 W/m 17,1 C 22,1 C 25,7 km/h (4 Bft) 100,00 %
07.06.2018 17:59 24,5 C 25,0 C 64 % 1012,0 hPa 0,0 l/m 17,4 km/h (3 Bft) O-SO 109 1 min 0,000 mm 1,1 UV-I 377 W/m 17,2 C 22,4 C 20,9 km/h (4 Bft) 100,00 %
07.06.2018 18:00 24,5 C 25,0 C 63 % 1012,0 hPa 0,0 l/m 20,0 km/h (4 Bft) O 101 1 min 0,000 mm 1,1 UV-I 364 W/m 17,0 C 22,0 C 25,7 km/h (4 Bft) 100,00 %
07.06.2018 18:01 24,4 C 25,0 C 63 % 1012,0 hPa 0,0 l/m 22,6 km/h (4 Bft) O 101 1 min 0,406 mm 1,1 UV-I 345 W/m 16,9 C 21,6 C 30,6 km/h (5 Bft) 95,65 %
07.06.2018 18:03 24,4 C 25,0 C 63 % 1012,0 hPa 0,0 l/m 21,9 km/h (4 Bft) O-NO 70 2 min 0,000 mm 1,1 UV-I 341 W/m 16,9 C 21,7 C 27,4 km/h (4 Bft) 100,00 %
07.06.2018 18:04 24,3 C 25,0 C 64 % 1012,0 hPa 0,0 l/m 21,2 km/h (4 Bft) O 83 1 min 0,000 mm 1,0 UV-I 330 W/m 17,0 C 21,6 C 27,4 km/h (4 Bft) 100,00 %
07.06.2018 18:05 24,3 C 25,0 C 64 % 1012,0 hPa 0,0 l/m 23,0 km/h (4 Bft) O 91 1 min 0,000 mm 1,0 UV-I 322 W/m 17,0 C 21,4 C 29,0 km/h (5 Bft) 95,65 %
07.06.2018 18:06 24,2 C 25,0 C 65 % 1012,0 hPa 0,0 l/m 20,3 km/h (4 Bft) O 92 1 min 0,000 mm 1,0 UV-I 313 W/m 17,2 C 21,6 C 25,7 km/h (4 Bft) 100,00 %
07.06.2018 18:08 24,2 C 25,0 C 65 % 1012,0 hPa 0,0 l/m 18,9 km/h (3 Bft) O 94 2 min 0,000 mm 1,0 UV-I 330 W/m 17,2 C 21,8 C 32,2 km/h (5 Bft) 100,00 %
07.06.2018 18:09 24,2 C 25,0 C 65 % 1012,0 hPa 0,0 l/m 18,1 km/h (3 Bft) O 86 1 min 0,000 mm 1,0 UV-I 331 W/m 17,2 C 21,9 C 25,7 km/h (4 Bft) 100,00 %
07.06.2018 18:10 24,2 C 25,0 C 65 % 1012,0 hPa 0,0 l/m 20,4 km/h (4 Bft) O 89 1 min 0,000 mm 1,0 UV-I 331 W/m 17,2 C 21,6 C 27,4 km/h (4 Bft) 100,00 %
07.06.2018 18:11 24,2 C 25,0 C 64 % 1012,0 hPa 0,0 l/m 23,7 km/h (4 Bft) O-SO 104 1 min 0,000 mm 1,0 UV-I 328 W/m 16,9 C 21,2 C 30,6 km/h (5 Bft) 95,65 %
07.06.2018 18:12 24,2 C 25,0 C 64 % 1012,0 hPa 0,0 l/m 22,1 km/h (4 Bft) O-SO 105 1 min 0,000 mm 1,0 UV-I 324 W/m 16,9 C 21,4 C 29,0 km/h (5 Bft) 100,00 %
07.06.2018 18:13 24,1 C 25,0 C 65 % 1011,9 hPa 0,0 l/m 18,7 km/h (3 Bft) O 91 1 min 0,000 mm 1,0 UV-I 331 W/m 17,1 C 21,7 C 25,7 km/h (4 Bft) 100,00 %
07.06.2018 18:14 24,1 C 25,0 C 65 % 1011,9 hPa 0,0 l/m 21,0 km/h (4 Bft) O 93 1 min 0,000 mm 0,9 UV-I 331 W/m 17,1 C 21,4 C 27,4 km/h (4 Bft) 100,00 %
07.06.2018 18:15 24,0 C 25,0 C 65 % 1011,9 hPa 0,0 l/m 23,3 km/h (4 Bft) O-NO 74 1 min 0,000 mm 0,9 UV-I 320 W/m 17,0 C 21,0 C 27,4 km/h (4 Bft) 100,00 %
07.06.2018 18:16 24,0 C 25,0 C 65 % 1012,0 hPa 0,0 l/m 20,7 km/h (4 Bft) O-NO 71 1 min 0,000 mm 0,9 UV-I 302 W/m 17,0 C 21,3 C 30,6 km/h (5 Bft) 100,00 %
07.06.2018 18:17 23,9 C 25,0 C 65 % 1011,9 hPa 0,0 l/m 21,3 km/h (4 Bft) O-NO 71 1 min 0,000 mm 0,9 UV-I 293 W/m 16,9 C 21,1 C 29,0 km/h (5 Bft) 100,00 %
07.06.2018 18:18 23,9 C 25,0 C 66 % 1012,0 hPa 0,0 l/m 18,6 km/h (3 Bft) O-NO 77 1 min 0,000 mm 0,9 UV-I 286 W/m 17,1 C 21,4 C 25,7 km/h (4 Bft) 100,00 %
07.06.2018 18:19 23,9 C 25,0 C 66 % 1011,9 hPa 0,0 l/m 19,0 km/h (3 Bft) N-NO 30 1 min 0,000 mm 0,9 UV-I 275 W/m 17,1 C 21,4 C 24,1 km/h (4 Bft) 100,00 %
07.06.2018 18:20 23,9 C 25,0 C 66 % 1011,9 hPa 0,0 l/m 15,8 km/h (3 Bft) O-NO 62 1 min 0,000 mm 0,8 UV-I 268 W/m 17,1 C 21,8 C 22,5 km/h (4 Bft) 100,00 %
07.06.2018 18:21 23,9 C 25,0 C 66 % 1012,0 hPa 0,0 l/m 18,0 km/h (3 Bft) O-NO 67 1 min 0,000 mm 0,8 UV-I 259 W/m 17,1 C 21,5 C 22,5 km/h (4 Bft) 100,00 %
07.06.2018 18:22 23,9 C 25,0 C 67 % 1011,9 hPa 0,0 l/m 19,9 km/h (4 Bft) O 90 1 min 0,000 mm 0,8 UV-I 254 W/m 17,4 C 21,3 C 25,7 km/h (4 Bft) 100,00 %
07.06.2018 18:23 23,8 C 25,0 C 67 % 1011,9 hPa 0,0 l/m 18,4 km/h (3 Bft) O 84 1 min 0,000 mm 0,8 UV-I 253 W/m 17,3 C 21,3 C 24,1 km/h (4 Bft) 100,00 %
07.06.2018 18:24 23,8 C 25,0 C 67 % 1012,0 hPa 0,0 l/m 15,7 km/h (3 Bft) O-NO 74 1 min 0,000 mm 0,8 UV-I 250 W/m 17,3 C 21,7 C 20,9 km/h (4 Bft) 96,15 %
07.06.2018 18:25 23,8 C 25,0 C 67 % 1012,0 hPa 0,0 l/m 23,6 km/h (4 Bft) O 90 1 min 0,000 mm 0,8 UV-I 249 W/m 17,3 C 20,7 C 30,6 km/h (5 Bft) 100,00 %
07.06.2018 18:26 23,8 C 25,0 C 67 % 1012,0 hPa 0,0 l/m 21,3 km/h (4 Bft) O 98 1 min 0,000 mm 0,8 UV-I 248 W/m 17,3 C 21,0 C 25,7 km/h (4 Bft) 100,00 %
07.06.2018 18:27 23,8 C 25,0 C 66 % 1012,0 hPa 0,0 l/m 23,9 km/h (4 Bft) O 92 1 min 0,000 mm 0,8 UV-I 254 W/m 17,1 C 20,7 C 30,6 km/h (5 Bft) 96,15 %
07.06.2018 18:28 23,7 C 25,0 C 66 % 1012,0 hPa 0,0 l/m 20,1 km/h (4 Bft) O-NO 68 1 min 0,000 mm 0,8 UV-I 257 W/m 17,0 C 21,0 C 27,4 km/h (4 Bft) 100,00 %
07.06.2018 18:29 23,7 C 25,0 C 67 % 1012,0 hPa 0,0 l/m 21,8 km/h (4 Bft) O-NO 65 1 min 0,000 mm 0,7 UV-I 263 W/m 17,2 C 20,8 C 30,6 km/h (5 Bft) 95,65 %
07.06.2018 18:30 23,7 C 25,0 C 67 % 1012,1 hPa 0,0 l/m 19,5 km/h (3 Bft) O-NO 68 1 min 0,000 mm 0,7 UV-I 272 W/m 17,2 C 21,1 C 25,7 km/h (4 Bft) 100,00 %
07.06.2018 18:31 23,7 C 25,0 C 67 % 1012,0 hPa 0,0 l/m 19,7 km/h (3 Bft) O-NO 59 1 min 0,000 mm 0,7 UV-I 283 W/m 17,2 C 21,0 C 24,1 km/h (4 Bft) 100,00 %
07.06.2018 18:32 23,7 C 25,0 C 67 % 1012,1 hPa 0,0 l/m 21,6 km/h (4 Bft) O-NO 71 1 min 0,000 mm 0,7 UV-I 290 W/m 17,2 C 20,8 C 25,7 km/h (4 Bft) 100,00 %
07.06.2018 18:33 23,7 C 25,0 C 68 % 1012,1 hPa 0,0 l/m 16,0 km/h (3 Bft) O 90 1 min 0,000 mm 0,7 UV-I 299 W/m 17,4 C 21,6 C 20,9 km/h (4 Bft) 100,00 %
07.06.2018 18:34 23,7 C 25,0 C 68 % 1012,1 hPa 0,0 l/m 23,9 km/h (4 Bft) O 84 1 min 0,000 mm 0,7 UV-I 310 W/m 17,4 C 20,5 C 29,0 km/h (5 Bft) 100,00 %
07.06.2018 18:35 23,7 C 25,0 C 67 % 1012,2 hPa 0,0 l/m 20,0 km/h (4 Bft) O 79 1 min 0,000 mm 0,7 UV-I 317 W/m 17,2 C 21,0 C 25,7 km/h (4 Bft) 100,00 %
07.06.2018 18:36 23,7 C 25,0 C 67 % 1012,1 hPa 0,0 l/m 22,1 km/h (4 Bft) O 87 1 min 0,000 mm 0,7 UV-I 318 W/m 17,2 C 20,7 C 27,4 km/h (4 Bft) 95,83 %
07.06.2018 18:37 23,7 C 25,0 C 67 % 1012,2 hPa 0,0 l/m 23,8 km/h (4 Bft) O-NO 75 1 min 0,000 mm 0,7 UV-I 310 W/m 17,2 C 20,5 C 29,0 km/h (5 Bft) 100,00 %
07.06.2018 18:38 23,7 C 25,0 C 67 % 1012,2 hPa 0,0 l/m 18,5 km/h (3 Bft) O 82 1 min 0,000 mm 0,7 UV-I 310 W/m 17,2 C 21,2 C 24,1 km/h (4 Bft) 100,00 %
07.06.2018 18:39 23,7 C 25,0 C 67 % 1012,3 hPa 0,0 l/m 18,3 km/h (3 Bft) O 90 1 min 0,000 mm 0,7 UV-I 317 W/m 17,2 C 21,2 C 24,1 km/h (4 Bft) 95,65 %
07.06.2018 18:40 23,7 C 25,0 C 67 % 1012,3 hPa 0,0 l/m 22,5 km/h (4 Bft) O 100 1 min 0,000 mm 0,7 UV-I 325 W/m 17,2 C 20,7 C 30,6 km/h (5 Bft) 100,00 %
07.06.2018 18:41 23,7 C 25,0 C 67 % 1012,3 hPa 0,0 l/m 21,9 km/h (4 Bft) O-SO 123 1 min 0,000 mm 0,7 UV-I 329 W/m 17,2 C 20,7 C 27,4 km/h (4 Bft) 100,00 %
07.06.2018 18:42 23,7 C 25,0 C 67 % 1012,2 hPa 0,0 l/m 19,5 km/h (3 Bft) O 97 1 min 0,000 mm 0,7 UV-I 330 W/m 17,2 C 21,1 C 24,1 km/h (4 Bft) 100,00 %
07.06.2018 18:43 23,7 C 25,0 C 67 % 1012,3 hPa 0,0 l/m 16,2 km/h (3 Bft) O-SO 107 1 min 0,000 mm 0,7 UV-I 331 W/m 17,2 C 21,5 C 22,5 km/h (4 Bft) 100,00 %
07.06.2018 18:44 23,8 C 25,0 C 67 % 1012,3 hPa 0,0 l/m 11,9 km/h (2 Bft) O-NO 66 1 min 0,000 mm 0,6 UV-I 324 W/m 17,3 C 22,4 C 17,7 km/h (3 Bft) 100,00 %
07.06.2018 18:45 23,8 C 25,0 C 67 % 1012,4 hPa 0,0 l/m 18,2 km/h (3 Bft) O 85 1 min 0,000 mm 0,6 UV-I 319 W/m 17,3 C 21,4 C 24,1 km/h (4 Bft) 95,65 %
07.06.2018 18:46 23,8 C 25,0 C 67 % 1012,3 hPa 0,0 l/m 22,0 km/h (4 Bft) O-NO 67 1 min 0,000 mm 0,6 UV-I 316 W/m 17,3 C 20,9 C 30,6 km/h (5 Bft) 100,00 %
07.06.2018 18:47 23,8 C 25,0 C 67 % 1012,3 hPa 0,0 l/m 20,5 km/h (4 Bft) O 80 1 min 0,000 mm 0,6 UV-I 291 W/m 17,3 C 21,1 C 27,4 km/h (4 Bft) 100,00 %
07.06.2018 18:48 23,7 C 25,0 C 67 % 1012,3 hPa 0,0 l/m 16,8 km/h (3 Bft) O 80 1 min 0,000 mm 0,6 UV-I 265 W/m 17,2 C 21,4 C 24,1 km/h (4 Bft) 100,00 %
07.06.2018 18:49 23,7 C 25,0 C 67 % 1012,3 hPa 0,0 l/m 18,8 km/h (3 Bft) O 90 1 min 0,000 mm 0,6 UV-I 255 W/m 17,2 C 21,1 C 25,7 km/h (4 Bft) 100,00 %
07.06.2018 18:50 23,6 C 25,0 C 67 % 1012,4 hPa 0,0 l/m 25,8 km/h (4 Bft) O 84 1 min 0,000 mm 0,6 UV-I 245 W/m 17,1 C 20,2 C 32,2 km/h (5 Bft) 100,00 %
07.06.2018 18:51 23,6 C 25,0 C 67 % 1012,3 hPa 0,0 l/m 19,8 km/h (3 Bft) O 98 1 min 0,000 mm 0,6 UV-I 232 W/m 17,1 C 20,9 C 25,7 km/h (4 Bft) 95,83 %
07.06.2018 18:53 23,4 C 25,0 C 68 % 1012,4 hPa 0,0 l/m 19,0 km/h (3 Bft) O 87 2 min 0,000 mm 0,5 UV-I 212 W/m 17,1 C 20,7 C 30,6 km/h (5 Bft) 100,00 %
07.06.2018 18:54 23,4 C 25,0 C 68 % 1012,3 hPa 0,0 l/m 18,7 km/h (3 Bft) O-NO 76 1 min 0,000 mm 0,5 UV-I 190 W/m 17,1 C 20,8 C 22,5 km/h (4 Bft) 100,00 %
07.06.2018 18:55 23,3 C 25,0 C 68 % 1012,4 hPa 0,0 l/m 22,1 km/h (4 Bft) O-NO 66 1 min 0,000 mm 0,5 UV-I 183 W/m 17,1 C 20,2 C 27,4 km/h (4 Bft) 100,00 %
07.06.2018 18:56 23,3 C 25,0 C 67 % 1012,3 hPa 0,0 l/m 23,1 km/h (4 Bft) O 86 1 min 0,000 mm 0,5 UV-I 176 W/m 16,8 C 20,1 C 29,0 km/h (5 Bft) 100,00 %
07.06.2018 18:58 23,2 C 25,0 C 68 % 1012,3 hPa 0,0 l/m 18,7 km/h (3 Bft) O 86 2 min 0,000 mm 0,5 UV-I 169 W/m 17,0 C 20,5 C 29,0 km/h (5 Bft) 95,74 %
07.06.2018 18:59 23,1 C 25,0 C 68 % 1012,3 hPa 0,0 l/m 20,2 km/h (4 Bft) O-NO 64 1 min 0,000 mm 0,5 UV-I 162 W/m 16,9 C 20,2 C 27,4 km/h (4 Bft) 100,00 %
07.06.2018 19:00 23,1 C 25,0 C 69 % 1012,3 hPa 0,0 l/m 21,2 km/h (4 Bft) O-NO 72 0 min 0,000 mm 0,0 UV-I 159 W/m 17,1 C 20,0 C 24,1 km/h (4 Bft) 100,00 %
07.06.2018 19:02 22,9 C 25,0 C 70 % 1012,2 hPa 0,0 l/m 18,4 km/h (3 Bft) O 87 0 min 0,280 mm 0,0 UV-I 153 W/m 17,1 C 20,2 C 25,7 km/h (4 Bft) 100,00 %
07.06.2018 19:03 22,9 C 25,0 C 70 % 1012,3 hPa 0,0 l/m 14,4 km/h (3 Bft) NO 42 0 min 0,000 mm 0,0 UV-I 150 W/m 17,1 C 20,9 C 22,5 km/h (4 Bft) 95,83 %
07.06.2018 19:04 22,9 C 25,0 C 70 % 1012,2 hPa 0,0 l/m 17,1 km/h (3 Bft) O-NO 57 0 min 0,000 mm 0,0 UV-I 148 W/m 17,1 C 20,4 C 22,5 km/h (4 Bft) 100,00 %
07.06.2018 19:05 22,9 C 25,0 C 70 % 1012,2 hPa 0,0 l/m 15,7 km/h (3 Bft) O-NO 65 0 min 0,000 mm 0,0 UV-I 146 W/m 17,1 C 20,6 C 22,5 km/h (4 Bft) 100,00 %
07.06.2018 19:06 22,9 C 25,0 C 71 % 1012,2 hPa 0,0 l/m 16,4 km/h (3 Bft) O-NO 61 0 min 0,000 mm 0,0 UV-I 142 W/m 17,4 C 20,5 C 22,5 km/h (4 Bft) 95,83 %
07.06.2018 19:08 22,9 C 25,0 C 70 % 1012,2 hPa 0,0 l/m 17,3 km/h (3 Bft) O 94 0 min 0,000 mm 0,0 UV-I 137 W/m 17,1 C 20,4 C 22,5 km/h (4 Bft) 96,55 %
07.06.2018 19:09 22,8 C 25,0 C 70 % 1012,2 hPa 0,0 l/m 15,2 km/h (3 Bft) O-SO 104 0 min 0,000 mm 0,0 UV-I 134 W/m 17,0 C 20,6 C 20,9 km/h (4 Bft) 91,67 %
07.06.2018 19:10 22,8 C 25,0 C 71 % 1012,2 hPa 0,0 l/m 14,3 km/h (3 Bft) O 83 0 min 0,000 mm 0,0 UV-I 132 W/m 17,3 C 20,8 C 19,3 km/h (3 Bft) 95,83 %
07.06.2018 19:11 22,8 C 25,0 C 71 % 1012,2 hPa 0,0 l/m 18,4 km/h (3 Bft) O-NO 74 0 min 0,000 mm 0,0 UV-I 128 W/m 17,3 C 20,1 C 20,9 km/h (4 Bft) 100,00 %
07.06.2018 19:12 22,8 C 25,0 C 71 % 1012,1 hPa 0,0 l/m 17,0 km/h (3 Bft) O 101 0 min 0,000 mm 0,0 UV-I 127 W/m 17,3 C 20,3 C 24,1 km/h (4 Bft) 95,83 %
07.06.2018 19:13 22,7 C 25,0 C 71 % 1012,1 hPa 0,0 l/m 15,8 km/h (3 Bft) O-NO 68 0 min 0,000 mm 0,0 UV-I 124 W/m 17,2 C 20,4 C 20,9 km/h (4 Bft) 96,15 %
07.06.2018 19:14 22,7 C 25,0 C 72 % 1012,1 hPa 0,0 l/m 14,5 km/h (3 Bft) O 85 0 min 0,000 mm 0,0 UV-I 123 W/m 17,4 C 20,6 C 19,3 km/h (3 Bft) 100,00 %
07.06.2018 19:15 22,7 C 25,0 C 71 % 1012,0 hPa 0,0 l/m 14,5 km/h (3 Bft) O 88 0 min 0,000 mm 0,0 UV-I 122 W/m 17,2 C 20,6 C 19,3 km/h (3 Bft) 95,65 %
07.06.2018 19:16 22,7 C 25,0 C 71 % 1012,0 hPa 0,0 l/m 16,1 km/h (3 Bft) O 101 0 min 0,000 mm 0,0 UV-I 120 W/m 17,2 C 20,3 C 22,5 km/h (4 Bft) 95,83 %
07.06.2018 19:17 22,6 C 25,0 C 71 % 1012,0 hPa 0,0 l/m 15,0 km/h (3 Bft) O-SO 109 0 min 0,000 mm 0,0 UV-I 118 W/m 17,1 C 20,4 C 20,9 km/h (4 Bft) 96,15 %
07.06.2018 19:18 22,6 C 25,0 C 71 % 1012,1 hPa 0,0 l/m 16,0 km/h (3 Bft) O-SO 107 0 min 0,000 mm 0,0 UV-I 116 W/m 17,1 C 20,2 C 22,5 km/h (4 Bft) 95,83 %
07.06.2018 19:19 22,6 C 25,0 C 71 % 1012,0 hPa 0,0 l/m 10,9 km/h (2 Bft) O 88 0 min 0,000 mm 0,0 UV-I 115 W/m 17,1 C 21,3 C 16,1 km/h (3 Bft) 85,71 %
07.06.2018 19:20 22,6 C 25,0 C 72 % 1012,0 hPa 0,0 l/m 14,5 km/h (3 Bft) O-NO 65 0 min 0,000 mm 0,0 UV-I 113 W/m 17,3 C 20,5 C 19,3 km/h (3 Bft) 100,00 %
07.06.2018 19:21 22,6 C 25,0 C 72 % 1012,0 hPa 0,0 l/m 14,2 km/h (3 Bft) O 96 0 min 0,000 mm 0,0 UV-I 113 W/m 17,3 C 20,6 C 20,9 km/h (4 Bft) 96,15 %
07.06.2018 19:23 22,6 C 25,0 C 72 % 1012,0 hPa 0,0 l/m 14,5 km/h (3 Bft) O 83 0 min 0,000 mm 0,0 UV-I 110 W/m 17,3 C 20,5 C 17,7 km/h (3 Bft) 98,00 %
07.06.2018 19:24 22,6 C 25,0 C 72 % 1012,0 hPa 0,0 l/m 14,9 km/h (3 Bft) O 91 0 min 0,000 mm 0,0 UV-I 108 W/m 17,3 C 20,4 C 19,3 km/h (3 Bft) 95,83 %
07.06.2018 19:25 22,6 C 25,0 C 72 % 1012,0 hPa 0,0 l/m 12,2 km/h (2 Bft) O-SO 109 0 min 0,000 mm 0,0 UV-I 106 W/m 17,3 C 21,0 C 17,7 km/h (3 Bft) 95,65 %
07.06.2018 19:26 22,5 C 25,0 C 72 % 1012,0 hPa 0,0 l/m 14,3 km/h (3 Bft) O-SO 103 0 min 0,000 mm 0,0 UV-I 105 W/m 17,2 C 20,4 C 22,5 km/h (4 Bft) 95,83 %
07.06.2018 19:28 22,4 C 25,0 C 72 % 1012,1 hPa 0,0 l/m 16,7 km/h (3 Bft) O 81 0 min 0,000 mm 0,0 UV-I 103 W/m 17,1 C 19,8 C 27,4 km/h (4 Bft) 96,00 %
07.06.2018 19:29 22,4 C 25,0 C 72 % 1012,1 hPa 0,0 l/m 17,1 km/h (3 Bft) O 96 0 min 0,000 mm 0,0 UV-I 102 W/m 17,1 C 19,8 C 20,9 km/h (4 Bft) 95,65 %
07.06.2018 19:30 22,4 C 25,0 C 72 % 1012,1 hPa 0,0 l/m 17,6 km/h (3 Bft) O 86 0 min 0,000 mm 0,0 UV-I 100 W/m 17,1 C 19,7 C 22,5 km/h (4 Bft) 100,00 %
07.06.2018 19:31 22,3 C 25,0 C 72 % 1012,1 hPa 0,0 l/m 15,6 km/h (3 Bft) O 90 0 min 0,000 mm 0,0 UV-I 99 W/m 17,0 C 19,9 C 19,3 km/h (3 Bft) 95,83 %
07.06.2018 19:33 22,3 C 25,0 C 72 % 1012,0 hPa 0,0 l/m 14,1 km/h (3 Bft) O 89 0 min 0,000 mm 0,0 UV-I 98 W/m 17,0 C 20,2 C 22,5 km/h (4 Bft) 95,74 %
07.06.2018 19:34 22,3 C 25,0 C 72 % 1012,0 hPa 0,0 l/m 9,7 km/h (2 Bft) O-SO 109 0 min 0,000 mm 0,0 UV-I 95 W/m 17,0 C 21,3 C 12,9 km/h (3 Bft) 100,00 %
07.06.2018 19:35 22,3 C 25,0 C 72 % 1012,1 hPa 0,0 l/m 11,7 km/h (2 Bft) O 101 0 min 0,000 mm 0,0 UV-I 95 W/m 17,0 C 20,7 C 14,5 km/h (3 Bft) 95,83 %
07.06.2018 19:36 22,3 C 25,0 C 72 % 1012,0 hPa 0,0 l/m 11,7 km/h (2 Bft) O 98 0 min 0,000 mm 0,0 UV-I 93 W/m 17,0 C 20,7 C 17,7 km/h (3 Bft) 100,00 %
07.06.2018 19:37 22,2 C 25,0 C 72 % 1012,0 hPa 0,0 l/m 13,2 km/h (3 Bft) O-SO 103 0 min 0,000 mm 0,0 UV-I 92 W/m 16,9 C 20,3 C 17,7 km/h (3 Bft) 92,59 %
07.06.2018 19:38 22,2 C 25,0 C 72 % 1011,9 hPa 0,0 l/m 13,9 km/h (3 Bft) O 97 0 min 0,000 mm 0,0 UV-I 90 W/m 16,9 C 20,1 C 20,9 km/h (4 Bft) 100,00 %
07.06.2018 19:39 22,2 C 25,0 C 72 % 1012,0 hPa 0,0 l/m 14,1 km/h (3 Bft) O 98 0 min 0,000 mm 0,0 UV-I 90 W/m 16,9 C 20,1 C 19,3 km/h (3 Bft) 95,83 %
07.06.2018 19:40 22,2 C 25,0 C 72 % 1012,0 hPa 0,0 l/m 14,2 km/h (3 Bft) O-SO 116 0 min 0,000 mm 0,0 UV-I 88 W/m 16,9 C 20,1 C 25,7 km/h (4 Bft) 96,15 %
07.06.2018 19:41 22,2 C 25,0 C 72 % 1012,0 hPa 0,0 l/m 16,6 km/h (3 Bft) O-SO 107 0 min 0,000 mm 0,0 UV-I 86 W/m 16,9 C 19,6 C 20,9 km/h (4 Bft) 100,00 %
07.06.2018 19:43 22,1 C 25,0 C 72 % 1011,9 hPa 0,0 l/m 13,3 km/h (3 Bft) O 82 0 min 0,000 mm 0,0 UV-I 84 W/m 16,8 C 20,1 C 19,3 km/h (3 Bft) 97,87 %
07.06.2018 19:44 22,1 C 25,0 C 72 % 1011,9 hPa 0,0 l/m 15,9 km/h (3 Bft) O-SO 108 0 min 0,000 mm 0,0 UV-I 83 W/m 16,8 C 19,6 C 19,3 km/h (3 Bft) 91,30 %
07.06.2018 19:45 22,1 C 25,0 C 73 % 1012,0 hPa 0,0 l/m 13,7 km/h (3 Bft) O 79 0 min 0,000 mm 0,0 UV-I 81 W/m 17,0 C 20,1 C 19,3 km/h (3 Bft) 100,00 %
07.06.2018 19:46 22,1 C 25,0 C 73 % 1012,0 hPa 0,0 l/m 12,2 km/h (2 Bft) O 88 0 min 0,000 mm 0,0 UV-I 81 W/m 17,0 C 20,4 C 14,5 km/h (3 Bft) 95,83 %
07.06.2018 19:48 22,0 C 25,0 C 73 % 1012,0 hPa 0,0 l/m 11,3 km/h (2 Bft) O 92 0 min 0,000 mm 0,0 UV-I 76 W/m 16,9 C 20,5 C 17,7 km/h (3 Bft) 97,87 %
07.06.2018 19:49 22,0 C 25,0 C 73 % 1012,0 hPa 0,0 l/m 11,5 km/h (2 Bft) O-NO 72 0 min 0,000 mm 0,0 UV-I 75 W/m 16,9 C 20,5 C 16,1 km/h (3 Bft) 95,65 %
07.06.2018 19:50 22,0 C 25,0 C 73 % 1011,9 hPa 0,0 l/m 13,4 km/h (3 Bft) O-SO 107 0 min 0,000 mm 0,0 UV-I 73 W/m 16,9 C 20,0 C 19,3 km/h (3 Bft) 100,00 %
07.06.2018 19:51 22,0 C 25,0 C 73 % 1011,9 hPa 0,0 l/m 12,8 km/h (3 Bft) O 89 0 min 0,000 mm 0,0 UV-I 70 W/m 16,9 C 20,1 C 14,5 km/h (3 Bft) 95,65 %
07.06.2018 19:52 21,9 C 25,0 C 73 % 1011,9 hPa 0,0 l/m 11,4 km/h (2 Bft) O-SO 106 0 min 0,000 mm 0,0 UV-I 69 W/m 16,8 C 20,4 C 14,5 km/h (3 Bft) 100,00 %
07.06.2018 19:53 21,9 C 25,0 C 73 % 1011,9 hPa 0,0 l/m 9,5 km/h (2 Bft) O-NO 75 0 min 0,000 mm 0,0 UV-I 67 W/m 16,8 C 20,9 C 12,9 km/h (3 Bft) 91,30 %
07.06.2018 19:54 21,9 C 25,0 C 73 % 1011,9 hPa 0,0 l/m 10,7 km/h (2 Bft) O-NO 77 0 min 0,000 mm 0,0 UV-I 66 W/m 16,8 C 20,5 C 16,1 km/h (3 Bft) 95,83 %
07.06.2018 19:55 21,9 C 25,0 C 73 % 1011,9 hPa 0,0 l/m 16,8 km/h (3 Bft) O-NO 70 0 min 0,000 mm 0,0 UV-I 64 W/m 16,8 C 19,2 C 20,9 km/h (4 Bft) 95,65 %
07.06.2018 19:56 21,8 C 25,0 C 73 % 1011,9 hPa 0,0 l/m 13,4 km/h (3 Bft) O-NO 67 0 min 0,000 mm 0,0 UV-I 62 W/m 16,7 C 19,8 C 19,3 km/h (3 Bft) 100,00 %
07.06.2018 19:58 21,8 C 25,0 C 73 % 1011,9 hPa 0,0 l/m 12,3 km/h (3 Bft) O 88 0 min 0,000 mm 0,0 UV-I 59 W/m 16,7 C 20,0 C 17,7 km/h (3 Bft) 97,87 %
07.06.2018 19:59 21,8 C 25,0 C 73 % 1011,9 hPa 0,0 l/m 8,8 km/h (2 Bft) O-NO 67 0 min 0,000 mm 0,0 UV-I 56 W/m 16,7 C 21,0 C 12,9 km/h (3 Bft) 95,65 %
07.06.2018 20:00 21,8 C 25,0 C 74 % 1011,9 hPa 0,0 l/m 9,5 km/h (2 Bft) O 91 0 min 0,000 mm 0,0 UV-I 55 W/m 17,0 C 20,8 C 14,5 km/h (3 Bft) 95,83 %
07.06.2018 20:01 21,8 C 25,0 C 74 % 1011,8 hPa 0,0 l/m 11,3 km/h (2 Bft) O 80 0 min 0,127 mm 0,0 UV-I 53 W/m 17,0 C 20,3 C 14,5 km/h (3 Bft) 100,00 %
07.06.2018 20:03 21,7 C 25,0 C 74 % 1011,8 hPa 0,0 l/m 11,8 km/h (2 Bft) O 86 0 min 0,000 mm 0,0 UV-I 51 W/m 16,9 C 20,0 C 16,1 km/h (3 Bft) 98,00 %
07.06.2018 20:04 21,7 C 25,0 C 74 % 1011,8 hPa 0,0 l/m 12,8 km/h (3 Bft) O-NO 71 0 min 0,000 mm 0,0 UV-I 49 W/m 16,9 C 19,8 C 16,1 km/h (3 Bft) 91,67 %
07.06.2018 20:05 21,7 C 25,0 C 74 % 1011,8 hPa 0,0 l/m 15,3 km/h (3 Bft) O-NO 71 0 min 0,000 mm 0,0 UV-I 47 W/m 16,9 C 19,2 C 17,7 km/h (3 Bft) 100,00 %
07.06.2018 20:06 21,6 C 25,0 C 74 % 1011,7 hPa 0,0 l/m 14,6 km/h (3 Bft) O 87 0 min 0,000 mm 0,0 UV-I 47 W/m 16,8 C 19,3 C 17,7 km/h (3 Bft) 95,65 %
07.06.2018 20:08 21,6 C 25,0 C 74 % 1011,7 hPa 0,0 l/m 12,7 km/h (3 Bft) O-NO 74 0 min 0,000 mm 0,0 UV-I 44 W/m 16,8 C 19,7 C 17,7 km/h (3 Bft) 96,61 %
07.06.2018 20:09 21,6 C 25,0 C 74 % 1011,7 hPa 0,0 l/m 11,5 km/h (2 Bft) O 85 0 min 0,000 mm 0,0 UV-I 42 W/m 16,8 C 20,0 C 16,1 km/h (3 Bft) 100,00 %
07.06.2018 20:10 21,5 C 25,0 C 74 % 1011,7 hPa 0,0 l/m 12,6 km/h (3 Bft) O 96 0 min 0,000 mm 0,0 UV-I 42 W/m 16,7 C 19,6 C 16,1 km/h (3 Bft) 95,65 %
07.06.2018 20:11 21,4 C 25,0 C 75 % 1011,7 hPa 0,0 l/m 12,4 km/h (3 Bft) O-NO 72 0 min 0,000 mm 0,0 UV-I 40 W/m 16,8 C 19,5 C 17,7 km/h (3 Bft) 100,00 %
07.06.2018 20:13 21,4 C 25,0 C 74 % 1011,7 hPa 0,0 l/m 12,1 km/h (2 Bft) O-NO 67 0 min 0,000 mm 0,0 UV-I 39 W/m 16,6 C 19,6 C 16,1 km/h (3 Bft) 93,62 %
07.06.2018 20:14 21,4 C 25,0 C 75 % 1011,7 hPa 0,0 l/m 9,9 km/h (2 Bft) O-NO 70 0 min 0,000 mm 0,0 UV-I 37 W/m 16,8 C 20,2 C 14,5 km/h (3 Bft) 95,65 %
07.06.2018 20:15 21,3 C 25,0 C 75 % 1011,7 hPa 0,0 l/m 10,0 km/h (2 Bft) O 93 0 min 0,000 mm 0,0 UV-I 35 W/m 16,7 C 20,1 C 14,5 km/h (3 Bft) 95,83 %
07.06.2018 20:16 21,3 C 25,0 C 75 % 1011,7 hPa 0,0 l/m 11,3 km/h (2 Bft) O-NO 58 0 min 0,000 mm 0,0 UV-I 35 W/m 16,7 C 19,7 C 17,7 km/h (3 Bft) 100,00 %
07.06.2018 20:18 21,3 C 25,0 C 75 % 1011,8 hPa 0,0 l/m 12,1 km/h (2 Bft) O-NO 60 0 min 0,000 mm 0,0 UV-I 33 W/m 16,7 C 19,5 C 17,7 km/h (3 Bft) 93,62 %
07.06.2018 20:19 21,3 C 25,0 C 75 % 1011,8 hPa 0,0 l/m 8,3 km/h (2 Bft) O 80 0 min 0,000 mm 0,0 UV-I 32 W/m 16,7 C 20,6 C 12,9 km/h (3 Bft) 95,83 %
07.06.2018 20:20 21,3 C 25,0 C 75 % 1011,7 hPa 0,0 l/m 12,7 km/h (3 Bft) O 87 0 min 0,000 mm 0,0 UV-I 30 W/m 16,7 C 19,4 C 17,7 km/h (3 Bft) 100,00 %
07.06.2018 20:21 21,2 C 25,0 C 75 % 1011,7 hPa 0,0 l/m 16,0 km/h (3 Bft) O-NO 61 0 min 0,000 mm 0,0 UV-I 30 W/m 16,6 C 18,5 C 19,3 km/h (3 Bft) 95,83 %
07.06.2018 20:23 21,2 C 25,0 C 75 % 1011,8 hPa 0,0 l/m 13,7 km/h (3 Bft) O-NO 74 0 min 0,000 mm 0,0 UV-I 28 W/m 16,6 C 19,0 C 19,3 km/h (3 Bft) 97,87 %
07.06.2018 20:24 21,2 C 25,0 C 75 % 1011,8 hPa 0,0 l/m 15,3 km/h (3 Bft) O 85 0 min 0,000 mm 0,0 UV-I 26 W/m 16,6 C 18,6 C 19,3 km/h (3 Bft) 95,83 %
07.06.2018 20:25 21,2 C 25,0 C 75 % 1011,8 hPa 0,0 l/m 13,8 km/h (3 Bft) O 97 0 min 0,000 mm 0,0 UV-I 25 W/m 16,6 C 19,0 C 17,7 km/h (3 Bft) 100,00 %
07.06.2018 20:26 21,2 C 25,0 C 75 % 1011,8 hPa 0,0 l/m 10,7 km/h (2 Bft) O 90 0 min 0,000 mm 0,0 UV-I 25 W/m 16,6 C 19,8 C 14,5 km/h (3 Bft) 95,83 %
07.06.2018 20:28 21,1 C 25,0 C 76 % 1011,8 hPa 0,0 l/m 11,7 km/h (2 Bft) O-NO 68 0 min 0,000 mm 0,0 UV-I 23 W/m 16,7 C 19,4 C 16,1 km/h (3 Bft) 98,00 %
07.06.2018 20:29 21,1 C 25,0 C 76 % 1011,8 hPa 0,0 l/m 10,0 km/h (2 Bft) O 80 0 min 0,000 mm 0,0 UV-I 22 W/m 16,7 C 19,9 C 12,9 km/h (3 Bft) 100,00 %
07.06.2018 20:30 21,1 C 25,0 C 76 % 1011,8 hPa 0,0 l/m 9,4 km/h (2 Bft) O 82 0 min 0,000 mm 0,0 UV-I 21 W/m 16,7 C 20,0 C 16,1 km/h (3 Bft) 96,30 %
07.06.2018 20:31 21,1 C 25,0 C 76 % 1011,8 hPa 0,0 l/m 7,4 km/h (2 Bft) O-NO 72 0 min 0,000 mm 0,0 UV-I 20 W/m 16,7 C 20,7 C 11,3 km/h (2 Bft) 95,65 %
07.06.2018 20:33 21,0 C 25,0 C 76 % 1011,8 hPa 0,0 l/m 12,1 km/h (2 Bft) O 99 0 min 0,000 mm 0,0 UV-I 19 W/m 16,6 C 19,2 C 17,7 km/h (3 Bft) 95,74 %
07.06.2018 20:34 20,9 C 25,0 C 76 % 1011,8 hPa 0,0 l/m 13,3 km/h (3 Bft) O 98 0 min 0,000 mm 0,0 UV-I 18 W/m 16,5 C 18,7 C 17,7 km/h (3 Bft) 100,00 %
07.06.2018 20:35 20,9 C 25,0 C 76 % 1011,9 hPa 0,0 l/m 14,0 km/h (3 Bft) O 84 0 min 0,000 mm 0,0 UV-I 18 W/m 16,5 C 18,6 C 19,3 km/h (3 Bft) 100,00 %
07.06.2018 20:36 20,9 C 25,0 C 76 % 1011,8 hPa 0,0 l/m 16,0 km/h (3 Bft) O 79 0 min 0,000 mm 0,0 UV-I 17 W/m 16,5 C 18,1 C 20,9 km/h (4 Bft) 97,22 %
07.06.2018 20:38 20,9 C 25,0 C 76 % 1011,9 hPa 0,0 l/m 9,8 km/h (2 Bft) O 83 0 min 0,000 mm 0,0 UV-I 16 W/m 16,5 C 19,7 C 19,3 km/h (3 Bft) 97,87 %
07.06.2018 20:39 20,9 C 25,0 C 76 % 1011,9 hPa 0,0 l/m 11,6 km/h (2 Bft) O-SO 103 0 min 0,000 mm 0,0 UV-I 16 W/m 16,5 C 19,2 C 14,5 km/h (3 Bft) 83,33 %
07.06.2018 20:40 20,9 C 25,0 C 76 % 1011,9 hPa 0,0 l/m 9,3 km/h (2 Bft) O-NO 62 0 min 0,000 mm 0,0 UV-I 14 W/m 16,5 C 19,9 C 12,9 km/h (3 Bft) 100,00 %
07.06.2018 20:41 20,9 C 25,0 C 76 % 1011,9 hPa 0,0 l/m 11,6 km/h (2 Bft) O 88 0 min 0,000 mm 0,0 UV-I 14 W/m 16,5 C 19,2 C 16,1 km/h (3 Bft) 95,83 %
07.06.2018 20:43 20,8 C 25,0 C 76 % 1012,0 hPa 0,0 l/m 8,3 km/h (2 Bft) O 89 0 min 0,000 mm 0,0 UV-I 12 W/m 16,4 C 20,1 C 11,3 km/h (2 Bft) 98,08 %
07.06.2018 20:44 20,8 C 25,0 C 76 % 1012,0 hPa 0,0 l/m 8,7 km/h (2 Bft) O-NO 65 0 min 0,000 mm 0,0 UV-I 12 W/m 16,4 C 19,9 C 12,9 km/h (3 Bft) 100,00 %
07.06.2018 20:45 20,8 C 25,0 C 77 % 1012,0 hPa 0,0 l/m 7,3 km/h (2 Bft) O-NO 64 0 min 0,000 mm 0,0 UV-I 12 W/m 16,6 C 20,5 C 9,7 km/h (2 Bft) 91,67 %
07.06.2018 20:46 20,7 C 25,0 C 77 % 1012,0 hPa 0,0 l/m 6,0 km/h (2 Bft) O 86 1 min 0,000 mm 0,0 UV-I 11 W/m 16,5 C 20,7 C 9,7 km/h (2 Bft) 95,65 %
07.06.2018 20:47 20,7 C 25,0 C 77 % 1012,0 hPa 0,0 l/m 5,8 km/h (2 Bft) O 80 1 min 0,000 mm 0,0 UV-I 11 W/m 16,5 C 20,7 C 6,4 km/h (2 Bft) 100,00 %
07.06.2018 20:48 20,7 C 25,0 C 77 % 1012,0 hPa 0,0 l/m 4,0 km/h (1 Bft) O 80 1 min 0,000 mm 0,0 UV-I 11 W/m 16,5 C 20,7 C 6,4 km/h (2 Bft) 100,00 %
07.06.2018 20:49 20,7 C 25,0 C 77 % 1012,0 hPa 0,0 l/m 3,8 km/h (1 Bft) O 86 0 min 0,000 mm 0,0 UV-I 11 W/m 16,5 C 20,7 C 6,4 km/h (2 Bft) 100,00 %
07.06.2018 20:50 20,6 C 25,0 C 77 % 1012,0 hPa 0,0 l/m 3,8 km/h (1 Bft) O 87 0 min 0,000 mm 0,0 UV-I 9 W/m 16,4 C 20,6 C 6,4 km/h (2 Bft) 100,00 %
07.06.2018 20:51 20,6 C 25,0 C 77 % 1012,1 hPa 0,0 l/m 5,4 km/h (1 Bft) O 86 0 min 0,000 mm 0,0 UV-I 9 W/m 16,4 C 20,6 C 8,0 km/h (2 Bft) 100,00 %
07.06.2018 20:52 20,6 C 25,0 C 77 % 1012,1 hPa 0,0 l/m 4,6 km/h (1 Bft) O 89 0 min 0,000 mm 0,0 UV-I 9 W/m 16,4 C 20,6 C 6,4 km/h (2 Bft) 95,65 %
07.06.2018 20:53 20,5 C 25,0 C 78 % 1012,0 hPa 0,0 l/m 5,7 km/h (1 Bft) O 82 0 min 0,000 mm 0,0 UV-I 9 W/m 16,5 C 20,5 C 8,0 km/h (2 Bft) 100,00 %
07.06.2018 20:54 20,5 C 25,0 C 78 % 1012,1 hPa 0,0 l/m 5,4 km/h (1 Bft) O 82 0 min 0,000 mm 0,0 UV-I 8 W/m 16,5 C 20,5 C 8,0 km/h (2 Bft) 100,00 %
07.06.2018 20:55 20,4 C 25,0 C 78 % 1012,0 hPa 0,0 l/m 8,4 km/h (2 Bft) O 98 0 min 0,000 mm 0,0 UV-I 7 W/m 16,4 C 19,6 C 11,3 km/h (2 Bft) 100,00 %
07.06.2018 20:56 20,4 C 25,0 C 78 % 1012,1 hPa 0,0 l/m 7,1 km/h (2 Bft) O-NO 70 0 min 0,000 mm 0,0 UV-I 7 W/m 16,4 C 20,1 C 11,3 km/h (2 Bft) 91,30 %
07.06.2018 20:57 20,4 C 25,0 C 78 % 1012,1 hPa 0,0 l/m 7,8 km/h (2 Bft) O-NO 75 0 min 0,000 mm 0,0 UV-I 7 W/m 16,4 C 19,8 C 11,3 km/h (2 Bft) 100,00 %
07.06.2018 20:58 20,3 C 25,0 C 78 % 1012,1 hPa 0,0 l/m 7,2 km/h (2 Bft) O 99 0 min 0,000 mm 0,0 UV-I 7 W/m 16,3 C 20,0 C 11,3 km/h (2 Bft) 95,65 %
07.06.2018 20:59 20,3 C 25,0 C 79 % 1012,1 hPa 0,0 l/m 10,1 km/h (2 Bft) O 89 0 min 0,000 mm 0,0 UV-I 6 W/m 16,5 C 18,9 C 14,5 km/h (3 Bft) 100,00 %
07.06.2018 21:00 20,3 C 25,0 C 79 % 1012,1 hPa 0,0 l/m 9,9 km/h (2 Bft) O-SO 102 0 min 0,000 mm 0,0 UV-I 5 W/m 16,5 C 19,0 C 11,3 km/h (2 Bft) 95,65 %
07.06.2018 21:01 20,2 C 25,0 C 79 % 1012,2 hPa 0,0 l/m 7,8 km/h (2 Bft) O 97 0 min 0,050 mm 0,0 UV-I 5 W/m 16,4 C 19,6 C 11,3 km/h (2 Bft) 100,00 %
07.06.2018 21:02 20,2 C 25,0 C 79 % 1012,1 hPa 0,0 l/m 9,3 km/h (2 Bft) O-NO 71 0 min 0,000 mm 0,0 UV-I 5 W/m 16,4 C 19,1 C 14,5 km/h (3 Bft) 100,00 %
07.06.2018 21:03 20,2 C 25,0 C 79 % 1012,1 hPa 0,0 l/m 11,5 km/h (2 Bft) O-SO 117 0 min 0,000 mm 0,0 UV-I 5 W/m 16,4 C 18,4 C 12,9 km/h (3 Bft) 100,00 %
07.06.2018 21:04 20,2 C 25,0 C 79 % 1012,1 hPa 0,0 l/m 12,3 km/h (3 Bft) O 86 0 min 0,000 mm 0,0 UV-I 5 W/m 16,4 C 18,2 C 16,1 km/h (3 Bft) 95,83 %
07.06.2018 21:05 20,3 C 25,0 C 79 % 1012,1 hPa 0,0 l/m 11,9 km/h (2 Bft) O 84 0 min 0,000 mm 0,0 UV-I 5 W/m 16,5 C 18,4 C 14,5 km/h (3 Bft) 100,00 %
07.06.2018 21:06 20,3 C 25,0 C 79 % 1012,1 hPa 0,0 l/m 10,7 km/h (2 Bft) O-SO 115 0 min 0,000 mm 0,0 UV-I 5 W/m 16,5 C 18,8 C 14,5 km/h (3 Bft) 91,67 %
07.06.2018 21:07 20,3 C 25,0 C 79 % 1012,2 hPa 0,0 l/m 9,3 km/h (2 Bft) O 97 0 min 0,000 mm 0,0 UV-I 5 W/m 16,5 C 19,2 C 14,5 km/h (3 Bft) 95,65 %
07.06.2018 21:08 20,3 C 25,0 C 79 % 1012,2 hPa 0,0 l/m 11,2 km/h (2 Bft) O 93 0 min 0,000 mm 0,0 UV-I 5 W/m 16,5 C 18,6 C 14,5 km/h (3 Bft) 95,83 %
07.06.2018 21:09 20,3 C 25,0 C 79 % 1012,2 hPa 0,0 l/m 12,7 km/h (3 Bft) O-NO 68 0 min 0,000 mm 0,0 UV-I 5 W/m 16,5 C 18,2 C 16,1 km/h (3 Bft) 100,00 %
07.06.2018 21:10 20,3 C 25,0 C 79 % 1012,2 hPa 0,0 l/m 10,1 km/h (2 Bft) O-NO 68 0 min 0,000 mm 0,0 UV-I 5 W/m 16,5 C 18,9 C 14,5 km/h (3 Bft) 91,67 %
07.06.2018 21:11 20,3 C 25,0 C 79 % 1012,2 hPa 0,0 l/m 11,2 km/h (2 Bft) O-NO 65 0 min 0,000 mm 0,0 UV-I 5 W/m 16,5 C 18,6 C 17,7 km/h (3 Bft) 100,00 %
07.06.2018 21:13 20,3 C 25,0 C 79 % 1012,2 hPa 0,0 l/m 12,2 km/h (2 Bft) O 91 0 min 0,000 mm 0,0 UV-I 1 W/m 16,5 C 18,3 C 17,7 km/h (3 Bft) 96,00 %
07.06.2018 21:14 20,3 C 25,0 C 79 % 1012,2 hPa 0,0 l/m 10,3 km/h (2 Bft) O-NO 71 0 min 0,000 mm 0,0 UV-I 0 W/m 16,5 C 18,9 C 14,5 km/h (3 Bft) 100,00 %
07.06.2018 21:15 20,3 C 25,0 C 79 % 1012,3 hPa 0,0 l/m 10,1 km/h (2 Bft) O 88 0 min 0,000 mm 0,0 UV-I 0 W/m 16,5 C 18,9 C 16,1 km/h (3 Bft) 96,15 %
07.06.2018 21:16 20,2 C 25,0 C 79 % 1012,3 hPa 0,0 l/m 9,3 km/h (2 Bft) O-NO 78 0 min 0,000 mm 0,0 UV-I 0 W/m 16,4 C 19,1 C 14,5 km/h (3 Bft) 100,00 %
07.06.2018 21:18 20,2 C 25,0 C 79 % 1012,3 hPa 0,0 l/m 13,0 km/h (3 Bft) NO 54 0 min 0,000 mm 0,0 UV-I 0 W/m 16,4 C 18,0 C 17,7 km/h (3 Bft) 97,87 %
07.06.2018 21:19 20,2 C 25,0 C 79 % 1012,3 hPa 0,0 l/m 11,3 km/h (2 Bft) O-SO 103 0 min 0,000 mm 0,0 UV-I 0 W/m 16,4 C 18,5 C 14,5 km/h (3 Bft) 91,67 %
07.06.2018 21:20 20,2 C 24,4 C 79 % 1012,4 hPa 0,0 l/m 11,3 km/h (2 Bft) O 84 0 min 0,000 mm 0,0 UV-I 0 W/m 16,4 C 18,5 C 16,1 km/h (3 Bft) 100,00 %
07.06.2018 21:21 20,2 C 25,0 C 79 % 1012,4 hPa 0,0 l/m 10,1 km/h (2 Bft) O-SO 106 0 min 0,000 mm 0,0 UV-I 0 W/m 16,4 C 18,8 C 14,5 km/h (3 Bft) 95,83 %
07.06.2018 21:23 20,1 C 24,4 C 80 % 1012,4 hPa 0,0 l/m 12,4 km/h (3 Bft) O 93 0 min 0,000 mm 0,0 UV-I 0 W/m 16,5 C 18,0 C 17,7 km/h (3 Bft) 97,87 %
07.06.2018 21:24 20,1 C 24,4 C 80 % 1012,4 hPa 0,0 l/m 13,8 km/h (3 Bft) O 89 0 min 0,000 mm 0,0 UV-I 0 W/m 16,5 C 17,7 C 16,1 km/h (3 Bft) 96,15 %
07.06.2018 21:25 20,1 C 24,4 C 80 % 1012,4 hPa 0,0 l/m 12,3 km/h (3 Bft) O 88 0 min 0,000 mm 0,0 UV-I 0 W/m 16,5 C 18,1 C 16,1 km/h (3 Bft) 95,83 %
07.06.2018 21:26 20,1 C 24,4 C 80 % 1012,4 hPa 0,0 l/m 10,4 km/h (2 Bft) O 88 0 min 0,000 mm 0,0 UV-I 0 W/m 16,5 C 18,6 C 12,9 km/h (3 Bft) 96,15 %
07.06.2018 21:27 20,0 C 24,4 C 80 % 1012,4 hPa 0,0 l/m 12,3 km/h (3 Bft) O 99 0 min 0,000 mm 0,0 UV-I 0 W/m 16,4 C 17,9 C 14,5 km/h (3 Bft) 100,00 %
07.06.2018 21:28 20,0 C 25,0 C 81 % 1012,4 hPa 0,0 l/m 12,8 km/h (3 Bft) O 93 0 min 0,000 mm 0,0 UV-I 0 W/m 16,6 C 17,8 C 16,1 km/h (3 Bft) 95,65 %
07.06.2018 21:29 20,0 C 24,4 C 81 % 1012,4 hPa 0,0 l/m 12,0 km/h (2 Bft) O-SO 111 0 min 0,000 mm 0,0 UV-I 0 W/m 16,6 C 18,0 C 14,5 km/h (3 Bft) 100,00 %
07.06.2018 21:30 20,0 C 24,4 C 81 % 1012,5 hPa 0,0 l/m 10,7 km/h (2 Bft) O-NO 76 0 min 0,000 mm 0,0 UV-I 0 W/m 16,6 C 18,4 C 14,5 km/h (3 Bft) 86,96 %
07.06.2018 21:31 19,9 C 24,4 C 81 % 1012,5 hPa 0,0 l/m 11,3 km/h (2 Bft) O-SO 123 0 min 0,000 mm 0,0 UV-I 0 W/m 16,5 C 18,1 C 14,5 km/h (3 Bft) 95,83 %
07.06.2018 21:33 19,9 C 24,4 C 81 % 1012,5 hPa 0,0 l/m 13,6 km/h (3 Bft) O 96 0 min 0,000 mm 0,0 UV-I 0 W/m 16,5 C 17,5 C 19,3 km/h (3 Bft) 96,61 %
07.06.2018 21:34 19,9 C 24,4 C 81 % 1012,5 hPa 0,0 l/m 10,4 km/h (2 Bft) O-SO 105 0 min 0,000 mm 0,0 UV-I 0 W/m 16,5 C 18,4 C 14,5 km/h (3 Bft) 100,00 %
07.06.2018 21:35 19,9 C 24,4 C 81 % 1012,5 hPa 0,0 l/m 15,9 km/h (3 Bft) O 88 0 min 0,000 mm 0,0 UV-I 0 W/m 16,5 C 16,9 C 20,9 km/h (4 Bft) 95,83 %
07.06.2018 21:36 19,9 C 24,4 C 81 % 1012,5 hPa 0,0 l/m 13,0 km/h (3 Bft) O 85 0 min 0,000 mm 0,0 UV-I 0 W/m 16,5 C 17,6 C 17,7 km/h (3 Bft) 100,00 %
07.06.2018 21:37 19,9 C 24,4 C 81 % 1012,5 hPa 0,0 l/m 13,1 km/h (3 Bft) O-SO 110 0 min 0,000 mm 0,0 UV-I 0 W/m 16,5 C 17,6 C 17,7 km/h (3 Bft) 100,00 %
07.06.2018 21:38 19,9 C 24,4 C 81 % 1012,5 hPa 0,0 l/m 14,1 km/h (3 Bft) O-NO 77 0 min 0,000 mm 0,0 UV-I 0 W/m 16,5 C 17,3 C 20,9 km/h (4 Bft) 100,00 %
07.06.2018 21:39 19,9 C 24,4 C 82 % 1012,5 hPa 0,0 l/m 15,5 km/h (3 Bft) O-SO 112 0 min 0,000 mm 0,0 UV-I 0 W/m 16,7 C 17,0 C 19,3 km/h (3 Bft) 100,00 %
07.06.2018 21:40 19,9 C 24,4 C 82 % 1012,5 hPa 0,0 l/m 8,9 km/h (2 Bft) O-SO 109 0 min 0,000 mm 0,0 UV-I 0 W/m 16,7 C 18,9 C 16,1 km/h (3 Bft) 95,83 %
07.06.2018 21:41 19,8 C 24,4 C 82 % 1012,5 hPa 0,0 l/m 9,3 km/h (2 Bft) O-NO 71 0 min 0,000 mm 0,0 UV-I 0 W/m 16,6 C 18,7 C 12,9 km/h (3 Bft) 100,00 %
07.06.2018 21:42 19,8 C 24,4 C 82 % 1012,5 hPa 0,0 l/m 11,2 km/h (2 Bft) O 91 0 min 0,000 mm 0,0 UV-I 0 W/m 16,6 C 18,0 C 14,5 km/h (3 Bft) 100,00 %
07.06.2018 21:43 19,8 C 24,4 C 82 % 1012,6 hPa 0,0 l/m 13,6 km/h (3 Bft) O 84 0 min 0,000 mm 0,0 UV-I 0 W/m 16,6 C 17,4 C 19,3 km/h (3 Bft) 100,00 %
07.06.2018 21:44 19,7 C 24,4 C 82 % 1012,5 hPa 0,0 l/m 14,6 km/h (3 Bft) O 97 0 min 0,000 mm 0,0 UV-I 0 W/m 16,5 C 17,0 C 19,3 km/h (3 Bft) 100,00 %
07.06.2018 21:45 19,7 C 24,4 C 82 % 1012,6 hPa 0,0 l/m 15,5 km/h (3 Bft) O-SO 109 0 min 0,000 mm 0,0 UV-I 0 W/m 16,5 C 16,8 C 19,3 km/h (3 Bft) 95,65 %
07.06.2018 21:46 19,7 C 24,4 C 82 % 1012,5 hPa 0,0 l/m 12,6 km/h (3 Bft) O 81 0 min 0,000 mm 0,0 UV-I 0 W/m 16,5 C 17,5 C 16,1 km/h (3 Bft) 100,00 %
07.06.2018 21:48 19,7 C 24,4 C 83 % 1012,5 hPa 0,0 l/m 13,2 km/h (3 Bft) O 93 0 min 0,000 mm 0,0 UV-I 0 W/m 16,7 C 17,3 C 22,5 km/h (4 Bft) 100,00 %
07.06.2018 21:49 19,8 C 24,4 C 82 % 1012,5 hPa 0,0 l/m 15,1 km/h (3 Bft) O-SO 103 0 min 0,000 mm 0,0 UV-I 0 W/m 16,6 C 17,0 C 20,9 km/h (4 Bft) 95,65 %
07.06.2018 21:50 19,7 C 24,4 C 82 % 1012,5 hPa 0,0 l/m 12,9 km/h (3 Bft) O 101 0 min 0,000 mm 0,0 UV-I 0 W/m 16,5 C 17,4 C 19,3 km/h (3 Bft) 100,00 %
07.06.2018 21:51 19,8 C 24,4 C 82 % 1012,6 hPa 0,0 l/m 14,2 km/h (3 Bft) O 82 0 min 0,000 mm 0,0 UV-I 0 W/m 16,6 C 17,2 C 19,3 km/h (3 Bft) 95,65 %
07.06.2018 21:53 19,7 C 24,4 C 83 % 1012,6 hPa 0,0 l/m 13,6 km/h (3 Bft) O 96 0 min 0,000 mm 0,0 UV-I 0 W/m 16,7 C 17,2 C 20,9 km/h (4 Bft) 95,74 %
07.06.2018 21:54 19,7 C 24,4 C 83 % 1012,6 hPa 0,0 l/m 12,7 km/h (3 Bft) O 84 0 min 0,000 mm 0,0 UV-I 0 W/m 16,7 C 17,5 C 14,5 km/h (3 Bft) 100,00 %
07.06.2018 21:55 19,7 C 24,4 C 83 % 1012,6 hPa 0,0 l/m 11,7 km/h (2 Bft) O 87 0 min 0,000 mm 0,0 UV-I 0 W/m 16,7 C 17,8 C 14,5 km/h (3 Bft) 100,00 %
07.06.2018 21:56 19,7 C 24,4 C 83 % 1012,5 hPa 0,0 l/m 11,8 km/h (2 Bft) O 82 0 min 0,000 mm 0,0 UV-I 0 W/m 16,7 C 17,7 C 16,1 km/h (3 Bft) 100,00 %
07.06.2018 21:57 19,7 C 24,4 C 83 % 1012,6 hPa 0,0 l/m 13,1 km/h (3 Bft) O 84 0 min 0,000 mm 0,0 UV-I 0 W/m 16,7 C 17,4 C 17,7 km/h (3 Bft) 100,00 %
07.06.2018 21:58 19,7 C 24,4 C 83 % 1012,5 hPa 0,0 l/m 14,2 km/h (3 Bft) O-NO 78 0 min 0,000 mm 0,0 UV-I 0 W/m 16,7 C 17,1 C 19,3 km/h (3 Bft) 100,00 %
07.06.2018 21:59 19,7 C 24,4 C 83 % 1012,5 hPa 0,0 l/m 13,3 km/h (3 Bft) O 99 0 min 0,000 mm 0,0 UV-I 0 W/m 16,7 C 17,3 C 17,7 km/h (3 Bft) 100,00 %
07.06.2018 22:00 19,6 C 24,4 C 83 % 1012,5 hPa 0,0 l/m 14,1 km/h (3 Bft) O-NO 62 0 min 0,000 mm 0,0 UV-I 0 W/m 16,6 C 17,0 C 19,3 km/h (3 Bft) 100,00 %
07.06.2018 22:01 19,6 C 24,4 C 83 % 1012,5 hPa 0,0 l/m 14,3 km/h (3 Bft) O 95 0 min 0,026 mm 0,0 UV-I 0 W/m 16,6 C 16,9 C 20,9 km/h (4 Bft) 100,00 %
07.06.2018 22:03 19,6 C 24,4 C 83 % 1012,5 hPa 0,0 l/m 10,6 km/h (2 Bft) O 88 0 min 0,000 mm 0,0 UV-I 0 W/m 16,6 C 18,0 C 17,7 km/h (3 Bft) 98,28 %
07.06.2018 22:04 19,6 C 24,4 C 83 % 1012,5 hPa 0,0 l/m 13,7 km/h (3 Bft) O 88 0 min 0,000 mm 0,0 UV-I 0 W/m 16,6 C 17,1 C 19,3 km/h (3 Bft) 100,00 %
07.06.2018 22:05 19,6 C 24,4 C 83 % 1012,5 hPa 0,0 l/m 15,4 km/h (3 Bft) O 85 0 min 0,000 mm 0,0 UV-I 0 W/m 16,6 C 16,7 C 22,5 km/h (4 Bft) 100,00 %
07.06.2018 22:06 19,6 C 24,4 C 83 % 1012,4 hPa 0,0 l/m 10,9 km/h (2 Bft) O-SO 111 0 min 0,000 mm 0,0 UV-I 0 W/m 16,6 C 17,9 C 19,3 km/h (3 Bft) 100,00 %
07.06.2018 22:08 19,6 C 24,4 C 83 % 1012,5 hPa 0,0 l/m 14,4 km/h (3 Bft) O 97 0 min 0,000 mm 0,0 UV-I 0 W/m 16,6 C 16,9 C 20,9 km/h (4 Bft) 98,31 %
07.06.2018 22:09 19,6 C 24,4 C 83 % 1012,5 hPa 0,0 l/m 14,0 km/h (3 Bft) O 101 0 min 0,000 mm 0,0 UV-I 0 W/m 16,6 C 17,0 C 19,3 km/h (3 Bft) 100,00 %
07.06.2018 22:10 19,6 C 24,4 C 83 % 1012,4 hPa 0,0 l/m 13,6 km/h (3 Bft) O 89 0 min 0,000 mm 0,0 UV-I 0 W/m 16,6 C 17,1 C 19,3 km/h (3 Bft) 100,00 %
07.06.2018 22:11 19,6 C 24,4 C 83 % 1012,4 hPa 0,0 l/m 13,4 km/h (3 Bft) O-NO 78 0 min 0,000 mm 0,0 UV-I 0 W/m 16,6 C 17,2 C 17,7 km/h (3 Bft) 100,00 %
07.06.2018 22:12 19,6 C 24,4 C 83 % 1012,4 hPa 0,0 l/m 13,0 km/h (3 Bft) O-NO 67 0 min 0,000 mm 0,0 UV-I 0 W/m 16,6 C 17,3 C 17,7 km/h (3 Bft) 100,00 %
07.06.2018 22:13 19,6 C 24,4 C 84 % 1012,4 hPa 0,0 l/m 7,8 km/h (2 Bft) O 85 0 min 0,000 mm 0,0 UV-I 0 W/m 16,8 C 19,0 C 11,3 km/h (2 Bft) 100,00 %
07.06.2018 22:14 19,5 C 24,4 C 84 % 1012,5 hPa 0,0 l/m 11,1 km/h (2 Bft) O 87 0 min 0,000 mm 0,0 UV-I 0 W/m 16,7 C 17,7 C 17,7 km/h (3 Bft) 100,00 %
07.06.2018 22:15 19,5 C 24,4 C 84 % 1012,4 hPa 0,0 l/m 15,5 km/h (3 Bft) O 95 0 min 0,000 mm 0,0 UV-I 0 W/m 16,7 C 16,5 C 19,3 km/h (3 Bft) 100,00 %
07.06.2018 22:16 19,4 C 24,4 C 84 % 1012,4 hPa 0,0 l/m 15,8 km/h (3 Bft) O 92 0 min 0,000 mm 0,0 UV-I 0 W/m 16,6 C 16,3 C 17,7 km/h (3 Bft) 100,00 %
07.06.2018 22:18 19,5 C 24,4 C 84 % 1012,4 hPa 0,0 l/m 12,8 km/h (3 Bft) O-NO 62 0 min 0,000 mm 0,0 UV-I 0 W/m 16,7 C 17,2 C 19,3 km/h (3 Bft) 100,00 %
07.06.2018 22:19 19,4 C 24,4 C 84 % 1012,4 hPa 0,0 l/m 13,0 km/h (3 Bft) O 80 0 min 0,000 mm 0,0 UV-I 0 W/m 16,6 C 17,1 C 17,7 km/h (3 Bft) 100,00 %
07.06.2018 22:20 19,4 C 24,4 C 84 % 1012,4 hPa 0,0 l/m 11,9 km/h (2 Bft) O 86 0 min 0,000 mm 0,0 UV-I 0 W/m 16,6 C 17,4 C 14,5 km/h (3 Bft) 100,00 %
07.06.2018 22:21 19,4 C 24,4 C 84 % 1012,3 hPa 0,0 l/m 13,2 km/h (3 Bft) O-NO 72 0 min 0,000 mm 0,0 UV-I 0 W/m 16,6 C 17,0 C 19,3 km/h (3 Bft) 100,00 %
07.06.2018 22:23 19,3 C 24,4 C 85 % 1012,3 hPa 0,0 l/m 11,5 km/h (2 Bft) O-NO 77 0 min 0,000 mm 0,0 UV-I 0 W/m 16,7 C 17,4 C 17,7 km/h (3 Bft) 100,00 %
07.06.2018 22:24 19,3 C 24,4 C 85 % 1012,3 hPa 0,0 l/m 12,6 km/h (3 Bft) O-NO 65 0 min 0,000 mm 0,0 UV-I 0 W/m 16,7 C 17,0 C 17,7 km/h (3 Bft) 100,00 %
07.06.2018 22:25 19,3 C 24,4 C 85 % 1012,3 hPa 0,0 l/m 14,8 km/h (3 Bft) O-NO 63 0 min 0,000 mm 0,0 UV-I 0 W/m 16,7 C 16,5 C 20,9 km/h (4 Bft) 100,00 %
07.06.2018 22:26 19,3 C 24,4 C 85 % 1012,3 hPa 0,0 l/m 13,3 km/h (3 Bft) O-NO 67 0 min 0,000 mm 0,0 UV-I 0 W/m 16,7 C 16,8 C 19,3 km/h (3 Bft) 100,00 %
07.06.2018 22:27 19,3 C 24,4 C 85 % 1012,3 hPa 0,0 l/m 13,5 km/h (3 Bft) O-NO 73 0 min 0,000 mm 0,0 UV-I 0 W/m 16,7 C 16,8 C 17,7 km/h (3 Bft) 100,00 %
07.06.2018 22:28 19,3 C 24,4 C 85 % 1012,3 hPa 0,0 l/m 9,1 km/h (2 Bft) O-NO 77 0 min 0,000 mm 0,0 UV-I 0 W/m 16,7 C 18,2 C 11,3 km/h (2 Bft) 100,00 %
07.06.2018 22:29 19,2 C 24,4 C 85 % 1012,3 hPa 0,0 l/m 14,2 km/h (3 Bft) O 94 0 min 0,000 mm 0,0 UV-I 0 W/m 16,6 C 16,5 C 17,7 km/h (3 Bft) 100,00 %
07.06.2018 22:30 19,2 C 24,4 C 85 % 1012,3 hPa 0,0 l/m 10,4 km/h (2 Bft) O 100 0 min 0,000 mm 0,0 UV-I 0 W/m 16,6 C 17,6 C 14,5 km/h (3 Bft) 100,00 %
07.06.2018 22:31 19,2 C 24,4 C 85 % 1012,3 hPa 0,0 l/m 11,1 km/h (2 Bft) O 96 0 min 0,000 mm 0,0 UV-I 0 W/m 16,6 C 17,4 C 16,1 km/h (3 Bft) 100,00 %
07.06.2018 22:33 19,2 C 24,4 C 85 % 1012,2 hPa 0,0 l/m 12,1 km/h (2 Bft) O 87 0 min 0,000 mm 0,0 UV-I 0 W/m 16,6 C 17,1 C 16,1 km/h (3 Bft) 97,87 %
07.06.2018 22:34 19,2 C 24,4 C 85 % 1012,2 hPa 0,0 l/m 10,5 km/h (2 Bft) O-NO 63 0 min 0,000 mm 0,0 UV-I 0 W/m 16,6 C 17,6 C 14,5 km/h (3 Bft) 100,00 %
07.06.2018 22:35 19,2 C 24,4 C 85 % 1012,3 hPa 0,0 l/m 12,5 km/h (3 Bft) NO 54 0 min 0,000 mm 0,0 UV-I 0 W/m 16,6 C 17,0 C 17,7 km/h (3 Bft) 100,00 %
07.06.2018 22:36 19,2 C 24,4 C 85 % 1012,3 hPa 0,0 l/m 11,1 km/h (2 Bft) O-NO 69 0 min 0,000 mm 0,0 UV-I 0 W/m 16,6 C 17,4 C 14,5 km/h (3 Bft) 100,00 %
07.06.2018 22:37 19,2 C 24,4 C 85 % 1012,2 hPa 0,0 l/m 9,7 km/h (2 Bft) O 84 0 min 0,000 mm 0,0 UV-I 0 W/m 16,6 C 17,9 C 12,9 km/h (3 Bft) 100,00 %
07.06.2018 22:38 19,2 C 24,4 C 86 % 1012,2 hPa 0,0 l/m 8,9 km/h (2 Bft) O-NO 69 0 min 0,000 mm 0,0 UV-I 0 W/m 16,8 C 18,2 C 12,9 km/h (3 Bft) 100,00 %
07.06.2018 22:39 19,1 C 24,4 C 86 % 1012,2 hPa 0,0 l/m 9,3 km/h (2 Bft) O-NO 71 0 min 0,000 mm 0,0 UV-I 0 W/m 16,7 C 17,9 C 12,9 km/h (3 Bft) 100,00 %
07.06.2018 22:40 19,1 C 24,4 C 86 % 1012,2 hPa 0,0 l/m 10,1 km/h (2 Bft) O-NO 61 0 min 0,000 mm 0,0 UV-I 0 W/m 16,7 C 17,6 C 12,9 km/h (3 Bft) 100,00 %
07.06.2018 22:41 19,1 C 24,4 C 86 % 1012,2 hPa 0,0 l/m 8,6 km/h (2 Bft) O 79 0 min 0,000 mm 0,0 UV-I 0 W/m 16,7 C 18,2 C 12,9 km/h (3 Bft) 100,00 %
07.06.2018 22:43 19,0 C 24,4 C 86 % 1012,2 hPa 0,0 l/m 8,4 km/h (2 Bft) O 79 0 min 0,000 mm 0,0 UV-I 0 W/m 16,6 C 18,1 C 12,9 km/h (3 Bft) 100,00 %
07.06.2018 22:44 19,0 C 24,4 C 86 % 1012,2 hPa 0,0 l/m 8,4 km/h (2 Bft) O-NO 77 0 min 0,000 mm 0,0 UV-I 0 W/m 16,6 C 18,1 C 12,9 km/h (3 Bft) 100,00 %
07.06.2018 22:45 19,0 C 24,4 C 86 % 1012,2 hPa 0,0 l/m 8,7 km/h (2 Bft) O-NO 77 0 min 0,000 mm 0,0 UV-I 0 W/m 16,6 C 18,0 C 12,9 km/h (3 Bft) 100,00 %
07.06.2018 22:46 18,9 C 24,4 C 86 % 1012,2 hPa 0,0 l/m 9,3 km/h (2 Bft) O-NO 76 0 min 0,000 mm 0,0 UV-I 0 W/m 16,5 C 17,7 C 14,5 km/h (3 Bft) 100,00 %
07.06.2018 22:47 18,9 C 24,4 C 86 % 1012,2 hPa 0,0 l/m 9,8 km/h (2 Bft) O-NO 72 0 min 0,000 mm 0,0 UV-I 0 W/m 16,5 C 17,5 C 12,9 km/h (3 Bft) 100,00 %
07.06.2018 22:48 18,9 C 24,4 C 86 % 1012,2 hPa 0,0 l/m 8,7 km/h (2 Bft) O 97 0 min 0,000 mm 0,0 UV-I 0 W/m 16,5 C 17,9 C 11,3 km/h (2 Bft) 100,00 %
07.06.2018 22:49 18,9 C 24,4 C 86 % 1012,2 hPa 0,0 l/m 9,2 km/h (2 Bft) O 88 0 min 0,000 mm 0,0 UV-I 0 W/m 16,5 C 17,7 C 12,9 km/h (3 Bft) 95,83 %
07.06.2018 22:50 18,9 C 24,4 C 86 % 1012,3 hPa 0,0 l/m 8,6 km/h (2 Bft) O-NO 75 0 min 0,000 mm 0,0 UV-I 0 W/m 16,5 C 18,0 C 12,9 km/h (3 Bft) 100,00 %
07.06.2018 22:51 18,9 C 24,4 C 86 % 1012,2 hPa 0,0 l/m 6,0 km/h (2 Bft) O-NO 75 0 min 0,000 mm 0,0 UV-I 0 W/m 16,5 C 18,9 C 11,3 km/h (2 Bft) 100,00 %
07.06.2018 22:53 18,9 C 24,4 C 87 % 1012,3 hPa 0,0 l/m 7,0 km/h (2 Bft) O-NO 74 0 min 0,000 mm 0,0 UV-I 0 W/m 16,7 C 18,6 C 9,7 km/h (2 Bft) 97,87 %
07.06.2018 22:54 18,9 C 24,4 C 87 % 1012,3 hPa 0,0 l/m 6,0 km/h (2 Bft) O 86 0 min 0,000 mm 0,0 UV-I 0 W/m 16,7 C 18,9 C 9,7 km/h (2 Bft) 100,00 %
07.06.2018 22:55 18,8 C 24,4 C 87 % 1012,3 hPa 0,0 l/m 5,3 km/h (1 Bft) O-NO 77 0 min 0,000 mm 0,0 UV-I 0 W/m 16,6 C 18,8 C 8,0 km/h (2 Bft) 100,00 %
07.06.2018 22:56 18,8 C 24,4 C 87 % 1012,2 hPa 0,0 l/m 7,4 km/h (2 Bft) O 82 0 min 0,000 mm 0,0 UV-I 0 W/m 16,6 C 18,4 C 11,3 km/h (2 Bft) 100,00 %
07.06.2018 22:57 18,8 C 24,4 C 87 % 1012,3 hPa 0,0 l/m 7,0 km/h (2 Bft) O 85 0 min 0,000 mm 0,0 UV-I 0 W/m 16,6 C 18,5 C 12,9 km/h (3 Bft) 100,00 %
07.06.2018 22:58 18,8 C 24,4 C 87 % 1012,2 hPa 0,0 l/m 6,5 km/h (2 Bft) O-NO 76 0 min 0,000 mm 0,0 UV-I 0 W/m 16,6 C 18,8 C 11,3 km/h (2 Bft) 100,00 %
07.06.2018 22:59 18,8 C 24,4 C 87 % 1012,3 hPa 0,0 l/m 8,0 km/h (2 Bft) O-SO 108 0 min 0,000 mm 0,0 UV-I 0 W/m 16,6 C 18,1 C 12,9 km/h (3 Bft) 100,00 %
07.06.2018 23:00 18,8 C 24,4 C 87 % 1012,3 hPa 0,0 l/m 7,4 km/h (2 Bft) O-NO 78 0 min 0,000 mm 0,0 UV-I 0 W/m 16,6 C 18,4 C 11,3 km/h (2 Bft) 100,00 %
07.06.2018 23:02 18,8 C 24,4 C 87 % 1012,3 hPa 0,0 l/m 6,7 km/h (2 Bft) O-NO 69 0 min 0,025 mm 0,0 UV-I 0 W/m 16,6 C 18,7 C 9,7 km/h (2 Bft) 92,00 %
07.06.2018 23:03 18,8 C 24,4 C 87 % 1012,3 hPa 0,0 l/m 6,8 km/h (2 Bft) O 94 0 min 0,000 mm 0,0 UV-I 0 W/m 16,6 C 18,6 C 12,9 km/h (3 Bft) 95,65 %
07.06.2018 23:04 18,8 C 24,4 C 87 % 1012,3 hPa 0,0 l/m 6,2 km/h (2 Bft) O-NO 72 0 min 0,000 mm 0,0 UV-I 0 W/m 16,6 C 18,8 C 9,7 km/h (2 Bft) 100,00 %
07.06.2018 23:05 18,7 C 24,4 C 87 % 1012,3 hPa 0,0 l/m 6,5 km/h (2 Bft) O 86 0 min 0,000 mm 0,0 UV-I 0 W/m 16,5 C 18,7 C 9,7 km/h (2 Bft) 95,65 %
07.06.2018 23:06 18,7 C 24,4 C 87 % 1012,3 hPa 0,0 l/m 5,5 km/h (1 Bft) O 84 0 min 0,000 mm 0,0 UV-I 0 W/m 16,5 C 18,7 C 11,3 km/h (2 Bft) 100,00 %
07.06.2018 23:07 18,7 C 24,4 C 87 % 1012,3 hPa 0,0 l/m 6,4 km/h (2 Bft) O 85 0 min 0,000 mm 0,0 UV-I 0 W/m 16,5 C 18,7 C 8,0 km/h (2 Bft) 95,45 %
07.06.2018 23:08 18,7 C 24,4 C 87 % 1012,3 hPa 0,0 l/m 5,0 km/h (1 Bft) O 82 0 min 0,000 mm 0,0 UV-I 0 W/m 16,5 C 18,7 C 8,0 km/h (2 Bft) 95,83 %
07.06.2018 23:09 18,7 C 24,4 C 87 % 1012,3 hPa 0,0 l/m 5,6 km/h (1 Bft) O 87 0 min 0,000 mm 0,0 UV-I 0 W/m 16,5 C 18,7 C 8,0 km/h (2 Bft) 100,00 %
07.06.2018 23:10 18,6 C 24,4 C 88 % 1012,3 hPa 0,0 l/m 5,9 km/h (2 Bft) O-NO 75 0 min 0,000 mm 0,0 UV-I 0 W/m 16,6 C 18,6 C 9,7 km/h (2 Bft) 95,83 %
07.06.2018 23:11 18,6 C 24,4 C 88 % 1012,2 hPa 0,0 l/m 4,4 km/h (1 Bft) O 80 0 min 0,000 mm 0,0 UV-I 0 W/m 16,6 C 18,6 C 6,4 km/h (2 Bft) 95,65 %
07.06.2018 23:12 18,5 C 24,4 C 88 % 1012,3 hPa 0,0 l/m 4,2 km/h (1 Bft) NO 53 0 min 0,000 mm 0,0 UV-I 0 W/m 16,5 C 18,5 C 4,8 km/h (1 Bft) 95,83 %
07.06.2018 23:13 18,5 C 24,4 C 88 % 1012,3 hPa 0,0 l/m 4,2 km/h (1 Bft) O-NO 67 0 min 0,000 mm 0,0 UV-I 0 W/m 16,5 C 18,5 C 6,4 km/h (2 Bft) 100,00 %
07.06.2018 23:14 18,4 C 24,4 C 88 % 1012,3 hPa 0,0 l/m 3,8 km/h (1 Bft) O-NO 67 0 min 0,000 mm 0,0 UV-I 0 W/m 16,4 C 18,4 C 4,8 km/h (1 Bft) 95,65 %
07.06.2018 23:15 18,3 C 24,4 C 88 % 1012,2 hPa 0,0 l/m 5,3 km/h (1 Bft) O-NO 71 0 min 0,000 mm 0,0 UV-I 0 W/m 16,3 C 18,3 C 8,0 km/h (2 Bft) 95,83 %
07.06.2018 23:16 18,3 C 24,4 C 88 % 1012,2 hPa 0,0 l/m 3,9 km/h (1 Bft) O-NO 75 0 min 0,000 mm 0,0 UV-I 0 W/m 16,3 C 18,3 C 6,4 km/h (2 Bft) 100,00 %
07.06.2018 23:17 18,3 C 24,4 C 89 % 1012,2 hPa 0,0 l/m 3,7 km/h (1 Bft) O-NO 74 0 min 0,000 mm 0,0 UV-I 0 W/m 16,5 C 18,3 C 6,4 km/h (2 Bft) 95,83 %
07.06.2018 23:18 18,3 C 24,4 C 89 % 1012,2 hPa 0,0 l/m 3,1 km/h (1 Bft) O-NO 72 0 min 0,000 mm 0,0 UV-I 0 W/m 16,5 C 18,3 C 6,4 km/h (2 Bft) 100,00 %
07.06.2018 23:19 18,3 C 24,4 C 88 % 1012,2 hPa 0,0 l/m 4,1 km/h (1 Bft) O 84 0 min 0,000 mm 0,0 UV-I 0 W/m 16,3 C 18,3 C 4,8 km/h (1 Bft) 95,83 %
07.06.2018 23:20 18,3 C 24,4 C 89 % 1012,2 hPa 0,0 l/m 4,7 km/h (1 Bft) O 86 0 min 0,000 mm 0,0 UV-I 0 W/m 16,5 C 18,3 C 6,4 km/h (2 Bft) 100,00 %
07.06.2018 23:21 18,3 C 24,4 C 89 % 1012,2 hPa 0,0 l/m 4,7 km/h (1 Bft) O 85 0 min 0,000 mm 0,0 UV-I 0 W/m 16,5 C 18,3 C 6,4 km/h (2 Bft) 88,89 %
07.06.2018 23:22 18,3 C 24,4 C 89 % 1012,2 hPa 0,0 l/m 3,8 km/h (1 Bft) O 93 0 min 0,000 mm 0,0 UV-I 0 W/m 16,5 C 18,3 C 4,8 km/h (1 Bft) 100,00 %
07.06.2018 23:23 18,3 C 24,4 C 89 % 1012,1 hPa 0,0 l/m 4,6 km/h (1 Bft) O-NO 70 0 min 0,000 mm 0,0 UV-I 0 W/m 16,5 C 18,3 C 6,4 km/h (2 Bft) 95,83 %
07.06.2018 23:24 18,3 C 24,4 C 89 % 1012,1 hPa 0,0 l/m 6,4 km/h (2 Bft) O-NO 65 0 min 0,000 mm 0,0 UV-I 0 W/m 16,5 C 18,3 C 9,7 km/h (2 Bft) 95,65 %
07.06.2018 23:25 18,3 C 24,4 C 89 % 1012,2 hPa 0,0 l/m 6,4 km/h (2 Bft) O-NO 75 0 min 0,000 mm 0,0 UV-I 0 W/m 16,5 C 18,3 C 9,7 km/h (2 Bft) 100,00 %
07.06.2018 23:26 18,3 C 24,4 C 89 % 1012,1 hPa 0,0 l/m 5,2 km/h (1 Bft) O 90 0 min 0,000 mm 0,0 UV-I 0 W/m 16,5 C 18,3 C 9,7 km/h (2 Bft) 91,30 %
07.06.2018 23:27 18,3 C 24,4 C 89 % 1012,1 hPa 0,0 l/m 6,5 km/h (2 Bft) O 91 0 min 0,000 mm 0,0 UV-I 0 W/m 16,5 C 18,3 C 11,3 km/h (2 Bft) 100,00 %
07.06.2018 23:28 18,3 C 24,4 C 88 % 1012,1 hPa 0,0 l/m 7,4 km/h (2 Bft) O 98 0 min 0,000 mm 0,0 UV-I 0 W/m 16,3 C 17,8 C 9,7 km/h (2 Bft) 95,83 %
07.06.2018 23:29 18,3 C 24,4 C 88 % 1012,1 hPa 0,0 l/m 5,7 km/h (1 Bft) O-SO 107 0 min 0,000 mm 0,0 UV-I 0 W/m 16,3 C 18,3 C 9,7 km/h (2 Bft) 95,65 %
07.06.2018 23:30 18,3 C 24,4 C 88 % 1012,2 hPa 0,0 l/m 6,8 km/h (2 Bft) O 98 0 min 0,000 mm 0,0 UV-I 0 W/m 16,3 C 18,1 C 11,3 km/h (2 Bft) 95,83 %
07.06.2018 23:31 18,3 C 24,4 C 89 % 1012,2 hPa 0,0 l/m 6,1 km/h (2 Bft) O 99 0 min 0,000 mm 0,0 UV-I 0 W/m 16,5 C 18,3 C 9,7 km/h (2 Bft) 95,65 %
07.06.2018 23:32 18,3 C 24,4 C 89 % 1012,2 hPa 0,0 l/m 6,6 km/h (2 Bft) O-SO 115 0 min 0,000 mm 0,0 UV-I 0 W/m 16,5 C 18,2 C 11,3 km/h (2 Bft) 95,83 %
07.06.2018 23:33 18,3 C 24,4 C 89 % 1012,1 hPa 0,0 l/m 5,9 km/h (2 Bft) O 92 0 min 0,000 mm 0,0 UV-I 0 W/m 16,5 C 18,3 C 9,7 km/h (2 Bft) 92,31 %
07.06.2018 23:34 18,3 C 24,4 C 89 % 1012,1 hPa 0,0 l/m 7,3 km/h (2 Bft) O 95 0 min 0,000 mm 0,0 UV-I 0 W/m 16,5 C 17,9 C 11,3 km/h (2 Bft) 100,00 %
07.06.2018 23:35 18,3 C 24,4 C 89 % 1012,2 hPa 0,0 l/m 8,1 km/h (2 Bft) O 100 0 min 0,000 mm 0,0 UV-I 0 W/m 16,5 C 17,5 C 11,3 km/h (2 Bft) 95,65 %
07.06.2018 23:36 18,3 C 24,4 C 89 % 1012,1 hPa 0,0 l/m 6,4 km/h (2 Bft) O 91 0 min 0,000 mm 0,0 UV-I 0 W/m 16,5 C 18,3 C 9,7 km/h (2 Bft) 100,00 %
07.06.2018 23:37 18,3 C 24,4 C 89 % 1012,1 hPa 0,0 l/m 10,3 km/h (2 Bft) O-NO 69 0 min 0,000 mm 0,0 UV-I 0 W/m 16,5 C 16,7 C 12,9 km/h (3 Bft) 95,65 %
07.06.2018 23:38 18,3 C 24,4 C 89 % 1012,1 hPa 0,0 l/m 7,6 km/h (2 Bft) O 82 0 min 0,000 mm 0,0 UV-I 0 W/m 16,5 C 17,7 C 12,9 km/h (3 Bft) 100,00 %
07.06.2018 23:39 18,3 C 24,4 C 89 % 1012,1 hPa 0,0 l/m 7,6 km/h (2 Bft) O-SO 109 0 min 0,000 mm 0,0 UV-I 0 W/m 16,5 C 17,7 C 12,9 km/h (3 Bft) 95,65 %
07.06.2018 23:40 18,3 C 24,4 C 89 % 1012,2 hPa 0,0 l/m 5,8 km/h (2 Bft) O 101 0 min 0,000 mm 0,0 UV-I 0 W/m 16,5 C 18,3 C 9,7 km/h (2 Bft) 95,83 %
07.06.2018 23:41 18,3 C 24,4 C 89 % 1012,2 hPa 0,0 l/m 5,9 km/h (2 Bft) O-SO 102 0 min 0,000 mm 0,0 UV-I 0 W/m 16,5 C 18,3 C 9,7 km/h (2 Bft) 100,00 %
07.06.2018 23:42 18,3 C 24,4 C 89 % 1012,1 hPa 0,0 l/m 6,3 km/h (2 Bft) O 84 0 min 0,000 mm 0,0 UV-I 0 W/m 16,5 C 18,3 C 9,7 km/h (2 Bft) 95,83 %
07.06.2018 23:43 18,3 C 24,4 C 89 % 1012,2 hPa 0,0 l/m 5,4 km/h (1 Bft) O-NO 78 0 min 0,000 mm 0,0 UV-I 0 W/m 16,5 C 18,3 C 6,4 km/h (2 Bft) 100,00 %
07.06.2018 23:44 18,3 C 24,4 C 89 % 1012,2 hPa 0,0 l/m 4,5 km/h (1 Bft) O-NO 67 0 min 0,000 mm 0,0 UV-I 0 W/m 16,5 C 18,3 C 6,4 km/h (2 Bft) 92,31 %
07.06.2018 23:45 18,3 C 24,4 C 89 % 1012,1 hPa 0,0 l/m 5,7 km/h (1 Bft) O 86 0 min 0,000 mm 0,0 UV-I 0 W/m 16,5 C 18,3 C 9,7 km/h (2 Bft) 100,00 %
07.06.2018 23:46 18,3 C 24,4 C 89 % 1012,2 hPa 0,0 l/m 5,2 km/h (1 Bft) O 83 0 min 0,000 mm 0,0 UV-I 0 W/m 16,5 C 18,3 C 6,4 km/h (2 Bft) 91,30 %
07.06.2018 23:47 18,2 C 24,4 C 89 % 1012,1 hPa 0,0 l/m 3,6 km/h (1 Bft) O 83 0 min 0,000 mm 0,0 UV-I 0 W/m 16,4 C 18,2 C 6,4 km/h (2 Bft) 96,15 %
07.06.2018 23:48 18,1 C 24,4 C 89 % 1012,1 hPa 0,0 l/m 4,8 km/h (1 Bft) O-NO 76 0 min 0,000 mm 0,0 UV-I 0 W/m 16,3 C 18,1 C 6,4 km/h (2 Bft) 91,67 %
07.06.2018 23:49 18,0 C 24,4 C 89 % 1012,1 hPa 0,0 l/m 3,9 km/h (1 Bft) O-NO 69 0 min 0,000 mm 0,0 UV-I 0 W/m 16,2 C 18,0 C 4,8 km/h (1 Bft) 95,83 %
07.06.2018 23:50 17,9 C 24,4 C 89 % 1012,1 hPa 0,0 l/m 4,4 km/h (1 Bft) O-NO 71 0 min 0,000 mm 0,0 UV-I 0 W/m 16,1 C 17,9 C 6,4 km/h (2 Bft) 100,00 %
07.06.2018 23:51 17,8 C 24,4 C 90 % 1012,1 hPa 0,0 l/m 4,5 km/h (1 Bft) O-NO 70 0 min 0,000 mm 0,0 UV-I 0 W/m 16,1 C 17,8 C 6,4 km/h (2 Bft) 95,83 %
07.06.2018 23:52 17,8 C 24,4 C 90 % 1012,1 hPa 0,0 l/m 3,9 km/h (1 Bft) O-NO 77 0 min 0,000 mm 0,0 UV-I 0 W/m 16,1 C 17,8 C 4,8 km/h (1 Bft) 100,00 %
07.06.2018 23:53 17,7 C 24,4 C 90 % 1012,1 hPa 0,0 l/m 3,8 km/h (1 Bft) O-NO 68 0 min 0,000 mm 0,0 UV-I 0 W/m 16,0 C 17,7 C 6,4 km/h (2 Bft) 91,67 %
07.06.2018 23:54 17,7 C 24,4 C 90 % 1012,1 hPa 0,0 l/m 3,6 km/h (1 Bft) O-NO 73 0 min 0,000 mm 0,0 UV-I 0 W/m 16,0 C 17,7 C 6,4 km/h (2 Bft) 95,65 %
07.06.2018 23:55 17,8 C 24,4 C 90 % 1012,1 hPa 0,0 l/m 4,6 km/h (1 Bft) O-NO 78 0 min 0,000 mm 0,0 UV-I 0 W/m 16,1 C 17,8 C 4,8 km/h (1 Bft) 95,83 %
07.06.2018 23:56 17,8 C 24,4 C 90 % 1012,1 hPa 0,0 l/m 3,9 km/h (1 Bft) O 80 0 min 0,000 mm 0,0 UV-I 0 W/m 16,1 C 17,8 C 4,8 km/h (1 Bft) 100,00 %
07.06.2018 23:57 17,8 C 24,4 C 90 % 1012,1 hPa 0,0 l/m 4,0 km/h (1 Bft) O 98 0 min 0,000 mm 0,0 UV-I 0 W/m 16,1 C 17,8 C 9,7 km/h (2 Bft) 95,83 %
07.06.2018 23:58 17,8 C 24,4 C 90 % 1012,1 hPa 0,0 l/m 3,5 km/h (1 Bft) O 84 0 min 0,000 mm 0,0 UV-I 0 W/m 16,1 C 17,8 C 6,4 km/h (2 Bft) 92,31 %
07.06.2018 23:59 17,8 C 24,4 C 90 % 1012,1 hPa 0,0 l/m 3,6 km/h (1 Bft) O 84 0 min 0,000 mm 0,0 UV-I 0 W/m 16,1 C 17,8 C 4,8 km/h (1 Bft) 100,00 %
_ Min-Zeit 05:31 06:02 17:02 20:06 - 02:02 - - - - - - 05:31 04:04 02:02 11:43
Minimum _ 15,3 C 23,9 C 55 % 1011,7 hPa - 0,0 km/h (0 Bft) - - - - - - 14,2 C 12,9 C 0,0 km/h (0 Bft) 82,61 %
_ Max-Zeit 14:19 00:00 05:43 10:13 00:00 18:50 - - 12:08 14:00 13:15 13:03 12:11 14:50 18:08 00:03
Maximum _ 26,1 C 25,0 C 95 % 1014,5 hPa 0,0 l/m 25,8 km/h
O (4 Bft)
- - 2 min 0,609 mm 6,5 UV-I 1181 W/m 18,0 C 25,6 C 32,2 km/h
O (5 Bft)
100,00 %
Durchschnitt _ 20,2 C 24,5 C 78 % 1012,8 hPa #0,0 l/m 10,9 km/h (2 Bft) O - #6:17 h #4,521 mm 2,7 UV-I 353 W/m 16,1 C 18,8 C 15,2 km/h (3 Bft) 97,61 %